<?xml version="1.0" encoding="utf-8"?>
<gpx xmlns:xsi="http://www.w3.org/2001/XMLSchema-instance" xmlns:xsd="http://www.w3.org/2001/XMLSchema" version="1.1" creator="Shapelink.com" xmlns="http://www.topografix.com/GPX/1/1" xmlns:gpxtpx="http://www.garmin.com/xmlschemas/TrackPointExtension/v1">
  <metadata>
    <name>Kajakpaddling 4.37 km, 2017-06-17</name>
    <desc></desc>
    <author><name>Kim Kronberg</name></author> 
    <time>2017-06-17T10:18:09Z</time>
  </metadata>
  <trk>
    <name>Kajakpaddling 4.37 km, 2017-06-17</name>
    <trkseg>
      <trkpt lat="60.115541933237" lon="21.525182216156">
        <ele>0</ele>
        <time>2017-06-17T10:18:09Z</time>
      </trkpt>
      <trkpt lat="60.115536485002" lon="21.525173079885">
        <ele>0</ele>
        <time>2017-06-17T10:18:10Z</time>
      </trkpt>
      <trkpt lat="60.115534305708" lon="21.525171487324">
        <ele>0</ele>
        <time>2017-06-17T10:18:11Z</time>
      </trkpt>
      <trkpt lat="60.115535479174" lon="21.525172325514">
        <ele>0</ele>
        <time>2017-06-17T10:18:12Z</time>
      </trkpt>
      <trkpt lat="60.115526510541" lon="21.525162099596">
        <ele>0</ele>
        <time>2017-06-17T10:18:13Z</time>
      </trkpt>
      <trkpt lat="60.115529444206" lon="21.525163692157">
        <ele>0</ele>
        <time>2017-06-17T10:18:14Z</time>
      </trkpt>
      <trkpt lat="60.115523409238" lon="21.525158579198">
        <ele>0</ele>
        <time>2017-06-17T10:18:15Z</time>
      </trkpt>
      <trkpt lat="60.115513937691" lon="21.525153466239">
        <ele>0</ele>
        <time>2017-06-17T10:18:16Z</time>
      </trkpt>
      <trkpt lat="60.115502957402" lon="21.525142234493">
        <ele>0</ele>
        <time>2017-06-17T10:18:17Z</time>
      </trkpt>
      <trkpt lat="60.11550061047" lon="21.525139468466">
        <ele>0</ele>
        <time>2017-06-17T10:18:18Z</time>
      </trkpt>
      <trkpt lat="60.115503292678" lon="21.525141983036">
        <ele>0</ele>
        <time>2017-06-17T10:18:19Z</time>
      </trkpt>
      <trkpt lat="60.115491977113" lon="21.525133349679">
        <ele>0</ele>
        <time>2017-06-17T10:18:20Z</time>
      </trkpt>
      <trkpt lat="60.115480242453" lon="21.52512069301">
        <ele>0</ele>
        <time>2017-06-17T10:18:21Z</time>
      </trkpt>
      <trkpt lat="60.115474123666" lon="21.52511398749">
        <ele>0</ele>
        <time>2017-06-17T10:18:22Z</time>
      </trkpt>
      <trkpt lat="60.115479320444" lon="21.52511901663">
        <ele>0</ele>
        <time>2017-06-17T10:18:23Z</time>
      </trkpt>
      <trkpt lat="60.11546624468" lon="21.52510392921">
        <ele>0</ele>
        <time>2017-06-17T10:18:24Z</time>
      </trkpt>
      <trkpt lat="60.115454593839" lon="21.525086243401">
        <ele>0</ele>
        <time>2017-06-17T10:18:25Z</time>
      </trkpt>
      <trkpt lat="60.115450905803" lon="21.525081549537">
        <ele>0</ele>
        <time>2017-06-17T10:18:26Z</time>
      </trkpt>
      <trkpt lat="60.115454426201" lon="21.525086075763">
        <ele>0</ele>
        <time>2017-06-17T10:18:27Z</time>
      </trkpt>
      <trkpt lat="60.11544026079" lon="21.525053721629">
        <ele>0</ele>
        <time>2017-06-17T10:18:28Z</time>
      </trkpt>
      <trkpt lat="60.115437662401" lon="21.525042825159">
        <ele>0</ele>
        <time>2017-06-17T10:18:29Z</time>
      </trkpt>
      <trkpt lat="60.115430789243" lon="21.525023798246">
        <ele>0</ele>
        <time>2017-06-17T10:18:30Z</time>
      </trkpt>
      <trkpt lat="60.115425843922" lon="21.525022289504">
        <ele>0</ele>
        <time>2017-06-17T10:18:31Z</time>
      </trkpt>
      <trkpt lat="60.115418803126" lon="21.52499999365">
        <ele>0</ele>
        <time>2017-06-17T10:18:32Z</time>
      </trkpt>
      <trkpt lat="60.115413019615" lon="21.525001250935">
        <ele>0</ele>
        <time>2017-06-17T10:18:33Z</time>
      </trkpt>
      <trkpt lat="60.115404386258" lon="21.5249790389">
        <ele>0</ele>
        <time>2017-06-17T10:18:34Z</time>
      </trkpt>
      <trkpt lat="60.115397848376" lon="21.524982056384">
        <ele>0</ele>
        <time>2017-06-17T10:18:35Z</time>
      </trkpt>
      <trkpt lat="60.115389298838" lon="21.524963783842">
        <ele>0</ele>
        <time>2017-06-17T10:18:36Z</time>
      </trkpt>
      <trkpt lat="60.115379994929" lon="21.524953138829">
        <ele>0</ele>
        <time>2017-06-17T10:18:37Z</time>
      </trkpt>
      <trkpt lat="60.115372870314" lon="21.524962023643">
        <ele>0</ele>
        <time>2017-06-17T10:18:38Z</time>
      </trkpt>
      <trkpt lat="60.115363817862" lon="21.524959425254">
        <ele>0</ele>
        <time>2017-06-17T10:18:39Z</time>
      </trkpt>
      <trkpt lat="60.115356777066" lon="21.524961101634">
        <ele>0</ele>
        <time>2017-06-17T10:18:40Z</time>
      </trkpt>
      <trkpt lat="60.115361722387" lon="21.524960011987">
        <ele>0</ele>
        <time>2017-06-17T10:18:41Z</time>
      </trkpt>
      <trkpt lat="60.115342360198" lon="21.524960850177">
        <ele>0</ele>
        <time>2017-06-17T10:18:42Z</time>
      </trkpt>
      <trkpt lat="60.115331463728" lon="21.524965376403">
        <ele>0</ele>
        <time>2017-06-17T10:18:43Z</time>
      </trkpt>
      <trkpt lat="60.115327356597" lon="21.524965879317">
        <ele>0</ele>
        <time>2017-06-17T10:18:44Z</time>
      </trkpt>
      <trkpt lat="60.11531788505" lon="21.524967052783">
        <ele>0</ele>
        <time>2017-06-17T10:18:45Z</time>
      </trkpt>
      <trkpt lat="60.115306234209" lon="21.524972668656">
        <ele>0</ele>
        <time>2017-06-17T10:18:46Z</time>
      </trkpt>
      <trkpt lat="60.115313945557" lon="21.524969232077">
        <ele>0</ele>
        <time>2017-06-17T10:18:47Z</time>
      </trkpt>
      <trkpt lat="60.115296511205" lon="21.524977530158">
        <ele>0</ele>
        <time>2017-06-17T10:18:48Z</time>
      </trkpt>
      <trkpt lat="60.115284441269" lon="21.5249874208">
        <ele>0</ele>
        <time>2017-06-17T10:18:49Z</time>
      </trkpt>
      <trkpt lat="60.115291984979" lon="21.524981218194">
        <ele>0</ele>
        <time>2017-06-17T10:18:50Z</time>
      </trkpt>
      <trkpt lat="60.11527429917" lon="21.524994629234">
        <ele>0</ele>
        <time>2017-06-17T10:18:51Z</time>
      </trkpt>
      <trkpt lat="60.115263067424" lon="21.525011057758">
        <ele>0</ele>
        <time>2017-06-17T10:18:52Z</time>
      </trkpt>
      <trkpt lat="60.115253009144" lon="21.52502513935">
        <ele>0</ele>
        <time>2017-06-17T10:18:53Z</time>
      </trkpt>
      <trkpt lat="60.115254936981" lon="21.525018936744">
        <ele>0</ele>
        <time>2017-06-17T10:18:54Z</time>
      </trkpt>
      <trkpt lat="60.115246052167" lon="21.525041400236">
        <ele>0</ele>
        <time>2017-06-17T10:18:55Z</time>
      </trkpt>
      <trkpt lat="60.115251332764" lon="21.525028073015">
        <ele>0</ele>
        <time>2017-06-17T10:18:56Z</time>
      </trkpt>
      <trkpt lat="60.115233060222" lon="21.525058164036">
        <ele>0</ele>
        <time>2017-06-17T10:18:57Z</time>
      </trkpt>
      <trkpt lat="60.115227025254" lon="21.525069228144">
        <ele>0</ele>
        <time>2017-06-17T10:18:58Z</time>
      </trkpt>
      <trkpt lat="60.115220235915" lon="21.525080376071">
        <ele>0</ele>
        <time>2017-06-17T10:18:59Z</time>
      </trkpt>
      <trkpt lat="60.115209423264" lon="21.525101666097">
        <ele>0</ele>
        <time>2017-06-17T10:19:00Z</time>
      </trkpt>
      <trkpt lat="60.115205902866" lon="21.525106695237">
        <ele>0</ele>
        <time>2017-06-17T10:19:01Z</time>
      </trkpt>
      <trkpt lat="60.115195090215" lon="21.52512907491">
        <ele>0</ele>
        <time>2017-06-17T10:19:02Z</time>
      </trkpt>
      <trkpt lat="60.11519131836" lon="21.525138462638">
        <ele>0</ele>
        <time>2017-06-17T10:19:03Z</time>
      </trkpt>
      <trkpt lat="60.115183104098" lon="21.525153969153">
        <ele>0</ele>
        <time>2017-06-17T10:19:04Z</time>
      </trkpt>
      <trkpt lat="60.115176314759" lon="21.525176181188">
        <ele>0</ele>
        <time>2017-06-17T10:19:05Z</time>
      </trkpt>
      <trkpt lat="60.115172375266" lon="21.525183976355">
        <ele>0</ele>
        <time>2017-06-17T10:19:06Z</time>
      </trkpt>
      <trkpt lat="60.115159802416" lon="21.525213899738">
        <ele>0</ele>
        <time>2017-06-17T10:19:07Z</time>
      </trkpt>
      <trkpt lat="60.115157287846" lon="21.525221694905">
        <ele>0</ele>
        <time>2017-06-17T10:19:08Z</time>
      </trkpt>
      <trkpt lat="60.115147983937" lon="21.525243152569">
        <ele>0</ele>
        <time>2017-06-17T10:19:09Z</time>
      </trkpt>
      <trkpt lat="60.115141110779" lon="21.525263688224">
        <ele>0</ele>
        <time>2017-06-17T10:19:10Z</time>
      </trkpt>
      <trkpt lat="60.115135243449" lon="21.52527575816">
        <ele>0</ele>
        <time>2017-06-17T10:19:11Z</time>
      </trkpt>
      <trkpt lat="60.115125352807" lon="21.525304088982">
        <ele>0</ele>
        <time>2017-06-17T10:19:12Z</time>
      </trkpt>
      <trkpt lat="60.115123005875" lon="21.525311213597">
        <ele>0</ele>
        <time>2017-06-17T10:19:13Z</time>
      </trkpt>
      <trkpt lat="60.115110935939" lon="21.525340466428">
        <ele>0</ele>
        <time>2017-06-17T10:19:14Z</time>
      </trkpt>
      <trkpt lat="60.11510666117" lon="21.525353206916">
        <ele>0</ele>
        <time>2017-06-17T10:19:15Z</time>
      </trkpt>
      <trkpt lat="60.115098446908" lon="21.525368881069">
        <ele>0</ele>
        <time>2017-06-17T10:19:16Z</time>
      </trkpt>
      <trkpt lat="60.115088304809" lon="21.525392518027">
        <ele>0</ele>
        <time>2017-06-17T10:19:17Z</time>
      </trkpt>
      <trkpt lat="60.115083024212" lon="21.525400983746">
        <ele>0</ele>
        <time>2017-06-17T10:19:18Z</time>
      </trkpt>
      <trkpt lat="60.115070451362" lon="21.52542998512">
        <ele>0</ele>
        <time>2017-06-17T10:19:19Z</time>
      </trkpt>
      <trkpt lat="60.115066930964" lon="21.52543836702">
        <ele>0</ele>
        <time>2017-06-17T10:19:20Z</time>
      </trkpt>
      <trkpt lat="60.115054358114" lon="21.525461249607">
        <ele>0</ele>
        <time>2017-06-17T10:19:21Z</time>
      </trkpt>
      <trkpt lat="60.115046814404" lon="21.525478181045">
        <ele>0</ele>
        <time>2017-06-17T10:19:22Z</time>
      </trkpt>
      <trkpt lat="60.11504044416" lon="21.525487149678">
        <ele>0</ele>
        <time>2017-06-17T10:19:23Z</time>
      </trkpt>
      <trkpt lat="60.115025692016" lon="21.525512546835">
        <ele>0</ele>
        <time>2017-06-17T10:19:24Z</time>
      </trkpt>
      <trkpt lat="60.115022758351" lon="21.525519503812">
        <ele>0</ele>
        <time>2017-06-17T10:19:25Z</time>
      </trkpt>
      <trkpt lat="60.115010101682" lon="21.525535345603">
        <ele>0</ele>
        <time>2017-06-17T10:19:26Z</time>
      </trkpt>
      <trkpt lat="60.115000378678" lon="21.525551606489">
        <ele>0</ele>
        <time>2017-06-17T10:19:27Z</time>
      </trkpt>
      <trkpt lat="60.114996523004" lon="21.525553785783">
        <ele>0</ele>
        <time>2017-06-17T10:19:28Z</time>
      </trkpt>
      <trkpt lat="60.114981603222" lon="21.5255741538">
        <ele>0</ele>
        <time>2017-06-17T10:19:29Z</time>
      </trkpt>
      <trkpt lat="60.114977076996" lon="21.525578763845">
        <ele>0</ele>
        <time>2017-06-17T10:19:30Z</time>
      </trkpt>
      <trkpt lat="60.114965761431" lon="21.525592510161">
        <ele>0</ele>
        <time>2017-06-17T10:19:31Z</time>
      </trkpt>
      <trkpt lat="60.114956206065" lon="21.525609022504">
        <ele>0</ele>
        <time>2017-06-17T10:19:32Z</time>
      </trkpt>
      <trkpt lat="60.114951512201" lon="21.525613632549">
        <ele>0</ele>
        <time>2017-06-17T10:19:33Z</time>
      </trkpt>
      <trkpt lat="60.114937598247" lon="21.525636012222">
        <ele>0</ele>
        <time>2017-06-17T10:19:34Z</time>
      </trkpt>
      <trkpt lat="60.114934916039" lon="21.525640035534">
        <ele>0</ele>
        <time>2017-06-17T10:19:35Z</time>
      </trkpt>
      <trkpt lat="60.114922091732" lon="21.525661996112">
        <ele>0</ele>
        <time>2017-06-17T10:19:36Z</time>
      </trkpt>
      <trkpt lat="60.114917314049" lon="21.525675155695">
        <ele>0</ele>
        <time>2017-06-17T10:19:37Z</time>
      </trkpt>
      <trkpt lat="60.11490968652" lon="21.525685465432">
        <ele>0</ele>
        <time>2017-06-17T10:19:38Z</time>
      </trkpt>
      <trkpt lat="60.114898035679" lon="21.525708767114">
        <ele>0</ele>
        <time>2017-06-17T10:19:39Z</time>
      </trkpt>
      <trkpt lat="60.114895185833" lon="21.525715304996">
        <ele>0</ele>
        <time>2017-06-17T10:19:40Z</time>
      </trkpt>
      <trkpt lat="60.114882612983" lon="21.525734918642">
        <ele>0</ele>
        <time>2017-06-17T10:19:41Z</time>
      </trkpt>
      <trkpt lat="60.114874398721" lon="21.525750928071">
        <ele>0</ele>
        <time>2017-06-17T10:19:42Z</time>
      </trkpt>
      <trkpt lat="60.114868279934" lon="21.525757633591">
        <ele>0</ele>
        <time>2017-06-17T10:19:43Z</time>
      </trkpt>
      <trkpt lat="60.114854198342" lon="21.525781689644">
        <ele>0</ele>
        <time>2017-06-17T10:19:44Z</time>
      </trkpt>
      <trkpt lat="60.114851516134" lon="21.525787137879">
        <ele>0</ele>
        <time>2017-06-17T10:19:45Z</time>
      </trkpt>
      <trkpt lat="60.114838608008" lon="21.525804907507">
        <ele>0</ele>
        <time>2017-06-17T10:19:46Z</time>
      </trkpt>
      <trkpt lat="60.114831818669" lon="21.525817396538">
        <ele>0</ele>
        <time>2017-06-17T10:19:47Z</time>
      </trkpt>
      <trkpt lat="60.114824610235" lon="21.525824185877">
        <ele>0</ele>
        <time>2017-06-17T10:19:48Z</time>
      </trkpt>
      <trkpt lat="60.114812288842" lon="21.52584740374">
        <ele>0</ele>
        <time>2017-06-17T10:19:49Z</time>
      </trkpt>
      <trkpt lat="60.114809271358" lon="21.525853773984">
        <ele>0</ele>
        <time>2017-06-17T10:19:50Z</time>
      </trkpt>
      <trkpt lat="60.114797117603" lon="21.52587506401">
        <ele>0</ele>
        <time>2017-06-17T10:19:51Z</time>
      </trkpt>
      <trkpt lat="60.114791334092" lon="21.525888977964">
        <ele>0</ele>
        <time>2017-06-17T10:19:52Z</time>
      </trkpt>
      <trkpt lat="60.114784209477" lon="21.525899036244">
        <ele>0</ele>
        <time>2017-06-17T10:19:53Z</time>
      </trkpt>
      <trkpt lat="60.11477222336" lon="21.525924601039">
        <ele>0</ele>
        <time>2017-06-17T10:19:54Z</time>
      </trkpt>
      <trkpt lat="60.114768283867" lon="21.525930468369">
        <ele>0</ele>
        <time>2017-06-17T10:19:55Z</time>
      </trkpt>
      <trkpt lat="60.11475545956" lon="21.525954608241">
        <ele>0</ele>
        <time>2017-06-17T10:19:56Z</time>
      </trkpt>
      <trkpt lat="60.114751184791" lon="21.525964498883">
        <ele>0</ele>
        <time>2017-06-17T10:19:57Z</time>
      </trkpt>
      <trkpt lat="60.114741294149" lon="21.525978831932">
        <ele>0</ele>
        <time>2017-06-17T10:19:58Z</time>
      </trkpt>
      <trkpt lat="60.114730900593" lon="21.525996098646">
        <ele>0</ele>
        <time>2017-06-17T10:19:59Z</time>
      </trkpt>
      <trkpt lat="60.114724530349" lon="21.526003474718">
        <ele>0</ele>
        <time>2017-06-17T10:20:00Z</time>
      </trkpt>
      <trkpt lat="60.114712208956" lon="21.526018813595">
        <ele>0</ele>
        <time>2017-06-17T10:20:01Z</time>
      </trkpt>
      <trkpt lat="60.114705084341" lon="21.526034403929">
        <ele>0</ele>
        <time>2017-06-17T10:20:02Z</time>
      </trkpt>
      <trkpt lat="60.114697372993" lon="21.526040103621">
        <ele>0</ele>
        <time>2017-06-17T10:20:03Z</time>
      </trkpt>
      <trkpt lat="60.114682201754" lon="21.526057035059">
        <ele>0</ele>
        <time>2017-06-17T10:20:04Z</time>
      </trkpt>
      <trkpt lat="60.114679100451" lon="21.52606114219">
        <ele>0</ele>
        <time>2017-06-17T10:20:05Z</time>
      </trkpt>
      <trkpt lat="60.114664599764" lon="21.526074720868">
        <ele>0</ele>
        <time>2017-06-17T10:20:06Z</time>
      </trkpt>
      <trkpt lat="60.11465487676" lon="21.526085365881">
        <ele>0</ele>
        <time>2017-06-17T10:20:07Z</time>
      </trkpt>
      <trkpt lat="60.114648841792" lon="21.526088467184">
        <ele>0</ele>
        <time>2017-06-17T10:20:08Z</time>
      </trkpt>
      <trkpt lat="60.114633167639" lon="21.526105314803">
        <ele>0</ele>
        <time>2017-06-17T10:20:09Z</time>
      </trkpt>
      <trkpt lat="60.114628473775" lon="21.526107829373">
        <ele>0</ele>
        <time>2017-06-17T10:20:10Z</time>
      </trkpt>
      <trkpt lat="60.11461548183" lon="21.526118809662">
        <ele>0</ele>
        <time>2017-06-17T10:20:11Z</time>
      </trkpt>
      <trkpt lat="60.11460458536" lon="21.526134148539">
        <ele>0</ele>
        <time>2017-06-17T10:20:12Z</time>
      </trkpt>
      <trkpt lat="60.114599640039" lon="21.526134399996">
        <ele>0</ele>
        <time>2017-06-17T10:20:13Z</time>
      </trkpt>
      <trkpt lat="60.114584384981" lon="21.526154600375">
        <ele>0</ele>
        <time>2017-06-17T10:20:14Z</time>
      </trkpt>
      <trkpt lat="60.114580110212" lon="21.526157366402">
        <ele>0</ele>
        <time>2017-06-17T10:20:15Z</time>
      </trkpt>
      <trkpt lat="60.114567788819" lon="21.52617345965">
        <ele>0</ele>
        <time>2017-06-17T10:20:16Z</time>
      </trkpt>
      <trkpt lat="60.114562508222" lon="21.526182260645">
        <ele>0</ele>
        <time>2017-06-17T10:20:17Z</time>
      </trkpt>
      <trkpt lat="60.114552449942" lon="21.526197431884">
        <ele>0</ele>
        <time>2017-06-17T10:20:18Z</time>
      </trkpt>
      <trkpt lat="60.114540715282" lon="21.526222661403">
        <ele>0</ele>
        <time>2017-06-17T10:20:19Z</time>
      </trkpt>
      <trkpt lat="60.114535937599" lon="21.526228864009">
        <ele>0</ele>
        <time>2017-06-17T10:20:20Z</time>
      </trkpt>
      <trkpt lat="60.114524454396" lon="21.52625727865">
        <ele>0</ele>
        <time>2017-06-17T10:20:21Z</time>
      </trkpt>
      <trkpt lat="60.114520095808" lon="21.526263397437">
        <ele>0</ele>
        <time>2017-06-17T10:20:22Z</time>
      </trkpt>
      <trkpt lat="60.1145090317" lon="21.526291057707">
        <ele>0</ele>
        <time>2017-06-17T10:20:23Z</time>
      </trkpt>
      <trkpt lat="60.114506768587" lon="21.526304720204">
        <ele>0</ele>
        <time>2017-06-17T10:20:24Z</time>
      </trkpt>
      <trkpt lat="60.114494447194" lon="21.526332548112">
        <ele>0</ele>
        <time>2017-06-17T10:20:25Z</time>
      </trkpt>
      <trkpt lat="60.114487909312" lon="21.526348725179">
        <ele>0</ele>
        <time>2017-06-17T10:20:26Z</time>
      </trkpt>
      <trkpt lat="60.114478605403" lon="21.526364986065">
        <ele>0</ele>
        <time>2017-06-17T10:20:27Z</time>
      </trkpt>
      <trkpt lat="60.114470055865" lon="21.526381917503">
        <ele>0</ele>
        <time>2017-06-17T10:20:28Z</time>
      </trkpt>
      <trkpt lat="60.114462428336" lon="21.526391891964">
        <ele>0</ele>
        <time>2017-06-17T10:20:29Z</time>
      </trkpt>
      <trkpt lat="60.114447676192" lon="21.526412008524">
        <ele>0</ele>
        <time>2017-06-17T10:20:30Z</time>
      </trkpt>
      <trkpt lat="60.114444993984" lon="21.526417289121">
        <ele>0</ele>
        <time>2017-06-17T10:20:31Z</time>
      </trkpt>
      <trkpt lat="60.114428649279" lon="21.526433885283">
        <ele>0</ele>
        <time>2017-06-17T10:20:32Z</time>
      </trkpt>
      <trkpt lat="60.114422781949" lon="21.526439417337">
        <ele>0</ele>
        <time>2017-06-17T10:20:33Z</time>
      </trkpt>
      <trkpt lat="60.114408113624" lon="21.526448805065">
        <ele>0</ele>
        <time>2017-06-17T10:20:34Z</time>
      </trkpt>
      <trkpt lat="60.114398893534" lon="21.526455594404">
        <ele>0</ele>
        <time>2017-06-17T10:20:35Z</time>
      </trkpt>
      <trkpt lat="60.114389421987" lon="21.526458528069">
        <ele>0</ele>
        <time>2017-06-17T10:20:36Z</time>
      </trkpt>
      <trkpt lat="60.114374334567" lon="21.526464060123">
        <ele>0</ele>
        <time>2017-06-17T10:20:37Z</time>
      </trkpt>
      <trkpt lat="60.114370646531" lon="21.526462132286">
        <ele>0</ele>
        <time>2017-06-17T10:20:38Z</time>
      </trkpt>
      <trkpt lat="60.114352960722" lon="21.526468418711">
        <ele>0</ele>
        <time>2017-06-17T10:20:39Z</time>
      </trkpt>
      <trkpt lat="60.11434809922" lon="21.526469005444">
        <ele>0</ele>
        <time>2017-06-17T10:20:40Z</time>
      </trkpt>
      <trkpt lat="60.114335945465" lon="21.526473112575">
        <ele>0</ele>
        <time>2017-06-17T10:20:41Z</time>
      </trkpt>
      <trkpt lat="60.114324462262" lon="21.526478309353">
        <ele>0</ele>
        <time>2017-06-17T10:20:42Z</time>
      </trkpt>
      <trkpt lat="60.114318930208" lon="21.526476716792">
        <ele>0</ele>
        <time>2017-06-17T10:20:43Z</time>
      </trkpt>
      <trkpt lat="60.114302920779" lon="21.526487445624">
        <ele>0</ele>
        <time>2017-06-17T10:20:44Z</time>
      </trkpt>
      <trkpt lat="60.1142994842" lon="21.52648861909">
        <ele>0</ele>
        <time>2017-06-17T10:20:45Z</time>
      </trkpt>
      <trkpt lat="60.114283810047" lon="21.526496330438">
        <ele>0</ele>
        <time>2017-06-17T10:20:46Z</time>
      </trkpt>
      <trkpt lat="60.11427685307" lon="21.526501024302">
        <ele>0</ele>
        <time>2017-06-17T10:20:47Z</time>
      </trkpt>
      <trkpt lat="60.11426679479" lon="21.526503874148">
        <ele>0</ele>
        <time>2017-06-17T10:20:48Z</time>
      </trkpt>
      <trkpt lat="60.114255479225" lon="21.526510160573">
        <ele>0</ele>
        <time>2017-06-17T10:20:49Z</time>
      </trkpt>
      <trkpt lat="60.114247851696" lon="21.526508651831">
        <ele>0</ele>
        <time>2017-06-17T10:20:50Z</time>
      </trkpt>
      <trkpt lat="60.114232596638" lon="21.52651879393">
        <ele>0</ele>
        <time>2017-06-17T10:20:51Z</time>
      </trkpt>
      <trkpt lat="60.114228070412" lon="21.526521057043">
        <ele>0</ele>
        <time>2017-06-17T10:20:52Z</time>
      </trkpt>
      <trkpt lat="60.114212396259" lon="21.526526840554">
        <ele>0</ele>
        <time>2017-06-17T10:20:53Z</time>
      </trkpt>
      <trkpt lat="60.114204936368" lon="21.5265296904">
        <ele>0</ele>
        <time>2017-06-17T10:20:54Z</time>
      </trkpt>
      <trkpt lat="60.114188172568" lon="21.526531869694">
        <ele>0</ele>
        <time>2017-06-17T10:20:55Z</time>
      </trkpt>
      <trkpt lat="60.11418129941" lon="21.526534216626">
        <ele>0</ele>
        <time>2017-06-17T10:20:56Z</time>
      </trkpt>
      <trkpt lat="60.114169229474" lon="21.526533126979">
        <ele>0</ele>
        <time>2017-06-17T10:20:57Z</time>
      </trkpt>
      <trkpt lat="60.114157159538" lon="21.526536563558">
        <ele>0</ele>
        <time>2017-06-17T10:20:58Z</time>
      </trkpt>
      <trkpt lat="60.114151376027" lon="21.526533546074">
        <ele>0</ele>
        <time>2017-06-17T10:20:59Z</time>
      </trkpt>
      <trkpt lat="60.114132432933" lon="21.526538742852">
        <ele>0</ele>
        <time>2017-06-17T10:21:00Z</time>
      </trkpt>
      <trkpt lat="60.11412765525" lon="21.526538239938">
        <ele>0</ele>
        <time>2017-06-17T10:21:01Z</time>
      </trkpt>
      <trkpt lat="60.114114663305" lon="21.526539916318">
        <ele>0</ele>
        <time>2017-06-17T10:21:02Z</time>
      </trkpt>
      <trkpt lat="60.114103766835" lon="21.526547879123">
        <ele>0</ele>
        <time>2017-06-17T10:21:03Z</time>
      </trkpt>
      <trkpt lat="60.114094211469" lon="21.526548465856">
        <ele>0</ele>
        <time>2017-06-17T10:21:04Z</time>
      </trkpt>
      <trkpt lat="60.114080884248" lon="21.526560535792">
        <ele>0</ele>
        <time>2017-06-17T10:21:05Z</time>
      </trkpt>
      <trkpt lat="60.11407484928" lon="21.526562966543">
        <ele>0</ele>
        <time>2017-06-17T10:21:06Z</time>
      </trkpt>
      <trkpt lat="60.114057498747" lon="21.526574365927">
        <ele>0</ele>
        <time>2017-06-17T10:21:07Z</time>
      </trkpt>
      <trkpt lat="60.114052804883" lon="21.526579311248">
        <ele>0</ele>
        <time>2017-06-17T10:21:08Z</time>
      </trkpt>
      <trkpt lat="60.114039310024" lon="21.526587609329">
        <ele>0</ele>
        <time>2017-06-17T10:21:09Z</time>
      </trkpt>
      <trkpt lat="60.114029167925" lon="21.52659758379">
        <ele>0</ele>
        <time>2017-06-17T10:21:10Z</time>
      </trkpt>
      <trkpt lat="60.114022797681" lon="21.526598254342">
        <ele>0</ele>
        <time>2017-06-17T10:21:11Z</time>
      </trkpt>
      <trkpt lat="60.114007458804" lon="21.526613928495">
        <ele>0</ele>
        <time>2017-06-17T10:21:12Z</time>
      </trkpt>
      <trkpt lat="60.114003016397" lon="21.526614934323">
        <ele>0</ele>
        <time>2017-06-17T10:21:13Z</time>
      </trkpt>
      <trkpt lat="60.113987509882" lon="21.526630105562">
        <ele>0</ele>
        <time>2017-06-17T10:21:14Z</time>
      </trkpt>
      <trkpt lat="60.113981307276" lon="21.526635805254">
        <ele>0</ele>
        <time>2017-06-17T10:21:15Z</time>
      </trkpt>
      <trkpt lat="60.113970243168" lon="21.526645612077">
        <ele>0</ele>
        <time>2017-06-17T10:21:16Z</time>
      </trkpt>
      <trkpt lat="60.113961609811" lon="21.526656173271">
        <ele>0</ele>
        <time>2017-06-17T10:21:17Z</time>
      </trkpt>
      <trkpt lat="60.113951048617" lon="21.526665560999">
        <ele>0</ele>
        <time>2017-06-17T10:21:18Z</time>
      </trkpt>
      <trkpt lat="60.113937134663" lon="21.526682995351">
        <ele>0</ele>
        <time>2017-06-17T10:21:19Z</time>
      </trkpt>
      <trkpt lat="60.113929758591" lon="21.526687018663">
        <ele>0</ele>
        <time>2017-06-17T10:21:20Z</time>
      </trkpt>
      <trkpt lat="60.113915174085" lon="21.526707135223">
        <ele>0</ele>
        <time>2017-06-17T10:21:21Z</time>
      </trkpt>
      <trkpt lat="60.113909893488" lon="21.526709985069">
        <ele>0</ele>
        <time>2017-06-17T10:21:22Z</time>
      </trkpt>
      <trkpt lat="60.113897069181" lon="21.526725156308">
        <ele>0</ele>
        <time>2017-06-17T10:21:23Z</time>
      </trkpt>
      <trkpt lat="60.113888687281" lon="21.526737310063">
        <ele>0</ele>
        <time>2017-06-17T10:21:24Z</time>
      </trkpt>
      <trkpt lat="60.113876784983" lon="21.526746697791">
        <ele>0</ele>
        <time>2017-06-17T10:21:25Z</time>
      </trkpt>
      <trkpt lat="60.11386781635" lon="21.52675851627">
        <ele>0</ele>
        <time>2017-06-17T10:21:26Z</time>
      </trkpt>
      <trkpt lat="60.113858344803" lon="21.526768993645">
        <ele>0</ele>
        <time>2017-06-17T10:21:27Z</time>
      </trkpt>
      <trkpt lat="60.113849627627" lon="21.526782153228">
        <ele>0</ele>
        <time>2017-06-17T10:21:28Z</time>
      </trkpt>
      <trkpt lat="60.113842586831" lon="21.526789277843">
        <ele>0</ele>
        <time>2017-06-17T10:21:29Z</time>
      </trkpt>
      <trkpt lat="60.113833953474" lon="21.526797575924">
        <ele>0</ele>
        <time>2017-06-17T10:21:30Z</time>
      </trkpt>
      <trkpt lat="60.113828169963" lon="21.526810316412">
        <ele>0</ele>
        <time>2017-06-17T10:21:31Z</time>
      </trkpt>
      <trkpt lat="60.113820290977" lon="21.526815680828">
        <ele>0</ele>
        <time>2017-06-17T10:21:32Z</time>
      </trkpt>
      <trkpt lat="60.113813836914" lon="21.526821631977">
        <ele>0</ele>
        <time>2017-06-17T10:21:33Z</time>
      </trkpt>
      <trkpt lat="60.11380579029" lon="21.526829594782">
        <ele>0</ele>
        <time>2017-06-17T10:21:34Z</time>
      </trkpt>
      <trkpt lat="60.113799587684" lon="21.526836635578">
        <ele>0</ele>
        <time>2017-06-17T10:21:35Z</time>
      </trkpt>
      <trkpt lat="60.113790954327" lon="21.526846107125">
        <ele>0</ele>
        <time>2017-06-17T10:21:36Z</time>
      </trkpt>
      <trkpt lat="60.113788858852" lon="21.5268565845">
        <ele>0</ele>
        <time>2017-06-17T10:21:37Z</time>
      </trkpt>
      <trkpt lat="60.113790786689" lon="21.526848873152">
        <ele>0</ele>
        <time>2017-06-17T10:21:38Z</time>
      </trkpt>
      <trkpt lat="60.113783075341" lon="21.526889525367">
        <ele>0</ele>
        <time>2017-06-17T10:21:39Z</time>
      </trkpt>
      <trkpt lat="60.113782991522" lon="21.526893716317">
        <ele>0</ele>
        <time>2017-06-17T10:21:40Z</time>
      </trkpt>
      <trkpt lat="60.113779471124" lon="21.526921711863">
        <ele>0</ele>
        <time>2017-06-17T10:21:41Z</time>
      </trkpt>
      <trkpt lat="60.113779638762" lon="21.526931602505">
        <ele>0</ele>
        <time>2017-06-17T10:21:42Z</time>
      </trkpt>
      <trkpt lat="60.113774525803" lon="21.526952724893">
        <ele>0</ele>
        <time>2017-06-17T10:21:43Z</time>
      </trkpt>
      <trkpt lat="60.113768658473" lon="21.526976361851">
        <ele>0</ele>
        <time>2017-06-17T10:21:44Z</time>
      </trkpt>
      <trkpt lat="60.113768323197" lon="21.526983570285">
        <ele>0</ele>
        <time>2017-06-17T10:21:45Z</time>
      </trkpt>
      <trkpt lat="60.113757845822" lon="21.527010895279">
        <ele>0</ele>
        <time>2017-06-17T10:21:46Z</time>
      </trkpt>
      <trkpt lat="60.113754744519" lon="21.527020115369">
        <ele>0</ele>
        <time>2017-06-17T10:21:47Z</time>
      </trkpt>
      <trkpt lat="60.113749966836" lon="21.52703428078">
        <ele>0</ele>
        <time>2017-06-17T10:21:48Z</time>
      </trkpt>
      <trkpt lat="60.113741417298" lon="21.52706445562">
        <ele>0</ele>
        <time>2017-06-17T10:21:49Z</time>
      </trkpt>
      <trkpt lat="60.113737477805" lon="21.527072753701">
        <ele>0</ele>
        <time>2017-06-17T10:21:50Z</time>
      </trkpt>
      <trkpt lat="60.113730185552" lon="21.527095217193">
        <ele>0</ele>
        <time>2017-06-17T10:21:51Z</time>
      </trkpt>
      <trkpt lat="60.113726497516" lon="21.527120279074">
        <ele>0</ele>
        <time>2017-06-17T10:21:52Z</time>
      </trkpt>
      <trkpt lat="60.113723899127" lon="21.527124889119">
        <ele>0</ele>
        <time>2017-06-17T10:21:53Z</time>
      </trkpt>
      <trkpt lat="60.113718367073" lon="21.527165457515">
        <ele>0</ele>
        <time>2017-06-17T10:21:54Z</time>
      </trkpt>
      <trkpt lat="60.113716690693" lon="21.527176521623">
        <ele>0</ele>
        <time>2017-06-17T10:21:55Z</time>
      </trkpt>
      <trkpt lat="60.113713673209" lon="21.527197979287">
        <ele>0</ele>
        <time>2017-06-17T10:21:56Z</time>
      </trkpt>
      <trkpt lat="60.113713421752" lon="21.527229327593">
        <ele>0</ele>
        <time>2017-06-17T10:21:57Z</time>
      </trkpt>
      <trkpt lat="60.113711996829" lon="21.527237541855">
        <ele>0</ele>
        <time>2017-06-17T10:21:58Z</time>
      </trkpt>
      <trkpt lat="60.113712583562" lon="21.527272075283">
        <ele>0</ele>
        <time>2017-06-17T10:21:59Z</time>
      </trkpt>
      <trkpt lat="60.113713254114" lon="21.527290683101">
        <ele>0</ele>
        <time>2017-06-17T10:22:00Z</time>
      </trkpt>
      <trkpt lat="60.113712248286" lon="21.527312476041">
        <ele>0</ele>
        <time>2017-06-17T10:22:01Z</time>
      </trkpt>
      <trkpt lat="60.11371526577" lon="21.527346506555">
        <ele>0</ele>
        <time>2017-06-17T10:22:02Z</time>
      </trkpt>
      <trkpt lat="60.113715601046" lon="21.527355391369">
        <ele>0</ele>
        <time>2017-06-17T10:22:03Z</time>
      </trkpt>
      <trkpt lat="60.113717696521" lon="21.527391182082">
        <ele>0</ele>
        <time>2017-06-17T10:22:04Z</time>
      </trkpt>
      <trkpt lat="60.113720211091" lon="21.527410292814">
        <ele>0</ele>
        <time>2017-06-17T10:22:05Z</time>
      </trkpt>
      <trkpt lat="60.113720211091" lon="21.527432169573">
        <ele>0</ele>
        <time>2017-06-17T10:22:06Z</time>
      </trkpt>
      <trkpt lat="60.113723982946" lon="21.527465361897">
        <ele>0</ele>
        <time>2017-06-17T10:22:07Z</time>
      </trkpt>
      <trkpt lat="60.11372448586" lon="21.527475755453">
        <ele>0</ele>
        <time>2017-06-17T10:22:08Z</time>
      </trkpt>
      <trkpt lat="60.113727587163" lon="21.527512216718">
        <ele>0</ele>
        <time>2017-06-17T10:22:09Z</time>
      </trkpt>
      <trkpt lat="60.113730185552" lon="21.527534512572">
        <ele>0</ele>
        <time>2017-06-17T10:22:10Z</time>
      </trkpt>
      <trkpt lat="60.113730101733" lon="21.527549264716">
        <ele>0</ele>
        <time>2017-06-17T10:22:11Z</time>
      </trkpt>
      <trkpt lat="60.113733789769" lon="21.527592096225">
        <ele>0</ele>
        <time>2017-06-17T10:22:12Z</time>
      </trkpt>
      <trkpt lat="60.113734711778" lon="21.527602825057">
        <ele>0</ele>
        <time>2017-06-17T10:22:13Z</time>
      </trkpt>
      <trkpt lat="60.113737729262" lon="21.527639034865">
        <ele>0</ele>
        <time>2017-06-17T10:22:14Z</time>
      </trkpt>
      <trkpt lat="60.113739154185" lon="21.527657223588">
        <ele>0</ele>
        <time>2017-06-17T10:22:15Z</time>
      </trkpt>
      <trkpt lat="60.113739238004" lon="21.527681279641">
        <ele>0</ele>
        <time>2017-06-17T10:22:16Z</time>
      </trkpt>
      <trkpt lat="60.113741920212" lon="21.527706173884">
        <ele>0</ele>
        <time>2017-06-17T10:22:17Z</time>
      </trkpt>
      <trkpt lat="60.113742255488" lon="21.527726793358">
        <ele>0</ele>
        <time>2017-06-17T10:22:18Z</time>
      </trkpt>
      <trkpt lat="60.113745189153" lon="21.52776937341">
        <ele>0</ele>
        <time>2017-06-17T10:22:19Z</time>
      </trkpt>
      <trkpt lat="60.113746614076" lon="21.527784125554">
        <ele>0</ele>
        <time>2017-06-17T10:22:20Z</time>
      </trkpt>
      <trkpt lat="60.113747536085" lon="21.527811953462">
        <ele>0</ele>
        <time>2017-06-17T10:22:21Z</time>
      </trkpt>
      <trkpt lat="60.113750637388" lon="21.527841541569">
        <ele>0</ele>
        <time>2017-06-17T10:22:22Z</time>
      </trkpt>
      <trkpt lat="60.113749883017" lon="21.527850342564">
        <ele>0</ele>
        <time>2017-06-17T10:22:23Z</time>
      </trkpt>
      <trkpt lat="60.113753738691" lon="21.527893257892">
        <ele>0</ele>
        <time>2017-06-17T10:22:24Z</time>
      </trkpt>
      <trkpt lat="60.113755079795" lon="21.527904657276">
        <ele>0</ele>
        <time>2017-06-17T10:22:25Z</time>
      </trkpt>
      <trkpt lat="60.113757342908" lon="21.527937346686">
        <ele>0</ele>
        <time>2017-06-17T10:22:26Z</time>
      </trkpt>
      <trkpt lat="60.113760192754" lon="21.527960313092">
        <ele>0</ele>
        <time>2017-06-17T10:22:27Z</time>
      </trkpt>
      <trkpt lat="60.113760779487" lon="21.527978417996">
        <ele>0</ele>
        <time>2017-06-17T10:22:28Z</time>
      </trkpt>
      <trkpt lat="60.113764635161" lon="21.528012113234">
        <ele>0</ele>
        <time>2017-06-17T10:22:29Z</time>
      </trkpt>
      <trkpt lat="60.113764299885" lon="21.528028960853">
        <ele>0</ele>
        <time>2017-06-17T10:22:30Z</time>
      </trkpt>
      <trkpt lat="60.113763461695" lon="21.528055531476">
        <ele>0</ele>
        <time>2017-06-17T10:22:31Z</time>
      </trkpt>
      <trkpt lat="60.113763964609" lon="21.528084197574">
        <ele>0</ele>
        <time>2017-06-17T10:22:32Z</time>
      </trkpt>
      <trkpt lat="60.113769161387" lon="21.528106241971">
        <ele>0</ele>
        <time>2017-06-17T10:22:33Z</time>
      </trkpt>
      <trkpt lat="60.11376639536" lon="21.528131303852">
        <ele>0</ele>
        <time>2017-06-17T10:22:34Z</time>
      </trkpt>
      <trkpt lat="60.113772514147" lon="21.528155108448">
        <ele>0</ele>
        <time>2017-06-17T10:22:35Z</time>
      </trkpt>
      <trkpt lat="60.11377226269" lon="21.528178074854">
        <ele>0</ele>
        <time>2017-06-17T10:22:36Z</time>
      </trkpt>
      <trkpt lat="60.113775950726" lon="21.528206154219">
        <ele>0</ele>
        <time>2017-06-17T10:22:37Z</time>
      </trkpt>
      <trkpt lat="60.11378232097" lon="21.528218391793">
        <ele>0</ele>
        <time>2017-06-17T10:22:38Z</time>
      </trkpt>
      <trkpt lat="60.113786595739" lon="21.528250913565">
        <ele>0</ele>
        <time>2017-06-17T10:22:39Z</time>
      </trkpt>
      <trkpt lat="60.113797743666" lon="21.528259295465">
        <ele>0</ele>
        <time>2017-06-17T10:22:40Z</time>
      </trkpt>
      <trkpt lat="60.113800174417" lon="21.528283602975">
        <ele>0</ele>
        <time>2017-06-17T10:22:41Z</time>
      </trkpt>
      <trkpt lat="60.113811992896" lon="21.528303384259">
        <ele>0</ele>
        <time>2017-06-17T10:22:42Z</time>
      </trkpt>
      <trkpt lat="60.113818111683" lon="21.528311598521">
        <ele>0</ele>
        <time>2017-06-17T10:22:43Z</time>
      </trkpt>
      <trkpt lat="60.113826493583" lon="21.528338672058">
        <ele>0</ele>
        <time>2017-06-17T10:22:44Z</time>
      </trkpt>
      <trkpt lat="60.113838228243" lon="21.528342192456">
        <ele>0</ele>
        <time>2017-06-17T10:22:45Z</time>
      </trkpt>
      <trkpt lat="60.113846693962" lon="21.528361303188">
        <ele>0</ele>
        <time>2017-06-17T10:22:46Z</time>
      </trkpt>
      <trkpt lat="60.113858009527" lon="21.528372786391">
        <ele>0</ele>
        <time>2017-06-17T10:22:47Z</time>
      </trkpt>
      <trkpt lat="60.113862451934" lon="21.528385610698">
        <ele>0</ele>
        <time>2017-06-17T10:22:48Z</time>
      </trkpt>
      <trkpt lat="60.11387955101" lon="21.528405727258">
        <ele>0</ele>
        <time>2017-06-17T10:22:49Z</time>
      </trkpt>
      <trkpt lat="60.113883322865" lon="21.52841477971">
        <ele>0</ele>
        <time>2017-06-17T10:22:50Z</time>
      </trkpt>
      <trkpt lat="60.113899164656" lon="21.528436991745">
        <ele>0</ele>
        <time>2017-06-17T10:22:51Z</time>
      </trkpt>
      <trkpt lat="60.113905199624" lon="21.528444451636">
        <ele>0</ele>
        <time>2017-06-17T10:22:52Z</time>
      </trkpt>
      <trkpt lat="60.113913330067" lon="21.528465406386">
        <ele>0</ele>
        <time>2017-06-17T10:22:53Z</time>
      </trkpt>
      <trkpt lat="60.113924561813" lon="21.528484852394">
        <ele>0</ele>
        <time>2017-06-17T10:22:54Z</time>
      </trkpt>
      <trkpt lat="60.11393151879" lon="21.528507064429">
        <ele>0</ele>
        <time>2017-06-17T10:22:55Z</time>
      </trkpt>
      <trkpt lat="60.113943924002" lon="21.528515027234">
        <ele>0</ele>
        <time>2017-06-17T10:22:56Z</time>
      </trkpt>
      <trkpt lat="60.113949791332" lon="21.528542352228">
        <ele>0</ele>
        <time>2017-06-17T10:22:57Z</time>
      </trkpt>
      <trkpt lat="60.113961945087" lon="21.52855391925">
        <ele>0</ele>
        <time>2017-06-17T10:22:58Z</time>
      </trkpt>
      <trkpt lat="60.113973679747" lon="21.528573449077">
        <ele>0</ele>
        <time>2017-06-17T10:22:59Z</time>
      </trkpt>
      <trkpt lat="60.113980720543" lon="21.528584513185">
        <ele>0</ele>
        <time>2017-06-17T10:23:00Z</time>
      </trkpt>
      <trkpt lat="60.113991533194" lon="21.528605970849">
        <ele>0</ele>
        <time>2017-06-17T10:23:01Z</time>
      </trkpt>
      <trkpt lat="60.114002094388" lon="21.528621477364">
        <ele>0</ele>
        <time>2017-06-17T10:23:02Z</time>
      </trkpt>
      <trkpt lat="60.114011063021" lon="21.528637905888">
        <ele>0</ele>
        <time>2017-06-17T10:23:03Z</time>
      </trkpt>
      <trkpt lat="60.114020786025" lon="21.528665649977">
        <ele>0</ele>
        <time>2017-06-17T10:23:04Z</time>
      </trkpt>
      <trkpt lat="60.114028497373" lon="21.528679144836">
        <ele>0</ele>
        <time>2017-06-17T10:23:05Z</time>
      </trkpt>
      <trkpt lat="60.114037466006" lon="21.528691550048">
        <ele>0</ele>
        <time>2017-06-17T10:23:06Z</time>
      </trkpt>
      <trkpt lat="60.114045428811" lon="21.528716863386">
        <ele>0</ele>
        <time>2017-06-17T10:23:07Z</time>
      </trkpt>
      <trkpt lat="60.114056660557" lon="21.52872155725">
        <ele>0</ele>
        <time>2017-06-17T10:23:08Z</time>
      </trkpt>
      <trkpt lat="60.114066132104" lon="21.528738656326">
        <ele>0</ele>
        <time>2017-06-17T10:23:09Z</time>
      </trkpt>
      <trkpt lat="60.114077782945" lon="21.528751312995">
        <ele>0</ele>
        <time>2017-06-17T10:23:10Z</time>
      </trkpt>
      <trkpt lat="60.11408239299" lon="21.528764137302">
        <ele>0</ele>
        <time>2017-06-17T10:23:11Z</time>
      </trkpt>
      <trkpt lat="60.114098737695" lon="21.528784086224">
        <ele>0</ele>
        <time>2017-06-17T10:23:12Z</time>
      </trkpt>
      <trkpt lat="60.114102090455" lon="21.528790959382">
        <ele>0</ele>
        <time>2017-06-17T10:23:13Z</time>
      </trkpt>
      <trkpt lat="60.114117345513" lon="21.528812249408">
        <ele>0</ele>
        <time>2017-06-17T10:23:14Z</time>
      </trkpt>
      <trkpt lat="60.11412597887" lon="21.52882297824">
        <ele>0</ele>
        <time>2017-06-17T10:23:15Z</time>
      </trkpt>
      <trkpt lat="60.114134444589" lon="21.52884058023">
        <ele>0</ele>
        <time>2017-06-17T10:23:16Z</time>
      </trkpt>
      <trkpt lat="60.114143413222" lon="21.528852650166">
        <ele>0</ele>
        <time>2017-06-17T10:23:17Z</time>
      </trkpt>
      <trkpt lat="60.114150537837" lon="21.528869162509">
        <ele>0</ele>
        <time>2017-06-17T10:23:18Z</time>
      </trkpt>
      <trkpt lat="60.114166547266" lon="21.5288933862">
        <ele>0</ele>
        <time>2017-06-17T10:23:19Z</time>
      </trkpt>
      <trkpt lat="60.114172246958" lon="21.528903276842">
        <ele>0</ele>
        <time>2017-06-17T10:23:20Z</time>
      </trkpt>
      <trkpt lat="60.114179539211" lon="21.528922806669">
        <ele>0</ele>
        <time>2017-06-17T10:23:21Z</time>
      </trkpt>
      <trkpt lat="60.114189848948" lon="21.528941079211">
        <ele>0</ele>
        <time>2017-06-17T10:23:22Z</time>
      </trkpt>
      <trkpt lat="60.114193201708" lon="21.528946359808">
        <ele>0</ele>
        <time>2017-06-17T10:23:23Z</time>
      </trkpt>
      <trkpt lat="60.114206026015" lon="21.528968571843">
        <ele>0</ele>
        <time>2017-06-17T10:23:24Z</time>
      </trkpt>
      <trkpt lat="60.114216671028" lon="21.528984581272">
        <ele>0</ele>
        <time>2017-06-17T10:23:25Z</time>
      </trkpt>
      <trkpt lat="60.11421901796" lon="21.528990700059">
        <ele>0</ele>
        <time>2017-06-17T10:23:26Z</time>
      </trkpt>
      <trkpt lat="60.114232764276" lon="21.529011738628">
        <ele>0</ele>
        <time>2017-06-17T10:23:27Z</time>
      </trkpt>
      <trkpt lat="60.114237039045" lon="21.529020120528">
        <ele>0</ele>
        <time>2017-06-17T10:23:28Z</time>
      </trkpt>
      <trkpt lat="60.114243074013" lon="21.529031352274">
        <ele>0</ele>
        <time>2017-06-17T10:23:29Z</time>
      </trkpt>
      <trkpt lat="60.114254389578" lon="21.529050630644">
        <ele>0</ele>
        <time>2017-06-17T10:23:30Z</time>
      </trkpt>
      <trkpt lat="60.114258245252" lon="21.529067226806">
        <ele>0</ele>
        <time>2017-06-17T10:23:31Z</time>
      </trkpt>
      <trkpt lat="60.114272494482" lon="21.529091282859">
        <ele>0</ele>
        <time>2017-06-17T10:23:32Z</time>
      </trkpt>
      <trkpt lat="60.114275009052" lon="21.529101927872">
        <ele>0</ele>
        <time>2017-06-17T10:23:33Z</time>
      </trkpt>
      <trkpt lat="60.114286743712" lon="21.529126235382">
        <ele>0</ele>
        <time>2017-06-17T10:23:34Z</time>
      </trkpt>
      <trkpt lat="60.114293197775" lon="21.529139562603">
        <ele>0</ele>
        <time>2017-06-17T10:23:35Z</time>
      </trkpt>
      <trkpt lat="60.114300490028" lon="21.529157583688">
        <ele>0</ele>
        <time>2017-06-17T10:23:36Z</time>
      </trkpt>
      <trkpt lat="60.114307363186" lon="21.529173844574">
        <ele>0</ele>
        <time>2017-06-17T10:23:37Z</time>
      </trkpt>
      <trkpt lat="60.114314906896" lon="21.52918759089">
        <ele>0</ele>
        <time>2017-06-17T10:23:38Z</time>
      </trkpt>
      <trkpt lat="60.114319349303" lon="21.529200499016">
        <ele>0</ele>
        <time>2017-06-17T10:23:39Z</time>
      </trkpt>
      <trkpt lat="60.114324546081" lon="21.529221872861">
        <ele>0</ele>
        <time>2017-06-17T10:23:40Z</time>
      </trkpt>
      <trkpt lat="60.114330748687" lon="21.529243917258">
        <ele>0</ele>
        <time>2017-06-17T10:23:41Z</time>
      </trkpt>
      <trkpt lat="60.114342148071" lon="21.529259759049">
        <ele>0</ele>
        <time>2017-06-17T10:23:42Z</time>
      </trkpt>
      <trkpt lat="60.114344159727" lon="21.529279372695">
        <ele>0</ele>
        <time>2017-06-17T10:23:43Z</time>
      </trkpt>
      <trkpt lat="60.114352122532" lon="21.529307284422">
        <ele>0</ele>
        <time>2017-06-17T10:23:44Z</time>
      </trkpt>
      <trkpt lat="60.11436067207" lon="21.529312145924">
        <ele>0</ele>
        <time>2017-06-17T10:23:45Z</time>
      </trkpt>
      <trkpt lat="60.114367712866" lon="21.529345254429">
        <ele>0</ele>
        <time>2017-06-17T10:23:46Z</time>
      </trkpt>
      <trkpt lat="60.114378609336" lon="21.529345002972">
        <ele>0</ele>
        <time>2017-06-17T10:23:47Z</time>
      </trkpt>
      <trkpt lat="60.114385398675" lon="21.529369561939">
        <ele>0</ele>
        <time>2017-06-17T10:23:48Z</time>
      </trkpt>
      <trkpt lat="60.114398977353" lon="21.529380123133">
        <ele>0</ele>
        <time>2017-06-17T10:23:49Z</time>
      </trkpt>
      <trkpt lat="60.114405599054" lon="21.529393450354">
        <ele>0</ele>
        <time>2017-06-17T10:23:50Z</time>
      </trkpt>
      <trkpt lat="60.114418423361" lon="21.529402335168">
        <ele>0</ele>
        <time>2017-06-17T10:23:51Z</time>
      </trkpt>
      <trkpt lat="60.114425464157" lon="21.529407699584">
        <ele>0</ele>
        <time>2017-06-17T10:23:52Z</time>
      </trkpt>
      <trkpt lat="60.114431415306" lon="21.529418847511">
        <ele>0</ele>
        <time>2017-06-17T10:23:53Z</time>
      </trkpt>
      <trkpt lat="60.114447257097" lon="21.529432007094">
        <ele>0</ele>
        <time>2017-06-17T10:23:54Z</time>
      </trkpt>
      <trkpt lat="60.114452789151" lon="21.529442903564">
        <ele>0</ele>
        <time>2017-06-17T10:23:55Z</time>
      </trkpt>
      <trkpt lat="60.114467289838" lon="21.529457404251">
        <ele>0</ele>
        <time>2017-06-17T10:23:56Z</time>
      </trkpt>
      <trkpt lat="60.114477767213" lon="21.529467378712">
        <ele>0</ele>
        <time>2017-06-17T10:23:57Z</time>
      </trkpt>
      <trkpt lat="60.114485897656" lon="21.529474000413">
        <ele>0</ele>
        <time>2017-06-17T10:23:58Z</time>
      </trkpt>
      <trkpt lat="60.114495117746" lon="21.529488249643">
        <ele>0</ele>
        <time>2017-06-17T10:23:59Z</time>
      </trkpt>
      <trkpt lat="60.114505427483" lon="21.52950777947">
        <ele>0</ele>
        <time>2017-06-17T10:24:00Z</time>
      </trkpt>
      <trkpt lat="60.114513138831" lon="21.529516915741">
        <ele>0</ele>
        <time>2017-06-17T10:24:01Z</time>
      </trkpt>
      <trkpt lat="60.114523448568" lon="21.529537702853">
        <ele>0</ele>
        <time>2017-06-17T10:24:02Z</time>
      </trkpt>
      <trkpt lat="60.114531746649" lon="21.529536194111">
        <ele>0</ele>
        <time>2017-06-17T10:24:03Z</time>
      </trkpt>
      <trkpt lat="60.114540715282" lon="21.529564105838">
        <ele>0</ele>
        <time>2017-06-17T10:24:04Z</time>
      </trkpt>
      <trkpt lat="60.114553204313" lon="21.529563183829">
        <ele>0</ele>
        <time>2017-06-17T10:24:05Z</time>
      </trkpt>
      <trkpt lat="60.114561418575" lon="21.529586904606">
        <ele>0</ele>
        <time>2017-06-17T10:24:06Z</time>
      </trkpt>
      <trkpt lat="60.114575500167" lon="21.529600064189">
        <ele>0</ele>
        <time>2017-06-17T10:24:07Z</time>
      </trkpt>
      <trkpt lat="60.114582624782" lon="21.52960417132">
        <ele>0</ele>
        <time>2017-06-17T10:24:08Z</time>
      </trkpt>
      <trkpt lat="60.114596874012" lon="21.529617330903">
        <ele>0</ele>
        <time>2017-06-17T10:24:09Z</time>
      </trkpt>
      <trkpt lat="60.114604920636" lon="21.529620767482">
        <ele>0</ele>
        <time>2017-06-17T10:24:10Z</time>
      </trkpt>
      <trkpt lat="60.114616152382" lon="21.529636525454">
        <ele>0</ele>
        <time>2017-06-17T10:24:11Z</time>
      </trkpt>
      <trkpt lat="60.114626881214" lon="21.52963434616">
        <ele>0</ele>
        <time>2017-06-17T10:24:12Z</time>
      </trkpt>
      <trkpt lat="60.114636101304" lon="21.529651529055">
        <ele>0</ele>
        <time>2017-06-17T10:24:13Z</time>
      </trkpt>
      <trkpt lat="60.114647416869" lon="21.529646583734">
        <ele>0</ele>
        <time>2017-06-17T10:24:14Z</time>
      </trkpt>
      <trkpt lat="60.114657810425" lon="21.529666029742">
        <ele>0</ele>
        <time>2017-06-17T10:24:15Z</time>
      </trkpt>
      <trkpt lat="60.1146682878" lon="21.529658569851">
        <ele>0</ele>
        <time>2017-06-17T10:24:16Z</time>
      </trkpt>
      <trkpt lat="60.11467331694" lon="21.52967374109">
        <ele>0</ele>
        <time>2017-06-17T10:24:17Z</time>
      </trkpt>
      <trkpt lat="60.114690583654" lon="21.529675920384">
        <ele>0</ele>
        <time>2017-06-17T10:24:18Z</time>
      </trkpt>
      <trkpt lat="60.114697540631" lon="21.529686984492">
        <ele>0</ele>
        <time>2017-06-17T10:24:19Z</time>
      </trkpt>
      <trkpt lat="60.114708269463" lon="21.52969888679">
        <ele>0</ele>
        <time>2017-06-17T10:24:20Z</time>
      </trkpt>
      <trkpt lat="60.114719920304" lon="21.529697126591">
        <ele>0</ele>
        <time>2017-06-17T10:24:21Z</time>
      </trkpt>
      <trkpt lat="60.114727883109" lon="21.529716991694">
        <ele>0</ele>
        <time>2017-06-17T10:24:22Z</time>
      </trkpt>
      <trkpt lat="60.114740455959" lon="21.529717243151">
        <ele>0</ele>
        <time>2017-06-17T10:24:23Z</time>
      </trkpt>
      <trkpt lat="60.114749256954" lon="21.529729229268">
        <ele>0</ele>
        <time>2017-06-17T10:24:24Z</time>
      </trkpt>
      <trkpt lat="60.114761075433" lon="21.529742137394">
        <ele>0</ele>
        <time>2017-06-17T10:24:25Z</time>
      </trkpt>
      <trkpt lat="60.114771217532" lon="21.529743478498">
        <ele>0</ele>
        <time>2017-06-17T10:24:26Z</time>
      </trkpt>
      <trkpt lat="60.114781024355" lon="21.529762170135">
        <ele>0</ele>
        <time>2017-06-17T10:24:27Z</time>
      </trkpt>
      <trkpt lat="60.114794519214" lon="21.529763259782">
        <ele>0</ele>
        <time>2017-06-17T10:24:28Z</time>
      </trkpt>
      <trkpt lat="60.114800554182" lon="21.529776419365">
        <ele>0</ele>
        <time>2017-06-17T10:24:29Z</time>
      </trkpt>
      <trkpt lat="60.11481413286" lon="21.529789998043">
        <ele>0</ele>
        <time>2017-06-17T10:24:30Z</time>
      </trkpt>
      <trkpt lat="60.114820503104" lon="21.529799218133">
        <ele>0</ele>
        <time>2017-06-17T10:24:31Z</time>
      </trkpt>
      <trkpt lat="60.114831231936" lon="21.529818328865">
        <ele>0</ele>
        <time>2017-06-17T10:24:32Z</time>
      </trkpt>
      <trkpt lat="60.114841290216" lon="21.529818915598">
        <ele>0</ele>
        <time>2017-06-17T10:24:33Z</time>
      </trkpt>
      <trkpt lat="60.114848331012" lon="21.5298405409">
        <ele>0</ele>
        <time>2017-06-17T10:24:34Z</time>
      </trkpt>
      <trkpt lat="60.114862915518" lon="21.529843306927">
        <ele>0</ele>
        <time>2017-06-17T10:24:35Z</time>
      </trkpt>
      <trkpt lat="60.11486861521" lon="21.529862250021">
        <ele>0</ele>
        <time>2017-06-17T10:24:36Z</time>
      </trkpt>
      <trkpt lat="60.114883451173" lon="21.529875828699">
        <ele>0</ele>
        <time>2017-06-17T10:24:37Z</time>
      </trkpt>
      <trkpt lat="60.114887977399" lon="21.529885886979">
        <ele>0</ele>
        <time>2017-06-17T10:24:38Z</time>
      </trkpt>
      <trkpt lat="60.114898287136" lon="21.529908937204">
        <ele>0</ele>
        <time>2017-06-17T10:24:39Z</time>
      </trkpt>
      <trkpt lat="60.114910440891" lon="21.529910026851">
        <ele>0</ele>
        <time>2017-06-17T10:24:40Z</time>
      </trkpt>
      <trkpt lat="60.114916727316" lon="21.529928467031">
        <ele>0</ele>
        <time>2017-06-17T10:24:41Z</time>
      </trkpt>
      <trkpt lat="60.114926198863" lon="21.529937938578">
        <ele>0</ele>
        <time>2017-06-17T10:24:42Z</time>
      </trkpt>
      <trkpt lat="60.114933826392" lon="21.529954115645">
        <ele>0</ele>
        <time>2017-06-17T10:24:43Z</time>
      </trkpt>
      <trkpt lat="60.114940783369" lon="21.529968364875">
        <ele>0</ele>
        <time>2017-06-17T10:24:44Z</time>
      </trkpt>
      <trkpt lat="60.114946902156" lon="21.529981273001">
        <ele>0</ele>
        <time>2017-06-17T10:24:45Z</time>
      </trkpt>
      <trkpt lat="60.114952853305" lon="21.529994013489">
        <ele>0</ele>
        <time>2017-06-17T10:24:46Z</time>
      </trkpt>
      <trkpt lat="60.11495662516" lon="21.530002563027">
        <ele>0</ele>
        <time>2017-06-17T10:24:47Z</time>
      </trkpt>
      <trkpt lat="60.114963246861" lon="21.530017315171">
        <ele>0</ele>
        <time>2017-06-17T10:24:48Z</time>
      </trkpt>
      <trkpt lat="60.114968527458" lon="21.530030223297">
        <ele>0</ele>
        <time>2017-06-17T10:24:49Z</time>
      </trkpt>
      <trkpt lat="60.114973472779" lon="21.530041287405">
        <ele>0</ele>
        <time>2017-06-17T10:24:50Z</time>
      </trkpt>
      <trkpt lat="60.114978166643" lon="21.530051848599">
        <ele>0</ele>
        <time>2017-06-17T10:24:51Z</time>
      </trkpt>
      <trkpt lat="60.114982441412" lon="21.530062493612">
        <ele>0</ele>
        <time>2017-06-17T10:24:52Z</time>
      </trkpt>
      <trkpt lat="60.114985877991" lon="21.530070456417">
        <ele>0</ele>
        <time>2017-06-17T10:24:53Z</time>
      </trkpt>
      <trkpt lat="60.114990739493" lon="21.530082191077">
        <ele>0</ele>
        <time>2017-06-17T10:24:54Z</time>
      </trkpt>
      <trkpt lat="60.114994930443" lon="21.530091746443">
        <ele>0</ele>
        <time>2017-06-17T10:24:55Z</time>
      </trkpt>
      <trkpt lat="60.114998869936" lon="21.530100882714">
        <ele>0</ele>
        <time>2017-06-17T10:24:56Z</time>
      </trkpt>
      <trkpt lat="60.115002222696" lon="21.530108174967">
        <ele>0</ele>
        <time>2017-06-17T10:24:57Z</time>
      </trkpt>
      <trkpt lat="60.115002641791" lon="21.530123513844">
        <ele>0</ele>
        <time>2017-06-17T10:24:58Z</time>
      </trkpt>
      <trkpt lat="60.115007670931" lon="21.530136505789">
        <ele>0</ele>
        <time>2017-06-17T10:24:59Z</time>
      </trkpt>
      <trkpt lat="60.115014879365" lon="21.530137008703">
        <ele>0</ele>
        <time>2017-06-17T10:25:00Z</time>
      </trkpt>
      <trkpt lat="60.115018567401" lon="21.530158801643">
        <ele>0</ele>
        <time>2017-06-17T10:25:01Z</time>
      </trkpt>
      <trkpt lat="60.115028793319" lon="21.530159388376">
        <ele>0</ele>
        <time>2017-06-17T10:25:02Z</time>
      </trkpt>
      <trkpt lat="60.115030972613" lon="21.530176487452">
        <ele>0</ele>
        <time>2017-06-17T10:25:03Z</time>
      </trkpt>
      <trkpt lat="60.115044132196" lon="21.530187635379">
        <ele>0</ele>
        <time>2017-06-17T10:25:04Z</time>
      </trkpt>
      <trkpt lat="60.115046060033" lon="21.530194173261">
        <ele>0</ele>
        <time>2017-06-17T10:25:05Z</time>
      </trkpt>
      <trkpt lat="60.115054777209" lon="21.530212864898">
        <ele>0</ele>
        <time>2017-06-17T10:25:06Z</time>
      </trkpt>
      <trkpt lat="60.115062656195" lon="21.530216133839">
        <ele>0</ele>
        <time>2017-06-17T10:25:07Z</time>
      </trkpt>
      <trkpt lat="60.115068355887" lon="21.530236250399">
        <ele>0</ele>
        <time>2017-06-17T10:25:08Z</time>
      </trkpt>
      <trkpt lat="60.115082269841" lon="21.530238345874">
        <ele>0</ele>
        <time>2017-06-17T10:25:09Z</time>
      </trkpt>
      <trkpt lat="60.115086628429" lon="21.530260222633">
        <ele>0</ele>
        <time>2017-06-17T10:25:10Z</time>
      </trkpt>
      <trkpt lat="60.115099620374" lon="21.530270029456">
        <ele>0</ele>
        <time>2017-06-17T10:25:11Z</time>
      </trkpt>
      <trkpt lat="60.115104398057" lon="21.530282015573">
        <ele>0</ele>
        <time>2017-06-17T10:25:12Z</time>
      </trkpt>
      <trkpt lat="60.11511588126" lon="21.530299533744">
        <ele>0</ele>
        <time>2017-06-17T10:25:13Z</time>
      </trkpt>
      <trkpt lat="60.115122335323" lon="21.530310933128">
        <ele>0</ele>
        <time>2017-06-17T10:25:14Z</time>
      </trkpt>
      <trkpt lat="60.115134237621" lon="21.530330965869">
        <ele>0</ele>
        <time>2017-06-17T10:25:15Z</time>
      </trkpt>
      <trkpt lat="60.115143122435" lon="21.530335492095">
        <ele>0</ele>
        <time>2017-06-17T10:25:16Z</time>
      </trkpt>
      <trkpt lat="60.115150330869" lon="21.530359212872">
        <ele>0</ele>
        <time>2017-06-17T10:25:17Z</time>
      </trkpt>
      <trkpt lat="60.115162484624" lon="21.53036273327">
        <ele>0</ele>
        <time>2017-06-17T10:25:18Z</time>
      </trkpt>
      <trkpt lat="60.11516784904" lon="21.530386705504">
        <ele>0</ele>
        <time>2017-06-17T10:25:19Z</time>
      </trkpt>
      <trkpt lat="60.11518293646" lon="21.530396512327">
        <ele>0</ele>
        <time>2017-06-17T10:25:20Z</time>
      </trkpt>
      <trkpt lat="60.115185953944" lon="21.530413695222">
        <ele>0</ele>
        <time>2017-06-17T10:25:21Z</time>
      </trkpt>
      <trkpt lat="60.115198191518" lon="21.530430794298">
        <ele>0</ele>
        <time>2017-06-17T10:25:22Z</time>
      </trkpt>
      <trkpt lat="60.115201628097" lon="21.530438840922">
        <ele>0</ele>
        <time>2017-06-17T10:25:23Z</time>
      </trkpt>
      <trkpt lat="60.115211518739" lon="21.53046583064">
        <ele>0</ele>
        <time>2017-06-17T10:25:24Z</time>
      </trkpt>
      <trkpt lat="60.115221241743" lon="21.530475721282">
        <ele>0</ele>
        <time>2017-06-17T10:25:25Z</time>
      </trkpt>
      <trkpt lat="60.11522568415" lon="21.530500028792">
        <ele>0</ele>
        <time>2017-06-17T10:25:26Z</time>
      </trkpt>
      <trkpt lat="60.11523741881" lon="21.53052031299">
        <ele>0</ele>
        <time>2017-06-17T10:25:27Z</time>
      </trkpt>
      <trkpt lat="60.115239849561" lon="21.530535148953">
        <ele>0</ele>
        <time>2017-06-17T10:25:28Z</time>
      </trkpt>
      <trkpt lat="60.11524831528" lon="21.530561049024">
        <ele>0</ele>
        <time>2017-06-17T10:25:29Z</time>
      </trkpt>
      <trkpt lat="60.11525334442" lon="21.530576723177">
        <ele>0</ele>
        <time>2017-06-17T10:25:30Z</time>
      </trkpt>
      <trkpt lat="60.115260720492" lon="21.530603209981">
        <ele>0</ele>
        <time>2017-06-17T10:25:31Z</time>
      </trkpt>
      <trkpt lat="60.115272287514" lon="21.530619638505">
        <ele>0</ele>
        <time>2017-06-17T10:25:32Z</time>
      </trkpt>
      <trkpt lat="60.115273712437" lon="21.530640509436">
        <ele>0</ele>
        <time>2017-06-17T10:25:33Z</time>
      </trkpt>
      <trkpt lat="60.115283770717" lon="21.530666828602">
        <ele>0</ele>
        <time>2017-06-17T10:25:34Z</time>
      </trkpt>
      <trkpt lat="60.115288632219" lon="21.530679401452">
        <ele>0</ele>
        <time>2017-06-17T10:25:35Z</time>
      </trkpt>
      <trkpt lat="60.115294667187" lon="21.530710246844">
        <ele>0</ele>
        <time>2017-06-17T10:25:36Z</time>
      </trkpt>
      <trkpt lat="60.115303971096" lon="21.530723406427">
        <ele>0</ele>
        <time>2017-06-17T10:25:37Z</time>
      </trkpt>
      <trkpt lat="60.115305228381" lon="21.530747713937">
        <ele>0</ele>
        <time>2017-06-17T10:25:38Z</time>
      </trkpt>
      <trkpt lat="60.115316292489" lon="21.530772691999">
        <ele>0</ele>
        <time>2017-06-17T10:25:39Z</time>
      </trkpt>
      <trkpt lat="60.115318304145" lon="21.530790545446">
        <ele>0</ele>
        <time>2017-06-17T10:25:40Z</time>
      </trkpt>
      <trkpt lat="60.115323584742" lon="21.530816277879">
        <ele>0</ele>
        <time>2017-06-17T10:25:41Z</time>
      </trkpt>
      <trkpt lat="60.115328530063" lon="21.530831365299">
        <ele>0</ele>
        <time>2017-06-17T10:25:42Z</time>
      </trkpt>
      <trkpt lat="60.115331212271" lon="21.530860450492">
        <ele>0</ele>
        <time>2017-06-17T10:25:43Z</time>
      </trkpt>
      <trkpt lat="60.115341438189" lon="21.530877465749">
        <ele>0</ele>
        <time>2017-06-17T10:25:44Z</time>
      </trkpt>
      <trkpt lat="60.115341522008" lon="21.530899426327">
        <ele>0</ele>
        <time>2017-06-17T10:25:45Z</time>
      </trkpt>
      <trkpt lat="60.115349820089" lon="21.530926416045">
        <ele>0</ele>
        <time>2017-06-17T10:25:46Z</time>
      </trkpt>
      <trkpt lat="60.115356106514" lon="21.530935049402">
        <ele>0</ele>
        <time>2017-06-17T10:25:47Z</time>
      </trkpt>
      <trkpt lat="60.115361890025" lon="21.530960446559">
        <ele>0</ele>
        <time>2017-06-17T10:25:48Z</time>
      </trkpt>
      <trkpt lat="60.11536482369" lon="21.530983077689">
        <ele>0</ele>
        <time>2017-06-17T10:25:49Z</time>
      </trkpt>
      <trkpt lat="60.115362141482" lon="21.530999925308">
        <ele>0</ele>
        <time>2017-06-17T10:25:50Z</time>
      </trkpt>
      <trkpt lat="60.115370188106" lon="21.531028172311">
        <ele>0</ele>
        <time>2017-06-17T10:25:51Z</time>
      </trkpt>
      <trkpt lat="60.115370104287" lon="21.531038482048">
        <ele>0</ele>
        <time>2017-06-17T10:25:52Z</time>
      </trkpt>
      <trkpt lat="60.115372786495" lon="21.531064717395">
        <ele>0</ele>
        <time>2017-06-17T10:25:53Z</time>
      </trkpt>
      <trkpt lat="60.115380330205" lon="21.531081648833">
        <ele>0</ele>
        <time>2017-06-17T10:25:54Z</time>
      </trkpt>
      <trkpt lat="60.115380414024" lon="21.531110650207">
        <ele>0</ele>
        <time>2017-06-17T10:25:55Z</time>
      </trkpt>
      <trkpt lat="60.115388963562" lon="21.531128587473">
        <ele>0</ele>
        <time>2017-06-17T10:25:56Z</time>
      </trkpt>
      <trkpt lat="60.115387622458" lon="21.531149458404">
        <ele>0</ele>
        <time>2017-06-17T10:25:57Z</time>
      </trkpt>
      <trkpt lat="60.115394579435" lon="21.531176112846">
        <ele>0</ele>
        <time>2017-06-17T10:25:58Z</time>
      </trkpt>
      <trkpt lat="60.115397932195" lon="21.531190529714">
        <ele>0</ele>
        <time>2017-06-17T10:25:59Z</time>
      </trkpt>
      <trkpt lat="60.115402206964" lon="21.531223805857">
        <ele>0</ele>
        <time>2017-06-17T10:26:00Z</time>
      </trkpt>
      <trkpt lat="60.115409331579" lon="21.531236713983">
        <ele>0</ele>
        <time>2017-06-17T10:26:01Z</time>
      </trkpt>
      <trkpt lat="60.115411343235" lon="21.531270157764">
        <ele>0</ele>
        <time>2017-06-17T10:26:02Z</time>
      </trkpt>
      <trkpt lat="60.115421988248" lon="21.531285412822">
        <ele>0</ele>
        <time>2017-06-17T10:26:03Z</time>
      </trkpt>
      <trkpt lat="60.115423999904" lon="21.531308882142">
        <ele>0</ele>
        <time>2017-06-17T10:26:04Z</time>
      </trkpt>
      <trkpt lat="60.115432465623" lon="21.531333524928">
        <ele>0</ele>
        <time>2017-06-17T10:26:05Z</time>
      </trkpt>
      <trkpt lat="60.115438249134" lon="21.531345678683">
        <ele>0</ele>
        <time>2017-06-17T10:26:06Z</time>
      </trkpt>
      <trkpt lat="60.115447217767" lon="21.531371411116">
        <ele>0</ele>
        <time>2017-06-17T10:26:07Z</time>
      </trkpt>
      <trkpt lat="60.115454426201" lon="21.531383983966">
        <ele>0</ele>
        <time>2017-06-17T10:26:08Z</time>
      </trkpt>
      <trkpt lat="60.115465657947" lon="21.531401083042">
        <ele>0</ele>
        <time>2017-06-17T10:26:09Z</time>
      </trkpt>
      <trkpt lat="60.115468591612" lon="21.531415835186">
        <ele>0</ele>
        <time>2017-06-17T10:26:10Z</time>
      </trkpt>
      <trkpt lat="60.115481918833" lon="21.531442489628">
        <ele>0</ele>
        <time>2017-06-17T10:26:11Z</time>
      </trkpt>
      <trkpt lat="60.115485690688" lon="21.53145321846">
        <ele>0</ele>
        <time>2017-06-17T10:26:12Z</time>
      </trkpt>
      <trkpt lat="60.115498682633" lon="21.531485404956">
        <ele>0</ele>
        <time>2017-06-17T10:26:13Z</time>
      </trkpt>
      <trkpt lat="60.115503627954" lon="21.531494122132">
        <ele>0</ele>
        <time>2017-06-17T10:26:14Z</time>
      </trkpt>
      <trkpt lat="60.115513770053" lon="21.531529661388">
        <ele>0</ele>
        <time>2017-06-17T10:26:15Z</time>
      </trkpt>
      <trkpt lat="60.115518883012" lon="21.531543072428">
        <ele>0</ele>
        <time>2017-06-17T10:26:16Z</time>
      </trkpt>
      <trkpt lat="60.115524247428" lon="21.531571570888">
        <ele>0</ele>
        <time>2017-06-17T10:26:17Z</time>
      </trkpt>
      <trkpt lat="60.115530198577" lon="21.531589172878">
        <ele>0</ele>
        <time>2017-06-17T10:26:18Z</time>
      </trkpt>
      <trkpt lat="60.115535143898" lon="21.531618425709">
        <ele>0</ele>
        <time>2017-06-17T10:26:19Z</time>
      </trkpt>
      <trkpt lat="60.115534724803" lon="21.531643822866">
        <ele>0</ele>
        <time>2017-06-17T10:26:20Z</time>
      </trkpt>
      <trkpt lat="60.115537071735" lon="21.53166695691">
        <ele>0</ele>
        <time>2017-06-17T10:26:21Z</time>
      </trkpt>
      <trkpt lat="60.115544112531" lon="21.531691432058">
        <ele>0</ele>
        <time>2017-06-17T10:26:22Z</time>
      </trkpt>
      <trkpt lat="60.115543106703" lon="21.531706938573">
        <ele>0</ele>
        <time>2017-06-17T10:26:23Z</time>
      </trkpt>
      <trkpt lat="60.115548471119" lon="21.531738035422">
        <ele>0</ele>
        <time>2017-06-17T10:26:24Z</time>
      </trkpt>
      <trkpt lat="60.115554506087" lon="21.531761504742">
        <ele>0</ele>
        <time>2017-06-17T10:26:25Z</time>
      </trkpt>
      <trkpt lat="60.115556853019" lon="21.531773909954">
        <ele>0</ele>
        <time>2017-06-17T10:26:26Z</time>
      </trkpt>
      <trkpt lat="60.115563139444" lon="21.531807521373">
        <ele>0</ele>
        <time>2017-06-17T10:26:27Z</time>
      </trkpt>
      <trkpt lat="60.115567162756" lon="21.531823614621">
        <ele>0</ele>
        <time>2017-06-17T10:26:28Z</time>
      </trkpt>
      <trkpt lat="60.115572191896" lon="21.531851274891">
        <ele>0</ele>
        <time>2017-06-17T10:26:29Z</time>
      </trkpt>
      <trkpt lat="60.115578897416" lon="21.531878432247">
        <ele>0</ele>
        <time>2017-06-17T10:26:30Z</time>
      </trkpt>
      <trkpt lat="60.115581747262" lon="21.531898800264">
        <ele>0</ele>
        <time>2017-06-17T10:26:31Z</time>
      </trkpt>
      <trkpt lat="60.115588201325" lon="21.531936518814">
        <ele>0</ele>
        <time>2017-06-17T10:26:32Z</time>
      </trkpt>
      <trkpt lat="60.115589793886" lon="21.531947918198">
        <ele>0</ele>
        <time>2017-06-17T10:26:33Z</time>
      </trkpt>
      <trkpt lat="60.115594823026" lon="21.531987061671">
        <ele>0</ele>
        <time>2017-06-17T10:26:34Z</time>
      </trkpt>
      <trkpt lat="60.115597672872" lon="21.532004412204">
        <ele>0</ele>
        <time>2017-06-17T10:26:35Z</time>
      </trkpt>
      <trkpt lat="60.115600019804" lon="21.532032491569">
        <ele>0</ele>
        <time>2017-06-17T10:26:36Z</time>
      </trkpt>
      <trkpt lat="60.115603791659" lon="21.532060654753">
        <ele>0</ele>
        <time>2017-06-17T10:26:37Z</time>
      </trkpt>
      <trkpt lat="60.115603791659" lon="21.532076496544">
        <ele>0</ele>
        <time>2017-06-17T10:26:38Z</time>
      </trkpt>
      <trkpt lat="60.115608569342" lon="21.532114801827">
        <ele>0</ele>
        <time>2017-06-17T10:26:39Z</time>
      </trkpt>
      <trkpt lat="60.115609742808" lon="21.532127290858">
        <ele>0</ele>
        <time>2017-06-17T10:26:40Z</time>
      </trkpt>
      <trkpt lat="60.115615358681" lon="21.532164338856">
        <ele>0</ele>
        <time>2017-06-17T10:26:41Z</time>
      </trkpt>
      <trkpt lat="60.115618124708" lon="21.532182611398">
        <ele>0</ele>
        <time>2017-06-17T10:26:42Z</time>
      </trkpt>
      <trkpt lat="60.115621393649" lon="21.532210606944">
        <ele>0</ele>
        <time>2017-06-17T10:26:43Z</time>
      </trkpt>
      <trkpt lat="60.115627260979" lon="21.532240949422">
        <ele>0</ele>
        <time>2017-06-17T10:26:44Z</time>
      </trkpt>
      <trkpt lat="60.115627931531" lon="21.532259305783">
        <ele>0</ele>
        <time>2017-06-17T10:26:45Z</time>
      </trkpt>
      <trkpt lat="60.115631619567" lon="21.532300377093">
        <ele>0</ele>
        <time>2017-06-17T10:26:46Z</time>
      </trkpt>
      <trkpt lat="60.115632876852" lon="21.532309429545">
        <ele>0</ele>
        <time>2017-06-17T10:26:47Z</time>
      </trkpt>
      <trkpt lat="60.115635223784" lon="21.532346896638">
        <ele>0</ele>
        <time>2017-06-17T10:26:48Z</time>
      </trkpt>
      <trkpt lat="60.115638157449" lon="21.532375730374">
        <ele>0</ele>
        <time>2017-06-17T10:26:49Z</time>
      </trkpt>
      <trkpt lat="60.115638408906" lon="21.532394757287">
        <ele>0</ele>
        <time>2017-06-17T10:26:50Z</time>
      </trkpt>
      <trkpt lat="60.115640169105" lon="21.532433230208">
        <ele>0</ele>
        <time>2017-06-17T10:26:51Z</time>
      </trkpt>
      <trkpt lat="60.115640001467" lon="21.532448066171">
        <ele>0</ele>
        <time>2017-06-17T10:26:52Z</time>
      </trkpt>
      <trkpt lat="60.115641258752" lon="21.532475391165">
        <ele>0</ele>
        <time>2017-06-17T10:26:53Z</time>
      </trkpt>
      <trkpt lat="60.115643186589" lon="21.532504979272">
        <ele>0</ele>
        <time>2017-06-17T10:26:54Z</time>
      </trkpt>
      <trkpt lat="60.115642851313" lon="21.532526436936">
        <ele>0</ele>
        <time>2017-06-17T10:26:55Z</time>
      </trkpt>
      <trkpt lat="60.115645365883" lon="21.532562395287">
        <ele>0</ele>
        <time>2017-06-17T10:26:56Z</time>
      </trkpt>
      <trkpt lat="60.115645365883" lon="21.532575051956">
        <ele>0</ele>
        <time>2017-06-17T10:26:57Z</time>
      </trkpt>
      <trkpt lat="60.115646706987" lon="21.532604807701">
        <ele>0</ele>
        <time>2017-06-17T10:26:58Z</time>
      </trkpt>
      <trkpt lat="60.115648383367" lon="21.53263087541">
        <ele>0</ele>
        <time>2017-06-17T10:26:59Z</time>
      </trkpt>
      <trkpt lat="60.1156489701" lon="21.53265602111">
        <ele>0</ele>
        <time>2017-06-17T10:27:00Z</time>
      </trkpt>
      <trkpt lat="60.115650814118" lon="21.532679574249">
        <ele>0</ele>
        <time>2017-06-17T10:27:01Z</time>
      </trkpt>
      <trkpt lat="60.115652490498" lon="21.532706731605">
        <ele>0</ele>
        <time>2017-06-17T10:27:02Z</time>
      </trkpt>
      <trkpt lat="60.115654418335" lon="21.532721819025">
        <ele>0</ele>
        <time>2017-06-17T10:27:03Z</time>
      </trkpt>
      <trkpt lat="60.115654418335" lon="21.532745623621">
        <ele>0</ele>
        <time>2017-06-17T10:27:04Z</time>
      </trkpt>
      <trkpt lat="60.115656178534" lon="21.532772948615">
        <ele>0</ele>
        <time>2017-06-17T10:27:05Z</time>
      </trkpt>
      <trkpt lat="60.115655424163" lon="21.532789628596">
        <ele>0</ele>
        <time>2017-06-17T10:27:06Z</time>
      </trkpt>
      <trkpt lat="60.115656346172" lon="21.532823910567">
        <ele>0</ele>
        <time>2017-06-17T10:27:07Z</time>
      </trkpt>
      <trkpt lat="60.115655088887" lon="21.532834387942">
        <ele>0</ele>
        <time>2017-06-17T10:27:08Z</time>
      </trkpt>
      <trkpt lat="60.115655591801" lon="21.532870011017">
        <ele>0</ele>
        <time>2017-06-17T10:27:09Z</time>
      </trkpt>
      <trkpt lat="60.115656429991" lon="21.532892055414">
        <ele>0</ele>
        <time>2017-06-17T10:27:10Z</time>
      </trkpt>
      <trkpt lat="60.115655759439" lon="21.53291083087">
        <ele>0</ele>
        <time>2017-06-17T10:27:11Z</time>
      </trkpt>
      <trkpt lat="60.115656094715" lon="21.532943185004">
        <ele>0</ele>
        <time>2017-06-17T10:27:12Z</time>
      </trkpt>
      <trkpt lat="60.115657268181" lon="21.532963469202">
        <ele>0</ele>
        <time>2017-06-17T10:27:13Z</time>
      </trkpt>
      <trkpt lat="60.115658693104" lon="21.532987441436">
        <ele>0</ele>
        <time>2017-06-17T10:27:14Z</time>
      </trkpt>
      <trkpt lat="60.115660369484" lon="21.533008396186">
        <ele>0</ele>
        <time>2017-06-17T10:27:15Z</time>
      </trkpt>
      <trkpt lat="60.115662884054" lon="21.533028093651">
        <ele>0</ele>
        <time>2017-06-17T10:27:16Z</time>
      </trkpt>
      <trkpt lat="60.115665566262" lon="21.533045360365">
        <ele>0</ele>
        <time>2017-06-17T10:27:17Z</time>
      </trkpt>
      <trkpt lat="60.115668416108" lon="21.533063297631">
        <ele>0</ele>
        <time>2017-06-17T10:27:18Z</time>
      </trkpt>
      <trkpt lat="60.115674534895" lon="21.533085342028">
        <ele>0</ele>
        <time>2017-06-17T10:27:19Z</time>
      </trkpt>
      <trkpt lat="60.11567495399" lon="21.533094143023">
        <ele>0</ele>
        <time>2017-06-17T10:27:20Z</time>
      </trkpt>
      <trkpt lat="60.115680905139" lon="21.533121970931">
        <ele>0</ele>
        <time>2017-06-17T10:27:21Z</time>
      </trkpt>
      <trkpt lat="60.115683587347" lon="21.533132029211">
        <ele>0</ele>
        <time>2017-06-17T10:27:22Z</time>
      </trkpt>
      <trkpt lat="60.115687862116" lon="21.533152648685">
        <ele>0</ele>
        <time>2017-06-17T10:27:23Z</time>
      </trkpt>
      <trkpt lat="60.115694483817" lon="21.533176034186">
        <ele>0</ele>
        <time>2017-06-17T10:27:24Z</time>
      </trkpt>
      <trkpt lat="60.115697333663" lon="21.53319246271">
        <ele>0</ele>
        <time>2017-06-17T10:27:25Z</time>
      </trkpt>
      <trkpt lat="60.115701189337" lon="21.53321928479">
        <ele>0</ele>
        <time>2017-06-17T10:27:26Z</time>
      </trkpt>
      <trkpt lat="60.115705464106" lon="21.533231354726">
        <ele>0</ele>
        <time>2017-06-17T10:27:27Z</time>
      </trkpt>
      <trkpt lat="60.115708900685" lon="21.53325113601">
        <ele>0</ele>
        <time>2017-06-17T10:27:28Z</time>
      </trkpt>
      <trkpt lat="60.115711331436" lon="21.533274772968">
        <ele>0</ele>
        <time>2017-06-17T10:27:29Z</time>
      </trkpt>
      <trkpt lat="60.115714851834" lon="21.533293716062">
        <ele>0</ele>
        <time>2017-06-17T10:27:30Z</time>
      </trkpt>
      <trkpt lat="60.11571770168" lon="21.533313748803">
        <ele>0</ele>
        <time>2017-06-17T10:27:31Z</time>
      </trkpt>
      <trkpt lat="60.11572105444" lon="21.533324142359">
        <ele>0</ele>
        <time>2017-06-17T10:27:32Z</time>
      </trkpt>
      <trkpt lat="60.11572273082" lon="21.533341241435">
        <ele>0</ele>
        <time>2017-06-17T10:27:33Z</time>
      </trkpt>
      <trkpt lat="60.115724155743" lon="21.533365381307">
        <ele>0</ele>
        <time>2017-06-17T10:27:34Z</time>
      </trkpt>
      <trkpt lat="60.115723904286" lon="21.533376696872">
        <ele>0</ele>
        <time>2017-06-17T10:27:35Z</time>
      </trkpt>
      <trkpt lat="60.115722898458" lon="21.53340033383">
        <ele>0</ele>
        <time>2017-06-17T10:27:36Z</time>
      </trkpt>
      <trkpt lat="60.11572608358" lon="21.533423132598">
        <ele>0</ele>
        <time>2017-06-17T10:27:37Z</time>
      </trkpt>
      <trkpt lat="60.115727340865" lon="21.533435370172">
        <ele>0</ele>
        <time>2017-06-17T10:27:38Z</time>
      </trkpt>
      <trkpt lat="60.115727843779" lon="21.533455151456">
        <ele>0.2</ele>
        <time>2017-06-17T10:27:39Z</time>
      </trkpt>
      <trkpt lat="60.11572859815" lon="21.533471160885">
        <ele>0</ele>
        <time>2017-06-17T10:27:40Z</time>
      </trkpt>
      <trkpt lat="60.115725580666" lon="21.533486080667">
        <ele>0</ele>
        <time>2017-06-17T10:27:41Z</time>
      </trkpt>
      <trkpt lat="60.115729268702" lon="21.53351013672">
        <ele>0</ele>
        <time>2017-06-17T10:27:42Z</time>
      </trkpt>
      <trkpt lat="60.115730023073" lon="21.533525056502">
        <ele>0</ele>
        <time>2017-06-17T10:27:43Z</time>
      </trkpt>
      <trkpt lat="60.115728262874" lon="21.533541485026">
        <ele>0</ele>
        <time>2017-06-17T10:27:44Z</time>
      </trkpt>
      <trkpt lat="60.115732286186" lon="21.533559757568">
        <ele>0</ele>
        <time>2017-06-17T10:27:45Z</time>
      </trkpt>
      <trkpt lat="60.115733878747" lon="21.533575850816">
        <ele>0</ele>
        <time>2017-06-17T10:27:46Z</time>
      </trkpt>
      <trkpt lat="60.115734884575" lon="21.533588591304">
        <ele>0</ele>
        <time>2017-06-17T10:27:47Z</time>
      </trkpt>
      <trkpt lat="60.115738572611" lon="21.533606193294">
        <ele>0</ele>
        <time>2017-06-17T10:27:48Z</time>
      </trkpt>
      <trkpt lat="60.115738237335" lon="21.533615161927">
        <ele>0</ele>
        <time>2017-06-17T10:27:49Z</time>
      </trkpt>
      <trkpt lat="60.115741925371" lon="21.533639888532">
        <ele>0</ele>
        <time>2017-06-17T10:27:50Z</time>
      </trkpt>
      <trkpt lat="60.115744188484" lon="21.533656065599">
        <ele>0.2</ele>
        <time>2017-06-17T10:27:51Z</time>
      </trkpt>
      <trkpt lat="60.115748044158" lon="21.533675846883">
        <ele>2.4</ele>
        <time>2017-06-17T10:27:52Z</time>
      </trkpt>
      <trkpt lat="60.115747960339" lon="21.533683222955">
        <ele>2.4</ele>
        <time>2017-06-17T10:27:53Z</time>
      </trkpt>
      <trkpt lat="60.115747122149" lon="21.533704345343">
        <ele>2.4</ele>
        <time>2017-06-17T10:27:54Z</time>
      </trkpt>
      <trkpt lat="60.115745864864" lon="21.533729323405">
        <ele>2.4</ele>
        <time>2017-06-17T10:27:55Z</time>
      </trkpt>
      <trkpt lat="60.115752318927" lon="21.533742902083">
        <ele>2.4</ele>
        <time>2017-06-17T10:27:56Z</time>
      </trkpt>
      <trkpt lat="60.115747541244" lon="21.533765700851">
        <ele>2.4</ele>
        <time>2017-06-17T10:27:57Z</time>
      </trkpt>
      <trkpt lat="60.115751564556" lon="21.533785398316">
        <ele>2.4</ele>
        <time>2017-06-17T10:27:58Z</time>
      </trkpt>
      <trkpt lat="60.115756090782" lon="21.533807861808">
        <ele>2.4</ele>
        <time>2017-06-17T10:27:59Z</time>
      </trkpt>
      <trkpt lat="60.115758689171" lon="21.533821691943">
        <ele>2.4</ele>
        <time>2017-06-17T10:28:00Z</time>
      </trkpt>
      <trkpt lat="60.115761958112" lon="21.533843401064">
        <ele>2.4</ele>
        <time>2017-06-17T10:28:01Z</time>
      </trkpt>
      <trkpt lat="60.115766819614" lon="21.533867624755">
        <ele>2.4</ele>
        <time>2017-06-17T10:28:02Z</time>
      </trkpt>
      <trkpt lat="60.115768244537" lon="21.533881119614">
        <ele>2.4</ele>
        <time>2017-06-17T10:28:03Z</time>
      </trkpt>
      <trkpt lat="60.115774447143" lon="21.533912803196">
        <ele>2.4</ele>
        <time>2017-06-17T10:28:04Z</time>
      </trkpt>
      <trkpt lat="60.115774866238" lon="21.533923280571">
        <ele>2.4</ele>
        <time>2017-06-17T10:28:05Z</time>
      </trkpt>
      <trkpt lat="60.115779979197" lon="21.533955550886">
        <ele>2.4</ele>
        <time>2017-06-17T10:28:06Z</time>
      </trkpt>
      <trkpt lat="60.115781152663" lon="21.533969045745">
        <ele>2.4</ele>
        <time>2017-06-17T10:28:07Z</time>
      </trkpt>
      <trkpt lat="60.115783834871" lon="21.533993185617">
        <ele>2.4</ele>
        <time>2017-06-17T10:28:08Z</time>
      </trkpt>
      <trkpt lat="60.115786852355" lon="21.53401640348">
        <ele>2.4</ele>
        <time>2017-06-17T10:28:09Z</time>
      </trkpt>
      <trkpt lat="60.115787355269" lon="21.534034340746">
        <ele>2.4</ele>
        <time>2017-06-17T10:28:10Z</time>
      </trkpt>
      <trkpt lat="60.11579313878" lon="21.534063006844">
        <ele>2.4</ele>
        <time>2017-06-17T10:28:11Z</time>
      </trkpt>
      <trkpt lat="60.115793641694" lon="21.534077842807">
        <ele>2.4</ele>
        <time>2017-06-17T10:28:12Z</time>
      </trkpt>
      <trkpt lat="60.115800011938" lon="21.534108855837">
        <ele>2.4</ele>
        <time>2017-06-17T10:28:13Z</time>
      </trkpt>
      <trkpt lat="60.115801939775" lon="21.534125284361">
        <ele>2.4</ele>
        <time>2017-06-17T10:28:14Z</time>
      </trkpt>
      <trkpt lat="60.115805460173" lon="21.534149508052">
        <ele>2.4</ele>
        <time>2017-06-17T10:28:15Z</time>
      </trkpt>
      <trkpt lat="60.115811159865" lon="21.534178928521">
        <ele>2.4</ele>
        <time>2017-06-17T10:28:16Z</time>
      </trkpt>
      <trkpt lat="60.115814680263" lon="21.534192674837">
        <ele>2.4</ele>
        <time>2017-06-17T10:28:17Z</time>
      </trkpt>
      <trkpt lat="60.115817111014" lon="21.534223101134">
        <ele>2.4</ele>
        <time>2017-06-17T10:28:18Z</time>
      </trkpt>
      <trkpt lat="60.115823145982" lon="21.534251599594">
        <ele>2.4</ele>
        <time>2017-06-17T10:28:19Z</time>
      </trkpt>
      <trkpt lat="60.115823145982" lon="21.534264340082">
        <ele>2.4</ele>
        <time>2017-06-17T10:28:20Z</time>
      </trkpt>
      <trkpt lat="60.115830605873" lon="21.534297867682">
        <ele>2.4</ele>
        <time>2017-06-17T10:28:21Z</time>
      </trkpt>
      <trkpt lat="60.115831946977" lon="21.534309853799">
        <ele>2.4</ele>
        <time>2017-06-17T10:28:22Z</time>
      </trkpt>
      <trkpt lat="60.115836976117" lon="21.534335837689">
        <ele>2.4</ele>
        <time>2017-06-17T10:28:23Z</time>
      </trkpt>
      <trkpt lat="60.115841334705" lon="21.534354445507">
        <ele>2.4</ele>
        <time>2017-06-17T10:28:24Z</time>
      </trkpt>
      <trkpt lat="60.115846280026" lon="21.534379004474">
        <ele>2.4</ele>
        <time>2017-06-17T10:28:25Z</time>
      </trkpt>
      <trkpt lat="60.115851057709" lon="21.534397528473">
        <ele>2.4</ele>
        <time>2017-06-17T10:28:26Z</time>
      </trkpt>
      <trkpt lat="60.115854242831" lon="21.534416555386">
        <ele>2.4</ele>
        <time>2017-06-17T10:28:27Z</time>
      </trkpt>
      <trkpt lat="60.11586270855" lon="21.534440611439">
        <ele>2.4</ele>
        <time>2017-06-17T10:28:28Z</time>
      </trkpt>
      <trkpt lat="60.115865055482" lon="21.534456369411">
        <ele>2.4</ele>
        <time>2017-06-17T10:28:29Z</time>
      </trkpt>
      <trkpt lat="60.115874359391" lon="21.534488639726">
        <ele>2.4</ele>
        <time>2017-06-17T10:28:30Z</time>
      </trkpt>
      <trkpt lat="60.115876371047" lon="21.534501631671">
        <ele>2.4</ele>
        <time>2017-06-17T10:28:31Z</time>
      </trkpt>
      <trkpt lat="60.115882406015" lon="21.534533231434">
        <ele>2.4</ele>
        <time>2017-06-17T10:28:32Z</time>
      </trkpt>
      <trkpt lat="60.115887351336" lon="21.534552174528">
        <ele>2.4</ele>
        <time>2017-06-17T10:28:33Z</time>
      </trkpt>
      <trkpt lat="60.115890536458" lon="21.534574721839">
        <ele>2.4</ele>
        <time>2017-06-17T10:28:34Z</time>
      </trkpt>
      <trkpt lat="60.11589372158" lon="21.534593664933">
        <ele>2.4</ele>
        <time>2017-06-17T10:28:35Z</time>
      </trkpt>
      <trkpt lat="60.115897158159" lon="21.534614954959">
        <ele>2.4</ele>
        <time>2017-06-17T10:28:36Z</time>
      </trkpt>
      <trkpt lat="60.115899253634" lon="21.534634233329">
        <ele>2.4</ele>
        <time>2017-06-17T10:28:37Z</time>
      </trkpt>
      <trkpt lat="60.115901432928" lon="21.534651416224">
        <ele>2.4</ele>
        <time>2017-06-17T10:28:38Z</time>
      </trkpt>
      <trkpt lat="60.115906210611" lon="21.534672538612">
        <ele>2.4</ele>
        <time>2017-06-17T10:28:39Z</time>
      </trkpt>
      <trkpt lat="60.115905959154" lon="21.534682848349">
        <ele>2.4</ele>
        <time>2017-06-17T10:28:40Z</time>
      </trkpt>
      <trkpt lat="60.115904701869" lon="21.534705479479">
        <ele>2.4</ele>
        <time>2017-06-17T10:28:41Z</time>
      </trkpt>
      <trkpt lat="60.115905372421" lon="21.53472383584">
        <ele>2.4</ele>
        <time>2017-06-17T10:28:42Z</time>
      </trkpt>
      <trkpt lat="60.11590461805" lon="21.534747724255">
        <ele>2.4</ele>
        <time>2017-06-17T10:28:43Z</time>
      </trkpt>
      <trkpt lat="60.115908054629" lon="21.534766834987">
        <ele>2.4</ele>
        <time>2017-06-17T10:28:44Z</time>
      </trkpt>
      <trkpt lat="60.115904031317" lon="21.534795501085">
        <ele>2.4</ele>
        <time>2017-06-17T10:28:45Z</time>
      </trkpt>
      <trkpt lat="60.115908222267" lon="21.534815114731">
        <ele>2.4</ele>
        <time>2017-06-17T10:28:46Z</time>
      </trkpt>
      <trkpt lat="60.115909563371" lon="21.534840176612">
        <ele>2.4</ele>
        <time>2017-06-17T10:28:47Z</time>
      </trkpt>
      <trkpt lat="60.115910317742" lon="21.534855766946">
        <ele>2.4</ele>
        <time>2017-06-17T10:28:48Z</time>
      </trkpt>
      <trkpt lat="60.115910736837" lon="21.534883343397">
        <ele>2.4</ele>
        <time>2017-06-17T10:28:49Z</time>
      </trkpt>
      <trkpt lat="60.115911658846" lon="21.534908572916">
        <ele>2.4</ele>
        <time>2017-06-17T10:28:50Z</time>
      </trkpt>
      <trkpt lat="60.115910988294" lon="21.534926258725">
        <ele>2.4</ele>
        <time>2017-06-17T10:28:51Z</time>
      </trkpt>
      <trkpt lat="60.115912580855" lon="21.534962384714">
        <ele>2.4</ele>
        <time>2017-06-17T10:28:52Z</time>
      </trkpt>
      <trkpt lat="60.115912748493" lon="21.534972694451">
        <ele>2.4</ele>
        <time>2017-06-17T10:28:53Z</time>
      </trkpt>
      <trkpt lat="60.115909395733" lon="21.53500882044">
        <ele>2.4</ele>
        <time>2017-06-17T10:28:54Z</time>
      </trkpt>
      <trkpt lat="60.115908306086" lon="21.535027344439">
        <ele>2.4</ele>
        <time>2017-06-17T10:28:55Z</time>
      </trkpt>
      <trkpt lat="60.11590294167" lon="21.535057100184">
        <ele>2.4</ele>
        <time>2017-06-17T10:28:56Z</time>
      </trkpt>
      <trkpt lat="60.115907384077" lon="21.535076378554">
        <ele>2.4</ele>
        <time>2017-06-17T10:28:57Z</time>
      </trkpt>
      <trkpt lat="60.115900510919" lon="21.535101943349">
        <ele>2.4</ele>
        <time>2017-06-17T10:28:58Z</time>
      </trkpt>
      <trkpt lat="60.115904115136" lon="21.535130106533">
        <ele>2.4</ele>
        <time>2017-06-17T10:28:59Z</time>
      </trkpt>
      <trkpt lat="60.115900762376" lon="21.535148043799">
        <ele>2.4</ele>
        <time>2017-06-17T10:29:00Z</time>
      </trkpt>
      <trkpt lat="60.115895984693" lon="21.535178553915">
        <ele>2.4</ele>
        <time>2017-06-17T10:29:01Z</time>
      </trkpt>
      <trkpt lat="60.115899840367" lon="21.535199508665">
        <ele>2.4</ele>
        <time>2017-06-17T10:29:02Z</time>
      </trkpt>
      <trkpt lat="60.115893553942" lon="21.535225827831">
        <ele>2.4</ele>
        <time>2017-06-17T10:29:03Z</time>
      </trkpt>
      <trkpt lat="60.11589791253" lon="21.535257259956">
        <ele>2.4</ele>
        <time>2017-06-17T10:29:04Z</time>
      </trkpt>
      <trkpt lat="60.115893470123" lon="21.535274359032">
        <ele>2.4</ele>
        <time>2017-06-17T10:29:05Z</time>
      </trkpt>
      <trkpt lat="60.115892464295" lon="21.535310065926">
        <ele>2.4</ele>
        <time>2017-06-17T10:29:06Z</time>
      </trkpt>
      <trkpt lat="60.115891542286" lon="21.535326997364">
        <ele>2.4</ele>
        <time>2017-06-17T10:29:07Z</time>
      </trkpt>
      <trkpt lat="60.115889949725" lon="21.535359435317">
        <ele>2.4</ele>
        <time>2017-06-17T10:29:08Z</time>
      </trkpt>
      <trkpt lat="60.115892212838" lon="21.535377959316">
        <ele>2.4</ele>
        <time>2017-06-17T10:29:09Z</time>
      </trkpt>
      <trkpt lat="60.115887351336" lon="21.535410397269">
        <ele>2.4</ele>
        <time>2017-06-17T10:29:10Z</time>
      </trkpt>
      <trkpt lat="60.115891542286" lon="21.535429843277">
        <ele>2.4</ele>
        <time>2017-06-17T10:29:11Z</time>
      </trkpt>
      <trkpt lat="60.115885423499" lon="21.535462700325">
        <ele>2.4</ele>
        <time>2017-06-17T10:29:12Z</time>
      </trkpt>
      <trkpt lat="60.115889614449" lon="21.535489187129">
        <ele>2.4</ele>
        <time>2017-06-17T10:29:13Z</time>
      </trkpt>
      <trkpt lat="60.115883495662" lon="21.535513913734">
        <ele>2.4</ele>
        <time>2017-06-17T10:29:14Z</time>
      </trkpt>
      <trkpt lat="60.115885674956" lon="21.535546351687">
        <ele>2.4</ele>
        <time>2017-06-17T10:29:15Z</time>
      </trkpt>
      <trkpt lat="60.115882908929" lon="21.535567557894">
        <ele>2.4</ele>
        <time>2017-06-17T10:29:16Z</time>
      </trkpt>
      <trkpt lat="60.11588198692" lon="21.535603264788">
        <ele>2.4</ele>
        <time>2017-06-17T10:29:17Z</time>
      </trkpt>
      <trkpt lat="60.11588114873" lon="21.535620866778">
        <ele>2.4</ele>
        <time>2017-06-17T10:29:18Z</time>
      </trkpt>
      <trkpt lat="60.115876622504" lon="21.535656238396">
        <ele>2.4</ele>
        <time>2017-06-17T10:29:19Z</time>
      </trkpt>
      <trkpt lat="60.115879723807" lon="21.535679875354">
        <ele>2.4</ele>
        <time>2017-06-17T10:29:20Z</time>
      </trkpt>
      <trkpt lat="60.115873521201" lon="21.535713822049">
        <ele>2.4</ele>
        <time>2017-06-17T10:29:21Z</time>
      </trkpt>
      <trkpt lat="60.115878298884" lon="21.535737123731">
        <ele>2.4</ele>
        <time>2017-06-17T10:29:22Z</time>
      </trkpt>
      <trkpt lat="60.115871593364" lon="21.535762520888">
        <ele>2.4</ele>
        <time>2017-06-17T10:29:23Z</time>
      </trkpt>
      <trkpt lat="60.115873772658" lon="21.53579923361">
        <ele>2.4</ele>
        <time>2017-06-17T10:29:24Z</time>
      </trkpt>
      <trkpt lat="60.115867905328" lon="21.53582018836">
        <ele>2.4</ele>
        <time>2017-06-17T10:29:25Z</time>
      </trkpt>
      <trkpt lat="60.115868492061" lon="21.535856984901">
        <ele>2.4</ele>
        <time>2017-06-17T10:29:26Z</time>
      </trkpt>
      <trkpt lat="60.115864887844" lon="21.535875341262">
        <ele>2.4</ele>
        <time>2017-06-17T10:29:27Z</time>
      </trkpt>
      <trkpt lat="60.11586187036" lon="21.535909204138">
        <ele>2.4</ele>
        <time>2017-06-17T10:29:28Z</time>
      </trkpt>
      <trkpt lat="60.115862540912" lon="21.535927392861">
        <ele>2.4</ele>
        <time>2017-06-17T10:29:29Z</time>
      </trkpt>
      <trkpt lat="60.115855751573" lon="21.535962429203">
        <ele>2.4</ele>
        <time>2017-06-17T10:29:30Z</time>
      </trkpt>
      <trkpt lat="60.115859020514" lon="21.535984976514">
        <ele>2.4</ele>
        <time>2017-06-17T10:29:31Z</time>
      </trkpt>
      <trkpt lat="60.115851225347" lon="21.536021102503">
        <ele>2.4</ele>
        <time>2017-06-17T10:29:32Z</time>
      </trkpt>
      <trkpt lat="60.115855751573" lon="21.536043649814">
        <ele>2.4</ele>
        <time>2017-06-17T10:29:33Z</time>
      </trkpt>
      <trkpt lat="60.115847453492" lon="21.536074914301">
        <ele>2.4</ele>
        <time>2017-06-17T10:29:34Z</time>
      </trkpt>
      <trkpt lat="60.115852147356" lon="21.536100311458">
        <ele>2.4</ele>
        <time>2017-06-17T10:29:35Z</time>
      </trkpt>
      <trkpt lat="60.115844184551" lon="21.536129312832">
        <ele>2.4</ele>
        <time>2017-06-17T10:29:36Z</time>
      </trkpt>
      <trkpt lat="60.115848626958" lon="21.536162086061">
        <ele>2.4</ele>
        <time>2017-06-17T10:29:37Z</time>
      </trkpt>
      <trkpt lat="60.11584259199" lon="21.536183795182">
        <ele>2.4</ele>
        <time>2017-06-17T10:29:38Z</time>
      </trkpt>
      <trkpt lat="60.11584762113" lon="21.536221429913">
        <ele>3.8</ele>
        <time>2017-06-17T10:29:39Z</time>
      </trkpt>
      <trkpt lat="60.115848794596" lon="21.536241881749">
        <ele>3.8</ele>
        <time>2017-06-17T10:29:40Z</time>
      </trkpt>
      <trkpt lat="60.115847704949" lon="21.536263926146">
        <ele>3.8</ele>
        <time>2017-06-17T10:29:41Z</time>
      </trkpt>
      <trkpt lat="60.115842759628" lon="21.536291418778">
        <ele>3.8</ele>
        <time>2017-06-17T10:29:42Z</time>
      </trkpt>
      <trkpt lat="60.11583923923" lon="21.536322515627">
        <ele>3.8</ele>
        <time>2017-06-17T10:29:43Z</time>
      </trkpt>
      <trkpt lat="60.115844603646" lon="21.536343302739">
        <ele>3.8</ele>
        <time>2017-06-17T10:29:44Z</time>
      </trkpt>
      <trkpt lat="60.115839993601" lon="21.536369873362">
        <ele>3.8</ele>
        <time>2017-06-17T10:29:45Z</time>
      </trkpt>
      <trkpt lat="60.115847285854" lon="21.536394767605">
        <ele>3.8</ele>
        <time>2017-06-17T10:29:46Z</time>
      </trkpt>
      <trkpt lat="60.115842927266" lon="21.536410190301">
        <ele>3.8</ele>
        <time>2017-06-17T10:29:47Z</time>
      </trkpt>
      <trkpt lat="60.115847704949" lon="21.536444723729">
        <ele>3.8</ele>
        <time>2017-06-17T10:29:48Z</time>
      </trkpt>
      <trkpt lat="60.11584426837" lon="21.536466768126">
        <ele>3.8</ele>
        <time>2017-06-17T10:29:49Z</time>
      </trkpt>
      <trkpt lat="60.115848040225" lon="21.536494176939">
        <ele>3.8</ele>
        <time>2017-06-17T10:29:50Z</time>
      </trkpt>
      <trkpt lat="60.115849800424" lon="21.536516305155">
        <ele>3.8</ele>
        <time>2017-06-17T10:29:51Z</time>
      </trkpt>
      <trkpt lat="60.115854745745" lon="21.53654103176">
        <ele>3.8</ele>
        <time>2017-06-17T10:29:52Z</time>
      </trkpt>
      <trkpt lat="60.115853656098" lon="21.536553269334">
        <ele>3.8</ele>
        <time>2017-06-17T10:29:53Z</time>
      </trkpt>
      <trkpt lat="60.115856422125" lon="21.536591993712">
        <ele>3.8</ele>
        <time>2017-06-17T10:29:54Z</time>
      </trkpt>
      <trkpt lat="60.115855919211" lon="21.53660724877">
        <ele>3.8</ele>
        <time>2017-06-17T10:29:55Z</time>
      </trkpt>
      <trkpt lat="60.115855835392" lon="21.536640608732">
        <ele>1.8</ele>
        <time>2017-06-17T10:29:56Z</time>
      </trkpt>
      <trkpt lat="60.115856422125" lon="21.536662150215">
        <ele>1.8</ele>
        <time>2017-06-17T10:29:57Z</time>
      </trkpt>
      <trkpt lat="60.115854997202" lon="21.536685451897">
        <ele>1.8</ele>
        <time>2017-06-17T10:29:58Z</time>
      </trkpt>
      <trkpt lat="60.115853572279" lon="21.536713615081">
        <ele>1.8</ele>
        <time>2017-06-17T10:29:59Z</time>
      </trkpt>
      <trkpt lat="60.115853153184" lon="21.536737252039">
        <ele>1.8</ele>
        <time>2017-06-17T10:30:00Z</time>
      </trkpt>
      <trkpt lat="60.115852147356" lon="21.536762230101">
        <ele>1.8</ele>
        <time>2017-06-17T10:30:01Z</time>
      </trkpt>
      <trkpt lat="60.115852314994" lon="21.536783352489">
        <ele>1.8</ele>
        <time>2017-06-17T10:30:02Z</time>
      </trkpt>
      <trkpt lat="60.115852398813" lon="21.536805313067">
        <ele>1.8</ele>
        <time>2017-06-17T10:30:03Z</time>
      </trkpt>
      <trkpt lat="60.115850890071" lon="21.536819562297">
        <ele>1.8</ele>
        <time>2017-06-17T10:30:04Z</time>
      </trkpt>
      <trkpt lat="60.115851392985" lon="21.536857448485">
        <ele>1.8</ele>
        <time>2017-06-17T10:30:05Z</time>
      </trkpt>
      <trkpt lat="60.115849213691" lon="21.536870691887">
        <ele>1.8</ele>
        <time>2017-06-17T10:30:06Z</time>
      </trkpt>
      <trkpt lat="60.115850219519" lon="21.536908326618">
        <ele>1.8</ele>
        <time>2017-06-17T10:30:07Z</time>
      </trkpt>
      <trkpt lat="60.11584929751" lon="21.536918720174">
        <ele>1.8</ele>
        <time>2017-06-17T10:30:08Z</time>
      </trkpt>
      <trkpt lat="60.115850051881" lon="21.536957193095">
        <ele>1.8</ele>
        <time>2017-06-17T10:30:09Z</time>
      </trkpt>
      <trkpt lat="60.115851141528" lon="21.536973621619">
        <ele>1.8</ele>
        <time>2017-06-17T10:30:10Z</time>
      </trkpt>
      <trkpt lat="60.115850554795" lon="21.537006646305">
        <ele>1.8</ele>
        <time>2017-06-17T10:30:11Z</time>
      </trkpt>
      <trkpt lat="60.115850890071" lon="21.537031875824">
        <ele>1.8</ele>
        <time>2017-06-17T10:30:12Z</time>
      </trkpt>
      <trkpt lat="60.11584845932" lon="21.537060625741">
        <ele>1.8</ele>
        <time>2017-06-17T10:30:13Z</time>
      </trkpt>
      <trkpt lat="60.115848291682" lon="21.537088453649">
        <ele>1.8</ele>
        <time>2017-06-17T10:30:14Z</time>
      </trkpt>
      <trkpt lat="60.115844184551" lon="21.537115359548">
        <ele>1.8</ele>
        <time>2017-06-17T10:30:15Z</time>
      </trkpt>
      <trkpt lat="60.115842340533" lon="21.537142684542">
        <ele>1.8</ele>
        <time>2017-06-17T10:30:16Z</time>
      </trkpt>
      <trkpt lat="60.115837311393" lon="21.537165818586">
        <ele>1.8</ele>
        <time>2017-06-17T10:30:17Z</time>
      </trkpt>
      <trkpt lat="60.115832198434" lon="21.537193646494">
        <ele>1.8</ele>
        <time>2017-06-17T10:30:18Z</time>
      </trkpt>
      <trkpt lat="60.115826247285" lon="21.537216445262">
        <ele>1.8</ele>
        <time>2017-06-17T10:30:19Z</time>
      </trkpt>
      <trkpt lat="60.115817949204" lon="21.537247123016">
        <ele>1.8</ele>
        <time>2017-06-17T10:30:20Z</time>
      </trkpt>
      <trkpt lat="60.115811495141" lon="21.537262880988">
        <ele>1.8</ele>
        <time>2017-06-17T10:30:21Z</time>
      </trkpt>
      <trkpt lat="60.115803951431" lon="21.537284338652">
        <ele>1.8</ele>
        <time>2017-06-17T10:30:22Z</time>
      </trkpt>
      <trkpt lat="60.115796575359" lon="21.537306215411">
        <ele>1.8</ele>
        <time>2017-06-17T10:30:23Z</time>
      </trkpt>
      <trkpt lat="60.115791210943" lon="21.537318788261">
        <ele>1.8</ele>
        <time>2017-06-17T10:30:24Z</time>
      </trkpt>
      <trkpt lat="60.115778470455" lon="21.537345358884">
        <ele>1.8</ele>
        <time>2017-06-17T10:30:25Z</time>
      </trkpt>
      <trkpt lat="60.115774195686" lon="21.537354998069">
        <ele>1.8</ele>
        <time>2017-06-17T10:30:26Z</time>
      </trkpt>
      <trkpt lat="60.115761622836" lon="21.537377461561">
        <ele>1.8</ele>
        <time>2017-06-17T10:30:27Z</time>
      </trkpt>
      <trkpt lat="60.115756174601" lon="21.537388022755">
        <ele>1.8</ele>
        <time>2017-06-17T10:30:28Z</time>
      </trkpt>
      <trkpt lat="60.11574536195" lon="21.53740185289">
        <ele>1.8</ele>
        <time>2017-06-17T10:30:29Z</time>
      </trkpt>
      <trkpt lat="60.11573530367" lon="21.537415012473">
        <ele>1.8</ele>
        <time>2017-06-17T10:30:30Z</time>
      </trkpt>
      <trkpt lat="60.115726251218" lon="21.537428004418">
        <ele>1.8</ele>
        <time>2017-06-17T10:30:31Z</time>
      </trkpt>
      <trkpt lat="60.115718372232" lon="21.537439236164">
        <ele>1.8</ele>
        <time>2017-06-17T10:30:32Z</time>
      </trkpt>
      <trkpt lat="60.115709738875" lon="21.537455580869">
        <ele>1.8</ele>
        <time>2017-06-17T10:30:33Z</time>
      </trkpt>
      <trkpt lat="60.115705464106" lon="21.537462370208">
        <ele>1.8</ele>
        <time>2017-06-17T10:30:34Z</time>
      </trkpt>
      <trkpt lat="60.115694064722" lon="21.537475697429">
        <ele>1.8</ele>
        <time>2017-06-17T10:30:35Z</time>
      </trkpt>
      <trkpt lat="60.11568501227" lon="21.537488354098">
        <ele>1.8</ele>
        <time>2017-06-17T10:30:36Z</time>
      </trkpt>
      <trkpt lat="60.115678390569" lon="21.537495311075">
        <ele>1.8</ele>
        <time>2017-06-17T10:30:37Z</time>
      </trkpt>
      <trkpt lat="60.115664979529" lon="21.537508219201">
        <ele>1.8</ele>
        <time>2017-06-17T10:30:38Z</time>
      </trkpt>
      <trkpt lat="60.115659615113" lon="21.537514673264">
        <ele>1.8</ele>
        <time>2017-06-17T10:30:39Z</time>
      </trkpt>
      <trkpt lat="60.115643521865" lon="21.53752506682">
        <ele>1.8</ele>
        <time>2017-06-17T10:30:40Z</time>
      </trkpt>
      <trkpt lat="60.115637654535" lon="21.537532778168">
        <ele>1.8</ele>
        <time>2017-06-17T10:30:41Z</time>
      </trkpt>
      <trkpt lat="60.11562550078" lon="21.537538645498">
        <ele>1.8</ele>
        <time>2017-06-17T10:30:42Z</time>
      </trkpt>
      <trkpt lat="60.115613598482" lon="21.537546775941">
        <ele>1.8</ele>
        <time>2017-06-17T10:30:43Z</time>
      </trkpt>
      <trkpt lat="60.115605551858" lon="21.537549039054">
        <ele>1.8</ele>
        <time>2017-06-17T10:30:44Z</time>
      </trkpt>
      <trkpt lat="60.115588871877" lon="21.537555157841">
        <ele>1.8</ele>
        <time>2017-06-17T10:30:45Z</time>
      </trkpt>
      <trkpt lat="60.115582669271" lon="21.537558007687">
        <ele>1.8</ele>
        <time>2017-06-17T10:30:46Z</time>
      </trkpt>
      <trkpt lat="60.115566492204" lon="21.537559935524">
        <ele>1.8</ele>
        <time>2017-06-17T10:30:47Z</time>
      </trkpt>
      <trkpt lat="60.115559367589" lon="21.537563707379">
        <ele>1.8</ele>
        <time>2017-06-17T10:30:48Z</time>
      </trkpt>
      <trkpt lat="60.115543777255" lon="21.537562114818">
        <ele>1.8</ele>
        <time>2017-06-17T10:30:49Z</time>
      </trkpt>
      <trkpt lat="60.115534557165" lon="21.537564713207">
        <ele>1.8</ele>
        <time>2017-06-17T10:30:50Z</time>
      </trkpt>
      <trkpt lat="60.115522654867" lon="21.537559851705">
        <ele>1.8</ele>
        <time>2017-06-17T10:30:51Z</time>
      </trkpt>
      <trkpt lat="60.115515194976" lon="21.537554487289">
        <ele>1.8</ele>
        <time>2017-06-17T10:30:52Z</time>
      </trkpt>
      <trkpt lat="60.115504298506" lon="21.537546692122">
        <ele>1.8</ele>
        <time>2017-06-17T10:30:53Z</time>
      </trkpt>
      <trkpt lat="60.115494156407" lon="21.537554738746">
        <ele>1.8</ele>
        <time>2017-06-17T10:30:54Z</time>
      </trkpt>
      <trkpt lat="60.115481751195" lon="21.537539232231">
        <ele>1.8</ele>
        <time>2017-06-17T10:30:55Z</time>
      </trkpt>
      <trkpt lat="60.115470770906" lon="21.537542836448">
        <ele>1.8</ele>
        <time>2017-06-17T10:30:56Z</time>
      </trkpt>
      <trkpt lat="60.115457108409" lon="21.537549039054">
        <ele>1.8</ele>
        <time>2017-06-17T10:30:57Z</time>
      </trkpt>
      <trkpt lat="60.115452163088" lon="21.537547865588">
        <ele>1.8</ele>
        <time>2017-06-17T10:30:58Z</time>
      </trkpt>
      <trkpt lat="60.115435483107" lon="21.537554654927">
        <ele>1.8</ele>
        <time>2017-06-17T10:30:59Z</time>
      </trkpt>
      <trkpt lat="60.11542936432" lon="21.53755524166">
        <ele>1.8</ele>
        <time>2017-06-17T10:31:00Z</time>
      </trkpt>
      <trkpt lat="60.115410002131" lon="21.537564126474">
        <ele>1.8</ele>
        <time>2017-06-17T10:31:01Z</time>
      </trkpt>
      <trkpt lat="60.115403464249" lon="21.537568987976">
        <ele>1.8</ele>
        <time>2017-06-17T10:31:02Z</time>
      </trkpt>
      <trkpt lat="60.115388628286" lon="21.537574603849">
        <ele>1.8</ele>
        <time>2017-06-17T10:31:03Z</time>
      </trkpt>
      <trkpt lat="60.115378653825" lon="21.537579297713">
        <ele>1.8</ele>
        <time>2017-06-17T10:31:04Z</time>
      </trkpt>
      <trkpt lat="60.115364572233" lon="21.537584745948">
        <ele>1.8</ele>
        <time>2017-06-17T10:31:05Z</time>
      </trkpt>
      <trkpt lat="60.115353843401" lon="21.537589355993">
        <ele>1.8</ele>
        <time>2017-06-17T10:31:06Z</time>
      </trkpt>
      <trkpt lat="60.115344539492" lon="21.53759044564">
        <ele>1.8</ele>
        <time>2017-06-17T10:31:07Z</time>
      </trkpt>
      <trkpt lat="60.115329787348" lon="21.5375937984">
        <ele>1.8</ele>
        <time>2017-06-17T10:31:08Z</time>
      </trkpt>
      <trkpt lat="60.115323081828" lon="21.537594888047">
        <ele>1.8</ele>
        <time>2017-06-17T10:31:09Z</time>
      </trkpt>
      <trkpt lat="60.115305479838" lon="21.537595893875">
        <ele>1.8</ele>
        <time>2017-06-17T10:31:10Z</time>
      </trkpt>
      <trkpt lat="60.11530112125" lon="21.537596564427">
        <ele>1.8</ele>
        <time>2017-06-17T10:31:11Z</time>
      </trkpt>
      <trkpt lat="60.115284441269" lon="21.53759128383">
        <ele>1.8</ele>
        <time>2017-06-17T10:31:12Z</time>
      </trkpt>
      <trkpt lat="60.115277903387" lon="21.537592541115">
        <ele>1.8</ele>
        <time>2017-06-17T10:31:13Z</time>
      </trkpt>
      <trkpt lat="60.115262899786" lon="21.537585165043">
        <ele>1.8</ele>
        <time>2017-06-17T10:31:14Z</time>
      </trkpt>
      <trkpt lat="60.115254350248" lon="21.537583153387">
        <ele>1.8</ele>
        <time>2017-06-17T10:31:15Z</time>
      </trkpt>
      <trkpt lat="60.115242112674" lon="21.537575525858">
        <ele>1.8</ele>
        <time>2017-06-17T10:31:16Z</time>
      </trkpt>
      <trkpt lat="60.115231886756" lon="21.537569658528">
        <ele>1.8</ele>
        <time>2017-06-17T10:31:17Z</time>
      </trkpt>
      <trkpt lat="60.115224929779" lon="21.537561360447">
        <ele>1.8</ele>
        <time>2017-06-17T10:31:18Z</time>
      </trkpt>
      <trkpt lat="60.115210764368" lon="21.53754769795">
        <ele>1.8</ele>
        <time>2017-06-17T10:31:19Z</time>
      </trkpt>
      <trkpt lat="60.115206489599" lon="21.537542417353">
        <ele>1.8</ele>
        <time>2017-06-17T10:31:20Z</time>
      </trkpt>
      <trkpt lat="60.115191988912" lon="21.537523055164">
        <ele>1.8</ele>
        <time>2017-06-17T10:31:21Z</time>
      </trkpt>
      <trkpt lat="60.115187378867" lon="21.537515679092">
        <ele>1.8</ele>
        <time>2017-06-17T10:31:22Z</time>
      </trkpt>
      <trkpt lat="60.115176063302" lon="21.537499334387">
        <ele>1.8</ele>
        <time>2017-06-17T10:31:23Z</time>
      </trkpt>
      <trkpt lat="60.115168184316" lon="21.537488521736">
        <ele>1.8</ele>
        <time>2017-06-17T10:31:24Z</time>
      </trkpt>
      <trkpt lat="60.115157623122" lon="21.537471003565">
        <ele>1.8</ele>
        <time>2017-06-17T10:31:25Z</time>
      </trkpt>
      <trkpt lat="60.115148319213" lon="21.537459688">
        <ele>1.8</ele>
        <time>2017-06-17T10:31:26Z</time>
      </trkpt>
      <trkpt lat="60.115138344752" lon="21.537445690227">
        <ele>1.8</ele>
        <time>2017-06-17T10:31:27Z</time>
      </trkpt>
      <trkpt lat="60.115127364463" lon="21.537435967223">
        <ele>1.8</ele>
        <time>2017-06-17T10:31:28Z</time>
      </trkpt>
      <trkpt lat="60.115118731106" lon="21.537424316382">
        <ele>1.8</ele>
        <time>2017-06-17T10:31:29Z</time>
      </trkpt>
      <trkpt lat="60.115104900971" lon="21.537414258102">
        <ele>1.8</ele>
        <time>2017-06-17T10:31:30Z</time>
      </trkpt>
      <trkpt lat="60.11509744108" lon="21.537404451279">
        <ele>1.8</ele>
        <time>2017-06-17T10:31:31Z</time>
      </trkpt>
      <trkpt lat="60.115079336176" lon="21.53739430918">
        <ele>1.8</ele>
        <time>2017-06-17T10:31:32Z</time>
      </trkpt>
      <trkpt lat="60.115075061407" lon="21.537391040239">
        <ele>1.8</ele>
        <time>2017-06-17T10:31:33Z</time>
      </trkpt>
      <trkpt lat="60.115056956503" lon="21.537383328891">
        <ele>1.8</ele>
        <time>2017-06-17T10:31:34Z</time>
      </trkpt>
      <trkpt lat="60.115051256811" lon="21.537381233416">
        <ele>1.8</ele>
        <time>2017-06-17T10:31:35Z</time>
      </trkpt>
      <trkpt lat="60.115034157735" lon="21.53737754538">
        <ele>1.8</ele>
        <time>2017-06-17T10:31:36Z</time>
      </trkpt>
      <trkpt lat="60.115026362568" lon="21.537377880656">
        <ele>1.8</ele>
        <time>2017-06-17T10:31:37Z</time>
      </trkpt>
      <trkpt lat="60.115011861881" lon="21.537376371914">
        <ele>1.8</ele>
        <time>2017-06-17T10:31:38Z</time>
      </trkpt>
      <trkpt lat="60.115000127221" lon="21.537379137941">
        <ele>1.8</ele>
        <time>2017-06-17T10:31:39Z</time>
      </trkpt>
      <trkpt lat="60.114986213267" lon="21.537379557036">
        <ele>1.8</ele>
        <time>2017-06-17T10:31:40Z</time>
      </trkpt>
      <trkpt lat="60.114974394788" lon="21.537382323063">
        <ele>1.8</ele>
        <time>2017-06-17T10:31:41Z</time>
      </trkpt>
      <trkpt lat="60.114960397015" lon="21.53738089814">
        <ele>1.8</ele>
        <time>2017-06-17T10:31:42Z</time>
      </trkpt>
      <trkpt lat="60.114947656527" lon="21.537383496529">
        <ele>1.8</ele>
        <time>2017-06-17T10:31:43Z</time>
      </trkpt>
      <trkpt lat="60.114934916039" lon="21.537380646683">
        <ele>1.8</ele>
        <time>2017-06-17T10:31:44Z</time>
      </trkpt>
      <trkpt lat="60.114921002085" lon="21.537382239244">
        <ele>1.8</ele>
        <time>2017-06-17T10:31:45Z</time>
      </trkpt>
      <trkpt lat="60.11490968652" lon="21.53737838357">
        <ele>1.8</ele>
        <time>2017-06-17T10:31:46Z</time>
      </trkpt>
      <trkpt lat="60.114895940204" lon="21.537378132113">
        <ele>1.8</ele>
        <time>2017-06-17T10:31:47Z</time>
      </trkpt>
      <trkpt lat="60.114885881924" lon="21.537374276439">
        <ele>1.8</ele>
        <time>2017-06-17T10:31:48Z</time>
      </trkpt>
      <trkpt lat="60.114868950486" lon="21.537370253127">
        <ele>1.8</ele>
        <time>2017-06-17T10:31:49Z</time>
      </trkpt>
      <trkpt lat="60.11486190969" lon="21.53736832529">
        <ele>1.8</ele>
        <time>2017-06-17T10:31:50Z</time>
      </trkpt>
      <trkpt lat="60.114844642976" lon="21.537360613942">
        <ele>1.8</ele>
        <time>2017-06-17T10:31:51Z</time>
      </trkpt>
      <trkpt lat="60.114838105094" lon="21.537358015553">
        <ele>1.8</ele>
        <time>2017-06-17T10:31:52Z</time>
      </trkpt>
      <trkpt lat="60.114826370434" lon="21.537351645309">
        <ele>1.8</ele>
        <time>2017-06-17T10:31:53Z</time>
      </trkpt>
      <trkpt lat="60.114815893059" lon="21.537347873454">
        <ele>1.8</ele>
        <time>2017-06-17T10:31:54Z</time>
      </trkpt>
      <trkpt lat="60.114803068752" lon="21.537339240097">
        <ele>1.8</ele>
        <time>2017-06-17T10:31:55Z</time>
      </trkpt>
      <trkpt lat="60.114792172282" lon="21.537333456586">
        <ele>1.8</ele>
        <time>2017-06-17T10:31:56Z</time>
      </trkpt>
      <trkpt lat="60.114782616916" lon="21.537323398306">
        <ele>1.8</ele>
        <time>2017-06-17T10:31:57Z</time>
      </trkpt>
      <trkpt lat="60.114772390998" lon="21.537310825456">
        <ele>1.8</ele>
        <time>2017-06-17T10:31:58Z</time>
      </trkpt>
      <trkpt lat="60.114762248899" lon="21.537308394705">
        <ele>1.8</ele>
        <time>2017-06-17T10:31:59Z</time>
      </trkpt>
      <trkpt lat="60.114754118456" lon="21.537296911502">
        <ele>1.8</ele>
        <time>2017-06-17T10:32:00Z</time>
      </trkpt>
      <trkpt lat="60.11474204852" lon="21.53728618267">
        <ele>1.8</ele>
        <time>2017-06-17T10:32:01Z</time>
      </trkpt>
      <trkpt lat="60.114735510638" lon="21.5372752862">
        <ele>1.8</ele>
        <time>2017-06-17T10:32:02Z</time>
      </trkpt>
      <trkpt lat="60.114725117082" lon="21.537261120789">
        <ele>1.8</ele>
        <time>2017-06-17T10:32:03Z</time>
      </trkpt>
      <trkpt lat="60.114721009951" lon="21.537252403613">
        <ele>1.8</ele>
        <time>2017-06-17T10:32:04Z</time>
      </trkpt>
      <trkpt lat="60.114709526748" lon="21.537234382528">
        <ele>1.8</ele>
        <time>2017-06-17T10:32:05Z</time>
      </trkpt>
      <trkpt lat="60.114704749065" lon="21.537226419723">
        <ele>1.8</ele>
        <time>2017-06-17T10:32:06Z</time>
      </trkpt>
      <trkpt lat="60.114693517319" lon="21.537204459145">
        <ele>1.8</ele>
        <time>2017-06-17T10:32:07Z</time>
      </trkpt>
      <trkpt lat="60.114689494007" lon="21.537197250711">
        <ele>1.8</ele>
        <time>2017-06-17T10:32:08Z</time>
      </trkpt>
      <trkpt lat="60.114681447383" lon="21.537170344812">
        <ele>1.8</ele>
        <time>2017-06-17T10:32:09Z</time>
      </trkpt>
      <trkpt lat="60.114675412415" lon="21.537156933772">
        <ele>1.8</ele>
        <time>2017-06-17T10:32:10Z</time>
      </trkpt>
      <trkpt lat="60.114672143474" lon="21.537140421429">
        <ele>1.8</ele>
        <time>2017-06-17T10:32:11Z</time>
      </trkpt>
      <trkpt lat="60.11466493504" lon="21.537118460851">
        <ele>1.8</ele>
        <time>2017-06-17T10:32:12Z</time>
      </trkpt>
      <trkpt lat="60.114663677755" lon="21.537104798354">
        <ele>1.8</ele>
        <time>2017-06-17T10:32:13Z</time>
      </trkpt>
      <trkpt lat="60.114655379674" lon="21.537077808636">
        <ele>1.8</ele>
        <time>2017-06-17T10:32:14Z</time>
      </trkpt>
      <trkpt lat="60.114654541484" lon="21.537066912166">
        <ele>1.8</ele>
        <time>2017-06-17T10:32:15Z</time>
      </trkpt>
      <trkpt lat="60.114646997774" lon="21.537037659335">
        <ele>1.8</ele>
        <time>2017-06-17T10:32:16Z</time>
      </trkpt>
      <trkpt lat="60.114644315566" lon="21.537026930503">
        <ele>1.8</ele>
        <time>2017-06-17T10:32:17Z</time>
      </trkpt>
      <trkpt lat="60.114641046625" lon="21.537002371536">
        <ele>1.8</ele>
        <time>2017-06-17T10:32:18Z</time>
      </trkpt>
      <trkpt lat="60.114635179295" lon="21.536981332967">
        <ele>1.8</ele>
        <time>2017-06-17T10:32:19Z</time>
      </trkpt>
      <trkpt lat="60.11463224563" lon="21.536961216407">
        <ele>1.8</ele>
        <time>2017-06-17T10:32:20Z</time>
      </trkpt>
      <trkpt lat="60.114626210662" lon="21.536938585277">
        <ele>1.8</ele>
        <time>2017-06-17T10:32:21Z</time>
      </trkpt>
      <trkpt lat="60.114625875386" lon="21.536925258056">
        <ele>1.8</ele>
        <time>2017-06-17T10:32:22Z</time>
      </trkpt>
      <trkpt lat="60.11461967278" lon="21.536899860899">
        <ele>1.8</ele>
        <time>2017-06-17T10:32:23Z</time>
      </trkpt>
      <trkpt lat="60.1146179964" lon="21.53688301328">
        <ele>1.8</ele>
        <time>2017-06-17T10:32:24Z</time>
      </trkpt>
      <trkpt lat="60.114611039423" lon="21.536855939743">
        <ele>1.8</ele>
        <time>2017-06-17T10:32:25Z</time>
      </trkpt>
      <trkpt lat="60.114609782138" lon="21.536844037445">
        <ele>1.8</ele>
        <time>2017-06-17T10:32:26Z</time>
      </trkpt>
      <trkpt lat="60.114601484057" lon="21.536817383003">
        <ele>1.8</ele>
        <time>2017-06-17T10:32:27Z</time>
      </trkpt>
      <trkpt lat="60.114597209288" lon="21.536803552868">
        <ele>1.8</ele>
        <time>2017-06-17T10:32:28Z</time>
      </trkpt>
      <trkpt lat="60.114591258139" lon="21.53678326867">
        <ele>1.8</ele>
        <time>2017-06-17T10:32:29Z</time>
      </trkpt>
      <trkpt lat="60.114583965886" lon="21.536764996128">
        <ele>1.8</ele>
        <time>2017-06-17T10:32:30Z</time>
      </trkpt>
      <trkpt lat="60.114579104384" lon="21.536746555948">
        <ele>1.8</ele>
        <time>2017-06-17T10:32:31Z</time>
      </trkpt>
      <trkpt lat="60.114570387208" lon="21.536729289234">
        <ele>1.8</ele>
        <time>2017-06-17T10:32:32Z</time>
      </trkpt>
      <trkpt lat="60.114565358068" lon="21.536713028348">
        <ele>1.8</ele>
        <time>2017-06-17T10:32:33Z</time>
      </trkpt>
      <trkpt lat="60.114554210141" lon="21.536695174901">
        <ele>1.8</ele>
        <time>2017-06-17T10:32:34Z</time>
      </trkpt>
      <trkpt lat="60.114549683915" lon="21.53668184768">
        <ele>1.8</ele>
        <time>2017-06-17T10:32:35Z</time>
      </trkpt>
      <trkpt lat="60.114535937599" lon="21.536663239862">
        <ele>1.8</ele>
        <time>2017-06-17T10:32:36Z</time>
      </trkpt>
      <trkpt lat="60.114532417201" lon="21.536654355048">
        <ele>1.8</ele>
        <time>2017-06-17T10:32:37Z</time>
      </trkpt>
      <trkpt lat="60.114515821039" lon="21.536636753058">
        <ele>1.8</ele>
        <time>2017-06-17T10:32:38Z</time>
      </trkpt>
      <trkpt lat="60.114510624261" lon="21.53662904171">
        <ele>1.8</ele>
        <time>2017-06-17T10:32:39Z</time>
      </trkpt>
      <trkpt lat="60.114493776642" lon="21.536612110272">
        <ele>1.8</ele>
        <time>2017-06-17T10:32:40Z</time>
      </trkpt>
      <trkpt lat="60.114488412226" lon="21.536606578218">
        <ele>1.8</ele>
        <time>2017-06-17T10:32:41Z</time>
      </trkpt>
      <trkpt lat="60.114471564607" lon="21.536589814418">
        <ele>1.8</ele>
        <time>2017-06-17T10:32:42Z</time>
      </trkpt>
      <trkpt lat="60.114465362001" lon="21.536584366183">
        <ele>1.8</ele>
        <time>2017-06-17T10:32:43Z</time>
      </trkpt>
      <trkpt lat="60.114450106943" lon="21.536567267107">
        <ele>1.8</ele>
        <time>2017-06-17T10:32:44Z</time>
      </trkpt>
      <trkpt lat="60.114442060319" lon="21.536560813044">
        <ele>1.8</ele>
        <time>2017-06-17T10:32:45Z</time>
      </trkpt>
      <trkpt lat="60.114428733098" lon="21.536541618493">
        <ele>1.8</ele>
        <time>2017-06-17T10:32:46Z</time>
      </trkpt>
      <trkpt lat="60.114422027578" lon="21.536532817498">
        <ele>1.8</ele>
        <time>2017-06-17T10:32:47Z</time>
      </trkpt>
      <trkpt lat="60.114411885479" lon="21.536517227164">
        <ele>1.8</ele>
        <time>2017-06-17T10:32:48Z</time>
      </trkpt>
      <trkpt lat="60.114403335941" lon="21.536504402857">
        <ele>1.8</ele>
        <time>2017-06-17T10:32:49Z</time>
      </trkpt>
      <trkpt lat="60.114392271833" lon="21.536487555238">
        <ele>1.8</ele>
        <time>2017-06-17T10:32:50Z</time>
      </trkpt>
      <trkpt lat="60.114383889933" lon="21.536475820578">
        <ele>1.8</ele>
        <time>2017-06-17T10:32:51Z</time>
      </trkpt>
      <trkpt lat="60.114375508033" lon="21.536461990443">
        <ele>1.8</ele>
        <time>2017-06-17T10:32:52Z</time>
      </trkpt>
      <trkpt lat="60.114365952667" lon="21.536449752869">
        <ele>1.8</ele>
        <time>2017-06-17T10:32:53Z</time>
      </trkpt>
      <trkpt lat="60.114356900215" lon="21.536434330173">
        <ele>1.8</ele>
        <time>2017-06-17T10:32:54Z</time>
      </trkpt>
      <trkpt lat="60.11434726103" lon="21.536418153106">
        <ele>1.8</ele>
        <time>2017-06-17T10:32:55Z</time>
      </trkpt>
      <trkpt lat="60.114338795311" lon="21.536405077342">
        <ele>1.8</ele>
        <time>2017-06-17T10:32:56Z</time>
      </trkpt>
      <trkpt lat="60.114325551909" lon="21.536393258863">
        <ele>1.8</ele>
        <time>2017-06-17T10:32:57Z</time>
      </trkpt>
      <trkpt lat="60.11431792438" lon="21.536381272746">
        <ele>2.2</ele>
        <time>2017-06-17T10:32:58Z</time>
      </trkpt>
      <trkpt lat="60.114305267711" lon="21.536368951353">
        <ele>2.4</ele>
        <time>2017-06-17T10:32:59Z</time>
      </trkpt>
      <trkpt lat="60.11429696963" lon="21.536355875589">
        <ele>2.6</ele>
        <time>2017-06-17T10:33:00Z</time>
      </trkpt>
      <trkpt lat="60.114282971857" lon="21.53634154254">
        <ele>3</ele>
        <time>2017-06-17T10:33:01Z</time>
      </trkpt>
      <trkpt lat="60.11427685307" lon="21.536330981346">
        <ele>3.2</ele>
        <time>2017-06-17T10:33:02Z</time>
      </trkpt>
      <trkpt lat="60.114262687659" lon="21.53631388227">
        <ele>3.8</ele>
        <time>2017-06-17T10:33:03Z</time>
      </trkpt>
      <trkpt lat="60.11425673651" lon="21.53630130942">
        <ele>3.8</ele>
        <time>2017-06-17T10:33:04Z</time>
      </trkpt>
      <trkpt lat="60.114244331298" lon="21.536286641095">
        <ele>3.8</ele>
        <time>2017-06-17T10:33:05Z</time>
      </trkpt>
      <trkpt lat="60.114237122864" lon="21.536271637494">
        <ele>3.8</ele>
        <time>2017-06-17T10:33:06Z</time>
      </trkpt>
      <trkpt lat="60.114225807299" lon="21.536255963341">
        <ele>3.8</ele>
        <time>2017-06-17T10:33:07Z</time>
      </trkpt>
      <trkpt lat="60.114219604693" lon="21.536244815414">
        <ele>3.8</ele>
        <time>2017-06-17T10:33:08Z</time>
      </trkpt>
      <trkpt lat="60.11420560692" lon="21.536227129605">
        <ele>3.8</ele>
        <time>2017-06-17T10:33:09Z</time>
      </trkpt>
      <trkpt lat="60.114202086522" lon="21.536217238963">
        <ele>3.8</ele>
        <time>2017-06-17T10:33:10Z</time>
      </trkpt>
      <trkpt lat="60.114187753473" lon="21.536198379688">
        <ele>3.8</ele>
        <time>2017-06-17T10:33:11Z</time>
      </trkpt>
      <trkpt lat="60.114182724333" lon="21.536187147942">
        <ele>3.8</ele>
        <time>2017-06-17T10:33:12Z</time>
      </trkpt>
      <trkpt lat="60.114168475103" lon="21.536172395798">
        <ele>3.8</ele>
        <time>2017-06-17T10:33:13Z</time>
      </trkpt>
      <trkpt lat="60.114162775411" lon="21.536161164052">
        <ele>3.8</ele>
        <time>2017-06-17T10:33:14Z</time>
      </trkpt>
      <trkpt lat="60.114147604172" lon="21.536144819347">
        <ele>3.8</ele>
        <time>2017-06-17T10:33:15Z</time>
      </trkpt>
      <trkpt lat="60.114142491213" lon="21.53613702418">
        <ele>3.6</ele>
        <time>2017-06-17T10:33:16Z</time>
      </trkpt>
      <trkpt lat="60.114127571431" lon="21.536121685303">
        <ele>3.4</ele>
        <time>2017-06-17T10:33:17Z</time>
      </trkpt>
      <trkpt lat="60.114119608626" lon="21.536112632851">
        <ele>3</ele>
        <time>2017-06-17T10:33:18Z</time>
      </trkpt>
      <trkpt lat="60.114105527034" lon="21.536097713069">
        <ele>2.8</ele>
        <time>2017-06-17T10:33:19Z</time>
      </trkpt>
      <trkpt lat="60.114099575885" lon="21.536090253178">
        <ele>2.6</ele>
        <time>2017-06-17T10:33:20Z</time>
      </trkpt>
      <trkpt lat="60.114083901732" lon="21.53608086545">
        <ele>2.2</ele>
        <time>2017-06-17T10:33:21Z</time>
      </trkpt>
      <trkpt lat="60.114076441841" lon="21.536075501034">
        <ele>1.8</ele>
        <time>2017-06-17T10:33:22Z</time>
      </trkpt>
      <trkpt lat="60.114062527887" lon="21.536067789686">
        <ele>1.8</ele>
        <time>2017-06-17T10:33:23Z</time>
      </trkpt>
      <trkpt lat="60.114052469607" lon="21.536062257632">
        <ele>1.8</ele>
        <time>2017-06-17T10:33:24Z</time>
      </trkpt>
      <trkpt lat="60.114037801282" lon="21.536056390302">
        <ele>1.8</ele>
        <time>2017-06-17T10:33:25Z</time>
      </trkpt>
      <trkpt lat="60.114027491545" lon="21.536047673126">
        <ele>1.8</ele>
        <time>2017-06-17T10:33:26Z</time>
      </trkpt>
      <trkpt lat="60.114017349446" lon="21.536046918755">
        <ele>0.4</ele>
        <time>2017-06-17T10:33:27Z</time>
      </trkpt>
      <trkpt lat="60.114007877899" lon="21.536049936239">
        <ele>0</ele>
        <time>2017-06-17T10:33:28Z</time>
      </trkpt>
      <trkpt lat="60.113999076904" lon="21.536056055026">
        <ele>0</ele>
        <time>2017-06-17T10:33:29Z</time>
      </trkpt>
      <trkpt lat="60.11399103028" lon="21.536062509089">
        <ele>0</ele>
        <time>2017-06-17T10:33:30Z</time>
      </trkpt>
      <trkpt lat="60.113979798534" lon="21.536071729179">
        <ele>0</ele>
        <time>2017-06-17T10:33:31Z</time>
      </trkpt>
      <trkpt lat="60.113975272308" lon="21.536078015604">
        <ele>0</ele>
        <time>2017-06-17T10:33:32Z</time>
      </trkpt>
      <trkpt lat="60.113962867096" lon="21.5360766745">
        <ele>0</ele>
        <time>2017-06-17T10:33:33Z</time>
      </trkpt>
      <trkpt lat="60.113958005594" lon="21.536073070283">
        <ele>0</ele>
        <time>2017-06-17T10:33:34Z</time>
      </trkpt>
      <trkpt lat="60.113944343097" lon="21.536067789686">
        <ele>0</ele>
        <time>2017-06-17T10:33:35Z</time>
      </trkpt>
      <trkpt lat="60.113937721396" lon="21.536056138845">
        <ele>0</ele>
        <time>2017-06-17T10:33:36Z</time>
      </trkpt>
      <trkpt lat="60.113929590953" lon="21.536051864076">
        <ele>0</ele>
        <time>2017-06-17T10:33:37Z</time>
      </trkpt>
      <trkpt lat="60.11392062232" lon="21.536055468293">
        <ele>0</ele>
        <time>2017-06-17T10:33:38Z</time>
      </trkpt>
      <trkpt lat="60.113912156601" lon="21.536056893216">
        <ele>0</ele>
        <time>2017-06-17T10:33:39Z</time>
      </trkpt>
      <trkpt lat="60.11390721128" lon="21.536058821053">
        <ele>0</ele>
        <time>2017-06-17T10:33:40Z</time>
      </trkpt>
      <trkpt lat="60.113898745561" lon="21.536064185469">
        <ele>0</ele>
        <time>2017-06-17T10:33:41Z</time>
      </trkpt>
      <trkpt lat="60.113904026158" lon="21.536060497433">
        <ele>0</ele>
        <time>2017-06-17T10:33:42Z</time>
      </trkpt>
      <trkpt lat="60.113884244874" lon="21.536054797741">
        <ele>0</ele>
        <time>2017-06-17T10:33:43Z</time>
      </trkpt>
      <trkpt lat="60.113891872403" lon="21.536060413614">
        <ele>0</ele>
        <time>2017-06-17T10:33:44Z</time>
      </trkpt>
      <trkpt lat="60.113868319264" lon="21.536039039769">
        <ele>0</ele>
        <time>2017-06-17T10:33:45Z</time>
      </trkpt>
      <trkpt lat="60.113864798866" lon="21.536033172439">
        <ele>0</ele>
        <time>2017-06-17T10:33:46Z</time>
      </trkpt>
      <trkpt lat="60.113853315663" lon="21.536017917381">
        <ele>0</ele>
        <time>2017-06-17T10:33:47Z</time>
      </trkpt>
      <trkpt lat="60.113849208532" lon="21.536006098902">
        <ele>0</ele>
        <time>2017-06-17T10:33:48Z</time>
      </trkpt>
      <trkpt lat="60.113839234071" lon="21.535988161636">
        <ele>0</ele>
        <time>2017-06-17T10:33:49Z</time>
      </trkpt>
      <trkpt lat="60.113835210759" lon="21.535973241854">
        <ele>0</ele>
        <time>2017-06-17T10:33:50Z</time>
      </trkpt>
      <trkpt lat="60.113830600714" lon="21.535961674832">
        <ele>0</ele>
        <time>2017-06-17T10:33:51Z</time>
      </trkpt>
      <trkpt lat="60.113826577402" lon="21.535935188028">
        <ele>0</ele>
        <time>2017-06-17T10:33:52Z</time>
      </trkpt>
      <trkpt lat="60.113819788063" lon="21.535925297386">
        <ele>0</ele>
        <time>2017-06-17T10:33:53Z</time>
      </trkpt>
      <trkpt lat="60.113810567973" lon="21.53590652193">
        <ele>0</ele>
        <time>2017-06-17T10:33:54Z</time>
      </trkpt>
      <trkpt lat="60.113807299032" lon="21.535892105062">
        <ele>0</ele>
        <time>2017-06-17T10:33:55Z</time>
      </trkpt>
      <trkpt lat="60.113799336227" lon="21.535867797552">
        <ele>0</ele>
        <time>2017-06-17T10:33:56Z</time>
      </trkpt>
      <trkpt lat="60.113794307087" lon="21.535853548322">
        <ele>0</ele>
        <time>2017-06-17T10:33:57Z</time>
      </trkpt>
      <trkpt lat="60.113785254635" lon="21.535831001011">
        <ele>0</ele>
        <time>2017-06-17T10:33:58Z</time>
      </trkpt>
      <trkpt lat="60.113780896047" lon="21.535814907763">
        <ele>0</ele>
        <time>2017-06-17T10:33:59Z</time>
      </trkpt>
      <trkpt lat="60.1137714245" lon="21.535785068199">
        <ele>0</ele>
        <time>2017-06-17T10:34:00Z</time>
      </trkpt>
      <trkpt lat="60.113769831939" lon="21.535770316055">
        <ele>0</ele>
        <time>2017-06-17T10:34:01Z</time>
      </trkpt>
      <trkpt lat="60.113762791143" lon="21.535736453179">
        <ele>0</ele>
        <time>2017-06-17T10:34:02Z</time>
      </trkpt>
      <trkpt lat="60.113762372048" lon="21.535723461234">
        <ele>0</ele>
        <time>2017-06-17T10:34:03Z</time>
      </trkpt>
      <trkpt lat="60.113760695668" lon="21.535685658865">
        <ele>0</ele>
        <time>2017-06-17T10:34:04Z</time>
      </trkpt>
      <trkpt lat="60.113760695668" lon="21.535674678576">
        <ele>0</ele>
        <time>2017-06-17T10:34:05Z</time>
      </trkpt>
      <trkpt lat="60.113760108935" lon="21.535642911175">
        <ele>0</ele>
        <time>2017-06-17T10:34:06Z</time>
      </trkpt>
      <trkpt lat="60.113759857478" lon="21.535628745764">
        <ele>0</ele>
        <time>2017-06-17T10:34:07Z</time>
      </trkpt>
      <trkpt lat="60.113761533858" lon="21.535600331123">
        <ele>0</ele>
        <time>2017-06-17T10:34:08Z</time>
      </trkpt>
      <trkpt lat="60.113764467523" lon="21.535578119088">
        <ele>0</ele>
        <time>2017-06-17T10:34:09Z</time>
      </trkpt>
      <trkpt lat="60.113767485007" lon="21.535563786039">
        <ele>0</ele>
        <time>2017-06-17T10:34:10Z</time>
      </trkpt>
      <trkpt lat="60.113774609622" lon="21.535541406366">
        <ele>0</ele>
        <time>2017-06-17T10:34:11Z</time>
      </trkpt>
      <trkpt lat="60.113774190527" lon="21.535515171019">
        <ele>0</ele>
        <time>2017-06-17T10:34:12Z</time>
      </trkpt>
      <trkpt lat="60.11378483554" lon="21.535501843798">
        <ele>0</ele>
        <time>2017-06-17T10:34:13Z</time>
      </trkpt>
      <trkpt lat="60.113785422273" lon="21.535474602623">
        <ele>0</ele>
        <time>2017-06-17T10:34:14Z</time>
      </trkpt>
      <trkpt lat="60.11379740839" lon="21.535453564054">
        <ele>0</ele>
        <time>2017-06-17T10:34:15Z</time>
      </trkpt>
      <trkpt lat="60.113798917132" lon="21.53543462096">
        <ele>0</ele>
        <time>2017-06-17T10:34:16Z</time>
      </trkpt>
      <trkpt lat="60.113808472498" lon="21.535411067821">
        <ele>0</ele>
        <time>2017-06-17T10:34:17Z</time>
      </trkpt>
      <trkpt lat="60.113808640136" lon="21.535392879098">
        <ele>0</ele>
        <time>2017-06-17T10:34:18Z</time>
      </trkpt>
      <trkpt lat="60.113818614597" lon="21.535360524964">
        <ele>0</ele>
        <time>2017-06-17T10:34:19Z</time>
      </trkpt>
      <trkpt lat="60.113817692588" lon="21.535343928802">
        <ele>0</ele>
        <time>2017-06-17T10:34:20Z</time>
      </trkpt>
      <trkpt lat="60.113821212986" lon="21.535311071754">
        <ele>0</ele>
        <time>2017-06-17T10:34:21Z</time>
      </trkpt>
      <trkpt lat="60.113824733384" lon="21.535294475592">
        <ele>0</ele>
        <time>2017-06-17T10:34:22Z</time>
      </trkpt>
      <trkpt lat="60.11382590685" lon="21.535266647684">
        <ele>0</ele>
        <time>2017-06-17T10:34:23Z</time>
      </trkpt>
      <trkpt lat="60.113824817203" lon="21.535243010726">
        <ele>0</ele>
        <time>2017-06-17T10:34:24Z</time>
      </trkpt>
      <trkpt lat="60.113824146651" lon="21.535216775379">
        <ele>0</ele>
        <time>2017-06-17T10:34:25Z</time>
      </trkpt>
      <trkpt lat="60.113824649565" lon="21.535203029063">
        <ele>0</ele>
        <time>2017-06-17T10:34:26Z</time>
      </trkpt>
      <trkpt lat="60.113821212986" lon="21.535171094024">
        <ele>0</ele>
        <time>2017-06-17T10:34:27Z</time>
      </trkpt>
      <trkpt lat="60.113822637909" lon="21.535160197554">
        <ele>0</ele>
        <time>2017-06-17T10:34:28Z</time>
      </trkpt>
      <trkpt lat="60.113819620425" lon="21.535124909755">
        <ele>0</ele>
        <time>2017-06-17T10:34:29Z</time>
      </trkpt>
      <trkpt lat="60.113819788063" lon="21.535111247258">
        <ele>0</ele>
        <time>2017-06-17T10:34:30Z</time>
      </trkpt>
      <trkpt lat="60.113818111683" lon="21.535075791821">
        <ele>0</ele>
        <time>2017-06-17T10:34:31Z</time>
      </trkpt>
      <trkpt lat="60.113819452787" lon="21.535058944202">
        <ele>0</ele>
        <time>2017-06-17T10:34:32Z</time>
      </trkpt>
      <trkpt lat="60.113820123339" lon="21.535034301416">
        <ele>0</ele>
        <time>2017-06-17T10:34:33Z</time>
      </trkpt>
      <trkpt lat="60.113820542434" lon="21.535006138232">
        <ele>0</ele>
        <time>2017-06-17T10:34:34Z</time>
      </trkpt>
      <trkpt lat="60.113822051176" lon="21.534986859862">
        <ele>0</ele>
        <time>2017-06-17T10:34:35Z</time>
      </trkpt>
      <trkpt lat="60.113825152479" lon="21.534962636171">
        <ele>0</ele>
        <time>2017-06-17T10:34:36Z</time>
      </trkpt>
      <trkpt lat="60.11383177418" lon="21.534934640625">
        <ele>0</ele>
        <time>2017-06-17T10:34:37Z</time>
      </trkpt>
      <trkpt lat="60.113830433076" lon="21.534917373911">
        <ele>0</ele>
        <time>2017-06-17T10:34:38Z</time>
      </trkpt>
      <trkpt lat="60.113839150252" lon="21.534889462184">
        <ele>0</ele>
        <time>2017-06-17T10:34:39Z</time>
      </trkpt>
      <trkpt lat="60.113838898795" lon="21.534869932357">
        <ele>0</ele>
        <time>2017-06-17T10:34:40Z</time>
      </trkpt>
      <trkpt lat="60.113845688134" lon="21.534841769173">
        <ele>0</ele>
        <time>2017-06-17T10:34:41Z</time>
      </trkpt>
      <trkpt lat="60.113848202704" lon="21.534813186894">
        <ele>0</ele>
        <time>2017-06-17T10:34:42Z</time>
      </trkpt>
      <trkpt lat="60.113851639283" lon="21.534802541881">
        <ele>0</ele>
        <time>2017-06-17T10:34:43Z</time>
      </trkpt>
      <trkpt lat="60.113856165509" lon="21.53476825991">
        <ele>0</ele>
        <time>2017-06-17T10:34:44Z</time>
      </trkpt>
      <trkpt lat="60.113861027011" lon="21.534749149178">
        <ele>0</ele>
        <time>2017-06-17T10:34:45Z</time>
      </trkpt>
      <trkpt lat="60.113860607916" lon="21.534722830012">
        <ele>0</ele>
        <time>2017-06-17T10:34:46Z</time>
      </trkpt>
      <trkpt lat="60.113868067807" lon="21.534703635461">
        <ele>0</ele>
        <time>2017-06-17T10:34:47Z</time>
      </trkpt>
      <trkpt lat="60.113864128314" lon="21.534678992675">
        <ele>0</ele>
        <time>2017-06-17T10:34:48Z</time>
      </trkpt>
      <trkpt lat="60.11387116911" lon="21.534651416224">
        <ele>0</ele>
        <time>2017-06-17T10:34:49Z</time>
      </trkpt>
      <trkpt lat="60.113867732531" lon="21.534630545293">
        <ele>0</ele>
        <time>2017-06-17T10:34:50Z</time>
      </trkpt>
      <trkpt lat="60.113872510214" lon="21.534598861711">
        <ele>0</ele>
        <time>2017-06-17T10:34:51Z</time>
      </trkpt>
      <trkpt lat="60.113868067807" lon="21.53458301992">
        <ele>0</ele>
        <time>2017-06-17T10:34:52Z</time>
      </trkpt>
      <trkpt lat="60.113871001472" lon="21.534561729894">
        <ele>0</ele>
        <time>2017-06-17T10:34:53Z</time>
      </trkpt>
      <trkpt lat="60.113865720875" lon="21.534540775144">
        <ele>0</ele>
        <time>2017-06-17T10:34:54Z</time>
      </trkpt>
      <trkpt lat="60.11386781635" lon="21.534513617788">
        <ele>0</ele>
        <time>2017-06-17T10:34:55Z</time>
      </trkpt>
      <trkpt lat="60.113860356459" lon="21.534500122929">
        <ele>0</ele>
        <time>2017-06-17T10:34:56Z</time>
      </trkpt>
      <trkpt lat="60.11386027264" lon="21.534476066876">
        <ele>0</ele>
        <time>2017-06-17T10:34:57Z</time>
      </trkpt>
      <trkpt lat="60.113854824405" lon="21.534459638352">
        <ele>0</ele>
        <time>2017-06-17T10:34:58Z</time>
      </trkpt>
      <trkpt lat="60.113848705618" lon="21.534445892036">
        <ele>0</ele>
        <time>2017-06-17T10:34:59Z</time>
      </trkpt>
      <trkpt lat="60.113840742813" lon="21.534431558987">
        <ele>0</ele>
        <time>2017-06-17T10:35:00Z</time>
      </trkpt>
      <trkpt lat="60.113839653166" lon="21.53442124925">
        <ele>0</ele>
        <time>2017-06-17T10:35:01Z</time>
      </trkpt>
      <trkpt lat="60.113826912678" lon="21.534402306156">
        <ele>0</ele>
        <time>2017-06-17T10:35:02Z</time>
      </trkpt>
      <trkpt lat="60.113824901022" lon="21.534396187369">
        <ele>0</ele>
        <time>2017-06-17T10:35:03Z</time>
      </trkpt>
      <trkpt lat="60.113811992896" lon="21.534374059153">
        <ele>0</ele>
        <time>2017-06-17T10:35:04Z</time>
      </trkpt>
      <trkpt lat="60.113807718127" lon="21.53436844328">
        <ele>0</ele>
        <time>2017-06-17T10:35:05Z</time>
      </trkpt>
      <trkpt lat="60.113799587684" lon="21.534344387227">
        <ele>0</ele>
        <time>2017-06-17T10:35:06Z</time>
      </trkpt>
      <trkpt lat="60.113792211612" lon="21.534328461617">
        <ele>0</ele>
        <time>2017-06-17T10:35:07Z</time>
      </trkpt>
      <trkpt lat="60.113780896047" lon="21.534317984242">
        <ele>0</ele>
        <time>2017-06-17T10:35:08Z</time>
      </trkpt>
      <trkpt lat="60.113776118364" lon="21.534295856026">
        <ele>0</ele>
        <time>2017-06-17T10:35:09Z</time>
      </trkpt>
      <trkpt lat="60.113764383704" lon="21.534283534633">
        <ele>0</ele>
        <time>2017-06-17T10:35:10Z</time>
      </trkpt>
      <trkpt lat="60.11375382251" lon="21.534275655647">
        <ele>0</ele>
        <time>2017-06-17T10:35:11Z</time>
      </trkpt>
      <trkpt lat="60.113746530257" lon="21.534268531032">
        <ele>0</ele>
        <time>2017-06-17T10:35:12Z</time>
      </trkpt>
      <trkpt lat="60.11373370595" lon="21.534258221295">
        <ele>0</ele>
        <time>2017-06-17T10:35:13Z</time>
      </trkpt>
      <trkpt lat="60.113727503344" lon="21.53425277306">
        <ele>0</ele>
        <time>2017-06-17T10:35:14Z</time>
      </trkpt>
      <trkpt lat="60.113713421752" lon="21.534241960409">
        <ele>0</ele>
        <time>2017-06-17T10:35:15Z</time>
      </trkpt>
      <trkpt lat="60.113705710404" lon="21.534237518002">
        <ele>0</ele>
        <time>2017-06-17T10:35:16Z</time>
      </trkpt>
      <trkpt lat="60.113692802278" lon="21.534230561025">
        <ele>0</ele>
        <time>2017-06-17T10:35:17Z</time>
      </trkpt>
      <trkpt lat="60.113684085102" lon="21.534226453894">
        <ele>0</ele>
        <time>2017-06-17T10:35:18Z</time>
      </trkpt>
      <trkpt lat="60.113668830044" lon="21.53421505451">
        <ele>0</ele>
        <time>2017-06-17T10:35:19Z</time>
      </trkpt>
      <trkpt lat="60.113661034877" lon="21.534209522456">
        <ele>0</ele>
        <time>2017-06-17T10:35:20Z</time>
      </trkpt>
      <trkpt lat="60.113645528362" lon="21.534196195235">
        <ele>0</ele>
        <time>2017-06-17T10:35:21Z</time>
      </trkpt>
      <trkpt lat="60.113639661032" lon="21.534192339561">
        <ele>0</ele>
        <time>2017-06-17T10:35:22Z</time>
      </trkpt>
      <trkpt lat="60.113626920544" lon="21.534180018168">
        <ele>0</ele>
        <time>2017-06-17T10:35:23Z</time>
      </trkpt>
      <trkpt lat="60.113616024074" lon="21.534171971544">
        <ele>0</ele>
        <time>2017-06-17T10:35:24Z</time>
      </trkpt>
      <trkpt lat="60.113607306898" lon="21.534157806133">
        <ele>0</ele>
        <time>2017-06-17T10:35:25Z</time>
      </trkpt>
      <trkpt lat="60.113596494247" lon="21.534143892179">
        <ele>0</ele>
        <time>2017-06-17T10:35:26Z</time>
      </trkpt>
      <trkpt lat="60.113590626917" lon="21.534131067872">
        <ele>0</ele>
        <time>2017-06-17T10:35:27Z</time>
      </trkpt>
      <trkpt lat="60.113578892257" lon="21.534112292416">
        <ele>0</ele>
        <time>2017-06-17T10:35:28Z</time>
      </trkpt>
      <trkpt lat="60.113575623316" lon="21.53410357524">
        <ele>0</ele>
        <time>2017-06-17T10:35:29Z</time>
      </trkpt>
      <trkpt lat="60.113561541724" lon="21.534077675169">
        <ele>0</ele>
        <time>2017-06-17T10:35:30Z</time>
      </trkpt>
      <trkpt lat="60.113558021326" lon="21.534069712364">
        <ele>0</ele>
        <time>2017-06-17T10:35:31Z</time>
      </trkpt>
      <trkpt lat="60.113545448476" lon="21.534045153397">
        <ele>0</ele>
        <time>2017-06-17T10:35:32Z</time>
      </trkpt>
      <trkpt lat="60.113540419336" lon="21.534037022954">
        <ele>0</ele>
        <time>2017-06-17T10:35:33Z</time>
      </trkpt>
      <trkpt lat="60.113528936133" lon="21.534014308005">
        <ele>0</ele>
        <time>2017-06-17T10:35:34Z</time>
      </trkpt>
      <trkpt lat="60.113521727699" lon="21.534003327716">
        <ele>0</ele>
        <time>2017-06-17T10:35:35Z</time>
      </trkpt>
      <trkpt lat="60.113512507609" lon="21.533985306631">
        <ele>0</ele>
        <time>2017-06-17T10:35:36Z</time>
      </trkpt>
      <trkpt lat="60.113502868424" lon="21.533968375193">
        <ele>0</ele>
        <time>2017-06-17T10:35:37Z</time>
      </trkpt>
      <trkpt lat="60.113497420189" lon="21.5339560538">
        <ele>0</ele>
        <time>2017-06-17T10:35:38Z</time>
      </trkpt>
      <trkpt lat="60.113484176787" lon="21.533933590308">
        <ele>0</ele>
        <time>2017-06-17T10:35:39Z</time>
      </trkpt>
      <trkpt lat="60.113480069656" lon="21.533924370218">
        <ele>0</ele>
        <time>2017-06-17T10:35:40Z</time>
      </trkpt>
      <trkpt lat="60.113466155702" lon="21.533905678581">
        <ele>0</ele>
        <time>2017-06-17T10:35:41Z</time>
      </trkpt>
      <trkpt lat="60.113461126562" lon="21.533896290853">
        <ele>0</ele>
        <time>2017-06-17T10:35:42Z</time>
      </trkpt>
      <trkpt lat="60.113450062454" lon="21.533878018311">
        <ele>0</ele>
        <time>2017-06-17T10:35:43Z</time>
      </trkpt>
      <trkpt lat="60.113444362762" lon="21.53386972023">
        <ele>0</ele>
        <time>2017-06-17T10:35:44Z</time>
      </trkpt>
      <trkpt lat="60.113433131016" lon="21.533853375525">
        <ele>0</ele>
        <time>2017-06-17T10:35:45Z</time>
      </trkpt>
      <trkpt lat="60.113427934238" lon="21.533843820159">
        <ele>0</ele>
        <time>2017-06-17T10:35:46Z</time>
      </trkpt>
      <trkpt lat="60.113418378872" lon="21.533827056359">
        <ele>0</ele>
        <time>2017-06-17T10:35:47Z</time>
      </trkpt>
      <trkpt lat="60.113412427723" lon="21.53381942883">
        <ele>0</ele>
        <time>2017-06-17T10:35:48Z</time>
      </trkpt>
      <trkpt lat="60.113401866529" lon="21.533801072469">
        <ele>0</ele>
        <time>2017-06-17T10:35:49Z</time>
      </trkpt>
      <trkpt lat="60.113393903724" lon="21.533788751076">
        <ele>0</ele>
        <time>2017-06-17T10:35:50Z</time>
      </trkpt>
      <trkpt lat="60.113387868756" lon="21.533773915113">
        <ele>0</ele>
        <time>2017-06-17T10:35:51Z</time>
      </trkpt>
      <trkpt lat="60.113381414693" lon="21.533758827693">
        <ele>0</ele>
        <time>2017-06-17T10:35:52Z</time>
      </trkpt>
      <trkpt lat="60.113377139924" lon="21.533743321178">
        <ele>0</ele>
        <time>2017-06-17T10:35:53Z</time>
      </trkpt>
      <trkpt lat="60.113372613698" lon="21.533724210446">
        <ele>0</ele>
        <time>2017-06-17T10:35:54Z</time>
      </trkpt>
      <trkpt lat="60.113367836015" lon="21.533697723642">
        <ele>0</ele>
        <time>2017-06-17T10:35:55Z</time>
      </trkpt>
      <trkpt lat="60.113361801047" lon="21.533688168276">
        <ele>0</ele>
        <time>2017-06-17T10:35:56Z</time>
      </trkpt>
      <trkpt lat="60.11335987321" lon="21.533659921273">
        <ele>0</ele>
        <time>2017-06-17T10:35:57Z</time>
      </trkpt>
      <trkpt lat="60.113352245681" lon="21.533651287916">
        <ele>0</ele>
        <time>2017-06-17T10:35:58Z</time>
      </trkpt>
      <trkpt lat="60.113351994224" lon="21.533625052569">
        <ele>0</ele>
        <time>2017-06-17T10:35:59Z</time>
      </trkpt>
      <trkpt lat="60.113350904577" lon="21.533600325964">
        <ele>0</ele>
        <time>2017-06-17T10:36:00Z</time>
      </trkpt>
      <trkpt lat="60.113340846297" lon="21.533587082562">
        <ele>0</ele>
        <time>2017-06-17T10:36:01Z</time>
      </trkpt>
      <trkpt lat="60.11333053656" lon="21.533576772825">
        <ele>0</ele>
        <time>2017-06-17T10:36:02Z</time>
      </trkpt>
      <trkpt lat="60.113327351438" lon="21.533552968229">
        <ele>0</ele>
        <time>2017-06-17T10:36:03Z</time>
      </trkpt>
      <trkpt lat="60.113317628434" lon="21.533541652664">
        <ele>0</ele>
        <time>2017-06-17T10:36:04Z</time>
      </trkpt>
      <trkpt lat="60.113309330353" lon="21.533532516393">
        <ele>0</ele>
        <time>2017-06-17T10:36:05Z</time>
      </trkpt>
      <trkpt lat="60.113298852978" lon="21.533527235796">
        <ele>0</ele>
        <time>2017-06-17T10:36:06Z</time>
      </trkpt>
      <trkpt lat="60.113296422227" lon="21.533520949371">
        <ele>0</ele>
        <time>2017-06-17T10:36:07Z</time>
      </trkpt>
      <trkpt lat="60.11328192154" lon="21.533513908575">
        <ele>0</ele>
        <time>2017-06-17T10:36:08Z</time>
      </trkpt>
      <trkpt lat="60.113277479133" lon="21.533508544159">
        <ele>0</ele>
        <time>2017-06-17T10:36:09Z</time>
      </trkpt>
      <trkpt lat="60.113261888799" lon="21.53350259301">
        <ele>0</ele>
        <time>2017-06-17T10:36:10Z</time>
      </trkpt>
      <trkpt lat="60.113257697849" lon="21.53349924025">
        <ele>0</ele>
        <time>2017-06-17T10:36:11Z</time>
      </trkpt>
      <trkpt lat="60.113242945705" lon="21.53349169654">
        <ele>0</ele>
        <time>2017-06-17T10:36:12Z</time>
      </trkpt>
      <trkpt lat="60.113235653452" lon="21.53348834378">
        <ele>0</ele>
        <time>2017-06-17T10:36:13Z</time>
      </trkpt>
      <trkpt lat="60.113223667335" lon="21.533478620776">
        <ele>0</ele>
        <time>2017-06-17T10:36:14Z</time>
      </trkpt>
      <trkpt lat="60.113216207444" lon="21.533472753446">
        <ele>0</ele>
        <time>2017-06-17T10:36:15Z</time>
      </trkpt>
      <trkpt lat="60.113202880223" lon="21.533464958279">
        <ele>0</ele>
        <time>2017-06-17T10:36:16Z</time>
      </trkpt>
      <trkpt lat="60.113196258522" lon="21.533464203908">
        <ele>0</ele>
        <time>2017-06-17T10:36:17Z</time>
      </trkpt>
      <trkpt lat="60.113181254921" lon="21.53345733075">
        <ele>0</ele>
        <time>2017-06-17T10:36:18Z</time>
      </trkpt>
      <trkpt lat="60.113172789202" lon="21.533454061809">
        <ele>0</ele>
        <time>2017-06-17T10:36:19Z</time>
      </trkpt>
      <trkpt lat="60.113159881076" lon="21.533459258587">
        <ele>0</ele>
        <time>2017-06-17T10:36:20Z</time>
      </trkpt>
      <trkpt lat="60.11315284028" lon="21.533458671854">
        <ele>0</ele>
        <time>2017-06-17T10:36:21Z</time>
      </trkpt>
      <trkpt lat="60.113140351249" lon="21.533463533356">
        <ele>0</ele>
        <time>2017-06-17T10:36:22Z</time>
      </trkpt>
      <trkpt lat="60.113131969349" lon="21.533467137573">
        <ele>0</ele>
        <time>2017-06-17T10:36:23Z</time>
      </trkpt>
      <trkpt lat="60.11311847449" lon="21.533473759274">
        <ele>0</ele>
        <time>2017-06-17T10:36:24Z</time>
      </trkpt>
      <trkpt lat="60.113107661839" lon="21.533479794242">
        <ele>0</ele>
        <time>2017-06-17T10:36:25Z</time>
      </trkpt>
      <trkpt lat="60.113093747885" lon="21.533490271617">
        <ele>0</ele>
        <time>2017-06-17T10:36:26Z</time>
      </trkpt>
      <trkpt lat="60.113086287994" lon="21.533495552214">
        <ele>0</ele>
        <time>2017-06-17T10:36:27Z</time>
      </trkpt>
      <trkpt lat="60.113070446203" lon="21.533509801444">
        <ele>0</ele>
        <time>2017-06-17T10:36:28Z</time>
      </trkpt>
      <trkpt lat="60.113064075959" lon="21.533514579127">
        <ele>0</ele>
        <time>2017-06-17T10:36:29Z</time>
      </trkpt>
      <trkpt lat="60.113047312159" lon="21.533521368466">
        <ele>0</ele>
        <time>2017-06-17T10:36:30Z</time>
      </trkpt>
      <trkpt lat="60.113037337698" lon="21.533530840013">
        <ele>0</ele>
        <time>2017-06-17T10:36:31Z</time>
      </trkpt>
      <trkpt lat="60.11302711178" lon="21.533538467542">
        <ele>0</ele>
        <time>2017-06-17T10:36:32Z</time>
      </trkpt>
      <trkpt lat="60.113018646061" lon="21.533548777279">
        <ele>0</ele>
        <time>2017-06-17T10:36:33Z</time>
      </trkpt>
      <trkpt lat="60.113008503962" lon="21.533561433948">
        <ele>0</ele>
        <time>2017-06-17T10:36:34Z</time>
      </trkpt>
      <trkpt lat="60.113000038243" lon="21.533573587703">
        <ele>0</ele>
        <time>2017-06-17T10:36:35Z</time>
      </trkpt>
      <trkpt lat="60.112992913628" lon="21.53357551554">
        <ele>0</ele>
        <time>2017-06-17T10:36:36Z</time>
      </trkpt>
      <trkpt lat="60.112981933339" lon="21.533579538852">
        <ele>0</ele>
        <time>2017-06-17T10:36:37Z</time>
      </trkpt>
      <trkpt lat="60.112973048525" lon="21.533579203576">
        <ele>0</ele>
        <time>2017-06-17T10:36:38Z</time>
      </trkpt>
      <trkpt lat="60.112962654969" lon="21.533580879956">
        <ele>0</ele>
        <time>2017-06-17T10:36:39Z</time>
      </trkpt>
      <trkpt lat="60.112951171766" lon="21.533577778653">
        <ele>0</ele>
        <time>2017-06-17T10:36:40Z</time>
      </trkpt>
      <trkpt lat="60.112943041323" lon="21.533576856644">
        <ele>0</ele>
        <time>2017-06-17T10:36:41Z</time>
      </trkpt>
      <trkpt lat="60.112931390482" lon="21.533571073133">
        <ele>0</ele>
        <time>2017-06-17T10:36:42Z</time>
      </trkpt>
      <trkpt lat="60.112923092401" lon="21.533567217459">
        <ele>0</ele>
        <time>2017-06-17T10:36:43Z</time>
      </trkpt>
      <trkpt lat="60.112913285578" lon="21.533558416464">
        <ele>0</ele>
        <time>2017-06-17T10:36:44Z</time>
      </trkpt>
      <trkpt lat="60.112902808203" lon="21.53355036984">
        <ele>0</ele>
        <time>2017-06-17T10:36:45Z</time>
      </trkpt>
      <trkpt lat="60.112895935045" lon="21.53353779699">
        <ele>0</ele>
        <time>2017-06-17T10:36:46Z</time>
      </trkpt>
      <trkpt lat="60.112887217869" lon="21.533526313787">
        <ele>0</ele>
        <time>2017-06-17T10:36:47Z</time>
      </trkpt>
      <trkpt lat="60.112881769634" lon="21.533514076213">
        <ele>0</ele>
        <time>2017-06-17T10:36:48Z</time>
      </trkpt>
      <trkpt lat="60.112870621707" lon="21.533495552214">
        <ele>0</ele>
        <time>2017-06-17T10:36:49Z</time>
      </trkpt>
      <trkpt lat="60.112867436585" lon="21.533485158658">
        <ele>0</ele>
        <time>2017-06-17T10:36:50Z</time>
      </trkpt>
      <trkpt lat="60.112855785744" lon="21.533460767329">
        <ele>0</ele>
        <time>2017-06-17T10:36:51Z</time>
      </trkpt>
      <trkpt lat="60.11285360645" lon="21.533452888343">
        <ele>0</ele>
        <time>2017-06-17T10:36:52Z</time>
      </trkpt>
      <trkpt lat="60.112844218722" lon="21.533429419023">
        <ele>0</ele>
        <time>2017-06-17T10:36:53Z</time>
      </trkpt>
      <trkpt lat="60.112842374704" lon="21.533417265268">
        <ele>0</ele>
        <time>2017-06-17T10:36:54Z</time>
      </trkpt>
      <trkpt lat="60.112833154614" lon="21.533387677161">
        <ele>0</ele>
        <time>2017-06-17T10:36:55Z</time>
      </trkpt>
      <trkpt lat="60.112832316424" lon="21.533378792347">
        <ele>0</ele>
        <time>2017-06-17T10:36:56Z</time>
      </trkpt>
      <trkpt lat="60.112829215121" lon="21.533350545344">
        <ele>0</ele>
        <time>2017-06-17T10:36:57Z</time>
      </trkpt>
      <trkpt lat="60.11282678437" lon="21.53332992587">
        <ele>0</ele>
        <time>2017-06-17T10:36:58Z</time>
      </trkpt>
      <trkpt lat="60.112818570108" lon="21.533319364676">
        <ele>0</ele>
        <time>2017-06-17T10:36:59Z</time>
      </trkpt>
      <trkpt lat="60.112817480461" lon="21.533290866216">
        <ele>0</ele>
        <time>2017-06-17T10:37:00Z</time>
      </trkpt>
      <trkpt lat="60.112807925095" lon="21.533277455176">
        <ele>0</ele>
        <time>2017-06-17T10:37:01Z</time>
      </trkpt>
      <trkpt lat="60.112800046109" lon="21.533262116299">
        <ele>0</ele>
        <time>2017-06-17T10:37:02Z</time>
      </trkpt>
      <trkpt lat="60.112792670037" lon="21.533247531793">
        <ele>0</ele>
        <time>2017-06-17T10:37:03Z</time>
      </trkpt>
      <trkpt lat="60.112789233458" lon="21.533239652807">
        <ele>0</ele>
        <time>2017-06-17T10:37:04Z</time>
      </trkpt>
      <trkpt lat="60.112780432463" lon="21.533225319758">
        <ele>0</ele>
        <time>2017-06-17T10:37:05Z</time>
      </trkpt>
      <trkpt lat="60.112770541821" lon="21.533210483795">
        <ele>0</ele>
        <time>2017-06-17T10:37:06Z</time>
      </trkpt>
      <trkpt lat="60.112761657007" lon="21.533199754963">
        <ele>0</ele>
        <time>2017-06-17T10:37:07Z</time>
      </trkpt>
      <trkpt lat="60.112754029478" lon="21.53318659538">
        <ele>0</ele>
        <time>2017-06-17T10:37:08Z</time>
      </trkpt>
      <trkpt lat="60.112742797732" lon="21.533175279815">
        <ele>0</ele>
        <time>2017-06-17T10:37:09Z</time>
      </trkpt>
      <trkpt lat="60.112738439144" lon="21.533163796612">
        <ele>0</ele>
        <time>2017-06-17T10:37:10Z</time>
      </trkpt>
      <trkpt lat="60.112725866294" lon="21.533152313409">
        <ele>0</ele>
        <time>2017-06-17T10:37:11Z</time>
      </trkpt>
      <trkpt lat="60.112714299272" lon="21.533140746387">
        <ele>0</ele>
        <time>2017-06-17T10:37:12Z</time>
      </trkpt>
      <trkpt lat="60.112701139689" lon="21.533120713646">
        <ele>0</ele>
        <time>2017-06-17T10:37:14Z</time>
      </trkpt>
      <trkpt lat="60.112687728649" lon="21.533109146624">
        <ele>0</ele>
        <time>2017-06-17T10:37:15Z</time>
      </trkpt>
      <trkpt lat="60.112680687853" lon="21.533099758896">
        <ele>0</ele>
        <time>2017-06-17T10:37:16Z</time>
      </trkpt>
      <trkpt lat="60.112670210478" lon="21.533090035892">
        <ele>0</ele>
        <time>2017-06-17T10:37:17Z</time>
      </trkpt>
      <trkpt lat="60.112661074207" lon="21.533078049775">
        <ele>0</ele>
        <time>2017-06-17T10:37:18Z</time>
      </trkpt>
      <trkpt lat="60.112648752814" lon="21.533068829685">
        <ele>0</ele>
        <time>2017-06-17T10:37:19Z</time>
      </trkpt>
      <trkpt lat="60.112637772525" lon="21.533059274319">
        <ele>0</ele>
        <time>2017-06-17T10:37:20Z</time>
      </trkpt>
      <trkpt lat="60.11262813334" lon="21.533050976238">
        <ele>0</ele>
        <time>2017-06-17T10:37:21Z</time>
      </trkpt>
      <trkpt lat="60.112616901594" lon="21.533042929614">
        <ele>0</ele>
        <time>2017-06-17T10:37:22Z</time>
      </trkpt>
      <trkpt lat="60.112607765323" lon="21.533039493035">
        <ele>0</ele>
        <time>2017-06-17T10:37:23Z</time>
      </trkpt>
      <trkpt lat="60.112593432274" lon="21.533034212438">
        <ele>0</ele>
        <time>2017-06-17T10:37:24Z</time>
      </trkpt>
      <trkpt lat="60.112580188872" lon="21.533032955153">
        <ele>0</ele>
        <time>2017-06-17T10:37:25Z</time>
      </trkpt>
      <trkpt lat="60.11256778366" lon="21.533029770031">
        <ele>0</ele>
        <time>2017-06-17T10:37:26Z</time>
      </trkpt>
      <trkpt lat="60.112554959353" lon="21.533029686212">
        <ele>0</ele>
        <time>2017-06-17T10:37:27Z</time>
      </trkpt>
      <trkpt lat="60.11254263796" lon="21.533025327624">
        <ele>0</ele>
        <time>2017-06-17T10:37:28Z</time>
      </trkpt>
      <trkpt lat="60.11253174149" lon="21.53302398652">
        <ele>0</ele>
        <time>2017-06-17T10:37:29Z</time>
      </trkpt>
      <trkpt lat="60.112518078993" lon="21.533019125018">
        <ele>0</ele>
        <time>2017-06-17T10:37:30Z</time>
      </trkpt>
      <trkpt lat="60.112503410668" lon="21.53301560462">
        <ele>0</ele>
        <time>2017-06-17T10:37:31Z</time>
      </trkpt>
      <trkpt lat="60.112495028768" lon="21.533010994575">
        <ele>0</ele>
        <time>2017-06-17T10:37:32Z</time>
      </trkpt>
      <trkpt lat="60.112480025167" lon="21.533004875788">
        <ele>0</ele>
        <time>2017-06-17T10:37:33Z</time>
      </trkpt>
      <trkpt lat="60.112473319647" lon="21.532999427553">
        <ele>0</ele>
        <time>2017-06-17T10:37:34Z</time>
      </trkpt>
      <trkpt lat="60.112457896951" lon="21.532988614902">
        <ele>0</ele>
        <time>2017-06-17T10:37:35Z</time>
      </trkpt>
      <trkpt lat="60.112451359069" lon="21.532983418124">
        <ele>0</ele>
        <time>2017-06-17T10:37:36Z</time>
      </trkpt>
      <trkpt lat="60.112436355468" lon="21.532965899953">
        <ele>0</ele>
        <time>2017-06-17T10:37:37Z</time>
      </trkpt>
      <trkpt lat="60.112430069043" lon="21.532961625184">
        <ele>0</ele>
        <time>2017-06-17T10:37:38Z</time>
      </trkpt>
      <trkpt lat="60.112418753478" lon="21.532941089529">
        <ele>0</ele>
        <time>2017-06-17T10:37:39Z</time>
      </trkpt>
      <trkpt lat="60.112411796501" lon="21.532931282706">
        <ele>0</ele>
        <time>2017-06-17T10:37:40Z</time>
      </trkpt>
      <trkpt lat="60.112402744049" lon="21.532912088155">
        <ele>0</ele>
        <time>2017-06-17T10:37:41Z</time>
      </trkpt>
      <trkpt lat="60.112394445968" lon="21.532895408174">
        <ele>0</ele>
        <time>2017-06-17T10:37:42Z</time>
      </trkpt>
      <trkpt lat="60.112388578638" lon="21.532878560555">
        <ele>0</ele>
        <time>2017-06-17T10:37:43Z</time>
      </trkpt>
      <trkpt lat="60.112381370204" lon="21.532859533642">
        <ele>0</ele>
        <time>2017-06-17T10:37:44Z</time>
      </trkpt>
      <trkpt lat="60.11237583815" lon="21.53283874653">
        <ele>0</ele>
        <time>2017-06-17T10:37:45Z</time>
      </trkpt>
      <trkpt lat="60.112367372431" lon="21.532816702133">
        <ele>0</ele>
        <time>2017-06-17T10:37:46Z</time>
      </trkpt>
      <trkpt lat="60.112364438766" lon="21.532801447075">
        <ele>0</ele>
        <time>2017-06-17T10:37:47Z</time>
      </trkpt>
      <trkpt lat="60.112355973047" lon="21.532776469013">
        <ele>0</ele>
        <time>2017-06-17T10:37:48Z</time>
      </trkpt>
      <trkpt lat="60.112353877572" lon="21.532761213955">
        <ele>0</ele>
        <time>2017-06-17T10:37:49Z</time>
      </trkpt>
      <trkpt lat="60.112344741301" lon="21.532730955296">
        <ele>0</ele>
        <time>2017-06-17T10:37:50Z</time>
      </trkpt>
      <trkpt lat="60.112343232559" lon="21.532718298627">
        <ele>0</ele>
        <time>2017-06-17T10:37:51Z</time>
      </trkpt>
      <trkpt lat="60.112335185935" lon="21.532684268113">
        <ele>0</ele>
        <time>2017-06-17T10:37:52Z</time>
      </trkpt>
      <trkpt lat="60.112334431564" lon="21.532676305308">
        <ele>0</ele>
        <time>2017-06-17T10:37:53Z</time>
      </trkpt>
      <trkpt lat="60.112327139311" lon="21.532639927862">
        <ele>0</ele>
        <time>2017-06-17T10:37:54Z</time>
      </trkpt>
      <trkpt lat="60.112324876198" lon="21.53262836084">
        <ele>0</ele>
        <time>2017-06-17T10:37:55Z</time>
      </trkpt>
      <trkpt lat="60.112319092687" lon="21.532596174344">
        <ele>0</ele>
        <time>2017-06-17T10:37:56Z</time>
      </trkpt>
      <trkpt lat="60.112315991384" lon="21.532581254562">
        <ele>0</ele>
        <time>2017-06-17T10:37:57Z</time>
      </trkpt>
      <trkpt lat="60.112309537321" lon="21.532553594292">
        <ele>0</ele>
        <time>2017-06-17T10:37:58Z</time>
      </trkpt>
      <trkpt lat="60.112304675819" lon="21.532535070293">
        <ele>0</ele>
        <time>2017-06-17T10:37:59Z</time>
      </trkpt>
      <trkpt lat="60.112300484869" lon="21.532508415851">
        <ele>0</ele>
        <time>2017-06-17T10:38:00Z</time>
      </trkpt>
      <trkpt lat="60.112294366082" lon="21.532484778893">
        <ele>0</ele>
        <time>2017-06-17T10:38:01Z</time>
      </trkpt>
      <trkpt lat="60.112291516236" lon="21.5324640756">
        <ele>0</ele>
        <time>2017-06-17T10:38:02Z</time>
      </trkpt>
      <trkpt lat="60.112285648906" lon="21.532440941556">
        <ele>0</ele>
        <time>2017-06-17T10:38:03Z</time>
      </trkpt>
      <trkpt lat="60.112282128508" lon="21.532422249919">
        <ele>0</ele>
        <time>2017-06-17T10:38:04Z</time>
      </trkpt>
      <trkpt lat="60.112274668617" lon="21.532397104219">
        <ele>0</ele>
        <time>2017-06-17T10:38:05Z</time>
      </trkpt>
      <trkpt lat="60.112272573142" lon="21.532379334591">
        <ele>0</ele>
        <time>2017-06-17T10:38:06Z</time>
      </trkpt>
      <trkpt lat="60.1122626825" lon="21.532349746484">
        <ele>0</ele>
        <time>2017-06-17T10:38:07Z</time>
      </trkpt>
      <trkpt lat="60.112260754663" lon="21.532338766195">
        <ele>0</ele>
        <time>2017-06-17T10:38:08Z</time>
      </trkpt>
      <trkpt lat="60.112251031659" lon="21.532307585527">
        <ele>0</ele>
        <time>2017-06-17T10:38:09Z</time>
      </trkpt>
      <trkpt lat="60.112249020003" lon="21.532295767048">
        <ele>0</ele>
        <time>2017-06-17T10:38:10Z</time>
      </trkpt>
      <trkpt lat="60.112241141017" lon="21.532265089294">
        <ele>0</ele>
        <time>2017-06-17T10:38:11Z</time>
      </trkpt>
      <trkpt lat="60.112238626447" lon="21.532250504788">
        <ele>0</ele>
        <time>2017-06-17T10:38:12Z</time>
      </trkpt>
      <trkpt lat="60.112233681126" lon="21.532227873658">
        <ele>0</ele>
        <time>2017-06-17T10:38:13Z</time>
      </trkpt>
      <trkpt lat="60.112226305054" lon="21.532201051578">
        <ele>0</ele>
        <time>2017-06-17T10:38:14Z</time>
      </trkpt>
      <trkpt lat="60.112224041941" lon="21.532188562547">
        <ele>0</ele>
        <time>2017-06-17T10:38:15Z</time>
      </trkpt>
      <trkpt lat="60.112218761344" lon="21.532155789318">
        <ele>0</ele>
        <time>2017-06-17T10:38:16Z</time>
      </trkpt>
      <trkpt lat="60.112216917326" lon="21.532143132649">
        <ele>0</ele>
        <time>2017-06-17T10:38:17Z</time>
      </trkpt>
      <trkpt lat="60.11221322929" lon="21.532114382732">
        <ele>0</ele>
        <time>2017-06-17T10:38:18Z</time>
      </trkpt>
      <trkpt lat="60.112211217634" lon="21.532094601448">
        <ele>0</ele>
        <time>2017-06-17T10:38:19Z</time>
      </trkpt>
      <trkpt lat="60.11220987653" lon="21.532068869015">
        <ele>0</ele>
        <time>2017-06-17T10:38:20Z</time>
      </trkpt>
      <trkpt lat="60.112207529598" lon="21.532047998084">
        <ele>0</ele>
        <time>2017-06-17T10:38:21Z</time>
      </trkpt>
      <trkpt lat="60.112206942865" lon="21.532027127153">
        <ele>0</ele>
        <time>2017-06-17T10:38:22Z</time>
      </trkpt>
      <trkpt lat="60.112204679752" lon="21.532004244566">
        <ele>0</ele>
        <time>2017-06-17T10:38:23Z</time>
      </trkpt>
      <trkpt lat="60.112205015028" lon="21.531984044187">
        <ele>0</ele>
        <time>2017-06-17T10:38:24Z</time>
      </trkpt>
      <trkpt lat="60.112201829906" lon="21.531951773872">
        <ele>0</ele>
        <time>2017-06-17T10:38:25Z</time>
      </trkpt>
      <trkpt lat="60.112202668096" lon="21.531940709764">
        <ele>0</ele>
        <time>2017-06-17T10:38:26Z</time>
      </trkpt>
      <trkpt lat="60.112201913725" lon="21.531904248499">
        <ele>0</ele>
        <time>2017-06-17T10:38:27Z</time>
      </trkpt>
      <trkpt lat="60.112203003372" lon="21.531892513839">
        <ele>0</ele>
        <time>2017-06-17T10:38:28Z</time>
      </trkpt>
      <trkpt lat="60.112202751915" lon="21.5318605788">
        <ele>0</ele>
        <time>2017-06-17T10:38:29Z</time>
      </trkpt>
      <trkpt lat="60.112203925381" lon="21.531839540231">
        <ele>0</ele>
        <time>2017-06-17T10:38:30Z</time>
      </trkpt>
      <trkpt lat="60.112207697236" lon="21.531812550513">
        <ele>0</ele>
        <time>2017-06-17T10:38:31Z</time>
      </trkpt>
      <trkpt lat="60.112208786883" lon="21.531790087021">
        <ele>0</ele>
        <time>2017-06-17T10:38:32Z</time>
      </trkpt>
      <trkpt lat="60.112210044168" lon="21.531760415095">
        <ele>0</ele>
        <time>2017-06-17T10:38:33Z</time>
      </trkpt>
      <trkpt lat="60.112209960349" lon="21.531743064562">
        <ele>0</ele>
        <time>2017-06-17T10:38:34Z</time>
      </trkpt>
      <trkpt lat="60.112210630901" lon="21.531713141179">
        <ele>0</ele>
        <time>2017-06-17T10:38:35Z</time>
      </trkpt>
      <trkpt lat="60.112208619245" lon="21.531697634664">
        <ele>0</ele>
        <time>2017-06-17T10:38:36Z</time>
      </trkpt>
      <trkpt lat="60.112209541254" lon="21.531665112892">
        <ele>0</ele>
        <time>2017-06-17T10:38:37Z</time>
      </trkpt>
      <trkpt lat="60.112203422467" lon="21.531653462051">
        <ele>0</ele>
        <time>2017-06-17T10:38:38Z</time>
      </trkpt>
      <trkpt lat="60.112200321164" lon="21.531629322179">
        <ele>0</ele>
        <time>2017-06-17T10:38:39Z</time>
      </trkpt>
      <trkpt lat="60.112194034739" lon="21.531611049637">
        <ele>0</ele>
        <time>2017-06-17T10:38:40Z</time>
      </trkpt>
      <trkpt lat="60.112192442178" lon="21.531601075176">
        <ele>0</ele>
        <time>2017-06-17T10:38:41Z</time>
      </trkpt>
      <trkpt lat="60.11218473083" lon="21.531573666363">
        <ele>0</ele>
        <time>2017-06-17T10:38:42Z</time>
      </trkpt>
      <trkpt lat="60.112180875156" lon="21.531562434617">
        <ele>0</ele>
        <time>2017-06-17T10:38:43Z</time>
      </trkpt>
      <trkpt lat="60.112176851844" lon="21.53154122841">
        <ele>0</ele>
        <time>2017-06-17T10:38:44Z</time>
      </trkpt>
      <trkpt lat="60.112172744713" lon="21.531522955868">
        <ele>0</ele>
        <time>2017-06-17T10:38:45Z</time>
      </trkpt>
      <trkpt lat="60.112171068333" lon="21.531496217607">
        <ele>0</ele>
        <time>2017-06-17T10:38:46Z</time>
      </trkpt>
      <trkpt lat="60.112160842415" lon="21.531485740232">
        <ele>0</ele>
        <time>2017-06-17T10:38:47Z</time>
      </trkpt>
      <trkpt lat="60.112159333673" lon="21.531455649211">
        <ele>0</ele>
        <time>2017-06-17T10:38:48Z</time>
      </trkpt>
      <trkpt lat="60.112153382524" lon="21.531448692234">
        <ele>0</ele>
        <time>2017-06-17T10:38:49Z</time>
      </trkpt>
      <trkpt lat="60.112146425547" lon="21.531413572073">
        <ele>0</ele>
        <time>2017-06-17T10:38:50Z</time>
      </trkpt>
      <trkpt lat="60.112137373095" lon="21.531404351983">
        <ele>0</ele>
        <time>2017-06-17T10:38:51Z</time>
      </trkpt>
      <trkpt lat="60.112127147177" lon="21.531390521848">
        <ele>0</ele>
        <time>2017-06-17T10:38:52Z</time>
      </trkpt>
      <trkpt lat="60.112123375322" lon="21.531377613722">
        <ele>0</ele>
        <time>2017-06-17T10:38:53Z</time>
      </trkpt>
      <trkpt lat="60.112108790816" lon="21.531360766103">
        <ele>0</ele>
        <time>2017-06-17T10:38:54Z</time>
      </trkpt>
      <trkpt lat="60.112102839667" lon="21.531348528529">
        <ele>0</ele>
        <time>2017-06-17T10:38:55Z</time>
      </trkpt>
      <trkpt lat="60.112090099179" lon="21.531333776385">
        <ele>0</ele>
        <time>2017-06-17T10:38:56Z</time>
      </trkpt>
      <trkpt lat="60.112082890745" lon="21.531320868259">
        <ele>0</ele>
        <time>2017-06-17T10:38:57Z</time>
      </trkpt>
      <trkpt lat="60.1120698988" lon="21.5313073734">
        <ele>0</ele>
        <time>2017-06-17T10:38:58Z</time>
      </trkpt>
      <trkpt lat="60.112064450565" lon="21.531296560749">
        <ele>0</ele>
        <time>2017-06-17T10:38:59Z</time>
      </trkpt>
      <trkpt lat="60.112049614602" lon="21.5312738458">
        <ele>0</ele>
        <time>2017-06-17T10:39:00Z</time>
      </trkpt>
      <trkpt lat="60.112045842747" lon="21.531262027321">
        <ele>0</ele>
        <time>2017-06-17T10:39:01Z</time>
      </trkpt>
      <trkpt lat="60.112030168594" lon="21.531238390363">
        <ele>0</ele>
        <time>2017-06-17T10:39:02Z</time>
      </trkpt>
      <trkpt lat="60.112026480558" lon="21.53123025992">
        <ele>0</ele>
        <time>2017-06-17T10:39:03Z</time>
      </trkpt>
      <trkpt lat="60.112012734242" lon="21.531200671813">
        <ele>0</ele>
        <time>2017-06-17T10:39:04Z</time>
      </trkpt>
      <trkpt lat="60.112008040378" lon="21.531191367904">
        <ele>0</ele>
        <time>2017-06-17T10:39:05Z</time>
      </trkpt>
      <trkpt lat="60.111995048433" lon="21.531165384014">
        <ele>0</ele>
        <time>2017-06-17T10:39:06Z</time>
      </trkpt>
      <trkpt lat="60.111989013465" lon="21.531150045137">
        <ele>0</ele>
        <time>2017-06-17T10:39:07Z</time>
      </trkpt>
      <trkpt lat="60.111979039004" lon="21.531129174206">
        <ele>0</ele>
        <time>2017-06-17T10:39:08Z</time>
      </trkpt>
      <trkpt lat="60.111970070371" lon="21.53110872237">
        <ele>0</ele>
        <time>2017-06-17T10:39:09Z</time>
      </trkpt>
      <trkpt lat="60.111962526661" lon="21.53108776762">
        <ele>0</ele>
        <time>2017-06-17T10:39:10Z</time>
      </trkpt>
      <trkpt lat="60.111954480037" lon="21.531068573069">
        <ele>0</ele>
        <time>2017-06-17T10:39:11Z</time>
      </trkpt>
      <trkpt lat="60.111947606879" lon="21.531044768473">
        <ele>0</ele>
        <time>2017-06-17T10:39:12Z</time>
      </trkpt>
      <trkpt lat="60.111942829196" lon="21.531024316637">
        <ele>0</ele>
        <time>2017-06-17T10:39:13Z</time>
      </trkpt>
      <trkpt lat="60.111938889703" lon="21.53099556672">
        <ele>0</ele>
        <time>2017-06-17T10:39:14Z</time>
      </trkpt>
      <trkpt lat="60.111928496147" lon="21.530980227843">
        <ele>0</ele>
        <time>2017-06-17T10:39:15Z</time>
      </trkpt>
      <trkpt lat="60.111924389016" lon="21.530945778234">
        <ele>0</ele>
        <time>2017-06-17T10:39:16Z</time>
      </trkpt>
      <trkpt lat="60.111917096763" lon="21.53093186428">
        <ele>0</ele>
        <time>2017-06-17T10:39:17Z</time>
      </trkpt>
      <trkpt lat="60.111908631044" lon="21.53091258591">
        <ele>0</ele>
        <time>2017-06-17T10:39:18Z</time>
      </trkpt>
      <trkpt lat="60.1119022608" lon="21.530896744119">
        <ele>0</ele>
        <time>2017-06-17T10:39:19Z</time>
      </trkpt>
      <trkpt lat="60.111892873072" lon="21.530875118817">
        <ele>0</ele>
        <time>2017-06-17T10:39:20Z</time>
      </trkpt>
      <trkpt lat="60.111885664638" lon="21.53085894175">
        <ele>0</ele>
        <time>2017-06-17T10:39:21Z</time>
      </trkpt>
      <trkpt lat="60.111878204747" lon="21.530842848502">
        <ele>0</ele>
        <time>2017-06-17T10:39:22Z</time>
      </trkpt>
      <trkpt lat="60.111869152295" lon="21.530825833245">
        <ele>0</ele>
        <time>2017-06-17T10:39:23Z</time>
      </trkpt>
      <trkpt lat="60.111862782051" lon="21.530808315074">
        <ele>0</ele>
        <time>2017-06-17T10:39:24Z</time>
      </trkpt>
      <trkpt lat="60.111852472314" lon="21.530788198514">
        <ele>0</ele>
        <time>2017-06-17T10:39:25Z</time>
      </trkpt>
      <trkpt lat="60.111845850613" lon="21.53077260818">
        <ele>0</ele>
        <time>2017-06-17T10:39:26Z</time>
      </trkpt>
      <trkpt lat="60.111832523392" lon="21.530754335638">
        <ele>0</ele>
        <time>2017-06-17T10:39:27Z</time>
      </trkpt>
      <trkpt lat="60.111828248623" lon="21.530742181883">
        <ele>0</ele>
        <time>2017-06-17T10:39:28Z</time>
      </trkpt>
      <trkpt lat="60.111816178687" lon="21.530722568237">
        <ele>0</ele>
        <time>2017-06-17T10:39:29Z</time>
      </trkpt>
      <trkpt lat="60.111810562814" lon="21.530710833577">
        <ele>0</ele>
        <time>2017-06-17T10:39:30Z</time>
      </trkpt>
      <trkpt lat="60.111796229765" lon="21.530686945162">
        <ele>0</ele>
        <time>2017-06-17T10:39:31Z</time>
      </trkpt>
      <trkpt lat="60.111790530073" lon="21.530676383968">
        <ele>0</ele>
        <time>2017-06-17T10:39:32Z</time>
      </trkpt>
      <trkpt lat="60.111779549784" lon="21.530655010123">
        <ele>0</ele>
        <time>2017-06-17T10:39:33Z</time>
      </trkpt>
      <trkpt lat="60.111772592807" lon="21.530641515264">
        <ele>0</ele>
        <time>2017-06-17T10:39:34Z</time>
      </trkpt>
      <trkpt lat="60.111761863975" lon="21.530620392876">
        <ele>0</ele>
        <time>2017-06-17T10:39:35Z</time>
      </trkpt>
      <trkpt lat="60.11175306298" lon="21.530602287972">
        <ele>0</ele>
        <time>2017-06-17T10:39:36Z</time>
      </trkpt>
      <trkpt lat="60.111745100175" lon="21.530583428697">
        <ele>0</ele>
        <time>2017-06-17T10:39:37Z</time>
      </trkpt>
      <trkpt lat="60.111735628628" lon="21.530563312137">
        <ele>0</ele>
        <time>2017-06-17T10:39:38Z</time>
      </trkpt>
      <trkpt lat="60.111730012755" lon="21.530545877785">
        <ele>0</ele>
        <time>2017-06-17T10:39:39Z</time>
      </trkpt>
      <trkpt lat="60.111718194276" lon="21.530520815904">
        <ele>0</ele>
        <time>2017-06-17T10:39:40Z</time>
      </trkpt>
      <trkpt lat="60.111714422421" lon="21.530505057932">
        <ele>0</ele>
        <time>2017-06-17T10:39:41Z</time>
      </trkpt>
      <trkpt lat="60.111703358313" lon="21.530477230024">
        <ele>0</ele>
        <time>2017-06-17T10:39:42Z</time>
      </trkpt>
      <trkpt lat="60.111700424648" lon="21.530464657174">
        <ele>0</ele>
        <time>2017-06-17T10:39:43Z</time>
      </trkpt>
      <trkpt lat="60.111690534006" lon="21.53043733218">
        <ele>0</ele>
        <time>2017-06-17T10:39:44Z</time>
      </trkpt>
      <trkpt lat="60.111686929789" lon="21.53042056838">
        <ele>0</ele>
        <time>2017-06-17T10:39:45Z</time>
      </trkpt>
      <trkpt lat="60.111680308088" lon="21.530394500671">
        <ele>0</ele>
        <time>2017-06-17T10:39:46Z</time>
      </trkpt>
      <trkpt lat="60.111676955328" lon="21.530372372455">
        <ele>0</ele>
        <time>2017-06-17T10:39:47Z</time>
      </trkpt>
      <trkpt lat="60.111667902876" lon="21.530351585343">
        <ele>0</ele>
        <time>2017-06-17T10:39:48Z</time>
      </trkpt>
      <trkpt lat="60.111666477953" lon="21.530323757435">
        <ele>0</ele>
        <time>2017-06-17T10:39:49Z</time>
      </trkpt>
      <trkpt lat="60.111655162388" lon="21.530307831825">
        <ele>0</ele>
        <time>2017-06-17T10:39:50Z</time>
      </trkpt>
      <trkpt lat="60.111654324198" lon="21.530277824623">
        <ele>0</ele>
        <time>2017-06-17T10:39:51Z</time>
      </trkpt>
      <trkpt lat="60.111642254262" lon="21.530262485746">
        <ele>0</ele>
        <time>2017-06-17T10:39:52Z</time>
      </trkpt>
      <trkpt lat="60.11163655457" lon="21.530245805765">
        <ele>0</ele>
        <time>2017-06-17T10:39:53Z</time>
      </trkpt>
      <trkpt lat="60.111625406643" lon="21.530228287594">
        <ele>0</ele>
        <time>2017-06-17T10:39:54Z</time>
      </trkpt>
      <trkpt lat="60.111620796598" lon="21.530214876554">
        <ele>0</ele>
        <time>2017-06-17T10:39:55Z</time>
      </trkpt>
      <trkpt lat="60.111607972291" lon="21.530197861297">
        <ele>0</ele>
        <time>2017-06-17T10:39:56Z</time>
      </trkpt>
      <trkpt lat="60.111591124672" lon="21.530174308158">
        <ele>0</ele>
        <time>2017-06-17T10:39:57Z</time>
      </trkpt>
      <trkpt lat="60.111586682265" lon="21.530164668973">
        <ele>0</ele>
        <time>2017-06-17T10:39:58Z</time>
      </trkpt>
      <trkpt lat="60.111572935949" lon="21.53014815663">
        <ele>0</ele>
        <time>2017-06-17T10:39:59Z</time>
      </trkpt>
      <trkpt lat="60.111564051135" lon="21.530136002875">
        <ele>0</ele>
        <time>2017-06-17T10:40:00Z</time>
      </trkpt>
      <trkpt lat="60.111550556276" lon="21.530123262387">
        <ele>0</ele>
        <time>2017-06-17T10:40:01Z</time>
      </trkpt>
      <trkpt lat="60.111541671462" lon="21.530113455564">
        <ele>0</ele>
        <time>2017-06-17T10:40:02Z</time>
      </trkpt>
      <trkpt lat="60.111527506051" lon="21.530100798895">
        <ele>0</ele>
        <time>2017-06-17T10:40:03Z</time>
      </trkpt>
      <trkpt lat="60.111518621237" lon="21.530092249357">
        <ele>0</ele>
        <time>2017-06-17T10:40:04Z</time>
      </trkpt>
      <trkpt lat="60.111504455826" lon="21.530078251584">
        <ele>0</ele>
        <time>2017-06-17T10:40:05Z</time>
      </trkpt>
      <trkpt lat="60.111494229908" lon="21.530066768381">
        <ele>0</ele>
        <time>2017-06-17T10:40:06Z</time>
      </trkpt>
      <trkpt lat="60.111482495248" lon="21.530053524979">
        <ele>0</ele>
        <time>2017-06-17T10:40:07Z</time>
      </trkpt>
      <trkpt lat="60.111472772244" lon="21.530041035948">
        <ele>0</ele>
        <time>2017-06-17T10:40:08Z</time>
      </trkpt>
      <trkpt lat="60.111461875774" lon="21.530024272148">
        <ele>0</ele>
        <time>2017-06-17T10:40:09Z</time>
      </trkpt>
      <trkpt lat="60.111454834978" lon="21.530012118393">
        <ele>0</ele>
        <time>2017-06-17T10:40:10Z</time>
      </trkpt>
      <trkpt lat="60.111443435594" lon="21.529992588566">
        <ele>0</ele>
        <time>2017-06-17T10:40:11Z</time>
      </trkpt>
      <trkpt lat="60.111436310979" lon="21.529979596621">
        <ele>0</ele>
        <time>2017-06-17T10:40:12Z</time>
      </trkpt>
      <trkpt lat="60.111426001242" lon="21.529961491717">
        <ele>0</ele>
        <time>2017-06-17T10:40:13Z</time>
      </trkpt>
      <trkpt lat="60.111417367885" lon="21.529944644098">
        <ele>0</ele>
        <time>2017-06-17T10:40:14Z</time>
      </trkpt>
      <trkpt lat="60.111407561062" lon="21.529924695176">
        <ele>0</ele>
        <time>2017-06-17T10:40:15Z</time>
      </trkpt>
      <trkpt lat="60.111399682076" lon="21.529908350471">
        <ele>0</ele>
        <time>2017-06-17T10:40:16Z</time>
      </trkpt>
      <trkpt lat="60.111391216357" lon="21.529887730997">
        <ele>0</ele>
        <time>2017-06-17T10:40:17Z</time>
      </trkpt>
      <trkpt lat="60.111381577172" lon="21.529866105695">
        <ele>0</ele>
        <time>2017-06-17T10:40:18Z</time>
      </trkpt>
      <trkpt lat="60.111374704014" lon="21.52984557004">
        <ele>0</ele>
        <time>2017-06-17T10:40:19Z</time>
      </trkpt>
      <trkpt lat="60.11136833377" lon="21.529824950566">
        <ele>0</ele>
        <time>2017-06-17T10:40:20Z</time>
      </trkpt>
      <trkpt lat="60.111363472268" lon="21.529802067979">
        <ele>0</ele>
        <time>2017-06-17T10:40:21Z</time>
      </trkpt>
      <trkpt lat="60.111357018205" lon="21.529785304179">
        <ele>0</ele>
        <time>2017-06-17T10:40:22Z</time>
      </trkpt>
      <trkpt lat="60.111352072884" lon="21.529761834859">
        <ele>0</ele>
        <time>2017-06-17T10:40:23Z</time>
      </trkpt>
      <trkpt lat="60.11134570264" lon="21.529742053575">
        <ele>0</ele>
        <time>2017-06-17T10:40:24Z</time>
      </trkpt>
      <trkpt lat="60.111342098423" lon="21.529720595911">
        <ele>0</ele>
        <time>2017-06-17T10:40:25Z</time>
      </trkpt>
      <trkpt lat="60.111334470894" lon="21.529700227894">
        <ele>0</ele>
        <time>2017-06-17T10:40:26Z</time>
      </trkpt>
      <trkpt lat="60.111330279944" lon="21.529681033343">
        <ele>0</ele>
        <time>2017-06-17T10:40:27Z</time>
      </trkpt>
      <trkpt lat="60.111324161157" lon="21.529662593163">
        <ele>0</ele>
        <time>2017-06-17T10:40:28Z</time>
      </trkpt>
      <trkpt lat="60.111317036542" lon="21.52964356625">
        <ele>0</ele>
        <time>2017-06-17T10:40:29Z</time>
      </trkpt>
      <trkpt lat="60.111308151728" lon="21.529628311192">
        <ele>0</ele>
        <time>2017-06-17T10:40:30Z</time>
      </trkpt>
      <trkpt lat="60.11130295495" lon="21.529615570704">
        <ele>0</ele>
        <time>2017-06-17T10:40:31Z</time>
      </trkpt>
      <trkpt lat="60.111293567222" lon="21.529600483284">
        <ele>0</ele>
        <time>2017-06-17T10:40:32Z</time>
      </trkpt>
      <trkpt lat="60.111286694064" lon="21.529587323701">
        <ele>0</ele>
        <time>2017-06-17T10:40:33Z</time>
      </trkpt>
      <trkpt lat="60.111277473974" lon="21.52957399648">
        <ele>0</ele>
        <time>2017-06-17T10:40:34Z</time>
      </trkpt>
      <trkpt lat="60.111268672979" lon="21.529562178001">
        <ele>0</ele>
        <time>2017-06-17T10:40:35Z</time>
      </trkpt>
      <trkpt lat="60.111258614699" lon="21.529550191884">
        <ele>0</ele>
        <time>2017-06-17T10:40:36Z</time>
      </trkpt>
      <trkpt lat="60.11125014898" lon="21.529541726165">
        <ele>0</ele>
        <time>2017-06-17T10:40:37Z</time>
      </trkpt>
      <trkpt lat="60.111239001053" lon="21.529529907686">
        <ele>0</ele>
        <time>2017-06-17T10:40:38Z</time>
      </trkpt>
      <trkpt lat="60.11122919423" lon="21.529521106691">
        <ele>0</ele>
        <time>2017-06-17T10:40:39Z</time>
      </trkpt>
      <trkpt lat="60.111219890321" lon="21.52951113223">
        <ele>0</ele>
        <time>2017-06-17T10:40:40Z</time>
      </trkpt>
      <trkpt lat="60.111208071842" lon="21.529500990131">
        <ele>0</ele>
        <time>2017-06-17T10:40:41Z</time>
      </trkpt>
      <trkpt lat="60.111198935571" lon="21.529491686222">
        <ele>0</ele>
        <time>2017-06-17T10:40:42Z</time>
      </trkpt>
      <trkpt lat="60.111187117092" lon="21.529482801408">
        <ele>0</ele>
        <time>2017-06-17T10:40:43Z</time>
      </trkpt>
      <trkpt lat="60.111177561726" lon="21.529473329861">
        <ele>0</ele>
        <time>2017-06-17T10:40:44Z</time>
      </trkpt>
      <trkpt lat="60.1111646536" lon="21.52946419359">
        <ele>0</ele>
        <time>2017-06-17T10:40:45Z</time>
      </trkpt>
      <trkpt lat="60.11115543351" lon="21.529455224957">
        <ele>0</ele>
        <time>2017-06-17T10:40:46Z</time>
      </trkpt>
      <trkpt lat="60.111141771013" lon="21.529446507781">
        <ele>0</ele>
        <time>2017-06-17T10:40:47Z</time>
      </trkpt>
      <trkpt lat="60.111130706905" lon="21.529438293519">
        <ele>0</ele>
        <time>2017-06-17T10:40:48Z</time>
      </trkpt>
      <trkpt lat="60.111115954761" lon="21.529430414533">
        <ele>0</ele>
        <time>2017-06-17T10:40:49Z</time>
      </trkpt>
      <trkpt lat="60.111105477386" lon="21.529422703185">
        <ele>0</ele>
        <time>2017-06-17T10:40:50Z</time>
      </trkpt>
      <trkpt lat="60.111090809061" lon="21.529414991837">
        <ele>0</ele>
        <time>2017-06-17T10:40:51Z</time>
      </trkpt>
      <trkpt lat="60.111081169876" lon="21.529408286317">
        <ele>0</ele>
        <time>2017-06-17T10:40:52Z</time>
      </trkpt>
      <trkpt lat="60.111065328085" lon="21.529398479494">
        <ele>0</ele>
        <time>2017-06-17T10:40:53Z</time>
      </trkpt>
      <trkpt lat="60.111054766891" lon="21.529390600508">
        <ele>0</ele>
        <time>2017-06-17T10:40:54Z</time>
      </trkpt>
      <trkpt lat="60.111040266204" lon="21.529380123133">
        <ele>0</ele>
        <time>2017-06-17T10:40:55Z</time>
      </trkpt>
      <trkpt lat="60.111030291743" lon="21.529371322138">
        <ele>0</ele>
        <time>2017-06-17T10:40:56Z</time>
      </trkpt>
      <trkpt lat="60.111018305626" lon="21.529360174211">
        <ele>0</ele>
        <time>2017-06-17T10:40:57Z</time>
      </trkpt>
      <trkpt lat="60.111008666441" lon="21.529350786483">
        <ele>0</ele>
        <time>2017-06-17T10:40:58Z</time>
      </trkpt>
      <trkpt lat="60.110996093591" lon="21.529335363787">
        <ele>0</ele>
        <time>2017-06-17T10:40:59Z</time>
      </trkpt>
      <trkpt lat="60.11098695732" lon="21.529324048222">
        <ele>0</ele>
        <time>2017-06-17T10:41:00Z</time>
      </trkpt>
      <trkpt lat="60.110976144669" lon="21.52930745206">
        <ele>0</ele>
        <time>2017-06-17T10:41:01Z</time>
      </trkpt>
      <trkpt lat="60.110967427493" lon="21.529294292477">
        <ele>0</ele>
        <time>2017-06-17T10:41:02Z</time>
      </trkpt>
      <trkpt lat="60.110959045593" lon="21.52927560084">
        <ele>0</ele>
        <time>2017-06-17T10:41:03Z</time>
      </trkpt>
      <trkpt lat="60.110952926806" lon="21.529261100153">
        <ele>0</ele>
        <time>2017-06-17T10:41:04Z</time>
      </trkpt>
      <trkpt lat="60.110947143295" lon="21.529237966109">
        <ele>0</ele>
        <time>2017-06-17T10:41:05Z</time>
      </trkpt>
      <trkpt lat="60.110936582101" lon="21.529219023015">
        <ele>0</ele>
        <time>2017-06-17T10:41:06Z</time>
      </trkpt>
      <trkpt lat="60.110928786934" lon="21.529207455993">
        <ele>0</ele>
        <time>2017-06-17T10:41:07Z</time>
      </trkpt>
      <trkpt lat="60.11092409307" lon="21.529190608374">
        <ele>0</ele>
        <time>2017-06-17T10:41:08Z</time>
      </trkpt>
      <trkpt lat="60.110916465541" lon="21.529173760755">
        <ele>0</ele>
        <time>2017-06-17T10:41:09Z</time>
      </trkpt>
      <trkpt lat="60.110910765849" lon="21.529162612828">
        <ele>0</ele>
        <time>2017-06-17T10:41:10Z</time>
      </trkpt>
      <trkpt lat="60.110903054501" lon="21.529147860684">
        <ele>0</ele>
        <time>2017-06-17T10:41:11Z</time>
      </trkpt>
      <trkpt lat="60.110896348981" lon="21.529137131852">
        <ele>0</ele>
        <time>2017-06-17T10:41:12Z</time>
      </trkpt>
      <trkpt lat="60.110887128891" lon="21.529127408848">
        <ele>0</ele>
        <time>2017-06-17T10:41:13Z</time>
      </trkpt>
      <trkpt lat="60.110881513018" lon="21.529117518206">
        <ele>0</ele>
        <time>2017-06-17T10:41:14Z</time>
      </trkpt>
      <trkpt lat="60.110871370919" lon="21.529106370279">
        <ele>0</ele>
        <time>2017-06-17T10:41:15Z</time>
      </trkpt>
      <trkpt lat="60.110865084494" lon="21.529099832397">
        <ele>0</ele>
        <time>2017-06-17T10:41:16Z</time>
      </trkpt>
      <trkpt lat="60.110855696766" lon="21.529089857936">
        <ele>0</ele>
        <time>2017-06-17T10:41:17Z</time>
      </trkpt>
      <trkpt lat="60.110848572151" lon="21.529081727493">
        <ele>0</ele>
        <time>2017-06-17T10:41:18Z</time>
      </trkpt>
      <trkpt lat="60.110837005129" lon="21.529073261774">
        <ele>0</ele>
        <time>2017-06-17T10:41:19Z</time>
      </trkpt>
      <trkpt lat="60.110829796695" lon="21.529066807711">
        <ele>0</ele>
        <time>2017-06-17T10:41:20Z</time>
      </trkpt>
      <trkpt lat="60.110817475302" lon="21.529059180182">
        <ele>0</ele>
        <time>2017-06-17T10:41:21Z</time>
      </trkpt>
      <trkpt lat="60.110810518325" lon="21.529053396671">
        <ele>0</ele>
        <time>2017-06-17T10:41:22Z</time>
      </trkpt>
      <trkpt lat="60.110796269095" lon="21.529044008943">
        <ele>0</ele>
        <time>2017-06-17T10:41:23Z</time>
      </trkpt>
      <trkpt lat="60.110787803376" lon="21.529037973975">
        <ele>0</ele>
        <time>2017-06-17T10:41:24Z</time>
      </trkpt>
      <trkpt lat="60.110774140879" lon="21.529029675894">
        <ele>0</ele>
        <time>2017-06-17T10:41:25Z</time>
      </trkpt>
      <trkpt lat="60.110764501694" lon="21.529023138012">
        <ele>0</ele>
        <time>2017-06-17T10:41:26Z</time>
      </trkpt>
      <trkpt lat="60.110752012663" lon="21.529016264854">
        <ele>0</ele>
        <time>2017-06-17T10:41:27Z</time>
      </trkpt>
      <trkpt lat="60.110742122021" lon="21.529009643153">
        <ele>0</ele>
        <time>2017-06-17T10:41:28Z</time>
      </trkpt>
      <trkpt lat="60.11072711842" lon="21.529001345072">
        <ele>0</ele>
        <time>2017-06-17T10:41:29Z</time>
      </trkpt>
      <trkpt lat="60.110716473407" lon="21.528996315932">
        <ele>0</ele>
        <time>2017-06-17T10:41:30Z</time>
      </trkpt>
      <trkpt lat="60.110702307996" lon="21.528988856041">
        <ele>0</ele>
        <time>2017-06-17T10:41:31Z</time>
      </trkpt>
      <trkpt lat="60.110692501173" lon="21.528984413634">
        <ele>0</ele>
        <time>2017-06-17T10:41:32Z</time>
      </trkpt>
      <trkpt lat="60.110677162296" lon="21.528975696458">
        <ele>0</ele>
        <time>2017-06-17T10:41:33Z</time>
      </trkpt>
      <trkpt lat="60.110666517283" lon="21.528970667318">
        <ele>0</ele>
        <time>2017-06-17T10:41:34Z</time>
      </trkpt>
      <trkpt lat="60.110651429863" lon="21.528961614866">
        <ele>0</ele>
        <time>2017-06-17T10:41:35Z</time>
      </trkpt>
      <trkpt lat="60.110640449574" lon="21.528954909346">
        <ele>0</ele>
        <time>2017-06-17T10:41:36Z</time>
      </trkpt>
      <trkpt lat="60.110628044362" lon="21.528944431971">
        <ele>0</ele>
        <time>2017-06-17T10:41:37Z</time>
      </trkpt>
      <trkpt lat="60.11061647734" lon="21.528934960424">
        <ele>0</ele>
        <time>2017-06-17T10:41:38Z</time>
      </trkpt>
      <trkpt lat="60.110605161775" lon="21.528922555212">
        <ele>0</ele>
        <time>2017-06-17T10:41:39Z</time>
      </trkpt>
      <trkpt lat="60.110595019676" lon="21.528910569095">
        <ele>0</ele>
        <time>2017-06-17T10:41:40Z</time>
      </trkpt>
      <trkpt lat="60.110584458482" lon="21.528894894942">
        <ele>0</ele>
        <time>2017-06-17T10:41:41Z</time>
      </trkpt>
      <trkpt lat="60.11057540603" lon="21.528881316264">
        <ele>0</ele>
        <time>2017-06-17T10:41:42Z</time>
      </trkpt>
      <trkpt lat="60.110567443225" lon="21.528864803921">
        <ele>0</ele>
        <time>2017-06-17T10:41:43Z</time>
      </trkpt>
      <trkpt lat="60.110557552583" lon="21.528844352085">
        <ele>0</ele>
        <time>2017-06-17T10:41:44Z</time>
      </trkpt>
      <trkpt lat="60.110551433796" lon="21.528827085371">
        <ele>0</ele>
        <time>2017-06-17T10:41:45Z</time>
      </trkpt>
      <trkpt lat="60.110547242846" lon="21.528810153933">
        <ele>0</ele>
        <time>2017-06-17T10:41:46Z</time>
      </trkpt>
      <trkpt lat="60.110544393" lon="21.528785343509">
        <ele>0</ele>
        <time>2017-06-17T10:41:47Z</time>
      </trkpt>
      <trkpt lat="60.110538190394" lon="21.528766232777">
        <ele>0</ele>
        <time>2017-06-17T10:41:48Z</time>
      </trkpt>
      <trkpt lat="60.110535340548" lon="21.528746954407">
        <ele>0</ele>
        <time>2017-06-17T10:41:49Z</time>
      </trkpt>
      <trkpt lat="60.110531233417" lon="21.528723485087">
        <ele>0</ele>
        <time>2017-06-17T10:41:50Z</time>
      </trkpt>
      <trkpt lat="60.110527964476" lon="21.528702865613">
        <ele>0</ele>
        <time>2017-06-17T10:41:51Z</time>
      </trkpt>
      <trkpt lat="60.110524024983" lon="21.528685179804">
        <ele>0</ele>
        <time>2017-06-17T10:41:52Z</time>
      </trkpt>
      <trkpt lat="60.110519666395" lon="21.52866623671">
        <ele>0</ele>
        <time>2017-06-17T10:41:53Z</time>
      </trkpt>
      <trkpt lat="60.110516648911" lon="21.528652574213">
        <ele>0</ele>
        <time>2017-06-17T10:41:54Z</time>
      </trkpt>
      <trkpt lat="60.110510530124" lon="21.52860421065">
        <ele>0</ele>
        <time>2017-06-17T10:41:56Z</time>
      </trkpt>
      <trkpt lat="60.110507764097" lon="21.528584429366">
        <ele>0</ele>
        <time>2017-06-17T10:41:57Z</time>
      </trkpt>
      <trkpt lat="60.11050583626" lon="21.528564228987">
        <ele>0</ele>
        <time>2017-06-17T10:41:58Z</time>
      </trkpt>
      <trkpt lat="60.110503070233" lon="21.528539502382">
        <ele>0</ele>
        <time>2017-06-17T10:41:59Z</time>
      </trkpt>
      <trkpt lat="60.110501896767" lon="21.52852039165">
        <ele>0</ele>
        <time>2017-06-17T10:42:00Z</time>
      </trkpt>
      <trkpt lat="60.110498963102" lon="21.52849608414">
        <ele>0</ele>
        <time>2017-06-17T10:42:01Z</time>
      </trkpt>
      <trkpt lat="60.110499046921" lon="21.528475297028">
        <ele>0</ele>
        <time>2017-06-17T10:42:02Z</time>
      </trkpt>
      <trkpt lat="60.110497957274" lon="21.528452079165">
        <ele>0</ele>
        <time>2017-06-17T10:42:03Z</time>
      </trkpt>
      <trkpt lat="60.110496532351" lon="21.528431040596">
        <ele>0</ele>
        <time>2017-06-17T10:42:04Z</time>
      </trkpt>
      <trkpt lat="60.110492676677" lon="21.528409499113">
        <ele>0</ele>
        <time>2017-06-17T10:42:05Z</time>
      </trkpt>
      <trkpt lat="60.110487563718" lon="21.528385610698">
        <ele>0</ele>
        <time>2017-06-17T10:42:06Z</time>
      </trkpt>
      <trkpt lat="60.110483456587" lon="21.528360045903">
        <ele>0</ele>
        <time>2017-06-17T10:42:07Z</time>
      </trkpt>
      <trkpt lat="60.110479097999" lon="21.5283401808">
        <ele>0</ele>
        <time>2017-06-17T10:42:08Z</time>
      </trkpt>
      <trkpt lat="60.110472643936" lon="21.528316962937">
        <ele>0</ele>
        <time>2017-06-17T10:42:09Z</time>
      </trkpt>
      <trkpt lat="60.110466860425" lon="21.528301959336">
        <ele>0</ele>
        <time>2017-06-17T10:42:10Z</time>
      </trkpt>
      <trkpt lat="60.110461328371" lon="21.528283770613">
        <ele>0</ele>
        <time>2017-06-17T10:42:11Z</time>
      </trkpt>
      <trkpt lat="60.110456885964" lon="21.528268683193">
        <ele>0</ele>
        <time>2017-06-17T10:42:12Z</time>
      </trkpt>
      <trkpt lat="60.110450348082" lon="21.528254014868">
        <ele>0</ele>
        <time>2017-06-17T10:42:13Z</time>
      </trkpt>
      <trkpt lat="60.110445738037" lon="21.528244040407">
        <ele>0</ele>
        <time>2017-06-17T10:42:14Z</time>
      </trkpt>
      <trkpt lat="60.110436015033" lon="21.528231635195">
        <ele>0</ele>
        <time>2017-06-17T10:42:15Z</time>
      </trkpt>
      <trkpt lat="60.110430902074" lon="21.528223169476">
        <ele>0</ele>
        <time>2017-06-17T10:42:16Z</time>
      </trkpt>
      <trkpt lat="60.110424112735" lon="21.528213865567">
        <ele>0</ele>
        <time>2017-06-17T10:42:17Z</time>
      </trkpt>
      <trkpt lat="60.110413802998" lon="21.528200789803">
        <ele>0</ele>
        <time>2017-06-17T10:42:18Z</time>
      </trkpt>
      <trkpt lat="60.11040776803" lon="21.528191737351">
        <ele>0</ele>
        <time>2017-06-17T10:42:19Z</time>
      </trkpt>
      <trkpt lat="60.110397542112" lon="21.528180757062">
        <ele>0</ele>
        <time>2017-06-17T10:42:20Z</time>
      </trkpt>
      <trkpt lat="60.110390333678" lon="21.528171620791">
        <ele>0</ele>
        <time>2017-06-17T10:42:21Z</time>
      </trkpt>
      <trkpt lat="60.110381700321" lon="21.528160724321">
        <ele>0</ele>
        <time>2017-06-17T10:42:22Z</time>
      </trkpt>
      <trkpt lat="60.110372815507" lon="21.528148822023">
        <ele>0</ele>
        <time>2017-06-17T10:42:23Z</time>
      </trkpt>
      <trkpt lat="60.110362254313" lon="21.528134908069">
        <ele>0</ele>
        <time>2017-06-17T10:42:24Z</time>
      </trkpt>
      <trkpt lat="60.110354626784" lon="21.528124430694">
        <ele>0</ele>
        <time>2017-06-17T10:42:25Z</time>
      </trkpt>
      <trkpt lat="60.110344819961" lon="21.528108337446">
        <ele>0</ele>
        <time>2017-06-17T10:42:26Z</time>
      </trkpt>
      <trkpt lat="60.110338449717" lon="21.528095680777">
        <ele>0</ele>
        <time>2017-06-17T10:42:27Z</time>
      </trkpt>
      <trkpt lat="60.110329061989" lon="21.528078078787">
        <ele>0</ele>
        <time>2017-06-17T10:42:28Z</time>
      </trkpt>
      <trkpt lat="60.110321937374" lon="21.528062404634">
        <ele>0</ele>
        <time>2017-06-17T10:42:29Z</time>
      </trkpt>
      <trkpt lat="60.110313723112" lon="21.528039438228">
        <ele>0</ele>
        <time>2017-06-17T10:42:30Z</time>
      </trkpt>
      <trkpt lat="60.110309196886" lon="21.528023428799">
        <ele>0</ele>
        <time>2017-06-17T10:42:31Z</time>
      </trkpt>
      <trkpt lat="60.110304251565" lon="21.528002054954">
        <ele>0</ele>
        <time>2017-06-17T10:42:32Z</time>
      </trkpt>
      <trkpt lat="60.110299892977" lon="21.527984285326">
        <ele>0</ele>
        <time>2017-06-17T10:42:33Z</time>
      </trkpt>
      <trkpt lat="60.110297462226" lon="21.527961989472">
        <ele>0</ele>
        <time>2017-06-17T10:42:34Z</time>
      </trkpt>
      <trkpt lat="60.11029545057" lon="21.527937681962">
        <ele>0</ele>
        <time>2017-06-17T10:42:35Z</time>
      </trkpt>
      <trkpt lat="60.110296204941" lon="21.527915469927">
        <ele>0</ele>
        <time>2017-06-17T10:42:36Z</time>
      </trkpt>
      <trkpt lat="60.110297378407" lon="21.527893844625">
        <ele>0</ele>
        <time>2017-06-17T10:42:37Z</time>
      </trkpt>
      <trkpt lat="60.110293606552" lon="21.527876326454">
        <ele>0</ele>
        <time>2017-06-17T10:42:38Z</time>
      </trkpt>
      <trkpt lat="60.110294025647" lon="21.527847744175">
        <ele>0</ele>
        <time>2017-06-17T10:42:39Z</time>
      </trkpt>
      <trkpt lat="60.110291930172" lon="21.527827124701">
        <ele>0</ele>
        <time>2017-06-17T10:42:40Z</time>
      </trkpt>
      <trkpt lat="60.110288828869" lon="21.527805583218">
        <ele>0</ele>
        <time>2017-06-17T10:42:41Z</time>
      </trkpt>
      <trkpt lat="60.110288325955" lon="21.52778865178">
        <ele>0</ele>
        <time>2017-06-17T10:42:42Z</time>
      </trkpt>
      <trkpt lat="60.110285643747" lon="21.527761913519">
        <ele>0</ele>
        <time>2017-06-17T10:42:43Z</time>
      </trkpt>
      <trkpt lat="60.110284637919" lon="21.527741461683">
        <ele>0</ele>
        <time>2017-06-17T10:42:44Z</time>
      </trkpt>
      <trkpt lat="60.110281788073" lon="21.527713969051">
        <ele>0</ele>
        <time>2017-06-17T10:42:45Z</time>
      </trkpt>
      <trkpt lat="60.110280698426" lon="21.527694355405">
        <ele>0</ele>
        <time>2017-06-17T10:42:46Z</time>
      </trkpt>
      <trkpt lat="60.110281368978" lon="21.527671137542">
        <ele>0</ele>
        <time>2017-06-17T10:42:47Z</time>
      </trkpt>
      <trkpt lat="60.110282710082" lon="21.527645488928">
        <ele>0</ele>
        <time>2017-06-17T10:42:48Z</time>
      </trkpt>
      <trkpt lat="60.110284135005" lon="21.527621600513">
        <ele>0</ele>
        <time>2017-06-17T10:42:49Z</time>
      </trkpt>
      <trkpt lat="60.110285140833" lon="21.52759838265">
        <ele>0</ele>
        <time>2017-06-17T10:42:50Z</time>
      </trkpt>
      <trkpt lat="60.110285727566" lon="21.527577763176">
        <ele>0</ele>
        <time>2017-06-17T10:42:51Z</time>
      </trkpt>
      <trkpt lat="60.110286062842" lon="21.527561418471">
        <ele>0</ele>
        <time>2017-06-17T10:42:52Z</time>
      </trkpt>
      <trkpt lat="60.110286817213" lon="21.527539876988">
        <ele>0</ele>
        <time>2017-06-17T10:42:53Z</time>
      </trkpt>
      <trkpt lat="60.110289750878" lon="21.527522274998">
        <ele>0</ele>
        <time>2017-06-17T10:42:54Z</time>
      </trkpt>
      <trkpt lat="60.110294109466" lon="21.527503918637">
        <ele>0</ele>
        <time>2017-06-17T10:42:55Z</time>
      </trkpt>
      <trkpt lat="60.11029545057" lon="21.527482125697">
        <ele>0</ele>
        <time>2017-06-17T10:42:56Z</time>
      </trkpt>
      <trkpt lat="60.110298300416" lon="21.527467289734">
        <ele>0</ele>
        <time>2017-06-17T10:42:57Z</time>
      </trkpt>
      <trkpt lat="60.110302072271" lon="21.527447256993">
        <ele>0</ele>
        <time>2017-06-17T10:42:58Z</time>
      </trkpt>
      <trkpt lat="60.110304838298" lon="21.527428481537">
        <ele>0</ele>
        <time>2017-06-17T10:42:59Z</time>
      </trkpt>
      <trkpt lat="60.110306095583" lon="21.527407359149">
        <ele>0</ele>
        <time>2017-06-17T10:43:00Z</time>
      </trkpt>
      <trkpt lat="60.110307604325" lon="21.527390930625">
        <ele>0</ele>
        <time>2017-06-17T10:43:01Z</time>
      </trkpt>
      <trkpt lat="60.110311040904" lon="21.52737458592">
        <ele>0</ele>
        <time>2017-06-17T10:43:02Z</time>
      </trkpt>
      <trkpt lat="60.110313220198" lon="21.527349104944">
        <ele>0</ele>
        <time>2017-06-17T10:43:03Z</time>
      </trkpt>
      <trkpt lat="60.110316824415" lon="21.527332844058">
        <ele>0</ele>
        <time>2017-06-17T10:43:04Z</time>
      </trkpt>
      <trkpt lat="60.110319338985" lon="21.527307027806">
        <ele>0</ele>
        <time>2017-06-17T10:43:05Z</time>
      </trkpt>
      <trkpt lat="60.110322775564" lon="21.527290347825">
        <ele>0</ele>
        <time>2017-06-17T10:43:06Z</time>
      </trkpt>
      <trkpt lat="60.110325541591" lon="21.527265202125">
        <ele>0</ele>
        <time>2017-06-17T10:43:07Z</time>
      </trkpt>
      <trkpt lat="60.110329564903" lon="21.527246175212">
        <ele>0</ele>
        <time>2017-06-17T10:43:08Z</time>
      </trkpt>
      <trkpt lat="60.110332582387" lon="21.527219185494">
        <ele>0</ele>
        <time>2017-06-17T10:43:09Z</time>
      </trkpt>
      <trkpt lat="60.110336018966" lon="21.527202254056">
        <ele>0</ele>
        <time>2017-06-17T10:43:10Z</time>
      </trkpt>
      <trkpt lat="60.110339204088" lon="21.527174342329">
        <ele>0</ele>
        <time>2017-06-17T10:43:11Z</time>
      </trkpt>
      <trkpt lat="60.11034238921" lon="21.52715665652">
        <ele>0</ele>
        <time>2017-06-17T10:43:12Z</time>
      </trkpt>
      <trkpt lat="60.110345658151" lon="21.527127403689">
        <ele>0</ele>
        <time>2017-06-17T10:43:13Z</time>
      </trkpt>
      <trkpt lat="60.110348759454" lon="21.527107873862">
        <ele>0</ele>
        <time>2017-06-17T10:43:14Z</time>
      </trkpt>
      <trkpt lat="60.110351944576" lon="21.52707786666">
        <ele>0</ele>
        <time>2017-06-17T10:43:15Z</time>
      </trkpt>
      <trkpt lat="60.110354626784" lon="21.527059510299">
        <ele>0</ele>
        <time>2017-06-17T10:43:16Z</time>
      </trkpt>
      <trkpt lat="60.110357308992" lon="21.52703092802">
        <ele>0</ele>
        <time>2017-06-17T10:43:17Z</time>
      </trkpt>
      <trkpt lat="60.110360242657" lon="21.527008715985">
        <ele>0</ele>
        <time>2017-06-17T10:43:18Z</time>
      </trkpt>
      <trkpt lat="60.11036334396" lon="21.526978708783">
        <ele>0</ele>
        <time>2017-06-17T10:43:19Z</time>
      </trkpt>
      <trkpt lat="60.110366026168" lon="21.526957586395">
        <ele>0</ele>
        <time>2017-06-17T10:43:20Z</time>
      </trkpt>
      <trkpt lat="60.110368959833" lon="21.52692866884">
        <ele>0</ele>
        <time>2017-06-17T10:43:21Z</time>
      </trkpt>
      <trkpt lat="60.110371306765" lon="21.526909977203">
        <ele>0</ele>
        <time>2017-06-17T10:43:22Z</time>
      </trkpt>
      <trkpt lat="60.11037507862" lon="21.526879718544">
        <ele>0</ele>
        <time>2017-06-17T10:43:23Z</time>
      </trkpt>
      <trkpt lat="60.110379772484" lon="21.526858093242">
        <ele>0</ele>
        <time>2017-06-17T10:43:24Z</time>
      </trkpt>
      <trkpt lat="60.110386058909" lon="21.526834204827">
        <ele>0</ele>
        <time>2017-06-17T10:43:25Z</time>
      </trkpt>
      <trkpt lat="60.110387232375" lon="21.526809562041">
        <ele>0</ele>
        <time>2017-06-17T10:43:26Z</time>
      </trkpt>
      <trkpt lat="60.110392764429" lon="21.526788272015">
        <ele>0</ele>
        <time>2017-06-17T10:43:27Z</time>
      </trkpt>
      <trkpt lat="60.110393854076" lon="21.526764635057">
        <ele>0</ele>
        <time>2017-06-17T10:43:28Z</time>
      </trkpt>
      <trkpt lat="60.110398464121" lon="21.526739154081">
        <ele>0</ele>
        <time>2017-06-17T10:43:29Z</time>
      </trkpt>
      <trkpt lat="60.110398212664" lon="21.526714678933">
        <ele>0</ele>
        <time>2017-06-17T10:43:30Z</time>
      </trkpt>
      <trkpt lat="60.110401481605" lon="21.526690119966">
        <ele>0</ele>
        <time>2017-06-17T10:43:31Z</time>
      </trkpt>
      <trkpt lat="60.110400978691" lon="21.526667069741">
        <ele>0</ele>
        <time>2017-06-17T10:43:32Z</time>
      </trkpt>
      <trkpt lat="60.110398128845" lon="21.526643265145">
        <ele>0</ele>
        <time>2017-06-17T10:43:33Z</time>
      </trkpt>
      <trkpt lat="60.110395278999" lon="21.526624657327">
        <ele>0</ele>
        <time>2017-06-17T10:43:34Z</time>
      </trkpt>
      <trkpt lat="60.110393183524" lon="21.526600768912">
        <ele>0</ele>
        <time>2017-06-17T10:43:35Z</time>
      </trkpt>
      <trkpt lat="60.11038932785" lon="21.526577718687">
        <ele>0</ele>
        <time>2017-06-17T10:43:36Z</time>
      </trkpt>
      <trkpt lat="60.110386142728" lon="21.526555339014">
        <ele>0</ele>
        <time>2017-06-17T10:43:37Z</time>
      </trkpt>
      <trkpt lat="60.110382287054" lon="21.526532456427">
        <ele>0</ele>
        <time>2017-06-17T10:43:38Z</time>
      </trkpt>
      <trkpt lat="60.110377844647" lon="21.526506891632">
        <ele>0</ele>
        <time>2017-06-17T10:43:39Z</time>
      </trkpt>
      <trkpt lat="60.110374827163" lon="21.526488032357">
        <ele>0</ele>
        <time>2017-06-17T10:43:40Z</time>
      </trkpt>
      <trkpt lat="60.110370133299" lon="21.526459030983">
        <ele>0</ele>
        <time>2017-06-17T10:43:41Z</time>
      </trkpt>
      <trkpt lat="60.110367115815" lon="21.526440423165">
        <ele>0</ele>
        <time>2017-06-17T10:43:42Z</time>
      </trkpt>
      <trkpt lat="60.110361835218" lon="21.526409996868">
        <ele>0</ele>
        <time>2017-06-17T10:43:43Z</time>
      </trkpt>
      <trkpt lat="60.110358482458" lon="21.526387114281">
        <ele>0</ele>
        <time>2017-06-17T10:43:44Z</time>
      </trkpt>
      <trkpt lat="60.110354291508" lon="21.52635702326">
        <ele>0</ele>
        <time>2017-06-17T10:43:45Z</time>
      </trkpt>
      <trkpt lat="60.110351860757" lon="21.526335817053">
        <ele>0</ele>
        <time>2017-06-17T10:43:46Z</time>
      </trkpt>
      <trkpt lat="60.110348675635" lon="21.526306061308">
        <ele>0</ele>
        <time>2017-06-17T10:43:47Z</time>
      </trkpt>
      <trkpt lat="60.11034741835" lon="21.526282089074">
        <ele>0</ele>
        <time>2017-06-17T10:43:48Z</time>
      </trkpt>
      <trkpt lat="60.110346999255" lon="21.526254847899">
        <ele>0</ele>
        <time>2017-06-17T10:43:49Z</time>
      </trkpt>
      <trkpt lat="60.110347585988" lon="21.526232719683">
        <ele>0</ele>
        <time>2017-06-17T10:43:50Z</time>
      </trkpt>
      <trkpt lat="60.110351860757" lon="21.526205143232">
        <ele>0</ele>
        <time>2017-06-17T10:43:51Z</time>
      </trkpt>
      <trkpt lat="60.11034993292" lon="21.526185026672">
        <ele>0</ele>
        <time>2017-06-17T10:43:52Z</time>
      </trkpt>
      <trkpt lat="60.110352698947" lon="21.526155606203">
        <ele>0</ele>
        <time>2017-06-17T10:43:53Z</time>
      </trkpt>
      <trkpt lat="60.110352028395" lon="21.526133394168">
        <ele>0</ele>
        <time>2017-06-17T10:43:54Z</time>
      </trkpt>
      <trkpt lat="60.110356554621" lon="21.526108416106">
        <ele>0</ele>
        <time>2017-06-17T10:43:55Z</time>
      </trkpt>
      <trkpt lat="60.110354878241" lon="21.52608712608">
        <ele>0</ele>
        <time>2017-06-17T10:43:56Z</time>
      </trkpt>
      <trkpt lat="60.110359572105" lon="21.526065500778">
        <ele>0</ele>
        <time>2017-06-17T10:43:57Z</time>
      </trkpt>
      <trkpt lat="60.110360494114" lon="21.526043624019">
        <ele>0</ele>
        <time>2017-06-17T10:43:58Z</time>
      </trkpt>
      <trkpt lat="60.110367031996" lon="21.526019400328">
        <ele>0</ele>
        <time>2017-06-17T10:43:59Z</time>
      </trkpt>
      <trkpt lat="60.110367786367" lon="21.525995595732">
        <ele>0</ele>
        <time>2017-06-17T10:44:00Z</time>
      </trkpt>
      <trkpt lat="60.110374827163" lon="21.525974640982">
        <ele>0</ele>
        <time>2017-06-17T10:44:01Z</time>
      </trkpt>
      <trkpt lat="60.11037759319" lon="21.5259513393">
        <ele>0</ele>
        <time>2017-06-17T10:44:02Z</time>
      </trkpt>
      <trkpt lat="60.110384885443" lon="21.525930133093">
        <ele>0</ele>
        <time>2017-06-17T10:44:03Z</time>
      </trkpt>
      <trkpt lat="60.110388405841" lon="21.525906412316">
        <ele>0</ele>
        <time>2017-06-17T10:44:04Z</time>
      </trkpt>
      <trkpt lat="60.110395027542" lon="21.52588679867">
        <ele>0</ele>
        <time>2017-06-17T10:44:05Z</time>
      </trkpt>
      <trkpt lat="60.110400727234" lon="21.525860898599">
        <ele>0</ele>
        <time>2017-06-17T10:44:06Z</time>
      </trkpt>
      <trkpt lat="60.110408187125" lon="21.52584321279">
        <ele>0</ele>
        <time>2017-06-17T10:44:07Z</time>
      </trkpt>
      <trkpt lat="60.11041447355" lon="21.525818318547">
        <ele>0</ele>
        <time>2017-06-17T10:44:08Z</time>
      </trkpt>
      <trkpt lat="60.110423777459" lon="21.525801135652">
        <ele>0</ele>
        <time>2017-06-17T10:44:09Z</time>
      </trkpt>
      <trkpt lat="60.11042788459" lon="21.525780935273">
        <ele>0</ele>
        <time>2017-06-17T10:44:10Z</time>
      </trkpt>
      <trkpt lat="60.110437188499" lon="21.525757968867">
        <ele>0</ele>
        <time>2017-06-17T10:44:11Z</time>
      </trkpt>
      <trkpt lat="60.110444061657" lon="21.525740534515">
        <ele>0</ele>
        <time>2017-06-17T10:44:12Z</time>
      </trkpt>
      <trkpt lat="60.110450264263" lon="21.52572335162">
        <ele>0</ele>
        <time>2017-06-17T10:44:13Z</time>
      </trkpt>
      <trkpt lat="60.110461076914" lon="21.525701139585">
        <ele>0</ele>
        <time>2017-06-17T10:44:14Z</time>
      </trkpt>
      <trkpt lat="60.110471973384" lon="21.525677586446">
        <ele>0</ele>
        <time>2017-06-17T10:44:15Z</time>
      </trkpt>
      <trkpt lat="60.110477673076" lon="21.525656212601">
        <ele>0</ele>
        <time>2017-06-17T10:44:16Z</time>
      </trkpt>
      <trkpt lat="60.110487898994" lon="21.525636347498">
        <ele>0</ele>
        <time>2017-06-17T10:44:17Z</time>
      </trkpt>
      <trkpt lat="60.110494688333" lon="21.525612291445">
        <ele>0</ele>
        <time>2017-06-17T10:44:18Z</time>
      </trkpt>
      <trkpt lat="60.110503740785" lon="21.525591169057">
        <ele>0</ele>
        <time>2017-06-17T10:44:19Z</time>
      </trkpt>
      <trkpt lat="60.110507596459" lon="21.525568621746">
        <ele>0</ele>
        <time>2017-06-17T10:44:20Z</time>
      </trkpt>
      <trkpt lat="60.110514721074" lon="21.525545822978">
        <ele>0</ele>
        <time>2017-06-17T10:44:21Z</time>
      </trkpt>
      <trkpt lat="60.110517403282" lon="21.525524952047">
        <ele>0</ele>
        <time>2017-06-17T10:44:22Z</time>
      </trkpt>
      <trkpt lat="60.110523102974" lon="21.525499135795">
        <ele>0</ele>
        <time>2017-06-17T10:44:23Z</time>
      </trkpt>
      <trkpt lat="60.110524611716" lon="21.525473822457">
        <ele>0</ele>
        <time>2017-06-17T10:44:24Z</time>
      </trkpt>
      <trkpt lat="60.110527126286" lon="21.525452532431">
        <ele>0</ele>
        <time>2017-06-17T10:44:25Z</time>
      </trkpt>
      <trkpt lat="60.110527713019" lon="21.525425375075">
        <ele>0</ele>
        <time>2017-06-17T10:44:26Z</time>
      </trkpt>
      <trkpt lat="60.110527126286" lon="21.525407270171">
        <ele>0</ele>
        <time>2017-06-17T10:44:27Z</time>
      </trkpt>
      <trkpt lat="60.110526623372" lon="21.525380448091">
        <ele>0</ele>
        <time>2017-06-17T10:44:28Z</time>
      </trkpt>
      <trkpt lat="60.110523186793" lon="21.52535957716">
        <ele>0</ele>
        <time>2017-06-17T10:44:29Z</time>
      </trkpt>
      <trkpt lat="60.110518912024" lon="21.525338370953">
        <ele>0</ele>
        <time>2017-06-17T10:44:30Z</time>
      </trkpt>
      <trkpt lat="60.110514553436" lon="21.52532018223">
        <ele>0</ele>
        <time>2017-06-17T10:44:31Z</time>
      </trkpt>
      <trkpt lat="60.11051170359" lon="21.525303334611">
        <ele>0</ele>
        <time>2017-06-17T10:44:32Z</time>
      </trkpt>
      <trkpt lat="60.110505584803" lon="21.525278356549">
        <ele>0</ele>
        <time>2017-06-17T10:44:33Z</time>
      </trkpt>
      <trkpt lat="60.110501729129" lon="21.525261928025">
        <ele>0</ele>
        <time>2017-06-17T10:44:34Z</time>
      </trkpt>
      <trkpt lat="60.110495442704" lon="21.525239129257">
        <ele>0</ele>
        <time>2017-06-17T10:44:35Z</time>
      </trkpt>
      <trkpt lat="60.11049074884" lon="21.52521708486">
        <ele>0</ele>
        <time>2017-06-17T10:44:36Z</time>
      </trkpt>
      <trkpt lat="60.110488150451" lon="21.525198979956">
        <ele>0</ele>
        <time>2017-06-17T10:44:37Z</time>
      </trkpt>
      <trkpt lat="60.110486306433" lon="21.525171319686">
        <ele>0</ele>
        <time>2017-06-17T10:44:38Z</time>
      </trkpt>
      <trkpt lat="60.110480942017" lon="21.525153885334">
        <ele>0</ele>
        <time>2017-06-17T10:44:39Z</time>
      </trkpt>
      <trkpt lat="60.110479265637" lon="21.525129661643">
        <ele>0</ele>
        <time>2017-06-17T10:44:40Z</time>
      </trkpt>
      <trkpt lat="60.110473398307" lon="21.525108203979">
        <ele>0</ele>
        <time>2017-06-17T10:44:41Z</time>
      </trkpt>
      <trkpt lat="60.110471638108" lon="21.525082555365">
        <ele>0</ele>
        <time>2017-06-17T10:44:42Z</time>
      </trkpt>
      <trkpt lat="60.110465351683" lon="21.525062941719">
        <ele>0</ele>
        <time>2017-06-17T10:44:43Z</time>
      </trkpt>
      <trkpt lat="60.110462082742" lon="21.525037376924">
        <ele>0</ele>
        <time>2017-06-17T10:44:44Z</time>
      </trkpt>
      <trkpt lat="60.110454874308" lon="21.525020026391">
        <ele>0</ele>
        <time>2017-06-17T10:44:45Z</time>
      </trkpt>
      <trkpt lat="60.110447582055" lon="21.525002675858">
        <ele>0</ele>
        <time>2017-06-17T10:44:46Z</time>
      </trkpt>
      <trkpt lat="60.110440876535" lon="21.524988678085">
        <ele>0</ele>
        <time>2017-06-17T10:44:47Z</time>
      </trkpt>
      <trkpt lat="60.110432159359" lon="21.524972249561">
        <ele>0</ele>
        <time>2017-06-17T10:44:48Z</time>
      </trkpt>
      <trkpt lat="60.110424364192" lon="21.524957665055">
        <ele>0</ele>
        <time>2017-06-17T10:44:49Z</time>
      </trkpt>
      <trkpt lat="60.110415898473" lon="21.524941907083">
        <ele>0</ele>
        <time>2017-06-17T10:44:50Z</time>
      </trkpt>
      <trkpt lat="60.110406678383" lon="21.524926652025">
        <ele>0</ele>
        <time>2017-06-17T10:44:51Z</time>
      </trkpt>
      <trkpt lat="60.110397961207" lon="21.52491282189">
        <ele>0</ele>
        <time>2017-06-17T10:44:52Z</time>
      </trkpt>
      <trkpt lat="60.110387567651" lon="21.524896812461">
        <ele>0</ele>
        <time>2017-06-17T10:44:53Z</time>
      </trkpt>
      <trkpt lat="60.110376503543" lon="21.524879629566">
        <ele>0</ele>
        <time>2017-06-17T10:44:54Z</time>
      </trkpt>
      <trkpt lat="60.110367870186" lon="21.524865631793">
        <ele>0</ele>
        <time>2017-06-17T10:44:55Z</time>
      </trkpt>
      <trkpt lat="60.110357392811" lon="21.524847359251">
        <ele>0</ele>
        <time>2017-06-17T10:44:56Z</time>
      </trkpt>
      <trkpt lat="60.11034993292" lon="21.524832271831">
        <ele>0</ele>
        <time>2017-06-17T10:44:57Z</time>
      </trkpt>
      <trkpt lat="60.110342892124" lon="21.524810730348">
        <ele>0</ele>
        <time>2017-06-17T10:44:58Z</time>
      </trkpt>
      <trkpt lat="60.110335264595" lon="21.524789188865">
        <ele>0</ele>
        <time>2017-06-17T10:44:59Z</time>
      </trkpt>
      <trkpt lat="60.110326547419" lon="21.52476865321">
        <ele>0</ele>
        <time>2017-06-17T10:45:00Z</time>
      </trkpt>
      <trkpt lat="60.110321350641" lon="21.524749123383">
        <ele>0</ele>
        <time>2017-06-17T10:45:01Z</time>
      </trkpt>
      <trkpt lat="60.110314980397" lon="21.524729425918">
        <ele>0</ele>
        <time>2017-06-17T10:45:02Z</time>
      </trkpt>
      <trkpt lat="60.110305760307" lon="21.524708806444">
        <ele>0</ele>
        <time>2017-06-17T10:45:03Z</time>
      </trkpt>
      <trkpt lat="60.110296875493" lon="21.524690952997">
        <ele>0</ele>
        <time>2017-06-17T10:45:04Z</time>
      </trkpt>
      <trkpt lat="60.110292265448" lon="21.52467309955">
        <ele>0</ele>
        <time>2017-06-17T10:45:05Z</time>
      </trkpt>
      <trkpt lat="60.110285643747" lon="21.524656168112">
        <ele>0</ele>
        <time>2017-06-17T10:45:06Z</time>
      </trkpt>
      <trkpt lat="60.110277429485" lon="21.524637141199">
        <ele>0</ele>
        <time>2017-06-17T10:45:07Z</time>
      </trkpt>
      <trkpt lat="60.110269969594" lon="21.524619706847">
        <ele>0</ele>
        <time>2017-06-17T10:45:08Z</time>
      </trkpt>
      <trkpt lat="60.110260665685" lon="21.524599003554">
        <ele>0</ele>
        <time>2017-06-17T10:45:09Z</time>
      </trkpt>
      <trkpt lat="60.110253960165" lon="21.524584335229">
        <ele>0</ele>
        <time>2017-06-17T10:45:10Z</time>
      </trkpt>
      <trkpt lat="60.110243398971" lon="21.52456329666">
        <ele>0</ele>
        <time>2017-06-17T10:45:11Z</time>
      </trkpt>
      <trkpt lat="60.110236944908" lon="21.524548795973">
        <ele>0</ele>
        <time>2017-06-17T10:45:12Z</time>
      </trkpt>
      <trkpt lat="60.110226635171" lon="21.524527003033">
        <ele>0</ele>
        <time>2017-06-17T10:45:13Z</time>
      </trkpt>
      <trkpt lat="60.110218840004" lon="21.524510825966">
        <ele>0</ele>
        <time>2017-06-17T10:45:14Z</time>
      </trkpt>
      <trkpt lat="60.110209033181" lon="21.524489703578">
        <ele>0</ele>
        <time>2017-06-17T10:45:15Z</time>
      </trkpt>
      <trkpt lat="60.110202746756" lon="21.52447444852">
        <ele>0</ele>
        <time>2017-06-17T10:45:16Z</time>
      </trkpt>
      <trkpt lat="60.110193442847" lon="21.524452404123">
        <ele>0</ele>
        <time>2017-06-17T10:45:17Z</time>
      </trkpt>
      <trkpt lat="60.110186737327" lon="21.524434131581">
        <ele>0</ele>
        <time>2017-06-17T10:45:18Z</time>
      </trkpt>
      <trkpt lat="60.110176930504" lon="21.524409404976">
        <ele>0</ele>
        <time>2017-06-17T10:45:19Z</time>
      </trkpt>
      <trkpt lat="60.110171314631" lon="21.524393227909">
        <ele>0</ele>
        <time>2017-06-17T10:45:20Z</time>
      </trkpt>
      <trkpt lat="60.110162094541" lon="21.524368920399">
        <ele>0</ele>
        <time>2017-06-17T10:45:21Z</time>
      </trkpt>
      <trkpt lat="60.11015714922" lon="21.524353246246">
        <ele>0</ele>
        <time>2017-06-17T10:45:22Z</time>
      </trkpt>
      <trkpt lat="60.110147426216" lon="21.52432608889">
        <ele>0</ele>
        <time>2017-06-17T10:45:23Z</time>
      </trkpt>
      <trkpt lat="60.110141977981" lon="21.524307983986">
        <ele>0</ele>
        <time>2017-06-17T10:45:24Z</time>
      </trkpt>
      <trkpt lat="60.1101336799" lon="21.524281916277">
        <ele>0</ele>
        <time>2017-06-17T10:45:25Z</time>
      </trkpt>
      <trkpt lat="60.110128986036" lon="21.524262470269">
        <ele>0</ele>
        <time>2017-06-17T10:45:26Z</time>
      </trkpt>
      <trkpt lat="60.110122112878" lon="21.524238833311">
        <ele>0</ele>
        <time>2017-06-17T10:45:27Z</time>
      </trkpt>
      <trkpt lat="60.110117335195" lon="21.524217208009">
        <ele>0</ele>
        <time>2017-06-17T10:45:28Z</time>
      </trkpt>
      <trkpt lat="60.110109623847" lon="21.524188038997">
        <ele>0</ele>
        <time>2017-06-17T10:45:29Z</time>
      </trkpt>
      <trkpt lat="60.110105432897" lon="21.524166413695">
        <ele>0</ele>
        <time>2017-06-17T10:45:30Z</time>
      </trkpt>
      <trkpt lat="60.110098978834" lon="21.524138585787">
        <ele>0</ele>
        <time>2017-06-17T10:45:31Z</time>
      </trkpt>
      <trkpt lat="60.110095626074" lon="21.52411737958">
        <ele>0</ele>
        <time>2017-06-17T10:45:32Z</time>
      </trkpt>
      <trkpt lat="60.110090177839" lon="21.524085109265">
        <ele>0</ele>
        <time>2017-06-17T10:45:33Z</time>
      </trkpt>
      <trkpt lat="60.110087830907" lon="21.52406457361">
        <ele>0</ele>
        <time>2017-06-17T10:45:34Z</time>
      </trkpt>
      <trkpt lat="60.110085148699" lon="21.524034650227">
        <ele>0</ele>
        <time>2017-06-17T10:45:35Z</time>
      </trkpt>
      <trkpt lat="60.110084059052" lon="21.524010007441">
        <ele>0</ele>
        <time>2017-06-17T10:45:36Z</time>
      </trkpt>
      <trkpt lat="60.110082717948" lon="21.523983436818">
        <ele>0</ele>
        <time>2017-06-17T10:45:37Z</time>
      </trkpt>
      <trkpt lat="60.110083975233" lon="21.52395812348">
        <ele>0</ele>
        <time>2017-06-17T10:45:38Z</time>
      </trkpt>
      <trkpt lat="60.110086238346" lon="21.523936246721">
        <ele>0</ele>
        <time>2017-06-17T10:45:39Z</time>
      </trkpt>
      <trkpt lat="60.110090513115" lon="21.523909843736">
        <ele>0</ele>
        <time>2017-06-17T10:45:40Z</time>
      </trkpt>
      <trkpt lat="60.110093698237" lon="21.523884446579">
        <ele>0</ele>
        <time>2017-06-17T10:45:41Z</time>
      </trkpt>
      <trkpt lat="60.110096380445" lon="21.523857708318">
        <ele>0</ele>
        <time>2017-06-17T10:45:42Z</time>
      </trkpt>
      <trkpt lat="60.110101074309" lon="21.523833987541">
        <ele>0</ele>
        <time>2017-06-17T10:45:43Z</time>
      </trkpt>
      <trkpt lat="60.110103672698" lon="21.523806327271">
        <ele>0</ele>
        <time>2017-06-17T10:45:44Z</time>
      </trkpt>
      <trkpt lat="60.110109037114" lon="21.523784953426">
        <ele>0</ele>
        <time>2017-06-17T10:45:45Z</time>
      </trkpt>
      <trkpt lat="60.110109288571" lon="21.523762070839">
        <ele>0</ele>
        <time>2017-06-17T10:45:46Z</time>
      </trkpt>
      <trkpt lat="60.110114736806" lon="21.523735751673">
        <ele>0</ele>
        <time>2017-06-17T10:45:47Z</time>
      </trkpt>
      <trkpt lat="60.110115407358" lon="21.523711276525">
        <ele>0</ele>
        <time>2017-06-17T10:45:48Z</time>
      </trkpt>
      <trkpt lat="60.110119598308" lon="21.523681939875">
        <ele>0</ele>
        <time>2017-06-17T10:45:49Z</time>
      </trkpt>
      <trkpt lat="60.110119263032" lon="21.523660901306">
        <ele>0</ele>
        <time>2017-06-17T10:45:50Z</time>
      </trkpt>
      <trkpt lat="60.110119765946" lon="21.523630307371">
        <ele>0</ele>
        <time>2017-06-17T10:45:51Z</time>
      </trkpt>
      <trkpt lat="60.110119095394" lon="21.523611615734">
        <ele>0</ele>
        <time>2017-06-17T10:45:52Z</time>
      </trkpt>
      <trkpt lat="60.110116497005" lon="21.52358177617">
        <ele>0</ele>
        <time>2017-06-17T10:45:53Z</time>
      </trkpt>
      <trkpt lat="60.110113647159" lon="21.523561408153">
        <ele>0</ele>
        <time>2017-06-17T10:45:54Z</time>
      </trkpt>
      <trkpt lat="60.110109037114" lon="21.523540034308">
        <ele>0</ele>
        <time>2017-06-17T10:45:55Z</time>
      </trkpt>
      <trkpt lat="60.110106187268" lon="21.52352477925">
        <ele>0</ele>
        <time>2017-06-17T10:45:56Z</time>
      </trkpt>
      <trkpt lat="60.110101158128" lon="21.523505081785">
        <ele>0</ele>
        <time>2017-06-17T10:45:57Z</time>
      </trkpt>
      <trkpt lat="60.110096380445" lon="21.523486641605">
        <ele>0</ele>
        <time>2017-06-17T10:45:58Z</time>
      </trkpt>
      <trkpt lat="60.110090261658" lon="21.52346442957">
        <ele>0</ele>
        <time>2017-06-17T10:45:59Z</time>
      </trkpt>
      <trkpt lat="60.110085148699" lon="21.523445486476">
        <ele>0</ele>
        <time>2017-06-17T10:46:00Z</time>
      </trkpt>
      <trkpt lat="60.110078946093" lon="21.523423442079">
        <ele>0</ele>
        <time>2017-06-17T10:46:01Z</time>
      </trkpt>
      <trkpt lat="60.110072575849" lon="21.523404582804">
        <ele>0</ele>
        <time>2017-06-17T10:46:02Z</time>
      </trkpt>
      <trkpt lat="60.110065618872" lon="21.523381700217">
        <ele>0</ele>
        <time>2017-06-17T10:46:03Z</time>
      </trkpt>
      <trkpt lat="60.110057907524" lon="21.523361080743">
        <ele>0</ele>
        <time>2017-06-17T10:46:04Z</time>
      </trkpt>
      <trkpt lat="60.110051369642" lon="21.523340293631">
        <ele>0</ele>
        <time>2017-06-17T10:46:05Z</time>
      </trkpt>
      <trkpt lat="60.110042903923" lon="21.523317494863">
        <ele>0</ele>
        <time>2017-06-17T10:46:06Z</time>
      </trkpt>
      <trkpt lat="60.110037371869" lon="21.523297881217">
        <ele>0</ele>
        <time>2017-06-17T10:46:07Z</time>
      </trkpt>
      <trkpt lat="60.110027481227" lon="21.523271478232">
        <ele>0</ele>
        <time>2017-06-17T10:46:08Z</time>
      </trkpt>
      <trkpt lat="60.110021530078" lon="21.523252283681">
        <ele>0</ele>
        <time>2017-06-17T10:46:09Z</time>
      </trkpt>
      <trkpt lat="60.110012812902" lon="21.523227724714">
        <ele>0</ele>
        <time>2017-06-17T10:46:10Z</time>
      </trkpt>
      <trkpt lat="60.110005939744" lon="21.523206434688">
        <ele>0</ele>
        <time>2017-06-17T10:46:11Z</time>
      </trkpt>
      <trkpt lat="60.109997976939" lon="21.523181205169">
        <ele>0</ele>
        <time>2017-06-17T10:46:12Z</time>
      </trkpt>
      <trkpt lat="60.109991858152" lon="21.523158909315">
        <ele>0</ele>
        <time>2017-06-17T10:46:13Z</time>
      </trkpt>
      <trkpt lat="60.109984398261" lon="21.523131584321">
        <ele>0</ele>
        <time>2017-06-17T10:46:14Z</time>
      </trkpt>
      <trkpt lat="60.109979201483" lon="21.523111635399">
        <ele>0</ele>
        <time>2017-06-17T10:46:15Z</time>
      </trkpt>
      <trkpt lat="60.109972076868" lon="21.523085064776">
        <ele>0</ele>
        <time>2017-06-17T10:46:16Z</time>
      </trkpt>
      <trkpt lat="60.109965958081" lon="21.523062601284">
        <ele>0</ele>
        <time>2017-06-17T10:46:17Z</time>
      </trkpt>
      <trkpt lat="60.109959001104" lon="21.523034186643">
        <ele>0</ele>
        <time>2017-06-17T10:46:18Z</time>
      </trkpt>
      <trkpt lat="60.109953049955" lon="21.523011136418">
        <ele>0</ele>
        <time>2017-06-17T10:46:19Z</time>
      </trkpt>
      <trkpt lat="60.109948020815" lon="21.522986325994">
        <ele>0</ele>
        <time>2017-06-17T10:46:20Z</time>
      </trkpt>
      <trkpt lat="60.109942153485" lon="21.522960928837">
        <ele>0</ele>
        <time>2017-06-17T10:46:21Z</time>
      </trkpt>
      <trkpt lat="60.109938297811" lon="21.522939638811">
        <ele>0</ele>
        <time>2017-06-17T10:46:22Z</time>
      </trkpt>
      <trkpt lat="60.109932849576" lon="21.522910553618">
        <ele>0</ele>
        <time>2017-06-17T10:46:23Z</time>
      </trkpt>
      <trkpt lat="60.109929832092" lon="21.52288691666">
        <ele>0</ele>
        <time>2017-06-17T10:46:24Z</time>
      </trkpt>
      <trkpt lat="60.109926563151" lon="21.5228584182">
        <ele>0</ele>
        <time>2017-06-17T10:46:25Z</time>
      </trkpt>
      <trkpt lat="60.109925138228" lon="21.522836373803">
        <ele>0</ele>
        <time>2017-06-17T10:46:26Z</time>
      </trkpt>
      <trkpt lat="60.109923461848" lon="21.522806869515">
        <ele>0</ele>
        <time>2017-06-17T10:46:27Z</time>
      </trkpt>
      <trkpt lat="60.109922875115" lon="21.522783651652">
        <ele>0</ele>
        <time>2017-06-17T10:46:28Z</time>
      </trkpt>
      <trkpt lat="60.1099241324" lon="21.522753812088">
        <ele>0</ele>
        <time>2017-06-17T10:46:29Z</time>
      </trkpt>
      <trkpt lat="60.109926730789" lon="21.522730258949">
        <ele>0</ele>
        <time>2017-06-17T10:46:30Z</time>
      </trkpt>
      <trkpt lat="60.109928155712" lon="21.522701341394">
        <ele>0</ele>
        <time>2017-06-17T10:46:31Z</time>
      </trkpt>
      <trkpt lat="60.109930754101" lon="21.522680135187">
        <ele>0</ele>
        <time>2017-06-17T10:46:32Z</time>
      </trkpt>
      <trkpt lat="60.109931173196" lon="21.522653229288">
        <ele>0</ele>
        <time>2017-06-17T10:46:33Z</time>
      </trkpt>
      <trkpt lat="60.109935531784" lon="21.522629759968">
        <ele>0</ele>
        <time>2017-06-17T10:46:34Z</time>
      </trkpt>
      <trkpt lat="60.10993502887" lon="21.522604278992">
        <ele>0</ele>
        <time>2017-06-17T10:46:35Z</time>
      </trkpt>
      <trkpt lat="60.109938968363" lon="21.522575445256">
        <ele>0</ele>
        <time>2017-06-17T10:46:36Z</time>
      </trkpt>
      <trkpt lat="60.109936118517" lon="21.522554490506">
        <ele>0</ele>
        <time>2017-06-17T10:46:37Z</time>
      </trkpt>
      <trkpt lat="60.10993670525" lon="21.522522806924">
        <ele>0</ele>
        <time>2017-06-17T10:46:38Z</time>
      </trkpt>
      <trkpt lat="60.109934609775" lon="21.522501935993">
        <ele>0</ele>
        <time>2017-06-17T10:46:39Z</time>
      </trkpt>
      <trkpt lat="60.109932011386" lon="21.52247536537">
        <ele>0</ele>
        <time>2017-06-17T10:46:40Z</time>
      </trkpt>
      <trkpt lat="60.10992664697" lon="21.522450806403">
        <ele>0</ele>
        <time>2017-06-17T10:46:41Z</time>
      </trkpt>
      <trkpt lat="60.109921198735" lon="21.522432282404">
        <ele>0</ele>
        <time>2017-06-17T10:46:42Z</time>
      </trkpt>
      <trkpt lat="60.109916672509" lon="21.522409818912">
        <ele>0</ele>
        <time>2017-06-17T10:46:43Z</time>
      </trkpt>
      <trkpt lat="60.109909715532" lon="21.522386936325">
        <ele>0</ele>
        <time>2017-06-17T10:46:44Z</time>
      </trkpt>
      <trkpt lat="60.109904518754" lon="21.522366652127">
        <ele>0</ele>
        <time>2017-06-17T10:46:45Z</time>
      </trkpt>
      <trkpt lat="60.109897142682" lon="21.522344523911">
        <ele>0</ele>
        <time>2017-06-17T10:46:46Z</time>
      </trkpt>
      <trkpt lat="60.10989144299" lon="21.522323485342">
        <ele>0</ele>
        <time>2017-06-17T10:46:47Z</time>
      </trkpt>
      <trkpt lat="60.109883564004" lon="21.522296327986">
        <ele>0</ele>
        <time>2017-06-17T10:46:48Z</time>
      </trkpt>
      <trkpt lat="60.109878953959" lon="21.522275205598">
        <ele>0</ele>
        <time>2017-06-17T10:46:49Z</time>
      </trkpt>
      <trkpt lat="60.109872332258" lon="21.522249221708">
        <ele>0</ele>
        <time>2017-06-17T10:46:50Z</time>
      </trkpt>
      <trkpt lat="60.109867889851" lon="21.522226590578">
        <ele>0</ele>
        <time>2017-06-17T10:46:51Z</time>
      </trkpt>
      <trkpt lat="60.109862609254" lon="21.522202450706">
        <ele>0</ele>
        <time>2017-06-17T10:46:52Z</time>
      </trkpt>
      <trkpt lat="60.109858166847" lon="21.522177305006">
        <ele>0</ele>
        <time>2017-06-17T10:46:53Z</time>
      </trkpt>
      <trkpt lat="60.10985288625" lon="21.522146208157">
        <ele>0</ele>
        <time>2017-06-17T10:46:54Z</time>
      </trkpt>
      <trkpt lat="60.109849952585" lon="21.522125085769">
        <ele>0</ele>
        <time>2017-06-17T10:46:55Z</time>
      </trkpt>
      <trkpt lat="60.109846013092" lon="21.522094659472">
        <ele>0</ele>
        <time>2017-06-17T10:46:56Z</time>
      </trkpt>
      <trkpt lat="60.109843749979" lon="21.522074291455">
        <ele>0</ele>
        <time>2017-06-17T10:46:57Z</time>
      </trkpt>
      <trkpt lat="60.109842576513" lon="21.522046966461">
        <ele>0</ele>
        <time>2017-06-17T10:46:58Z</time>
      </trkpt>
      <trkpt lat="60.10984115159" lon="21.522018300363">
        <ele>0</ele>
        <time>2017-06-17T10:46:59Z</time>
      </trkpt>
      <trkpt lat="60.109841403047" lon="21.521994160491">
        <ele>0</ele>
        <time>2017-06-17T10:47:00Z</time>
      </trkpt>
      <trkpt lat="60.109842073599" lon="21.521964740022">
        <ele>0</ele>
        <time>2017-06-17T10:47:01Z</time>
      </trkpt>
      <trkpt lat="60.109843330884" lon="21.521945210195">
        <ele>0</ele>
        <time>2017-06-17T10:47:02Z</time>
      </trkpt>
      <trkpt lat="60.109847940929" lon="21.521917047011">
        <ele>0</ele>
        <time>2017-06-17T10:47:03Z</time>
      </trkpt>
      <trkpt lat="60.109850790775" lon="21.521896762813">
        <ele>0</ele>
        <time>2017-06-17T10:47:04Z</time>
      </trkpt>
      <trkpt lat="60.109856993381" lon="21.52187522133">
        <ele>0</ele>
        <time>2017-06-17T10:47:05Z</time>
      </trkpt>
      <trkpt lat="60.109865040005" lon="21.521853176933">
        <ele>0</ele>
        <time>2017-06-17T10:47:06Z</time>
      </trkpt>
      <trkpt lat="60.109868560403" lon="21.521831216355">
        <ele>0</ele>
        <time>2017-06-17T10:47:07Z</time>
      </trkpt>
      <trkpt lat="60.109877696674" lon="21.521812273261">
        <ele>0</ele>
        <time>2017-06-17T10:47:08Z</time>
      </trkpt>
      <trkpt lat="60.10988138471" lon="21.521791067054">
        <ele>0</ele>
        <time>2017-06-17T10:47:09Z</time>
      </trkpt>
      <trkpt lat="60.109891359171" lon="21.521772207779">
        <ele>0</ele>
        <time>2017-06-17T10:47:10Z</time>
      </trkpt>
      <trkpt lat="60.109896639768" lon="21.521750079563">
        <ele>0</ele>
        <time>2017-06-17T10:47:11Z</time>
      </trkpt>
      <trkpt lat="60.109905776039" lon="21.521728286623">
        <ele>0</ele>
        <time>2017-06-17T10:47:12Z</time>
      </trkpt>
      <trkpt lat="60.109910386084" lon="21.521707080416">
        <ele>0</ele>
        <time>2017-06-17T10:47:13Z</time>
      </trkpt>
      <trkpt lat="60.109918851803" lon="21.521681850897">
        <ele>0</ele>
        <time>2017-06-17T10:47:14Z</time>
      </trkpt>
      <trkpt lat="60.109921953106" lon="21.521663578355">
        <ele>0</ele>
        <time>2017-06-17T10:47:15Z</time>
      </trkpt>
      <trkpt lat="60.109928071893" lon="21.521639773759">
        <ele>0</ele>
        <time>2017-06-17T10:47:16Z</time>
      </trkpt>
      <trkpt lat="60.109931173196" lon="21.521618986647">
        <ele>0</ele>
        <time>2017-06-17T10:47:17Z</time>
      </trkpt>
      <trkpt lat="60.109937794897" lon="21.52159191311">
        <ele>0</ele>
        <time>2017-06-17T10:47:18Z</time>
      </trkpt>
      <trkpt lat="60.109937878716" lon="21.521571712731">
        <ele>0</ele>
        <time>2017-06-17T10:47:19Z</time>
      </trkpt>
      <trkpt lat="60.109941063838" lon="21.521545561203">
        <ele>0</ele>
        <time>2017-06-17T10:47:20Z</time>
      </trkpt>
      <trkpt lat="60.109940477105" lon="21.52152485791">
        <ele>0</ele>
        <time>2017-06-17T10:47:21Z</time>
      </trkpt>
      <trkpt lat="60.109942321123" lon="21.521501891504">
        <ele>0</ele>
        <time>2017-06-17T10:47:22Z</time>
      </trkpt>
      <trkpt lat="60.109941231476" lon="21.521479344193">
        <ele>0</ele>
        <time>2017-06-17T10:47:23Z</time>
      </trkpt>
      <trkpt lat="60.109943494589" lon="21.52145193538">
        <ele>0</ele>
        <time>2017-06-17T10:47:24Z</time>
      </trkpt>
      <trkpt lat="60.109941985847" lon="21.521433411381">
        <ele>0</ele>
        <time>2017-06-17T10:47:25Z</time>
      </trkpt>
      <trkpt lat="60.109943243132" lon="21.521407595129">
        <ele>0</ele>
        <time>2017-06-17T10:47:26Z</time>
      </trkpt>
      <trkpt lat="60.109941315295" lon="21.521388903492">
        <ele>0</ele>
        <time>2017-06-17T10:47:27Z</time>
      </trkpt>
      <trkpt lat="60.109941650571" lon="21.521362584326">
        <ele>0</ele>
        <time>2017-06-17T10:47:28Z</time>
      </trkpt>
      <trkpt lat="60.109939471277" lon="21.521341042843">
        <ele>0</ele>
        <time>2017-06-17T10:47:29Z</time>
      </trkpt>
      <trkpt lat="60.10993921982" lon="21.521312460564">
        <ele>0</ele>
        <time>2017-06-17T10:47:30Z</time>
      </trkpt>
      <trkpt lat="60.109936369974" lon="21.521290835262">
        <ele>0</ele>
        <time>2017-06-17T10:47:31Z</time>
      </trkpt>
      <trkpt lat="60.109933939223" lon="21.521268623227">
        <ele>0</ele>
        <time>2017-06-17T10:47:32Z</time>
      </trkpt>
      <trkpt lat="60.109931759929" lon="21.521241884966">
        <ele>0</ele>
        <time>2017-06-17T10:47:33Z</time>
      </trkpt>
      <trkpt lat="60.109931005558" lon="21.521226043175">
        <ele>0</ele>
        <time>2017-06-17T10:47:34Z</time>
      </trkpt>
      <trkpt lat="60.109929077721" lon="21.521198550543">
        <ele>0</ele>
        <time>2017-06-17T10:47:35Z</time>
      </trkpt>
      <trkpt lat="60.109927652798" lon="21.521177092879">
        <ele>0</ele>
        <time>2017-06-17T10:47:36Z</time>
      </trkpt>
      <trkpt lat="60.109927066065" lon="21.521154964663">
        <ele>0</ele>
        <time>2017-06-17T10:47:37Z</time>
      </trkpt>
      <trkpt lat="60.109925892599" lon="21.5211317468">
        <ele>0</ele>
        <time>2017-06-17T10:47:38Z</time>
      </trkpt>
      <trkpt lat="60.109926227875" lon="21.521107942204">
        <ele>0</ele>
        <time>2017-06-17T10:47:39Z</time>
      </trkpt>
      <trkpt lat="60.10992497059" lon="21.521082880323">
        <ele>0</ele>
        <time>2017-06-17T10:47:40Z</time>
      </trkpt>
      <trkpt lat="60.10992664697" lon="21.521057818442">
        <ele>0</ele>
        <time>2017-06-17T10:47:41Z</time>
      </trkpt>
      <trkpt lat="60.109925641142" lon="21.521035103493">
        <ele>0</ele>
        <time>2017-06-17T10:47:42Z</time>
      </trkpt>
      <trkpt lat="60.109927317522" lon="21.521006185938">
        <ele>0</ele>
        <time>2017-06-17T10:47:43Z</time>
      </trkpt>
      <trkpt lat="60.109924048581" lon="21.52098171079">
        <ele>0</ele>
        <time>2017-06-17T10:47:44Z</time>
      </trkpt>
      <trkpt lat="60.109922958934" lon="21.520957906194">
        <ele>0</ele>
        <time>2017-06-17T10:47:45Z</time>
      </trkpt>
      <trkpt lat="60.109919438536" lon="21.520936197073">
        <ele>0</ele>
        <time>2017-06-17T10:47:46Z</time>
      </trkpt>
      <trkpt lat="60.109913152111" lon="21.520913901219">
        <ele>0</ele>
        <time>2017-06-17T10:47:47Z</time>
      </trkpt>
      <trkpt lat="60.109909296437" lon="21.520893449383">
        <ele>0</ele>
        <time>2017-06-17T10:47:48Z</time>
      </trkpt>
      <trkpt lat="60.109904267297" lon="21.520869477149">
        <ele>0</ele>
        <time>2017-06-17T10:47:49Z</time>
      </trkpt>
      <trkpt lat="60.109900495442" lon="21.520849360589">
        <ele>0</ele>
        <time>2017-06-17T10:47:50Z</time>
      </trkpt>
      <trkpt lat="60.109896639768" lon="21.520824885441">
        <ele>0</ele>
        <time>2017-06-17T10:47:51Z</time>
      </trkpt>
      <trkpt lat="60.109892700275" lon="21.520806445261">
        <ele>0</ele>
        <time>2017-06-17T10:47:52Z</time>
      </trkpt>
      <trkpt lat="60.109887335859" lon="21.520780126095">
        <ele>0</ele>
        <time>2017-06-17T10:47:53Z</time>
      </trkpt>
      <trkpt lat="60.109881133253" lon="21.520753387834">
        <ele>0</ele>
        <time>2017-06-17T10:47:54Z</time>
      </trkpt>
      <trkpt lat="60.109877445217" lon="21.520732852179">
        <ele>0</ele>
        <time>2017-06-17T10:47:55Z</time>
      </trkpt>
      <trkpt lat="60.109870655878" lon="21.520705359547">
        <ele>0</ele>
        <time>2017-06-17T10:47:56Z</time>
      </trkpt>
      <trkpt lat="60.109867219299" lon="21.520686416453">
        <ele>0</ele>
        <time>2017-06-17T10:47:57Z</time>
      </trkpt>
      <trkpt lat="60.10986126815" lon="21.520657498898">
        <ele>0</ele>
        <time>2017-06-17T10:47:58Z</time>
      </trkpt>
      <trkpt lat="60.109857580114" lon="21.52063302375">
        <ele>0</ele>
        <time>2017-06-17T10:47:59Z</time>
      </trkpt>
      <trkpt lat="60.109854981725" lon="21.520609973525">
        <ele>0</ele>
        <time>2017-06-17T10:48:00Z</time>
      </trkpt>
      <trkpt lat="60.109852383336" lon="21.520583821997">
        <ele>0</ele>
        <time>2017-06-17T10:48:01Z</time>
      </trkpt>
      <trkpt lat="60.109849617309" lon="21.520556580822">
        <ele>0</ele>
        <time>2017-06-17T10:48:02Z</time>
      </trkpt>
      <trkpt lat="60.109847438015" lon="21.520533362959">
        <ele>0</ele>
        <time>2017-06-17T10:48:03Z</time>
      </trkpt>
      <trkpt lat="60.109845510178" lon="21.520508468716">
        <ele>0</ele>
        <time>2017-06-17T10:48:04Z</time>
      </trkpt>
      <trkpt lat="60.109844671988" lon="21.520488268337">
        <ele>0</ele>
        <time>2017-06-17T10:48:05Z</time>
      </trkpt>
      <trkpt lat="60.109842911789" lon="21.520457590583">
        <ele>0</ele>
        <time>2017-06-17T10:48:06Z</time>
      </trkpt>
      <trkpt lat="60.109843917617" lon="21.52043688729">
        <ele>0</ele>
        <time>2017-06-17T10:48:07Z</time>
      </trkpt>
      <trkpt lat="60.109845510178" lon="21.520407299183">
        <ele>0</ele>
        <time>2017-06-17T10:48:08Z</time>
      </trkpt>
      <trkpt lat="60.109844839626" lon="21.520386847347">
        <ele>0</ele>
        <time>2017-06-17T10:48:09Z</time>
      </trkpt>
      <trkpt lat="60.109846348368" lon="21.520361366371">
        <ele>0</ele>
        <time>2017-06-17T10:48:10Z</time>
      </trkpt>
      <trkpt lat="60.109846767463" lon="21.520338316146">
        <ele>0</ele>
        <time>2017-06-17T10:48:11Z</time>
      </trkpt>
      <trkpt lat="60.109846767463" lon="21.52031367336">
        <ele>0</ele>
        <time>2017-06-17T10:48:12Z</time>
      </trkpt>
      <trkpt lat="60.109848360024" lon="21.520288946755">
        <ele>0</ele>
        <time>2017-06-17T10:48:13Z</time>
      </trkpt>
      <trkpt lat="60.109850287861" lon="21.520260783571">
        <ele>0</ele>
        <time>2017-06-17T10:48:14Z</time>
      </trkpt>
      <trkpt lat="60.109851461327" lon="21.520238906812">
        <ele>0</ele>
        <time>2017-06-17T10:48:15Z</time>
      </trkpt>
      <trkpt lat="60.109853305345" lon="21.520212084732">
        <ele>0</ele>
        <time>2017-06-17T10:48:16Z</time>
      </trkpt>
      <trkpt lat="60.109850623137" lon="21.520190291792">
        <ele>0</ele>
        <time>2017-06-17T10:48:17Z</time>
      </trkpt>
      <trkpt lat="60.109853305345" lon="21.520163888807">
        <ele>0</ele>
        <time>2017-06-17T10:48:18Z</time>
      </trkpt>
      <trkpt lat="60.109853975897" lon="21.520140251849">
        <ele>0</ele>
        <time>2017-06-17T10:48:19Z</time>
      </trkpt>
      <trkpt lat="60.109853975897" lon="21.520116614891">
        <ele>0</ele>
        <time>2017-06-17T10:48:20Z</time>
      </trkpt>
      <trkpt lat="60.109855652277" lon="21.520095241046">
        <ele>0</ele>
        <time>2017-06-17T10:48:21Z</time>
      </trkpt>
      <trkpt lat="60.109856322829" lon="21.520072526097">
        <ele>0</ele>
        <time>2017-06-17T10:48:22Z</time>
      </trkpt>
      <trkpt lat="60.109859088856" lon="21.520045955474">
        <ele>0</ele>
        <time>2017-06-17T10:48:23Z</time>
      </trkpt>
      <trkpt lat="60.10986210634" lon="21.520024916905">
        <ele>0</ele>
        <time>2017-06-17T10:48:24Z</time>
      </trkpt>
      <trkpt lat="60.109869901507" lon="21.519999771205">
        <ele>0</ele>
        <time>2017-06-17T10:48:25Z</time>
      </trkpt>
      <trkpt lat="60.109873086629" lon="21.519977810627">
        <ele>0</ele>
        <time>2017-06-17T10:48:26Z</time>
      </trkpt>
      <trkpt lat="60.109879792149" lon="21.519955011859">
        <ele>0</ele>
        <time>2017-06-17T10:48:27Z</time>
      </trkpt>
      <trkpt lat="60.109884150737" lon="21.519930704349">
        <ele>0</ele>
        <time>2017-06-17T10:48:28Z</time>
      </trkpt>
      <trkpt lat="60.109891107714" lon="21.519902205889">
        <ele>0</ele>
        <time>2017-06-17T10:48:29Z</time>
      </trkpt>
      <trkpt lat="60.10989395756" lon="21.519881502596">
        <ele>0</ele>
        <time>2017-06-17T10:48:30Z</time>
      </trkpt>
      <trkpt lat="60.10990066308" lon="21.519853674688">
        <ele>0</ele>
        <time>2017-06-17T10:48:31Z</time>
      </trkpt>
      <trkpt lat="60.109903596745" lon="21.519833055214">
        <ele>0</ele>
        <time>2017-06-17T10:48:32Z</time>
      </trkpt>
      <trkpt lat="60.1099073686" lon="21.519809502075">
        <ele>0</ele>
        <time>2017-06-17T10:48:33Z</time>
      </trkpt>
      <trkpt lat="60.10991072136" lon="21.519786535669">
        <ele>0</ele>
        <time>2017-06-17T10:48:34Z</time>
      </trkpt>
      <trkpt lat="60.109914660853" lon="21.519765664738">
        <ele>0</ele>
        <time>2017-06-17T10:48:35Z</time>
      </trkpt>
      <trkpt lat="60.109919019441" lon="21.519742279237">
        <ele>0</ele>
        <time>2017-06-17T10:48:36Z</time>
      </trkpt>
      <trkpt lat="60.109920863459" lon="21.519723503781">
        <ele>0</ele>
        <time>2017-06-17T10:48:37Z</time>
      </trkpt>
      <trkpt lat="60.1099241324" lon="21.519695759692">
        <ele>0</ele>
        <time>2017-06-17T10:48:38Z</time>
      </trkpt>
      <trkpt lat="60.109924467676" lon="21.519675140218">
        <ele>0</ele>
        <time>2017-06-17T10:48:39Z</time>
      </trkpt>
      <trkpt lat="60.109924383857" lon="21.519652425269">
        <ele>0</ele>
        <time>2017-06-17T10:48:40Z</time>
      </trkpt>
      <trkpt lat="60.109924635314" lon="21.519632979261">
        <ele>0</ele>
        <time>2017-06-17T10:48:41Z</time>
      </trkpt>
      <trkpt lat="60.109924802952" lon="21.519610264312">
        <ele>0</ele>
        <time>2017-06-17T10:48:42Z</time>
      </trkpt>
      <trkpt lat="60.109925557323" lon="21.519587549363">
        <ele>0</ele>
        <time>2017-06-17T10:48:43Z</time>
      </trkpt>
      <trkpt lat="60.109926814608" lon="21.519558967084">
        <ele>0</ele>
        <time>2017-06-17T10:48:44Z</time>
      </trkpt>
      <trkpt lat="60.109927988074" lon="21.519538599067">
        <ele>0</ele>
        <time>2017-06-17T10:48:45Z</time>
      </trkpt>
      <trkpt lat="60.109930502644" lon="21.519516219394">
        <ele>0</ele>
        <time>2017-06-17T10:48:46Z</time>
      </trkpt>
      <trkpt lat="60.109933184852" lon="21.51949308535">
        <ele>0</ele>
        <time>2017-06-17T10:48:47Z</time>
      </trkpt>
      <trkpt lat="60.109937711078" lon="21.51947045422">
        <ele>0</ele>
        <time>2017-06-17T10:48:48Z</time>
      </trkpt>
      <trkpt lat="60.109942488761" lon="21.519447152538">
        <ele>0</ele>
        <time>2017-06-17T10:48:49Z</time>
      </trkpt>
      <trkpt lat="60.109947434082" lon="21.519423683218">
        <ele>0</ele>
        <time>2017-06-17T10:48:50Z</time>
      </trkpt>
      <trkpt lat="60.109951457394" lon="21.519397364052">
        <ele>0</ele>
        <time>2017-06-17T10:48:51Z</time>
      </trkpt>
      <trkpt lat="60.10995598362" lon="21.519378672415">
        <ele>0</ele>
        <time>2017-06-17T10:48:52Z</time>
      </trkpt>
      <trkpt lat="60.109961683312" lon="21.519346318281">
        <ele>0</ele>
        <time>2017-06-17T10:48:53Z</time>
      </trkpt>
      <trkpt lat="60.109965958081" lon="21.519325866445">
        <ele>0</ele>
        <time>2017-06-17T10:48:54Z</time>
      </trkpt>
      <trkpt lat="60.109970735764" lon="21.519297619442">
        <ele>0</ele>
        <time>2017-06-17T10:48:55Z</time>
      </trkpt>
      <trkpt lat="60.109974256162" lon="21.519278676348">
        <ele>0</ele>
        <time>2017-06-17T10:48:56Z</time>
      </trkpt>
      <trkpt lat="60.109978530931" lon="21.519255374666">
        <ele>0</ele>
        <time>2017-06-17T10:48:57Z</time>
      </trkpt>
      <trkpt lat="60.109983811528" lon="21.519228384948">
        <ele>0</ele>
        <time>2017-06-17T10:48:58Z</time>
      </trkpt>
      <trkpt lat="60.109989678858" lon="21.519204077438">
        <ele>0</ele>
        <time>2017-06-17T10:48:59Z</time>
      </trkpt>
      <trkpt lat="60.109997809301" lon="21.519175159883">
        <ele>0</ele>
        <time>2017-06-17T10:49:00Z</time>
      </trkpt>
      <trkpt lat="60.110005017735" lon="21.519154540409">
        <ele>0</ele>
        <time>2017-06-17T10:49:01Z</time>
      </trkpt>
      <trkpt lat="60.110011639436" lon="21.519137525152">
        <ele>0</ele>
        <time>2017-06-17T10:49:02Z</time>
      </trkpt>
      <trkpt lat="60.110023457915" lon="21.519117995325">
        <ele>0</ele>
        <time>2017-06-17T10:49:03Z</time>
      </trkpt>
      <trkpt lat="60.110029576702" lon="21.519099387507">
        <ele>0</ele>
        <time>2017-06-17T10:49:04Z</time>
      </trkpt>
      <trkpt lat="60.110042736285" lon="21.51908153406">
        <ele>0</ele>
        <time>2017-06-17T10:49:05Z</time>
      </trkpt>
      <trkpt lat="60.11005069909" lon="21.519064937898">
        <ele>0</ele>
        <time>2017-06-17T10:49:06Z</time>
      </trkpt>
      <trkpt lat="60.11006243375" lon="21.519047922641">
        <ele>0</ele>
        <time>2017-06-17T10:49:07Z</time>
      </trkpt>
      <trkpt lat="60.110071150926" lon="21.519029733918">
        <ele>0</ele>
        <time>2017-06-17T10:49:08Z</time>
      </trkpt>
      <trkpt lat="60.110082801767" lon="21.519008276254">
        <ele>0</ele>
        <time>2017-06-17T10:49:09Z</time>
      </trkpt>
      <trkpt lat="60.110090261658" lon="21.518991093359">
        <ele>0</ele>
        <time>2017-06-17T10:49:10Z</time>
      </trkpt>
      <trkpt lat="60.110099733205" lon="21.51896837841">
        <ele>0</ele>
        <time>2017-06-17T10:49:11Z</time>
      </trkpt>
      <trkpt lat="60.110105349078" lon="21.518951363153">
        <ele>0</ele>
        <time>2017-06-17T10:49:12Z</time>
      </trkpt>
      <trkpt lat="60.110112138417" lon="21.518925463082">
        <ele>0</ele>
        <time>2017-06-17T10:49:13Z</time>
      </trkpt>
      <trkpt lat="60.1101169161" lon="21.518908950739">
        <ele>0</ele>
        <time>2017-06-17T10:49:14Z</time>
      </trkpt>
      <trkpt lat="60.110122615792" lon="21.518883050668">
        <ele>0</ele>
        <time>2017-06-17T10:49:15Z</time>
      </trkpt>
      <trkpt lat="60.110126639104" lon="21.518865616316">
        <ele>0</ele>
        <time>2017-06-17T10:49:16Z</time>
      </trkpt>
      <trkpt lat="60.110131835882" lon="21.518842063177">
        <ele>0</ele>
        <time>2017-06-17T10:49:17Z</time>
      </trkpt>
      <trkpt lat="60.110137367936" lon="21.518820102599">
        <ele>0</ele>
        <time>2017-06-17T10:49:18Z</time>
      </trkpt>
      <trkpt lat="60.11014373818" lon="21.518798142021">
        <ele>0</ele>
        <time>2017-06-17T10:49:19Z</time>
      </trkpt>
      <trkpt lat="60.11014960551" lon="21.518775343253">
        <ele>0</ele>
        <time>2017-06-17T10:49:20Z</time>
      </trkpt>
      <trkpt lat="60.110156646306" lon="21.51875463996">
        <ele>0</ele>
        <time>2017-06-17T10:49:21Z</time>
      </trkpt>
      <trkpt lat="60.110163519464" lon="21.518738127617">
        <ele>0</ele>
        <time>2017-06-17T10:49:22Z</time>
      </trkpt>
      <trkpt lat="60.110175673219" lon="21.518719687437">
        <ele>0</ele>
        <time>2017-06-17T10:49:23Z</time>
      </trkpt>
      <trkpt lat="60.110182127282" lon="21.518699151782">
        <ele>0</ele>
        <time>2017-06-17T10:49:24Z</time>
      </trkpt>
      <trkpt lat="60.110194197218" lon="21.518684399638">
        <ele>0</ele>
        <time>2017-06-17T10:49:25Z</time>
      </trkpt>
      <trkpt lat="60.110201740928" lon="21.518667216743">
        <ele>0</ele>
        <time>2017-06-17T10:49:26Z</time>
      </trkpt>
      <trkpt lat="60.110212050665" lon="21.518651458771">
        <ele>0</ele>
        <time>2017-06-17T10:49:27Z</time>
      </trkpt>
      <trkpt lat="60.110220684022" lon="21.518633772962">
        <ele>0</ele>
        <time>2017-06-17T10:49:28Z</time>
      </trkpt>
      <trkpt lat="60.110233340691" lon="21.518612902031">
        <ele>0</ele>
        <time>2017-06-17T10:49:29Z</time>
      </trkpt>
      <trkpt lat="60.110240884401" lon="21.518595802955">
        <ele>0</ele>
        <time>2017-06-17T10:49:30Z</time>
      </trkpt>
      <trkpt lat="60.110248763387" lon="21.518572417454">
        <ele>0</ele>
        <time>2017-06-17T10:49:31Z</time>
      </trkpt>
      <trkpt lat="60.110255888002" lon="21.518556491844">
        <ele>0</ele>
        <time>2017-06-17T10:49:32Z</time>
      </trkpt>
      <trkpt lat="60.110263515531" lon="21.518533609257">
        <ele>0</ele>
        <time>2017-06-17T10:49:33Z</time>
      </trkpt>
      <trkpt lat="60.110267706481" lon="21.518513408878">
        <ele>0</ele>
        <time>2017-06-17T10:49:34Z</time>
      </trkpt>
      <trkpt lat="60.110271478336" lon="21.518487341169">
        <ele>0</ele>
        <time>2017-06-17T10:49:35Z</time>
      </trkpt>
      <trkpt lat="60.110275417829" lon="21.518470577369">
        <ele>0</ele>
        <time>2017-06-17T10:49:36Z</time>
      </trkpt>
      <trkpt lat="60.110279022046" lon="21.518443839108">
        <ele>0</ele>
        <time>2017-06-17T10:49:37Z</time>
      </trkpt>
      <trkpt lat="60.110282374806" lon="21.518423051996">
        <ele>0</ele>
        <time>2017-06-17T10:49:38Z</time>
      </trkpt>
      <trkpt lat="60.110287236308" lon="21.518395727002">
        <ele>0</ele>
        <time>2017-06-17T10:49:39Z</time>
      </trkpt>
      <trkpt lat="60.110290253792" lon="21.518375358985">
        <ele>0</ele>
        <time>2017-06-17T10:49:40Z</time>
      </trkpt>
      <trkpt lat="60.110296959312" lon="21.518351973484">
        <ele>0</ele>
        <time>2017-06-17T10:49:41Z</time>
      </trkpt>
      <trkpt lat="60.110300814986" lon="21.518333533304">
        <ele>0</ele>
        <time>2017-06-17T10:49:42Z</time>
      </trkpt>
      <trkpt lat="60.110311459999" lon="21.518309141975">
        <ele>0</ele>
        <time>2017-06-17T10:49:43Z</time>
      </trkpt>
      <trkpt lat="60.110316237682" lon="21.518290617976">
        <ele>0</ele>
        <time>2017-06-17T10:49:44Z</time>
      </trkpt>
      <trkpt lat="60.110326044505" lon="21.51826765157">
        <ele>0</ele>
        <time>2017-06-17T10:49:45Z</time>
      </trkpt>
      <trkpt lat="60.110332163292" lon="21.518250803951">
        <ele>0</ele>
        <time>2017-06-17T10:49:46Z</time>
      </trkpt>
      <trkpt lat="60.110340377554" lon="21.518227586088">
        <ele>0</ele>
        <time>2017-06-17T10:49:47Z</time>
      </trkpt>
      <trkpt lat="60.110347921264" lon="21.518208223899">
        <ele>0</ele>
        <time>2017-06-17T10:49:48Z</time>
      </trkpt>
      <trkpt lat="60.110355464974" lon="21.518183329656">
        <ele>0</ele>
        <time>2017-06-17T10:49:49Z</time>
      </trkpt>
      <trkpt lat="60.110360494114" lon="21.518164721838">
        <ele>0</ele>
        <time>2017-06-17T10:49:50Z</time>
      </trkpt>
      <trkpt lat="60.110365104159" lon="21.518137145387">
        <ele>0</ele>
        <time>2017-06-17T10:49:51Z</time>
      </trkpt>
      <trkpt lat="60.110368708376" lon="21.518119375759">
        <ele>0</ele>
        <time>2017-06-17T10:49:52Z</time>
      </trkpt>
      <trkpt lat="60.110371642041" lon="21.518091212575">
        <ele>0</ele>
        <time>2017-06-17T10:49:53Z</time>
      </trkpt>
      <trkpt lat="60.110373318421" lon="21.518070257825">
        <ele>0</ele>
        <time>2017-06-17T10:49:54Z</time>
      </trkpt>
      <trkpt lat="60.110373569878" lon="21.518045028306">
        <ele>0</ele>
        <time>2017-06-17T10:49:55Z</time>
      </trkpt>
      <trkpt lat="60.110374910982" lon="21.518026755764">
        <ele>0</ele>
        <time>2017-06-17T10:49:56Z</time>
      </trkpt>
      <trkpt lat="60.11037591681" lon="21.518006052471">
        <ele>0</ele>
        <time>2017-06-17T10:49:57Z</time>
      </trkpt>
      <trkpt lat="60.110376503543" lon="21.517982415513">
        <ele>0</ele>
        <time>2017-06-17T10:49:58Z</time>
      </trkpt>
      <trkpt lat="60.110376587362" lon="21.51795584489">
        <ele>0</ele>
        <time>2017-06-17T10:49:59Z</time>
      </trkpt>
      <trkpt lat="60.110376671181" lon="21.51793656652">
        <ele>0</ele>
        <time>2017-06-17T10:50:00Z</time>
      </trkpt>
      <trkpt lat="60.110376755" lon="21.517911337001">
        <ele>0</ele>
        <time>2017-06-17T10:50:01Z</time>
      </trkpt>
      <trkpt lat="60.110377090276" lon="21.517889292604">
        <ele>0</ele>
        <time>2017-06-17T10:50:02Z</time>
      </trkpt>
      <trkpt lat="60.110378263742" lon="21.5178628058">
        <ele>0</ele>
        <time>2017-06-17T10:50:03Z</time>
      </trkpt>
      <trkpt lat="60.110379604846" lon="21.517843275973">
        <ele>0</ele>
        <time>2017-06-17T10:50:04Z</time>
      </trkpt>
      <trkpt lat="60.110384801624" lon="21.517814777513">
        <ele>0</ele>
        <time>2017-06-17T10:50:05Z</time>
      </trkpt>
      <trkpt lat="60.110384717805" lon="21.517793571306">
        <ele>0</ele>
        <time>2017-06-17T10:50:06Z</time>
      </trkpt>
      <trkpt lat="60.110388657298" lon="21.517769012339">
        <ele>0</ele>
        <time>2017-06-17T10:50:07Z</time>
      </trkpt>
      <trkpt lat="60.110389998402" lon="21.517746884123">
        <ele>0</ele>
        <time>2017-06-17T10:50:08Z</time>
      </trkpt>
      <trkpt lat="60.110393854076" lon="21.517717966568">
        <ele>0</ele>
        <time>2017-06-17T10:50:09Z</time>
      </trkpt>
      <trkpt lat="60.110395614275" lon="21.517698101465">
        <ele>0</ele>
        <time>2017-06-17T10:50:10Z</time>
      </trkpt>
      <trkpt lat="60.110397961207" lon="21.517668848634">
        <ele>0</ele>
        <time>2017-06-17T10:50:11Z</time>
      </trkpt>
      <trkpt lat="60.110400056682" lon="21.517648396798">
        <ele>0</ele>
        <time>2017-06-17T10:50:12Z</time>
      </trkpt>
      <trkpt lat="60.110401649243" lon="21.517618557234">
        <ele>0</ele>
        <time>2017-06-17T10:50:13Z</time>
      </trkpt>
      <trkpt lat="60.110402403614" lon="21.517595590828">
        <ele>0</ele>
        <time>2017-06-17T10:50:14Z</time>
      </trkpt>
      <trkpt lat="60.110402487433" lon="21.517570109852">
        <ele>0</ele>
        <time>2017-06-17T10:50:15Z</time>
      </trkpt>
      <trkpt lat="60.110402655071" lon="21.517551250577">
        <ele>0</ele>
        <time>2017-06-17T10:50:16Z</time>
      </trkpt>
      <trkpt lat="60.110403660899" lon="21.517526607791">
        <ele>0</ele>
        <time>2017-06-17T10:50:17Z</time>
      </trkpt>
      <trkpt lat="60.110404582908" lon="21.517500875358">
        <ele>0</ele>
        <time>2017-06-17T10:50:18Z</time>
      </trkpt>
      <trkpt lat="60.110405337279" lon="21.51747807659">
        <ele>0</ele>
        <time>2017-06-17T10:50:19Z</time>
      </trkpt>
      <trkpt lat="60.110405840193" lon="21.517452595614">
        <ele>0</ele>
        <time>2017-06-17T10:50:20Z</time>
      </trkpt>
      <trkpt lat="60.11040609165" lon="21.517434825986">
        <ele>0</ele>
        <time>2017-06-17T10:50:21Z</time>
      </trkpt>
      <trkpt lat="60.110406762202" lon="21.517412446313">
        <ele>0</ele>
        <time>2017-06-17T10:50:22Z</time>
      </trkpt>
      <trkpt lat="60.110407516573" lon="21.517387216794">
        <ele>0</ele>
        <time>2017-06-17T10:50:23Z</time>
      </trkpt>
      <trkpt lat="60.110410785514" lon="21.517364418026">
        <ele>0</ele>
        <time>2017-06-17T10:50:24Z</time>
      </trkpt>
      <trkpt lat="60.110414389731" lon="21.517341619258">
        <ele>0</ele>
        <time>2017-06-17T10:50:25Z</time>
      </trkpt>
      <trkpt lat="60.110417239577" lon="21.517314294264">
        <ele>0</ele>
        <time>2017-06-17T10:50:26Z</time>
      </trkpt>
      <trkpt lat="60.11042117907" lon="21.517296273179">
        <ele>0</ele>
        <time>2017-06-17T10:50:27Z</time>
      </trkpt>
      <trkpt lat="60.110424028916" lon="21.517270456927">
        <ele>0</ele>
        <time>2017-06-17T10:50:28Z</time>
      </trkpt>
      <trkpt lat="60.110430650617" lon="21.517244975951">
        <ele>0</ele>
        <time>2017-06-17T10:50:29Z</time>
      </trkpt>
      <trkpt lat="60.110432746092" lon="21.517219243518">
        <ele>0</ele>
        <time>2017-06-17T10:50:30Z</time>
      </trkpt>
      <trkpt lat="60.110437020861" lon="21.517194516913">
        <ele>0</ele>
        <time>2017-06-17T10:50:31Z</time>
      </trkpt>
      <trkpt lat="60.110439535431" lon="21.517170125584">
        <ele>0</ele>
        <time>2017-06-17T10:50:32Z</time>
      </trkpt>
      <trkpt lat="60.110441379449" lon="21.517148416463">
        <ele>0</ele>
        <time>2017-06-17T10:50:33Z</time>
      </trkpt>
      <trkpt lat="60.110443391105" lon="21.517122181116">
        <ele>0</ele>
        <time>2017-06-17T10:50:34Z</time>
      </trkpt>
      <trkpt lat="60.110445318942" lon="21.517099466167">
        <ele>0</ele>
        <time>2017-06-17T10:50:35Z</time>
      </trkpt>
      <trkpt lat="60.110446576227" lon="21.51706903987">
        <ele>0</ele>
        <time>2017-06-17T10:50:36Z</time>
      </trkpt>
      <trkpt lat="60.110447917331" lon="21.517047749844">
        <ele>0</ele>
        <time>2017-06-17T10:50:37Z</time>
      </trkpt>
      <trkpt lat="60.110449593711" lon="21.517016066262">
        <ele>0</ele>
        <time>2017-06-17T10:50:38Z</time>
      </trkpt>
      <trkpt lat="60.110451102453" lon="21.516993770408">
        <ele>0</ele>
        <time>2017-06-17T10:50:39Z</time>
      </trkpt>
      <trkpt lat="60.110453617023" lon="21.516965355767">
        <ele>0</ele>
        <time>2017-06-17T10:50:40Z</time>
      </trkpt>
      <trkpt lat="60.110456550688" lon="21.516941048257">
        <ele>0</ele>
        <time>2017-06-17T10:50:41Z</time>
      </trkpt>
      <trkpt lat="60.110459903448" lon="21.516913807082">
        <ele>0</ele>
        <time>2017-06-17T10:50:42Z</time>
      </trkpt>
      <trkpt lat="60.110462501837" lon="21.516886398269">
        <ele>0</ele>
        <time>2017-06-17T10:50:43Z</time>
      </trkpt>
      <trkpt lat="60.110466106054" lon="21.516857648352">
        <ele>0</ele>
        <time>2017-06-17T10:50:44Z</time>
      </trkpt>
      <trkpt lat="60.1104689559" lon="21.516831161548">
        <ele>0</ele>
        <time>2017-06-17T10:50:45Z</time>
      </trkpt>
      <trkpt lat="60.110472141022" lon="21.516805177658">
        <ele>0</ele>
        <time>2017-06-17T10:50:46Z</time>
      </trkpt>
      <trkpt lat="60.110475074687" lon="21.51677818794">
        <ele>0</ele>
        <time>2017-06-17T10:50:47Z</time>
      </trkpt>
      <trkpt lat="60.110478762723" lon="21.516750360032">
        <ele>0</ele>
        <time>2017-06-17T10:50:48Z</time>
      </trkpt>
      <trkpt lat="60.110480774379" lon="21.516719766097">
        <ele>0</ele>
        <time>2017-06-17T10:50:49Z</time>
      </trkpt>
      <trkpt lat="60.110483456587" lon="21.516695626225">
        <ele>0</ele>
        <time>2017-06-17T10:50:50Z</time>
      </trkpt>
      <trkpt lat="60.110484546234" lon="21.51666670867">
        <ele>0</ele>
        <time>2017-06-17T10:50:51Z</time>
      </trkpt>
      <trkpt lat="60.110487060804" lon="21.516643574626">
        <ele>0</ele>
        <time>2017-06-17T10:50:52Z</time>
      </trkpt>
      <trkpt lat="60.110489240098" lon="21.516607783913">
        <ele>0</ele>
        <time>2017-06-17T10:50:53Z</time>
      </trkpt>
      <trkpt lat="60.110491167935" lon="21.516586493887">
        <ele>0</ele>
        <time>2017-06-17T10:50:54Z</time>
      </trkpt>
      <trkpt lat="60.110493179591" lon="21.516555061762">
        <ele>0</ele>
        <time>2017-06-17T10:50:55Z</time>
      </trkpt>
      <trkpt lat="60.110495442704" lon="21.516532095356">
        <ele>0</ele>
        <time>2017-06-17T10:50:56Z</time>
      </trkpt>
      <trkpt lat="60.11049829255" lon="21.516508961312">
        <ele>0</ele>
        <time>2017-06-17T10:50:57Z</time>
      </trkpt>
      <trkpt lat="60.110500555663" lon="21.51647895411">
        <ele>0</ele>
        <time>2017-06-17T10:50:58Z</time>
      </trkpt>
      <trkpt lat="60.110503154052" lon="21.516457412627">
        <ele>0</ele>
        <time>2017-06-17T10:50:59Z</time>
      </trkpt>
      <trkpt lat="60.110507009726" lon="21.51642698633">
        <ele>0</ele>
        <time>2017-06-17T10:51:00Z</time>
      </trkpt>
      <trkpt lat="60.11051002721" lon="21.516406785951">
        <ele>0</ele>
        <time>2017-06-17T10:51:01Z</time>
      </trkpt>
      <trkpt lat="60.11051505635" lon="21.516378958043">
        <ele>0</ele>
        <time>2017-06-17T10:51:02Z</time>
      </trkpt>
      <trkpt lat="60.110520001671" lon="21.51635574018">
        <ele>0</ele>
        <time>2017-06-17T10:51:03Z</time>
      </trkpt>
      <trkpt lat="60.110526120458" lon="21.516329337195">
        <ele>0</ele>
        <time>2017-06-17T10:51:04Z</time>
      </trkpt>
      <trkpt lat="60.110532071607" lon="21.516307628074">
        <ele>0</ele>
        <time>2017-06-17T10:51:05Z</time>
      </trkpt>
      <trkpt lat="60.110538860946" lon="21.516288601161">
        <ele>0</ele>
        <time>2017-06-17T10:51:06Z</time>
      </trkpt>
      <trkpt lat="60.110547326665" lon="21.516265048022">
        <ele>0</ele>
        <time>2017-06-17T10:51:07Z</time>
      </trkpt>
      <trkpt lat="60.110556798212" lon="21.516241662521">
        <ele>0</ele>
        <time>2017-06-17T10:51:08Z</time>
      </trkpt>
      <trkpt lat="60.110564341922" lon="21.516223892893">
        <ele>0</ele>
        <time>2017-06-17T10:51:09Z</time>
      </trkpt>
      <trkpt lat="60.110575238392" lon="21.51620570417">
        <ele>0</ele>
        <time>2017-06-17T10:51:10Z</time>
      </trkpt>
      <trkpt lat="60.110587056871" lon="21.516187515447">
        <ele>0</ele>
        <time>2017-06-17T10:51:11Z</time>
      </trkpt>
      <trkpt lat="60.110596612237" lon="21.516177038072">
        <ele>0</ele>
        <time>2017-06-17T10:51:12Z</time>
      </trkpt>
      <trkpt lat="60.110610693829" lon="21.516161950652">
        <ele>0</ele>
        <time>2017-06-17T10:51:13Z</time>
      </trkpt>
      <trkpt lat="60.110622009394" lon="21.516153233476">
        <ele>0</ele>
        <time>2017-06-17T10:51:14Z</time>
      </trkpt>
      <trkpt lat="60.110637348271" lon="21.516143175196">
        <ele>0</ele>
        <time>2017-06-17T10:51:15Z</time>
      </trkpt>
      <trkpt lat="60.110648496198" lon="21.516138397513">
        <ele>0</ele>
        <time>2017-06-17T10:51:16Z</time>
      </trkpt>
      <trkpt lat="60.110660733772" lon="21.516136721133">
        <ele>0</ele>
        <time>2017-06-17T10:51:17Z</time>
      </trkpt>
      <trkpt lat="60.110674899183" lon="21.516136637314">
        <ele>0</ele>
        <time>2017-06-17T10:51:18Z</time>
      </trkpt>
      <trkpt lat="60.110688813137" lon="21.516129596518">
        <ele>0</ele>
        <time>2017-06-17T10:51:19Z</time>
      </trkpt>
      <trkpt lat="60.110702727091" lon="21.51613110526">
        <ele>0</ele>
        <time>2017-06-17T10:51:20Z</time>
      </trkpt>
      <trkpt lat="60.110717646873" lon="21.516124483559">
        <ele>0</ele>
        <time>2017-06-17T10:51:21Z</time>
      </trkpt>
      <trkpt lat="60.110730554999" lon="21.51612439974">
        <ele>0</ele>
        <time>2017-06-17T10:51:22Z</time>
      </trkpt>
      <trkpt lat="60.110745977695" lon="21.516117023668">
        <ele>0</ele>
        <time>2017-06-17T10:51:23Z</time>
      </trkpt>
      <trkpt lat="60.110760310744" lon="21.516114425279">
        <ele>0</ele>
        <time>2017-06-17T10:51:24Z</time>
      </trkpt>
      <trkpt lat="60.110772799775" lon="21.516103696447">
        <ele>0</ele>
        <time>2017-06-17T10:51:25Z</time>
      </trkpt>
      <trkpt lat="60.110787132824" lon="21.516098918764">
        <ele>0</ele>
        <time>2017-06-17T10:51:26Z</time>
      </trkpt>
      <trkpt lat="60.110797861656" lon="21.516087267923">
        <ele>0</ele>
        <time>2017-06-17T10:51:27Z</time>
      </trkpt>
      <trkpt lat="60.110811691791" lon="21.516076371453">
        <ele>0</ele>
        <time>2017-06-17T10:51:28Z</time>
      </trkpt>
      <trkpt lat="60.110824767555" lon="21.516061870766">
        <ele>0</ele>
        <time>2017-06-17T10:51:29Z</time>
      </trkpt>
      <trkpt lat="60.110835077292" lon="21.516052902133">
        <ele>0</ele>
        <time>2017-06-17T10:51:30Z</time>
      </trkpt>
      <trkpt lat="60.110847147228" lon="21.516039994007">
        <ele>0</ele>
        <time>2017-06-17T10:51:31Z</time>
      </trkpt>
      <trkpt lat="60.110856618775" lon="21.516031863564">
        <ele>0</ele>
        <time>2017-06-17T10:51:32Z</time>
      </trkpt>
      <trkpt lat="60.110870365091" lon="21.516015602678">
        <ele>0</ele>
        <time>2017-06-17T10:51:33Z</time>
      </trkpt>
      <trkpt lat="60.110879669" lon="21.516006550226">
        <ele>0</ele>
        <time>2017-06-17T10:51:34Z</time>
      </trkpt>
      <trkpt lat="60.110892660945" lon="21.515991546625">
        <ele>0</ele>
        <time>2017-06-17T10:51:35Z</time>
      </trkpt>
      <trkpt lat="60.110903054501" lon="21.515982242716">
        <ele>0</ele>
        <time>2017-06-17T10:51:36Z</time>
      </trkpt>
      <trkpt lat="60.110915124437" lon="21.515967742029">
        <ele>0</ele>
        <time>2017-06-17T10:51:37Z</time>
      </trkpt>
      <trkpt lat="60.110926942916" lon="21.51595592355">
        <ele>0</ele>
        <time>2017-06-17T10:51:38Z</time>
      </trkpt>
      <trkpt lat="60.110941275965" lon="21.515939495026">
        <ele>0</ele>
        <time>2017-06-17T10:51:39Z</time>
      </trkpt>
      <trkpt lat="60.110950998969" lon="21.515930358755">
        <ele>0</ele>
        <time>2017-06-17T10:51:40Z</time>
      </trkpt>
      <trkpt lat="60.110965918751" lon="21.515916696258">
        <ele>0</ele>
        <time>2017-06-17T10:51:41Z</time>
      </trkpt>
      <trkpt lat="60.110975725574" lon="21.515908733453">
        <ele>0</ele>
        <time>2017-06-17T10:51:42Z</time>
      </trkpt>
      <trkpt lat="60.110990142442" lon="21.515898591354">
        <ele>0</ele>
        <time>2017-06-17T10:51:43Z</time>
      </trkpt>
      <trkpt lat="60.111001122731" lon="21.515891802015">
        <ele>0</ele>
        <time>2017-06-17T10:51:44Z</time>
      </trkpt>
      <trkpt lat="60.111013108848" lon="21.515888952169">
        <ele>0</ele>
        <time>2017-06-17T10:51:45Z</time>
      </trkpt>
      <trkpt lat="60.111024927327" lon="21.515886018504">
        <ele>0</ele>
        <time>2017-06-17T10:51:46Z</time>
      </trkpt>
      <trkpt lat="60.111037667815" lon="21.515879899717">
        <ele>0</ele>
        <time>2017-06-17T10:51:47Z</time>
      </trkpt>
      <trkpt lat="60.111050073027" lon="21.515879899717">
        <ele>0</ele>
        <time>2017-06-17T10:51:48Z</time>
      </trkpt>
      <trkpt lat="60.111062478239" lon="21.515875792586">
        <ele>0</ele>
        <time>2017-06-17T10:51:49Z</time>
      </trkpt>
      <trkpt lat="60.111074212899" lon="21.515877301328">
        <ele>0</ele>
        <time>2017-06-17T10:51:50Z</time>
      </trkpt>
      <trkpt lat="60.11108754012" lon="21.515874283844">
        <ele>0</ele>
        <time>2017-06-17T10:51:51Z</time>
      </trkpt>
      <trkpt lat="60.111097682219" lon="21.515874283844">
        <ele>0</ele>
        <time>2017-06-17T10:51:52Z</time>
      </trkpt>
      <trkpt lat="60.111110003612" lon="21.515871769274">
        <ele>0</ele>
        <time>2017-06-17T10:51:53Z</time>
      </trkpt>
      <trkpt lat="60.1111227441" lon="21.515865566668">
        <ele>0</ele>
        <time>2017-06-17T10:51:54Z</time>
      </trkpt>
      <trkpt lat="60.111131796552" lon="21.51586456084">
        <ele>0</ele>
        <time>2017-06-17T10:51:55Z</time>
      </trkpt>
      <trkpt lat="60.111144788497" lon="21.515858442053">
        <ele>0</ele>
        <time>2017-06-17T10:51:56Z</time>
      </trkpt>
      <trkpt lat="60.11115375713" lon="21.515854670198">
        <ele>0</ele>
        <time>2017-06-17T10:51:57Z</time>
      </trkpt>
      <trkpt lat="60.111167671084" lon="21.515849892515">
        <ele>0</ele>
        <time>2017-06-17T10:51:58Z</time>
      </trkpt>
      <trkpt lat="60.111179238106" lon="21.515845533927">
        <ele>0</ele>
        <time>2017-06-17T10:51:59Z</time>
      </trkpt>
      <trkpt lat="60.111192732965" lon="21.515846288298">
        <ele>0</ele>
        <time>2017-06-17T10:52:00Z</time>
      </trkpt>
      <trkpt lat="60.111204970539" lon="21.515847294126">
        <ele>0</ele>
        <time>2017-06-17T10:52:01Z</time>
      </trkpt>
      <trkpt lat="60.111218716855" lon="21.515843186995">
        <ele>0</ele>
        <time>2017-06-17T10:52:02Z</time>
      </trkpt>
      <trkpt lat="60.111231960257" lon="21.515845198651">
        <ele>0</ele>
        <time>2017-06-17T10:52:03Z</time>
      </trkpt>
      <trkpt lat="60.111243778736" lon="21.515843438452">
        <ele>0</ele>
        <time>2017-06-17T10:52:04Z</time>
      </trkpt>
      <trkpt lat="60.111257105957" lon="21.515843019357">
        <ele>0</ele>
        <time>2017-06-17T10:52:05Z</time>
      </trkpt>
      <trkpt lat="60.111268756798" lon="21.515843773728">
        <ele>0</ele>
        <time>2017-06-17T10:52:06Z</time>
      </trkpt>
      <trkpt lat="60.111277893069" lon="21.515843270814">
        <ele>0</ele>
        <time>2017-06-17T10:52:07Z</time>
      </trkpt>
      <trkpt lat="60.111291974661" lon="21.515845450108">
        <ele>0</ele>
        <time>2017-06-17T10:52:08Z</time>
      </trkpt>
      <trkpt lat="60.11130127857" lon="21.515842264986">
        <ele>0</ele>
        <time>2017-06-17T10:52:09Z</time>
      </trkpt>
      <trkpt lat="60.111312594135" lon="21.515838241674">
        <ele>0</ele>
        <time>2017-06-17T10:52:10Z</time>
      </trkpt>
      <trkpt lat="60.111323742062" lon="21.515828351032">
        <ele>0</ele>
        <time>2017-06-17T10:52:11Z</time>
      </trkpt>
      <trkpt lat="60.111330950496" lon="21.515819047123">
        <ele>0</ele>
        <time>2017-06-17T10:52:12Z</time>
      </trkpt>
      <trkpt lat="60.111342936613" lon="21.51580588754">
        <ele>0</ele>
        <time>2017-06-17T10:52:13Z</time>
      </trkpt>
      <trkpt lat="60.111352240522" lon="21.515795493984">
        <ele>0</ele>
        <time>2017-06-17T10:52:14Z</time>
      </trkpt>
      <trkpt lat="60.111363975182" lon="21.515782502039">
        <ele>0</ele>
        <time>2017-06-17T10:52:15Z</time>
      </trkpt>
      <trkpt lat="60.111374117281" lon="21.515770180646">
        <ele>0</ele>
        <time>2017-06-17T10:52:16Z</time>
      </trkpt>
      <trkpt lat="60.111384678475" lon="21.515758697443">
        <ele>0</ele>
        <time>2017-06-17T10:52:17Z</time>
      </trkpt>
      <trkpt lat="60.11139767042" lon="21.515744532032">
        <ele>0</ele>
        <time>2017-06-17T10:52:18Z</time>
      </trkpt>
      <trkpt lat="60.111409069804" lon="21.515735060485">
        <ele>0</ele>
        <time>2017-06-17T10:52:19Z</time>
      </trkpt>
      <trkpt lat="60.111421894111" lon="21.515725337481">
        <ele>0</ele>
        <time>2017-06-17T10:52:20Z</time>
      </trkpt>
      <trkpt lat="60.111432622943" lon="21.515716620305">
        <ele>0</ele>
        <time>2017-06-17T10:52:21Z</time>
      </trkpt>
      <trkpt lat="60.111443184137" lon="21.515713016088">
        <ele>0</ele>
        <time>2017-06-17T10:52:22Z</time>
      </trkpt>
      <trkpt lat="60.111456930453" lon="21.515710166242">
        <ele>0</ele>
        <time>2017-06-17T10:52:23Z</time>
      </trkpt>
      <trkpt lat="60.111469670941" lon="21.515701784342">
        <ele>0</ele>
        <time>2017-06-17T10:52:24Z</time>
      </trkpt>
      <trkpt lat="60.111482243791" lon="21.515702371075">
        <ele>0</ele>
        <time>2017-06-17T10:52:25Z</time>
      </trkpt>
      <trkpt lat="60.111494397546" lon="21.515696587564">
        <ele>0</ele>
        <time>2017-06-17T10:52:26Z</time>
      </trkpt>
      <trkpt lat="60.11150495874" lon="21.515696252288">
        <ele>0</ele>
        <time>2017-06-17T10:52:27Z</time>
      </trkpt>
      <trkpt lat="60.111517447771" lon="21.515693150985">
        <ele>0</ele>
        <time>2017-06-17T10:52:28Z</time>
      </trkpt>
      <trkpt lat="60.11152926625" lon="21.515687116017">
        <ele>0</ele>
        <time>2017-06-17T10:52:29Z</time>
      </trkpt>
      <trkpt lat="60.111540330358" lon="21.515685439637">
        <ele>0</ele>
        <time>2017-06-17T10:52:30Z</time>
      </trkpt>
      <trkpt lat="60.111553825217" lon="21.515680578135">
        <ele>0</ele>
        <time>2017-06-17T10:52:31Z</time>
      </trkpt>
      <trkpt lat="60.111563129126" lon="21.515678147384">
        <ele>0</ele>
        <time>2017-06-17T10:52:32Z</time>
      </trkpt>
      <trkpt lat="60.111576791623" lon="21.515677812108">
        <ele>0</ele>
        <time>2017-06-17T10:52:33Z</time>
      </trkpt>
      <trkpt lat="60.111587268998" lon="21.515676303366">
        <ele>0</ele>
        <time>2017-06-17T10:52:34Z</time>
      </trkpt>
      <trkpt lat="60.111601266771" lon="21.515680326678">
        <ele>0</ele>
        <time>2017-06-17T10:52:35Z</time>
      </trkpt>
      <trkpt lat="60.111610822137" lon="21.515673118244">
        <ele>0</ele>
        <time>2017-06-17T10:52:36Z</time>
      </trkpt>
      <trkpt lat="60.11162398172" lon="21.515673956434">
        <ele>0</ele>
        <time>2017-06-17T10:52:37Z</time>
      </trkpt>
      <trkpt lat="60.111635548742" lon="21.51567177714">
        <ele>0</ele>
        <time>2017-06-17T10:52:38Z</time>
      </trkpt>
      <trkpt lat="60.111649378877" lon="21.515671190407">
        <ele>0</ele>
        <time>2017-06-17T10:52:39Z</time>
      </trkpt>
      <trkpt lat="60.111660107709" lon="21.515668256742">
        <ele>0</ele>
        <time>2017-06-17T10:52:40Z</time>
      </trkpt>
      <trkpt lat="60.111672429102" lon="21.515660629213">
        <ele>0</ele>
        <time>2017-06-17T10:52:41Z</time>
      </trkpt>
      <trkpt lat="60.111680475726" lon="21.515657779367">
        <ele>0</ele>
        <time>2017-06-17T10:52:42Z</time>
      </trkpt>
      <trkpt lat="60.111695814603" lon="21.5156499842">
        <ele>0</ele>
        <time>2017-06-17T10:52:43Z</time>
      </trkpt>
      <trkpt lat="60.111706375797" lon="21.515646212345">
        <ele>0</ele>
        <time>2017-06-17T10:52:44Z</time>
      </trkpt>
      <trkpt lat="60.111721127941" lon="21.515637243712">
        <ele>0</ele>
        <time>2017-06-17T10:52:45Z</time>
      </trkpt>
      <trkpt lat="60.111730934764" lon="21.515632717486">
        <ele>0</ele>
        <time>2017-06-17T10:52:46Z</time>
      </trkpt>
      <trkpt lat="60.111744429623" lon="21.515622491568">
        <ele>0</ele>
        <time>2017-06-17T10:52:47Z</time>
      </trkpt>
      <trkpt lat="60.111755912826" lon="21.5156164566">
        <ele>0</ele>
        <time>2017-06-17T10:52:48Z</time>
      </trkpt>
      <trkpt lat="60.111768401857" lon="21.515605643949">
        <ele>0</ele>
        <time>2017-06-17T10:52:49Z</time>
      </trkpt>
      <trkpt lat="60.111778711594" lon="21.515598770791">
        <ele>0</ele>
        <time>2017-06-17T10:52:50Z</time>
      </trkpt>
      <trkpt lat="60.111792625548" lon="21.515587371407">
        <ele>0</ele>
        <time>2017-06-17T10:52:51Z</time>
      </trkpt>
      <trkpt lat="60.111802097095" lon="21.515580749706">
        <ele>0</ele>
        <time>2017-06-17T10:52:52Z</time>
      </trkpt>
      <trkpt lat="60.111816849239" lon="21.515569098865">
        <ele>0</ele>
        <time>2017-06-17T10:52:53Z</time>
      </trkpt>
      <trkpt lat="60.111828332442" lon="21.515560046413">
        <ele>0</ele>
        <time>2017-06-17T10:52:54Z</time>
      </trkpt>
      <trkpt lat="60.111841240568" lon="21.515550071952">
        <ele>0</ele>
        <time>2017-06-17T10:52:55Z</time>
      </trkpt>
      <trkpt lat="60.111854316332" lon="21.515539259301">
        <ele>0</ele>
        <time>2017-06-17T10:52:56Z</time>
      </trkpt>
      <trkpt lat="60.111865128983" lon="21.515532386143">
        <ele>0</ele>
        <time>2017-06-17T10:52:57Z</time>
      </trkpt>
      <trkpt lat="60.111878037109" lon="21.515524088062">
        <ele>0</ele>
        <time>2017-06-17T10:52:58Z</time>
      </trkpt>
      <trkpt lat="60.111890693778" lon="21.51551838837">
        <ele>0</ele>
        <time>2017-06-17T10:52:59Z</time>
      </trkpt>
      <trkpt lat="60.111903434266" lon="21.515512269583">
        <ele>0</ele>
        <time>2017-06-17T10:53:00Z</time>
      </trkpt>
      <trkpt lat="60.111915336564" lon="21.515509335918">
        <ele>0</ele>
        <time>2017-06-17T10:53:01Z</time>
      </trkpt>
      <trkpt lat="60.11192908288" lon="21.515505228787">
        <ele>0</ele>
        <time>2017-06-17T10:53:02Z</time>
      </trkpt>
      <trkpt lat="60.111941404273" lon="21.515504474416">
        <ele>0</ele>
        <time>2017-06-17T10:53:03Z</time>
      </trkpt>
      <trkpt lat="60.111954899132" lon="21.515502546579">
        <ele>0</ele>
        <time>2017-06-17T10:53:04Z</time>
      </trkpt>
      <trkpt lat="60.111968142534" lon="21.515503552407">
        <ele>0</ele>
        <time>2017-06-17T10:53:05Z</time>
      </trkpt>
      <trkpt lat="60.111983900506" lon="21.515504474416">
        <ele>0</ele>
        <time>2017-06-17T10:53:06Z</time>
      </trkpt>
      <trkpt lat="60.111996892451" lon="21.515505731701">
        <ele>0</ele>
        <time>2017-06-17T10:53:07Z</time>
      </trkpt>
      <trkpt lat="60.112011309319" lon="21.515508162452">
        <ele>0</ele>
        <time>2017-06-17T10:53:08Z</time>
      </trkpt>
      <trkpt lat="60.112024887997" lon="21.515512018126">
        <ele>0</ele>
        <time>2017-06-17T10:53:09Z</time>
      </trkpt>
      <trkpt lat="60.112037041752" lon="21.515519980931">
        <ele>0</ele>
        <time>2017-06-17T10:53:10Z</time>
      </trkpt>
      <trkpt lat="60.112049530783" lon="21.515524507157">
        <ele>0</ele>
        <time>2017-06-17T10:53:11Z</time>
      </trkpt>
      <trkpt lat="60.112063528556" lon="21.515522998415">
        <ele>0</ele>
        <time>2017-06-17T10:53:12Z</time>
      </trkpt>
      <trkpt lat="60.112077107234" lon="21.515531715591">
        <ele>0</ele>
        <time>2017-06-17T10:53:13Z</time>
      </trkpt>
      <trkpt lat="60.112089763903" lon="21.515530458306">
        <ele>0</ele>
        <time>2017-06-17T10:53:14Z</time>
      </trkpt>
      <trkpt lat="60.112104432228" lon="21.515538840206">
        <ele>0</ele>
        <time>2017-06-17T10:53:15Z</time>
      </trkpt>
      <trkpt lat="60.112116083069" lon="21.515536074179">
        <ele>0</ele>
        <time>2017-06-17T10:53:16Z</time>
      </trkpt>
      <trkpt lat="60.112131338127" lon="21.515538588749">
        <ele>0</ele>
        <time>2017-06-17T10:53:17Z</time>
      </trkpt>
      <trkpt lat="60.112145252081" lon="21.51553179941">
        <ele>0</ele>
        <time>2017-06-17T10:53:18Z</time>
      </trkpt>
      <trkpt lat="60.112157992569" lon="21.515526434994">
        <ele>0</ele>
        <time>2017-06-17T10:53:19Z</time>
      </trkpt>
      <trkpt lat="60.11217131979" lon="21.51551671199">
        <ele>0</ele>
        <time>2017-06-17T10:53:20Z</time>
      </trkpt>
      <trkpt lat="60.112181964803" lon="21.515511850488">
        <ele>0</ele>
        <time>2017-06-17T10:53:21Z</time>
      </trkpt>
      <trkpt lat="60.112193196549" lon="21.51550162457">
        <ele>0</ele>
        <time>2017-06-17T10:53:22Z</time>
      </trkpt>
      <trkpt lat="60.112205937037" lon="21.515491985385">
        <ele>0</ele>
        <time>2017-06-17T10:53:23Z</time>
      </trkpt>
      <trkpt lat="60.112219767172" lon="21.515479580173">
        <ele>0</ele>
        <time>2017-06-17T10:53:24Z</time>
      </trkpt>
      <trkpt lat="60.112231753289" lon="21.51547144973">
        <ele>0</ele>
        <time>2017-06-17T10:53:25Z</time>
      </trkpt>
      <trkpt lat="60.112245164329" lon="21.515466085314">
        <ele>0</ele>
        <time>2017-06-17T10:53:26Z</time>
      </trkpt>
      <trkpt lat="60.112256647532" lon="21.515460385622">
        <ele>0</ele>
        <time>2017-06-17T10:53:27Z</time>
      </trkpt>
      <trkpt lat="60.112270142391" lon="21.515448399505">
        <ele>0</ele>
        <time>2017-06-17T10:53:28Z</time>
      </trkpt>
      <trkpt lat="60.112284391621" lon="21.515445549659">
        <ele>0</ele>
        <time>2017-06-17T10:53:29Z</time>
      </trkpt>
      <trkpt lat="60.112296042462" lon="21.515432222438">
        <ele>0</ele>
        <time>2017-06-17T10:53:30Z</time>
      </trkpt>
      <trkpt lat="60.112307860941" lon="21.515426355108">
        <ele>0</ele>
        <time>2017-06-17T10:53:31Z</time>
      </trkpt>
      <trkpt lat="60.112320014696" lon="21.515417302656">
        <ele>0</ele>
        <time>2017-06-17T10:53:32Z</time>
      </trkpt>
      <trkpt lat="60.112330659709" lon="21.515408920756">
        <ele>0</ele>
        <time>2017-06-17T10:53:33Z</time>
      </trkpt>
      <trkpt lat="60.112342059093" lon="21.515398694838">
        <ele>0</ele>
        <time>2017-06-17T10:53:34Z</time>
      </trkpt>
      <trkpt lat="60.112354799581" lon="21.515385535255">
        <ele>0</ele>
        <time>2017-06-17T10:53:35Z</time>
      </trkpt>
      <trkpt lat="60.112366282784" lon="21.515376147527">
        <ele>0</ele>
        <time>2017-06-17T10:53:36Z</time>
      </trkpt>
      <trkpt lat="60.112377430711" lon="21.515366005428">
        <ele>0</ele>
        <time>2017-06-17T10:53:37Z</time>
      </trkpt>
      <trkpt lat="60.112389919742" lon="21.515354689863">
        <ele>0</ele>
        <time>2017-06-17T10:53:38Z</time>
      </trkpt>
      <trkpt lat="60.112400648574" lon="21.515344631583">
        <ele>0</ele>
        <time>2017-06-17T10:53:39Z</time>
      </trkpt>
      <trkpt lat="60.112409198112" lon="21.51533566295">
        <ele>0</ele>
        <time>2017-06-17T10:53:40Z</time>
      </trkpt>
      <trkpt lat="60.112421351867" lon="21.515322922462">
        <ele>0</ele>
        <time>2017-06-17T10:53:41Z</time>
      </trkpt>
      <trkpt lat="60.112429147034" lon="21.515313953829">
        <ele>0</ele>
        <time>2017-06-17T10:53:42Z</time>
      </trkpt>
      <trkpt lat="60.112439372952" lon="21.515304398463">
        <ele>0</ele>
        <time>2017-06-17T10:53:43Z</time>
      </trkpt>
      <trkpt lat="60.112450101784" lon="21.515292328527">
        <ele>0</ele>
        <time>2017-06-17T10:53:44Z</time>
      </trkpt>
      <trkpt lat="60.112459740969" lon="21.515283946627">
        <ele>0</ele>
        <time>2017-06-17T10:53:45Z</time>
      </trkpt>
      <trkpt lat="60.112470637439" lon="21.515273301614">
        <ele>0</ele>
        <time>2017-06-17T10:53:46Z</time>
      </trkpt>
      <trkpt lat="60.112481701547" lon="21.51526609318">
        <ele>0</ele>
        <time>2017-06-17T10:53:47Z</time>
      </trkpt>
      <trkpt lat="60.112491592189" lon="21.515259220022">
        <ele>0</ele>
        <time>2017-06-17T10:53:48Z</time>
      </trkpt>
      <trkpt lat="60.112504248858" lon="21.515254777615">
        <ele>0</ele>
        <time>2017-06-17T10:53:49Z</time>
      </trkpt>
      <trkpt lat="60.112515564423" lon="21.515244719335">
        <ele>0</ele>
        <time>2017-06-17T10:53:50Z</time>
      </trkpt>
      <trkpt lat="60.112529562196" lon="21.515236169797">
        <ele>0</ele>
        <time>2017-06-17T10:53:51Z</time>
      </trkpt>
      <trkpt lat="60.112538949924" lon="21.515229464277">
        <ele>0</ele>
        <time>2017-06-17T10:53:52Z</time>
      </trkpt>
      <trkpt lat="60.112550349308" lon="21.515218232531">
        <ele>0</ele>
        <time>2017-06-17T10:53:53Z</time>
      </trkpt>
      <trkpt lat="60.112563844167" lon="21.515208174251">
        <ele>0</ele>
        <time>2017-06-17T10:53:54Z</time>
      </trkpt>
      <trkpt lat="60.112574572999" lon="21.515198870342">
        <ele>0</ele>
        <time>2017-06-17T10:53:55Z</time>
      </trkpt>
      <trkpt lat="60.112587648763" lon="21.515188895881">
        <ele>0</ele>
        <time>2017-06-17T10:53:56Z</time>
      </trkpt>
      <trkpt lat="60.112598209957" lon="21.515180346343">
        <ele>0</ele>
        <time>2017-06-17T10:53:57Z</time>
      </trkpt>
      <trkpt lat="60.112610447531" lon="21.515173389366">
        <ele>0</ele>
        <time>2017-06-17T10:53:58Z</time>
      </trkpt>
      <trkpt lat="60.112617655965" lon="21.515172802633">
        <ele>0</ele>
        <time>2017-06-17T10:53:59Z</time>
      </trkpt>
      <trkpt lat="60.112623523295" lon="21.515192248641">
        <ele>0</ele>
        <time>2017-06-17T10:54:00Z</time>
      </trkpt>
      <trkpt lat="60.112634587403" lon="21.515203564206">
        <ele>0</ele>
        <time>2017-06-17T10:54:01Z</time>
      </trkpt>
      <trkpt lat="60.112648668995" lon="21.515211275554">
        <ele>0</ele>
        <time>2017-06-17T10:54:02Z</time>
      </trkpt>
      <trkpt lat="60.112668198822" lon="21.5152141254">
        <ele>0</ele>
        <time>2017-06-17T10:54:03Z</time>
      </trkpt>
      <trkpt lat="60.112681861319" lon="21.515208928622">
        <ele>0</ele>
        <time>2017-06-17T10:54:04Z</time>
      </trkpt>
      <trkpt lat="60.112697535472" lon="21.515196271953">
        <ele>0</ele>
        <time>2017-06-17T10:54:05Z</time>
      </trkpt>
      <trkpt lat="60.112705498277" lon="21.515178586144">
        <ele>0</ele>
        <time>2017-06-17T10:54:06Z</time>
      </trkpt>
      <trkpt lat="60.112712371435" lon="21.515163834">
        <ele>0</ele>
        <time>2017-06-17T10:54:07Z</time>
      </trkpt>
      <trkpt lat="60.112721842982" lon="21.515143633621">
        <ele>0</ele>
        <time>2017-06-17T10:54:08Z</time>
      </trkpt>
      <trkpt lat="60.112732152719" lon="21.515127372735">
        <ele>0</ele>
        <time>2017-06-17T10:54:09Z</time>
      </trkpt>
      <trkpt lat="60.112741372809" lon="21.515111363306">
        <ele>0</ele>
        <time>2017-06-17T10:54:10Z</time>
      </trkpt>
      <trkpt lat="60.112753107469" lon="21.515096443524">
        <ele>0</ele>
        <time>2017-06-17T10:54:11Z</time>
      </trkpt>
      <trkpt lat="60.112764339215" lon="21.515081272285">
        <ele>0</ele>
        <time>2017-06-17T10:54:12Z</time>
      </trkpt>
      <trkpt lat="60.112777163522" lon="21.515065179037">
        <ele>0</ele>
        <time>2017-06-17T10:54:13Z</time>
      </trkpt>
      <trkpt lat="60.112789652553" lon="21.515048750513">
        <ele>0</ele>
        <time>2017-06-17T10:54:14Z</time>
      </trkpt>
      <trkpt lat="60.112802895955" lon="21.515032824903">
        <ele>0</ele>
        <time>2017-06-17T10:54:15Z</time>
      </trkpt>
      <trkpt lat="60.112815133529" lon="21.515016144922">
        <ele>0</ele>
        <time>2017-06-17T10:54:16Z</time>
      </trkpt>
      <trkpt lat="60.11282929894" lon="21.515002817701">
        <ele>0</ele>
        <time>2017-06-17T10:54:17Z</time>
      </trkpt>
      <trkpt lat="60.112843129075" lon="21.514991669774">
        <ele>0</ele>
        <time>2017-06-17T10:54:18Z</time>
      </trkpt>
      <trkpt lat="60.112858048857" lon="21.514978677829">
        <ele>0</ele>
        <time>2017-06-17T10:54:19Z</time>
      </trkpt>
      <trkpt lat="60.112872130449" lon="21.514966356436">
        <ele>0</ele>
        <time>2017-06-17T10:54:20Z</time>
      </trkpt>
      <trkpt lat="60.112887720783" lon="21.514952023387">
        <ele>0</ele>
        <time>2017-06-17T10:54:21Z</time>
      </trkpt>
      <trkpt lat="60.112897108511" lon="21.514940540184">
        <ele>0</ele>
        <time>2017-06-17T10:54:22Z</time>
      </trkpt>
      <trkpt lat="60.112911022465" lon="21.514929308438">
        <ele>0</ele>
        <time>2017-06-17T10:54:23Z</time>
      </trkpt>
      <trkpt lat="60.112926026066" lon="21.514920004529">
        <ele>0</ele>
        <time>2017-06-17T10:54:24Z</time>
      </trkpt>
      <trkpt lat="60.112936922536" lon="21.514903743643">
        <ele>0</ele>
        <time>2017-06-17T10:54:25Z</time>
      </trkpt>
      <trkpt lat="60.112949495386" lon="21.514890164965">
        <ele>0</ele>
        <time>2017-06-17T10:54:26Z</time>
      </trkpt>
      <trkpt lat="60.112959050752" lon="21.514874574631">
        <ele>0</ele>
        <time>2017-06-17T10:54:27Z</time>
      </trkpt>
      <trkpt lat="60.112967684109" lon="21.51485705646">
        <ele>0</ele>
        <time>2017-06-17T10:54:28Z</time>
      </trkpt>
      <trkpt lat="60.112975311638" lon="21.51483777809">
        <ele>0</ele>
        <time>2017-06-17T10:54:29Z</time>
      </trkpt>
      <trkpt lat="60.112983358262" lon="21.514819505548">
        <ele>0</ele>
        <time>2017-06-17T10:54:30Z</time>
      </trkpt>
      <trkpt lat="60.112990650515" lon="21.514799053712">
        <ele>0</ele>
        <time>2017-06-17T10:54:31Z</time>
      </trkpt>
      <trkpt lat="60.112997356035" lon="21.514785977948">
        <ele>0</ele>
        <time>2017-06-17T10:54:32Z</time>
      </trkpt>
      <trkpt lat="60.113006576125" lon="21.514766112845">
        <ele>0</ele>
        <time>2017-06-17T10:54:33Z</time>
      </trkpt>
      <trkpt lat="60.113010180342" lon="21.514748259398">
        <ele>0</ele>
        <time>2017-06-17T10:54:34Z</time>
      </trkpt>
      <trkpt lat="60.113020573898" lon="21.514723365155">
        <ele>0</ele>
        <time>2017-06-17T10:54:35Z</time>
      </trkpt>
      <trkpt lat="60.113024178115" lon="21.514703835328">
        <ele>0</ele>
        <time>2017-06-17T10:54:36Z</time>
      </trkpt>
      <trkpt lat="60.11302962635" lon="21.514679527818">
        <ele>0</ele>
        <time>2017-06-17T10:54:37Z</time>
      </trkpt>
      <trkpt lat="60.113032308558" lon="21.514658153973">
        <ele>0</ele>
        <time>2017-06-17T10:54:38Z</time>
      </trkpt>
      <trkpt lat="60.113034068757" lon="21.514635690481">
        <ele>0</ele>
        <time>2017-06-17T10:54:39Z</time>
      </trkpt>
      <trkpt lat="60.113034487852" lon="21.51461733412">
        <ele>0</ele>
        <time>2017-06-17T10:54:40Z</time>
      </trkpt>
      <trkpt lat="60.113034739309" lon="21.514591014954">
        <ele>0</ele>
        <time>2017-06-17T10:54:41Z</time>
      </trkpt>
      <trkpt lat="60.113035326042" lon="21.514571904222">
        <ele>0</ele>
        <time>2017-06-17T10:54:42Z</time>
      </trkpt>
      <trkpt lat="60.113034990766" lon="21.514544243952">
        <ele>0</ele>
        <time>2017-06-17T10:54:43Z</time>
      </trkpt>
      <trkpt lat="60.113035074585" lon="21.514521277546">
        <ele>0</ele>
        <time>2017-06-17T10:54:44Z</time>
      </trkpt>
      <trkpt lat="60.113035409861" lon="21.514494287828">
        <ele>0</ele>
        <time>2017-06-17T10:54:45Z</time>
      </trkpt>
      <trkpt lat="60.11303549368" lon="21.514472913983">
        <ele>0</ele>
        <time>2017-06-17T10:54:46Z</time>
      </trkpt>
      <trkpt lat="60.113036080413" lon="21.514445672808">
        <ele>0</ele>
        <time>2017-06-17T10:54:47Z</time>
      </trkpt>
      <trkpt lat="60.113037253879" lon="21.51441952128">
        <ele>0</ele>
        <time>2017-06-17T10:54:48Z</time>
      </trkpt>
      <trkpt lat="60.113038594983" lon="21.514395716684">
        <ele>0</ele>
        <time>2017-06-17T10:54:49Z</time>
      </trkpt>
      <trkpt lat="60.113039181716" lon="21.514367385862">
        <ele>0</ele>
        <time>2017-06-17T10:54:50Z</time>
      </trkpt>
      <trkpt lat="60.11304136101" lon="21.514343497447">
        <ele>0</ele>
        <time>2017-06-17T10:54:51Z</time>
      </trkpt>
      <trkpt lat="60.113041696286" lon="21.514318351747">
        <ele>0</ele>
        <time>2017-06-17T10:54:52Z</time>
      </trkpt>
      <trkpt lat="60.113043707942" lon="21.514291781124">
        <ele>0</ele>
        <time>2017-06-17T10:54:53Z</time>
      </trkpt>
      <trkpt lat="60.113044881408" lon="21.514260851913">
        <ele>0</ele>
        <time>2017-06-17T10:54:54Z</time>
      </trkpt>
      <trkpt lat="60.113046976883" lon="21.514240735353">
        <ele>0</ele>
        <time>2017-06-17T10:54:55Z</time>
      </trkpt>
      <trkpt lat="60.113048317987" lon="21.514207543029">
        <ele>0</ele>
        <time>2017-06-17T10:54:56Z</time>
      </trkpt>
      <trkpt lat="60.113050162005" lon="21.514187845564">
        <ele>0</ele>
        <time>2017-06-17T10:54:57Z</time>
      </trkpt>
      <trkpt lat="60.113051838385" lon="21.514156832534">
        <ele>0</ele>
        <time>2017-06-17T10:54:58Z</time>
      </trkpt>
      <trkpt lat="60.113053682403" lon="21.514132273567">
        <ele>0</ele>
        <time>2017-06-17T10:54:59Z</time>
      </trkpt>
      <trkpt lat="60.113055274964" lon="21.514102098727">
        <ele>0</ele>
        <time>2017-06-17T10:55:00Z</time>
      </trkpt>
      <trkpt lat="60.113056783706" lon="21.514078126493">
        <ele>0</ele>
        <time>2017-06-17T10:55:01Z</time>
      </trkpt>
      <trkpt lat="60.113057873353" lon="21.514051220594">
        <ele>0</ele>
        <time>2017-06-17T10:55:02Z</time>
      </trkpt>
      <trkpt lat="60.113058460086" lon="21.514023644143">
        <ele>0</ele>
        <time>2017-06-17T10:55:03Z</time>
      </trkpt>
      <trkpt lat="60.113059382095" lon="21.513999420452">
        <ele>0</ele>
        <time>2017-06-17T10:55:04Z</time>
      </trkpt>
      <trkpt lat="60.11305980119" lon="21.513968155965">
        <ele>0</ele>
        <time>2017-06-17T10:55:05Z</time>
      </trkpt>
      <trkpt lat="60.113061812846" lon="21.513942088256">
        <ele>0</ele>
        <time>2017-06-17T10:55:06Z</time>
      </trkpt>
      <trkpt lat="60.113061980484" lon="21.513914176529">
        <ele>0</ele>
        <time>2017-06-17T10:55:07Z</time>
      </trkpt>
      <trkpt lat="60.113064159778" lon="21.513888276458">
        <ele>0</ele>
        <time>2017-06-17T10:55:08Z</time>
      </trkpt>
      <trkpt lat="60.113065081787" lon="21.513856844333">
        <ele>0</ele>
        <time>2017-06-17T10:55:09Z</time>
      </trkpt>
      <trkpt lat="60.113066841986" lon="21.51383530285">
        <ele>0</ele>
        <time>2017-06-17T10:55:10Z</time>
      </trkpt>
      <trkpt lat="60.113069691832" lon="21.513803870725">
        <ele>0</ele>
        <time>2017-06-17T10:55:11Z</time>
      </trkpt>
      <trkpt lat="60.113071452031" lon="21.513782915975">
        <ele>0</ele>
        <time>2017-06-17T10:55:12Z</time>
      </trkpt>
      <trkpt lat="60.1130757268" lon="21.513751819126">
        <ele>0</ele>
        <time>2017-06-17T10:55:13Z</time>
      </trkpt>
      <trkpt lat="60.113078911922" lon="21.513727846892">
        <ele>0</ele>
        <time>2017-06-17T10:55:14Z</time>
      </trkpt>
      <trkpt lat="60.113084276338" lon="21.513702365916">
        <ele>0</ele>
        <time>2017-06-17T10:55:15Z</time>
      </trkpt>
      <trkpt lat="60.113089221659" lon="21.513677387854">
        <ele>0</ele>
        <time>2017-06-17T10:55:16Z</time>
      </trkpt>
      <trkpt lat="60.113095675722" lon="21.513655846371">
        <ele>0</ele>
        <time>2017-06-17T10:55:17Z</time>
      </trkpt>
      <trkpt lat="60.113103722346" lon="21.513629024291">
        <ele>0</ele>
        <time>2017-06-17T10:55:18Z</time>
      </trkpt>
      <trkpt lat="60.113111349875" lon="21.513612009034">
        <ele>0</ele>
        <time>2017-06-17T10:55:19Z</time>
      </trkpt>
      <trkpt lat="60.113122916897" lon="21.513588958809">
        <ele>0</ele>
        <time>2017-06-17T10:55:20Z</time>
      </trkpt>
      <trkpt lat="60.113131801711" lon="21.513574122846">
        <ele>0</ele>
        <time>2017-06-17T10:55:21Z</time>
      </trkpt>
      <trkpt lat="60.113143033457" lon="21.513558364874">
        <ele>0</ele>
        <time>2017-06-17T10:55:22Z</time>
      </trkpt>
      <trkpt lat="60.113155606307" lon="21.513543445092">
        <ele>0</ele>
        <time>2017-06-17T10:55:23Z</time>
      </trkpt>
      <trkpt lat="60.113166502777" lon="21.513536236658">
        <ele>0</ele>
        <time>2017-06-17T10:55:24Z</time>
      </trkpt>
      <trkpt lat="60.113178740351" lon="21.513528441491">
        <ele>0</ele>
        <time>2017-06-17T10:55:25Z</time>
      </trkpt>
      <trkpt lat="60.113192905762" lon="21.513517796478">
        <ele>0</ele>
        <time>2017-06-17T10:55:26Z</time>
      </trkpt>
      <trkpt lat="60.113203466956" lon="21.513513856985">
        <ele>0</ele>
        <time>2017-06-17T10:55:27Z</time>
      </trkpt>
      <trkpt lat="60.113215788349" lon="21.513508576388">
        <ele>0</ele>
        <time>2017-06-17T10:55:28Z</time>
      </trkpt>
      <trkpt lat="60.113229534665" lon="21.513503547248">
        <ele>0</ele>
        <time>2017-06-17T10:55:29Z</time>
      </trkpt>
      <trkpt lat="60.113244286809" lon="21.513493740425">
        <ele>0</ele>
        <time>2017-06-17T10:55:30Z</time>
      </trkpt>
      <trkpt lat="60.113257362573" lon="21.513489298018">
        <ele>0</ele>
        <time>2017-06-17T10:55:31Z</time>
      </trkpt>
      <trkpt lat="60.113268678138" lon="21.513479491195">
        <ele>0</ele>
        <time>2017-06-17T10:55:32Z</time>
      </trkpt>
      <trkpt lat="60.113281753902" lon="21.513465493422">
        <ele>0</ele>
        <time>2017-06-17T10:55:33Z</time>
      </trkpt>
      <trkpt lat="60.113290638716" lon="21.513454345495">
        <ele>0</ele>
        <time>2017-06-17T10:55:34Z</time>
      </trkpt>
      <trkpt lat="60.113303630661" lon="21.513442275559">
        <ele>0</ele>
        <time>2017-06-17T10:55:35Z</time>
      </trkpt>
      <trkpt lat="60.113314694769" lon="21.513427439596">
        <ele>0</ele>
        <time>2017-06-17T10:55:36Z</time>
      </trkpt>
      <trkpt lat="60.113325088325" lon="21.513415034384">
        <ele>0</ele>
        <time>2017-06-17T10:55:37Z</time>
      </trkpt>
      <trkpt lat="60.113337744994" lon="21.513398186765">
        <ele>0</ele>
        <time>2017-06-17T10:55:38Z</time>
      </trkpt>
      <trkpt lat="60.113349731111" lon="21.513385446277">
        <ele>0</ele>
        <time>2017-06-17T10:55:39Z</time>
      </trkpt>
      <trkpt lat="60.113361046676" lon="21.513371113228">
        <ele>0</ele>
        <time>2017-06-17T10:55:40Z</time>
      </trkpt>
      <trkpt lat="60.113374792992" lon="21.513358288921">
        <ele>0</ele>
        <time>2017-06-17T10:55:41Z</time>
      </trkpt>
      <trkpt lat="60.113385521824" lon="21.51334663808">
        <ele>0</ele>
        <time>2017-06-17T10:55:42Z</time>
      </trkpt>
      <trkpt lat="60.11340010633" lon="21.513335154877">
        <ele>0</ele>
        <time>2017-06-17T10:55:43Z</time>
      </trkpt>
      <trkpt lat="60.113413433551" lon="21.513326186244">
        <ele>0</ele>
        <time>2017-06-17T10:55:44Z</time>
      </trkpt>
      <trkpt lat="60.113427934238" lon="21.513320402733">
        <ele>0</ele>
        <time>2017-06-17T10:55:45Z</time>
      </trkpt>
      <trkpt lat="60.113441429097" lon="21.513316630878">
        <ele>0</ele>
        <time>2017-06-17T10:55:46Z</time>
      </trkpt>
      <trkpt lat="60.113456935612" lon="21.513315205955">
        <ele>0</ele>
        <time>2017-06-17T10:55:47Z</time>
      </trkpt>
      <trkpt lat="60.113472609765" lon="21.513315960326">
        <ele>0</ele>
        <time>2017-06-17T10:55:48Z</time>
      </trkpt>
      <trkpt lat="60.1134864399" lon="21.513319229267">
        <ele>0</ele>
        <time>2017-06-17T10:55:49Z</time>
      </trkpt>
      <trkpt lat="60.113501611139" lon="21.513324509864">
        <ele>0</ele>
        <time>2017-06-17T10:55:50Z</time>
      </trkpt>
      <trkpt lat="60.113517117654" lon="21.513332975583">
        <ele>0</ele>
        <time>2017-06-17T10:55:51Z</time>
      </trkpt>
      <trkpt lat="60.113528265581" lon="21.51333993256">
        <ele>0</ele>
        <time>2017-06-17T10:55:52Z</time>
      </trkpt>
      <trkpt lat="60.113544526467" lon="21.513354600885">
        <ele>0</ele>
        <time>2017-06-17T10:55:53Z</time>
      </trkpt>
      <trkpt lat="60.113557518412" lon="21.513367509011">
        <ele>0</ele>
        <time>2017-06-17T10:55:54Z</time>
      </trkpt>
      <trkpt lat="60.113572102918" lon="21.513386116829">
        <ele>0</ele>
        <time>2017-06-17T10:55:55Z</time>
      </trkpt>
      <trkpt lat="60.113582664112" lon="21.513401455706">
        <ele>0</ele>
        <time>2017-06-17T10:55:56Z</time>
      </trkpt>
      <trkpt lat="60.113594314953" lon="21.513422578094">
        <ele>0</ele>
        <time>2017-06-17T10:55:57Z</time>
      </trkpt>
      <trkpt lat="60.113603535043" lon="21.513440096265">
        <ele>0</ele>
        <time>2017-06-17T10:55:58Z</time>
      </trkpt>
      <trkpt lat="60.113614431513" lon="21.51346733744">
        <ele>0</ele>
        <time>2017-06-17T10:55:59Z</time>
      </trkpt>
      <trkpt lat="60.113622142861" lon="21.513486699629">
        <ele>0</ele>
        <time>2017-06-17T10:56:00Z</time>
      </trkpt>
      <trkpt lat="60.11363144677" lon="21.513515701003">
        <ele>0</ele>
        <time>2017-06-17T10:56:01Z</time>
      </trkpt>
      <trkpt lat="60.113636978824" lon="21.513535817563">
        <ele>0</ele>
        <time>2017-06-17T10:56:02Z</time>
      </trkpt>
      <trkpt lat="60.11364401962" lon="21.513569177525">
        <ele>0</ele>
        <time>2017-06-17T10:56:03Z</time>
      </trkpt>
      <trkpt lat="60.113647456199" lon="21.513588539714">
        <ele>0</ele>
        <time>2017-06-17T10:56:04Z</time>
      </trkpt>
      <trkpt lat="60.113652233882" lon="21.513624246608">
        <ele>0</ele>
        <time>2017-06-17T10:56:05Z</time>
      </trkpt>
      <trkpt lat="60.113654664633" lon="21.513647632109">
        <ele>0</ele>
        <time>2017-06-17T10:56:06Z</time>
      </trkpt>
      <trkpt lat="60.11365659247" lon="21.513678645139">
        <ele>0</ele>
        <time>2017-06-17T10:56:07Z</time>
      </trkpt>
      <trkpt lat="60.113657514479" lon="21.513704796667">
        <ele>0</ele>
        <time>2017-06-17T10:56:08Z</time>
      </trkpt>
      <trkpt lat="60.113657263022" lon="21.513738743362">
        <ele>0</ele>
        <time>2017-06-17T10:56:09Z</time>
      </trkpt>
      <trkpt lat="60.113656424832" lon="21.513761374492">
        <ele>0</ele>
        <time>2017-06-17T10:56:10Z</time>
      </trkpt>
      <trkpt lat="60.113654580814" lon="21.513795237368">
        <ele>0</ele>
        <time>2017-06-17T10:56:11Z</time>
      </trkpt>
      <trkpt lat="60.113652317701" lon="21.51381770086">
        <ele>0</ele>
        <time>2017-06-17T10:56:12Z</time>
      </trkpt>
      <trkpt lat="60.113647875294" lon="21.513850557908">
        <ele>0</ele>
        <time>2017-06-17T10:56:13Z</time>
      </trkpt>
      <trkpt lat="60.113644187258" lon="21.513873272857">
        <ele>0</ele>
        <time>2017-06-17T10:56:14Z</time>
      </trkpt>
      <trkpt lat="60.113637817014" lon="21.513901352222">
        <ele>0</ele>
        <time>2017-06-17T10:56:15Z</time>
      </trkpt>
      <trkpt lat="60.113632536417" lon="21.513921133506">
        <ele>0</ele>
        <time>2017-06-17T10:56:16Z</time>
      </trkpt>
      <trkpt lat="60.113624489793" lon="21.513943345541">
        <ele>0</ele>
        <time>2017-06-17T10:56:17Z</time>
      </trkpt>
      <trkpt lat="60.113616610807" lon="21.51397108963">
        <ele>0</ele>
        <time>2017-06-17T10:56:18Z</time>
      </trkpt>
      <trkpt lat="60.113611916943" lon="21.513986596145">
        <ele>0</ele>
        <time>2017-06-17T10:56:19Z</time>
      </trkpt>
      <trkpt lat="60.113602780672" lon="21.514011155112">
        <ele>0</ele>
        <time>2017-06-17T10:56:20Z</time>
      </trkpt>
      <trkpt lat="60.113596158971" lon="21.514027835093">
        <ele>0</ele>
        <time>2017-06-17T10:56:21Z</time>
      </trkpt>
      <trkpt lat="60.113587525614" lon="21.514039988848">
        <ele>0</ele>
        <time>2017-06-17T10:56:22Z</time>
      </trkpt>
      <trkpt lat="60.113573108746" lon="21.514056333553">
        <ele>0</ele>
        <time>2017-06-17T10:56:23Z</time>
      </trkpt>
      <trkpt lat="60.113565984131" lon="21.514075611923">
        <ele>0</ele>
        <time>2017-06-17T10:56:24Z</time>
      </trkpt>
      <trkpt lat="60.113553830376" lon="21.514086927488">
        <ele>0</ele>
        <time>2017-06-17T10:56:25Z</time>
      </trkpt>
      <trkpt lat="60.113544358829" lon="21.514102266365">
        <ele>0</ele>
        <time>2017-06-17T10:56:26Z</time>
      </trkpt>
      <trkpt lat="60.113536228386" lon="21.514119281622">
        <ele>0</ele>
        <time>2017-06-17T10:56:27Z</time>
      </trkpt>
      <trkpt lat="60.113528936133" lon="21.514133111757">
        <ele>0</ele>
        <time>2017-06-17T10:56:28Z</time>
      </trkpt>
      <trkpt lat="60.113519296948" lon="21.514152809222">
        <ele>0</ele>
        <time>2017-06-17T10:56:29Z</time>
      </trkpt>
      <trkpt lat="60.113510579772" lon="21.514169237746">
        <ele>0</ele>
        <time>2017-06-17T10:56:30Z</time>
      </trkpt>
      <trkpt lat="60.113500521492" lon="21.514190946867">
        <ele>0</ele>
        <time>2017-06-17T10:56:31Z</time>
      </trkpt>
      <trkpt lat="60.113494235067" lon="21.514206788658">
        <ele>0</ele>
        <time>2017-06-17T10:56:32Z</time>
      </trkpt>
      <trkpt lat="60.113484260606" lon="21.514231347625">
        <ele>0</ele>
        <time>2017-06-17T10:56:33Z</time>
      </trkpt>
      <trkpt lat="60.113477890362" lon="21.514246770321">
        <ele>0</ele>
        <time>2017-06-17T10:56:34Z</time>
      </trkpt>
      <trkpt lat="60.113466826254" lon="21.514273424763">
        <ele>0</ele>
        <time>2017-06-17T10:56:35Z</time>
      </trkpt>
      <trkpt lat="60.113459282544" lon="21.514292200219">
        <ele>0</ele>
        <time>2017-06-17T10:56:36Z</time>
      </trkpt>
      <trkpt lat="60.113449056626" lon="21.514313490245">
        <ele>0</ele>
        <time>2017-06-17T10:56:37Z</time>
      </trkpt>
      <trkpt lat="60.113439165984" lon="21.51433318771">
        <ele>0</ele>
        <time>2017-06-17T10:56:38Z</time>
      </trkpt>
      <trkpt lat="60.113427012229" lon="21.514354729193">
        <ele>0</ele>
        <time>2017-06-17T10:56:39Z</time>
      </trkpt>
      <trkpt lat="60.113417875958" lon="21.514371995907">
        <ele>0</ele>
        <time>2017-06-17T10:56:40Z</time>
      </trkpt>
      <trkpt lat="60.113405638384" lon="21.514391777191">
        <ele>0</ele>
        <time>2017-06-17T10:56:41Z</time>
      </trkpt>
      <trkpt lat="60.113395747742" lon="21.514408960086">
        <ele>0</ele>
        <time>2017-06-17T10:56:42Z</time>
      </trkpt>
      <trkpt lat="60.113383929263" lon="21.51442538861">
        <ele>0</ele>
        <time>2017-06-17T10:56:43Z</time>
      </trkpt>
      <trkpt lat="60.113371691689" lon="21.514445086075">
        <ele>0</ele>
        <time>2017-06-17T10:56:44Z</time>
      </trkpt>
      <trkpt lat="60.113361046676" lon="21.514458245658">
        <ele>0</ele>
        <time>2017-06-17T10:56:45Z</time>
      </trkpt>
      <trkpt lat="60.113347887093" lon="21.514475847648">
        <ele>0</ele>
        <time>2017-06-17T10:56:46Z</time>
      </trkpt>
      <trkpt lat="60.113337074442" lon="21.51448992924">
        <ele>0</ele>
        <time>2017-06-17T10:56:47Z</time>
      </trkpt>
      <trkpt lat="60.113322322298" lon="21.514507279773">
        <ele>0</ele>
        <time>2017-06-17T10:56:48Z</time>
      </trkpt>
      <trkpt lat="60.113312766932" lon="21.514518846795">
        <ele>0</ele>
        <time>2017-06-17T10:56:49Z</time>
      </trkpt>
      <trkpt lat="60.113299188254" lon="21.514533263663">
        <ele>0</ele>
        <time>2017-06-17T10:56:50Z</time>
      </trkpt>
      <trkpt lat="60.113286196309" lon="21.514543908676">
        <ele>0</ele>
        <time>2017-06-17T10:56:51Z</time>
      </trkpt>
      <trkpt lat="60.113273372002" lon="21.514558325544">
        <ele>0</ele>
        <time>2017-06-17T10:56:52Z</time>
      </trkpt>
      <trkpt lat="60.113257530211" lon="21.51457542462">
        <ele>0</ele>
        <time>2017-06-17T10:56:53Z</time>
      </trkpt>
      <trkpt lat="60.113246382284" lon="21.51458632109">
        <ele>0</ele>
        <time>2017-06-17T10:56:54Z</time>
      </trkpt>
      <trkpt lat="60.113235066719" lon="21.514603420166">
        <ele>0</ele>
        <time>2017-06-17T10:56:55Z</time>
      </trkpt>
      <trkpt lat="60.113226936276" lon="21.514615573921">
        <ele>0</ele>
        <time>2017-06-17T10:56:56Z</time>
      </trkpt>
      <trkpt lat="60.11321486634" lon="21.514632170083">
        <ele>0</ele>
        <time>2017-06-17T10:56:57Z</time>
      </trkpt>
      <trkpt lat="60.113205478612" lon="21.514645916399">
        <ele>0</ele>
        <time>2017-06-17T10:56:58Z</time>
      </trkpt>
      <trkpt lat="60.113192989581" lon="21.514663015475">
        <ele>0</ele>
        <time>2017-06-17T10:56:59Z</time>
      </trkpt>
      <trkpt lat="60.113182344568" lon="21.514679611637">
        <ele>0</ele>
        <time>2017-06-17T10:57:00Z</time>
      </trkpt>
      <trkpt lat="60.113171448098" lon="21.514692687401">
        <ele>0</ele>
        <time>2017-06-17T10:57:01Z</time>
      </trkpt>
      <trkpt lat="60.11316038399" lon="21.514708529192">
        <ele>0</ele>
        <time>2017-06-17T10:57:02Z</time>
      </trkpt>
      <trkpt lat="60.113147643502" lon="21.514722191689">
        <ele>0</ele>
        <time>2017-06-17T10:57:03Z</time>
      </trkpt>
      <trkpt lat="60.113135908842" lon="21.514733339616">
        <ele>0</ele>
        <time>2017-06-17T10:57:04Z</time>
      </trkpt>
      <trkpt lat="60.113123838906" lon="21.514739961317">
        <ele>0</ele>
        <time>2017-06-17T10:57:05Z</time>
      </trkpt>
      <trkpt lat="60.113109841133" lon="21.514753037081">
        <ele>0</ele>
        <time>2017-06-17T10:57:06Z</time>
      </trkpt>
      <trkpt lat="60.113096430093" lon="21.514766951035">
        <ele>0</ele>
        <time>2017-06-17T10:57:07Z</time>
      </trkpt>
      <trkpt lat="60.113084611614" lon="21.514778182781">
        <ele>0</ele>
        <time>2017-06-17T10:57:08Z</time>
      </trkpt>
      <trkpt lat="60.113073715144" lon="21.51479419221">
        <ele>0</ele>
        <time>2017-06-17T10:57:09Z</time>
      </trkpt>
      <trkpt lat="60.113064997968" lon="21.5148034123">
        <ele>0</ele>
        <time>2017-06-17T10:57:10Z</time>
      </trkpt>
      <trkpt lat="60.113053347127" lon="21.514822187756">
        <ele>0</ele>
        <time>2017-06-17T10:57:11Z</time>
      </trkpt>
      <trkpt lat="60.113045384322" lon="21.514834090054">
        <ele>0</ele>
        <time>2017-06-17T10:57:12Z</time>
      </trkpt>
      <trkpt lat="60.113033146748" lon="21.514856134451">
        <ele>0</ele>
        <time>2017-06-17T10:57:13Z</time>
      </trkpt>
      <trkpt lat="60.11302459721" lon="21.514869461672">
        <ele>0</ele>
        <time>2017-06-17T10:57:14Z</time>
      </trkpt>
      <trkpt lat="60.113011437627" lon="21.514892176621">
        <ele>0</ele>
        <time>2017-06-17T10:57:15Z</time>
      </trkpt>
      <trkpt lat="60.113003055727" lon="21.514905922937">
        <ele>0</ele>
        <time>2017-06-17T10:57:16Z</time>
      </trkpt>
      <trkpt lat="60.112989309411" lon="21.514925536583">
        <ele>0</ele>
        <time>2017-06-17T10:57:17Z</time>
      </trkpt>
      <trkpt lat="60.112978580579" lon="21.514939701994">
        <ele>0</ele>
        <time>2017-06-17T10:57:18Z</time>
      </trkpt>
      <trkpt lat="60.112965169539" lon="21.514955040871">
        <ele>0</ele>
        <time>2017-06-17T10:57:19Z</time>
      </trkpt>
      <trkpt lat="60.112953267241" lon="21.514965350608">
        <ele>0</ele>
        <time>2017-06-17T10:57:20Z</time>
      </trkpt>
      <trkpt lat="60.112941951676" lon="21.51497188849">
        <ele>0</ele>
        <time>2017-06-17T10:57:21Z</time>
      </trkpt>
      <trkpt lat="60.112928792093" lon="21.514976414716">
        <ele>0</ele>
        <time>2017-06-17T10:57:22Z</time>
      </trkpt>
      <trkpt lat="60.112916051605" lon="21.514986053901">
        <ele>0</ele>
        <time>2017-06-17T10:57:23Z</time>
      </trkpt>
      <trkpt lat="60.112901634737" lon="21.514993429973">
        <ele>0</ele>
        <time>2017-06-17T10:57:24Z</time>
      </trkpt>
      <trkpt lat="60.112888475154" lon="21.515001392778">
        <ele>0</ele>
        <time>2017-06-17T10:57:25Z</time>
      </trkpt>
      <trkpt lat="60.112878584512" lon="21.515010277592">
        <ele>0</ele>
        <time>2017-06-17T10:57:26Z</time>
      </trkpt>
      <trkpt lat="60.112865676386" lon="21.515018491854">
        <ele>0</ele>
        <time>2017-06-17T10:57:27Z</time>
      </trkpt>
      <trkpt lat="60.112854277002" lon="21.515026789935">
        <ele>0</ele>
        <time>2017-06-17T10:57:28Z</time>
      </trkpt>
      <trkpt lat="60.112840782143" lon="21.51503475274">
        <ele>0</ele>
        <time>2017-06-17T10:57:29Z</time>
      </trkpt>
      <trkpt lat="60.112828041655" lon="21.515038859871">
        <ele>0</ele>
        <time>2017-06-17T10:57:30Z</time>
      </trkpt>
      <trkpt lat="60.11281421152" lon="21.515051600359">
        <ele>0</ele>
        <time>2017-06-17T10:57:31Z</time>
      </trkpt>
      <trkpt lat="60.112803398869" lon="21.515066436322">
        <ele>0</ele>
        <time>2017-06-17T10:57:32Z</time>
      </trkpt>
      <trkpt lat="60.112794597874" lon="21.515074063851">
        <ele>0</ele>
        <time>2017-06-17T10:57:33Z</time>
      </trkpt>
      <trkpt lat="60.112783282309" lon="21.51508672052">
        <ele>0</ele>
        <time>2017-06-17T10:57:34Z</time>
      </trkpt>
      <trkpt lat="60.112771799106" lon="21.515099041913">
        <ele>0</ele>
        <time>2017-06-17T10:57:35Z</time>
      </trkpt>
      <trkpt lat="60.112758220428" lon="21.515113961695">
        <ele>0</ele>
        <time>2017-06-17T10:57:36Z</time>
      </trkpt>
      <trkpt lat="60.112747826872" lon="21.515122175957">
        <ele>0</ele>
        <time>2017-06-17T10:57:37Z</time>
      </trkpt>
      <trkpt lat="60.112735840755" lon="21.515128127106">
        <ele>0</ele>
        <time>2017-06-17T10:57:38Z</time>
      </trkpt>
      <trkpt lat="60.112722932629" lon="21.515135251721">
        <ele>0</ele>
        <time>2017-06-17T10:57:39Z</time>
      </trkpt>
      <trkpt lat="60.112714047815" lon="21.515140532318">
        <ele>0</ele>
        <time>2017-06-17T10:57:40Z</time>
      </trkpt>
      <trkpt lat="60.112701726422" lon="21.515150339141">
        <ele>0</ele>
        <time>2017-06-17T10:57:41Z</time>
      </trkpt>
      <trkpt lat="60.112689656486" lon="21.515157799032">
        <ele>0</ele>
        <time>2017-06-17T10:57:42Z</time>
      </trkpt>
      <trkpt lat="60.112677670369" lon="21.515168527864">
        <ele>0</ele>
        <time>2017-06-17T10:57:43Z</time>
      </trkpt>
      <trkpt lat="60.112667863546" lon="21.515178418506">
        <ele>0</ele>
        <time>2017-06-17T10:57:44Z</time>
      </trkpt>
      <trkpt lat="60.112658727275" lon="21.515189650252">
        <ele>0</ele>
        <time>2017-06-17T10:57:45Z</time>
      </trkpt>
      <trkpt lat="60.112648585176" lon="21.515197696876">
        <ele>0</ele>
        <time>2017-06-17T10:57:46Z</time>
      </trkpt>
      <trkpt lat="60.112639616543" lon="21.515208174251">
        <ele>0</ele>
        <time>2017-06-17T10:57:47Z</time>
      </trkpt>
      <trkpt lat="60.112627630426" lon="21.515221585291">
        <ele>0</ele>
        <time>2017-06-17T10:57:48Z</time>
      </trkpt>
      <trkpt lat="60.112620086716" lon="21.515233068494">
        <ele>0</ele>
        <time>2017-06-17T10:57:49Z</time>
      </trkpt>
      <trkpt lat="60.112612878282" lon="21.515250083751">
        <ele>0</ele>
        <time>2017-06-17T10:57:50Z</time>
      </trkpt>
      <trkpt lat="60.112606591857" lon="21.515260812583">
        <ele>0</ele>
        <time>2017-06-17T10:57:51Z</time>
      </trkpt>
      <trkpt lat="60.112599048147" lon="21.515274810356">
        <ele>0</ele>
        <time>2017-06-17T10:57:52Z</time>
      </trkpt>
      <trkpt lat="60.112592007351" lon="21.515289981595">
        <ele>0</ele>
        <time>2017-06-17T10:57:53Z</time>
      </trkpt>
      <trkpt lat="60.112586056202" lon="21.515304398463">
        <ele>0</ele>
        <time>2017-06-17T10:57:54Z</time>
      </trkpt>
      <trkpt lat="60.112579685958" lon="21.515318815331">
        <ele>0</ele>
        <time>2017-06-17T10:57:55Z</time>
      </trkpt>
      <trkpt lat="60.112572561343" lon="21.51533231019">
        <ele>0</ele>
        <time>2017-06-17T10:57:56Z</time>
      </trkpt>
      <trkpt lat="60.112568538031" lon="21.515342955203">
        <ele>0</ele>
        <time>2017-06-17T10:57:57Z</time>
      </trkpt>
      <trkpt lat="60.112560323769" lon="21.515360138098">
        <ele>0</ele>
        <time>2017-06-17T10:57:58Z</time>
      </trkpt>
      <trkpt lat="60.112554456439" lon="21.515374303509">
        <ele>0</ele>
        <time>2017-06-17T10:57:59Z</time>
      </trkpt>
      <trkpt lat="60.112543727607" lon="21.515391318766">
        <ele>0</ele>
        <time>2017-06-17T10:58:00Z</time>
      </trkpt>
      <trkpt lat="60.112536938268" lon="21.515400874132">
        <ele>0</ele>
        <time>2017-06-17T10:58:01Z</time>
      </trkpt>
      <trkpt lat="60.112525622703" lon="21.515413530801">
        <ele>0</ele>
        <time>2017-06-17T10:58:02Z</time>
      </trkpt>
      <trkpt lat="60.112516151156" lon="21.515422918529">
        <ele>0</ele>
        <time>2017-06-17T10:58:03Z</time>
      </trkpt>
      <trkpt lat="60.112505673781" lon="21.515431887162">
        <ele>0</ele>
        <time>2017-06-17T10:58:04Z</time>
      </trkpt>
      <trkpt lat="60.112493687664" lon="21.51543792213">
        <ele>0</ele>
        <time>2017-06-17T10:58:05Z</time>
      </trkpt>
      <trkpt lat="60.112484299936" lon="21.515442029261">
        <ele>0</ele>
        <time>2017-06-17T10:58:06Z</time>
      </trkpt>
      <trkpt lat="60.112472984371" lon="21.5154404367">
        <ele>0</ele>
        <time>2017-06-17T10:58:07Z</time>
      </trkpt>
      <trkpt lat="60.112461584987" lon="21.515446890763">
        <ele>0</ele>
        <time>2017-06-17T10:58:08Z</time>
      </trkpt>
      <trkpt lat="60.112448006309" lon="21.515445382021">
        <ele>0</ele>
        <time>2017-06-17T10:58:09Z</time>
      </trkpt>
      <trkpt lat="60.112437948029" lon="21.515448315686">
        <ele>0</ele>
        <time>2017-06-17T10:58:10Z</time>
      </trkpt>
      <trkpt lat="60.11242277679" lon="21.515451249351">
        <ele>0</ele>
        <time>2017-06-17T10:58:11Z</time>
      </trkpt>
      <trkpt lat="60.112412886148" lon="21.515451836084">
        <ele>0</ele>
        <time>2017-06-17T10:58:12Z</time>
      </trkpt>
      <trkpt lat="60.11239930747" lon="21.51545552412">
        <ele>0</ele>
        <time>2017-06-17T10:58:13Z</time>
      </trkpt>
      <trkpt lat="60.112387237534" lon="21.515461223812">
        <ele>0</ele>
        <time>2017-06-17T10:58:14Z</time>
      </trkpt>
      <trkpt lat="60.112375921969" lon="21.515470779178">
        <ele>0</ele>
        <time>2017-06-17T10:58:15Z</time>
      </trkpt>
      <trkpt lat="60.112367707707" lon="21.515475724499">
        <ele>0</ele>
        <time>2017-06-17T10:58:16Z</time>
      </trkpt>
      <trkpt lat="60.112355973047" lon="21.515487123883">
        <ele>0</ele>
        <time>2017-06-17T10:58:17Z</time>
      </trkpt>
      <trkpt lat="60.1123465015" lon="21.515495505783">
        <ele>0</ele>
        <time>2017-06-17T10:58:18Z</time>
      </trkpt>
      <trkpt lat="60.112334850659" lon="21.51550665371">
        <ele>0</ele>
        <time>2017-06-17T10:58:19Z</time>
      </trkpt>
      <trkpt lat="60.112323283637" lon="21.515517885456">
        <ele>0</ele>
        <time>2017-06-17T10:58:20Z</time>
      </trkpt>
      <trkpt lat="60.112310626968" lon="21.515523836605">
        <ele>0</ele>
        <time>2017-06-17T10:58:21Z</time>
      </trkpt>
      <trkpt lat="60.112302161249" lon="21.515533224333">
        <ele>0</ele>
        <time>2017-06-17T10:58:22Z</time>
      </trkpt>
      <trkpt lat="60.112287409105" lon="21.515543031156">
        <ele>0</ele>
        <time>2017-06-17T10:58:23Z</time>
      </trkpt>
      <trkpt lat="60.112278272834" lon="21.515551496875">
        <ele>0</ele>
        <time>2017-06-17T10:58:24Z</time>
      </trkpt>
      <trkpt lat="60.112265616165" lon="21.515562225707">
        <ele>0</ele>
        <time>2017-06-17T10:58:25Z</time>
      </trkpt>
      <trkpt lat="60.112254887333" lon="21.515570942883">
        <ele>0</ele>
        <time>2017-06-17T10:58:26Z</time>
      </trkpt>
      <trkpt lat="60.112246673071" lon="21.515583431914">
        <ele>0</ele>
        <time>2017-06-17T10:58:27Z</time>
      </trkpt>
      <trkpt lat="60.112237620619" lon="21.51559298728">
        <ele>0</ele>
        <time>2017-06-17T10:58:28Z</time>
      </trkpt>
      <trkpt lat="60.11222664033" lon="21.515611343641">
        <ele>0</ele>
        <time>2017-06-17T10:58:29Z</time>
      </trkpt>
      <trkpt lat="60.112218174611" lon="21.515623078301">
        <ele>0</ele>
        <time>2017-06-17T10:58:30Z</time>
      </trkpt>
      <trkpt lat="60.112208703064" lon="21.515642524309">
        <ele>0</ele>
        <time>2017-06-17T10:58:31Z</time>
      </trkpt>
      <trkpt lat="60.112200404983" lon="21.515656186806">
        <ele>0</ele>
        <time>2017-06-17T10:58:32Z</time>
      </trkpt>
      <trkpt lat="60.112191268712" lon="21.515678063565">
        <ele>0</ele>
        <time>2017-06-17T10:58:33Z</time>
      </trkpt>
      <trkpt lat="60.112183557364" lon="21.515696252288">
        <ele>0</ele>
        <time>2017-06-17T10:58:34Z</time>
      </trkpt>
      <trkpt lat="60.11217383436" lon="21.515719889246">
        <ele>0</ele>
        <time>2017-06-17T10:58:35Z</time>
      </trkpt>
      <trkpt lat="60.112163356985" lon="21.515743442385">
        <ele>0</ele>
        <time>2017-06-17T10:58:36Z</time>
      </trkpt>
      <trkpt lat="60.112155058904" lon="21.51576230166">
        <ele>0</ele>
        <time>2017-06-17T10:58:37Z</time>
      </trkpt>
      <trkpt lat="60.112148018108" lon="21.515780909478">
        <ele>0</ele>
        <time>2017-06-17T10:58:38Z</time>
      </trkpt>
      <trkpt lat="60.112120441657" lon="21.515815610544">
        <ele>0</ele>
        <time>2017-06-17T10:58:40Z</time>
      </trkpt>
      <trkpt lat="60.112108287902" lon="21.515830446507">
        <ele>0</ele>
        <time>2017-06-17T10:58:41Z</time>
      </trkpt>
      <trkpt lat="60.112096553242" lon="21.515839582778">
        <ele>0</ele>
        <time>2017-06-17T10:58:42Z</time>
      </trkpt>
      <trkpt lat="60.112083393659" lon="21.515848970506">
        <ele>0</ele>
        <time>2017-06-17T10:58:43Z</time>
      </trkpt>
      <trkpt lat="60.112071239904" lon="21.515854418741">
        <ele>0</ele>
        <time>2017-06-17T10:58:44Z</time>
      </trkpt>
      <trkpt lat="60.112057996502" lon="21.515860034614">
        <ele>0</ele>
        <time>2017-06-17T10:58:45Z</time>
      </trkpt>
      <trkpt lat="60.112046597118" lon="21.51586120808">
        <ele>0</ele>
        <time>2017-06-17T10:58:46Z</time>
      </trkpt>
      <trkpt lat="60.112030839146" lon="21.515862968279">
        <ele>0</ele>
        <time>2017-06-17T10:58:47Z</time>
      </trkpt>
      <trkpt lat="60.112017595744" lon="21.515860872804">
        <ele>0</ele>
        <time>2017-06-17T10:58:48Z</time>
      </trkpt>
      <trkpt lat="60.112006950731" lon="21.515857687682">
        <ele>0</ele>
        <time>2017-06-17T10:58:49Z</time>
      </trkpt>
      <trkpt lat="60.111992030949" lon="21.515847964678">
        <ele>0</ele>
        <time>2017-06-17T10:58:50Z</time>
      </trkpt>
      <trkpt lat="60.111980547746" lon="21.515847545583">
        <ele>0</ele>
        <time>2017-06-17T10:58:51Z</time>
      </trkpt>
      <trkpt lat="60.111968058715" lon="21.515839750416">
        <ele>0</ele>
        <time>2017-06-17T10:58:52Z</time>
      </trkpt>
      <trkpt lat="60.11195506677" lon="21.515833296353">
        <ele>0</ele>
        <time>2017-06-17T10:58:53Z</time>
      </trkpt>
      <trkpt lat="60.111939895531" lon="21.515825920281">
        <ele>0</ele>
        <time>2017-06-17T10:58:54Z</time>
      </trkpt>
      <trkpt lat="60.111927741776" lon="21.515819969132">
        <ele>0</ele>
        <time>2017-06-17T10:58:55Z</time>
      </trkpt>
      <trkpt lat="60.111912486718" lon="21.515816448734">
        <ele>0</ele>
        <time>2017-06-17T10:58:56Z</time>
      </trkpt>
      <trkpt lat="60.111901087334" lon="21.515814604716">
        <ele>0</ele>
        <time>2017-06-17T10:58:57Z</time>
      </trkpt>
      <trkpt lat="60.111887089561" lon="21.515814772354">
        <ele>0</ele>
        <time>2017-06-17T10:58:58Z</time>
      </trkpt>
      <trkpt lat="60.111874684349" lon="21.51581594582">
        <ele>0</ele>
        <time>2017-06-17T10:58:59Z</time>
      </trkpt>
      <trkpt lat="60.111861943861" lon="21.515822064607">
        <ele>0</ele>
        <time>2017-06-17T10:59:00Z</time>
      </trkpt>
      <trkpt lat="60.111851382667" lon="21.515831368516">
        <ele>0</ele>
        <time>2017-06-17T10:59:01Z</time>
      </trkpt>
      <trkpt lat="60.111843503681" lon="21.515842013529">
        <ele>0</ele>
        <time>2017-06-17T10:59:02Z</time>
      </trkpt>
      <trkpt lat="60.111834283591" lon="21.515851401257">
        <ele>0</ele>
        <time>2017-06-17T10:59:03Z</time>
      </trkpt>
      <trkpt lat="60.111825901691" lon="21.515864309383">
        <ele>0</ele>
        <time>2017-06-17T10:59:04Z</time>
      </trkpt>
      <trkpt lat="60.111815005221" lon="21.515878390975">
        <ele>0</ele>
        <time>2017-06-17T10:59:05Z</time>
      </trkpt>
      <trkpt lat="60.111804779303" lon="21.515896579698">
        <ele>0</ele>
        <time>2017-06-17T10:59:06Z</time>
      </trkpt>
      <trkpt lat="60.111795559213" lon="21.515908817272">
        <ele>0</ele>
        <time>2017-06-17T10:59:07Z</time>
      </trkpt>
      <trkpt lat="60.111784243648" lon="21.515920216656">
        <ele>0</ele>
        <time>2017-06-17T10:59:08Z</time>
      </trkpt>
      <trkpt lat="60.111771670798" lon="21.51593748337">
        <ele>0</ele>
        <time>2017-06-17T10:59:09Z</time>
      </trkpt>
      <trkpt lat="60.111760858147" lon="21.515946032908">
        <ele>0</ele>
        <time>2017-06-17T10:59:10Z</time>
      </trkpt>
      <trkpt lat="60.111748201478" lon="21.515960282138">
        <ele>0</ele>
        <time>2017-06-17T10:59:11Z</time>
      </trkpt>
      <trkpt lat="60.111738227017" lon="21.51597771649">
        <ele>0</ele>
        <time>2017-06-17T10:59:12Z</time>
      </trkpt>
      <trkpt lat="60.111729677479" lon="21.515992636272">
        <ele>0</ele>
        <time>2017-06-17T10:59:13Z</time>
      </trkpt>
      <trkpt lat="60.111718110457" lon="21.516013674841">
        <ele>0</ele>
        <time>2017-06-17T10:59:14Z</time>
      </trkpt>
      <trkpt lat="60.111709560919" lon="21.516027588795">
        <ele>0</ele>
        <time>2017-06-17T10:59:15Z</time>
      </trkpt>
      <trkpt lat="60.111698832087" lon="21.516047705355">
        <ele>0</ele>
        <time>2017-06-17T10:59:16Z</time>
      </trkpt>
      <trkpt lat="60.111689444359" lon="21.516063547146">
        <ele>0</ele>
        <time>2017-06-17T10:59:17Z</time>
      </trkpt>
      <trkpt lat="60.111677374423" lon="21.516086010638">
        <ele>0</ele>
        <time>2017-06-17T10:59:18Z</time>
      </trkpt>
      <trkpt lat="60.111668657247" lon="21.516100176049">
        <ele>0</ele>
        <time>2017-06-17T10:59:19Z</time>
      </trkpt>
      <trkpt lat="60.111656084397" lon="21.516122471903">
        <ele>0</ele>
        <time>2017-06-17T10:59:20Z</time>
      </trkpt>
      <trkpt lat="60.111646780488" lon="21.51613697259">
        <ele>0</ele>
        <time>2017-06-17T10:59:21Z</time>
      </trkpt>
      <trkpt lat="60.111635800199" lon="21.516153401114">
        <ele>0</ele>
        <time>2017-06-17T10:59:22Z</time>
      </trkpt>
      <trkpt lat="60.111623059711" lon="21.516169578181">
        <ele>0</ele>
        <time>2017-06-17T10:59:23Z</time>
      </trkpt>
      <trkpt lat="60.111609564852" lon="21.516185755248">
        <ele>0</ele>
        <time>2017-06-17T10:59:24Z</time>
      </trkpt>
      <trkpt lat="60.111598416925" lon="21.516197825184">
        <ele>0</ele>
        <time>2017-06-17T10:59:25Z</time>
      </trkpt>
      <trkpt lat="60.111584670609" lon="21.516212158233">
        <ele>0</ele>
        <time>2017-06-17T10:59:26Z</time>
      </trkpt>
      <trkpt lat="60.111574779967" lon="21.516222551789">
        <ele>0</ele>
        <time>2017-06-17T10:59:27Z</time>
      </trkpt>
      <trkpt lat="60.111561452746" lon="21.516230682232">
        <ele>0</ele>
        <time>2017-06-17T10:59:28Z</time>
      </trkpt>
      <trkpt lat="60.111545443317" lon="21.516236465743">
        <ele>0</ele>
        <time>2017-06-17T10:59:29Z</time>
      </trkpt>
      <trkpt lat="60.111533960114" lon="21.516252223715">
        <ele>0</ele>
        <time>2017-06-17T10:59:30Z</time>
      </trkpt>
      <trkpt lat="60.111520213798" lon="21.516256414665">
        <ele>0</ele>
        <time>2017-06-17T10:59:31Z</time>
      </trkpt>
      <trkpt lat="60.111509904061" lon="21.516266221488">
        <ele>0</ele>
        <time>2017-06-17T10:59:32Z</time>
      </trkpt>
      <trkpt lat="60.111494816641" lon="21.516272256456">
        <ele>0</ele>
        <time>2017-06-17T10:59:33Z</time>
      </trkpt>
      <trkpt lat="60.111485764189" lon="21.516281811822">
        <ele>0</ele>
        <time>2017-06-17T10:59:34Z</time>
      </trkpt>
      <trkpt lat="60.111470676769" lon="21.516293881758">
        <ele>0</ele>
        <time>2017-06-17T10:59:35Z</time>
      </trkpt>
      <trkpt lat="60.111461708136" lon="21.516306370789">
        <ele>0</ele>
        <time>2017-06-17T10:59:36Z</time>
      </trkpt>
      <trkpt lat="60.111453242417" lon="21.516323721322">
        <ele>0</ele>
        <time>2017-06-17T10:59:37Z</time>
      </trkpt>
      <trkpt lat="60.111445614888" lon="21.51633646181">
        <ele>0</ele>
        <time>2017-06-17T10:59:38Z</time>
      </trkpt>
      <trkpt lat="60.111435472789" lon="21.516357919474">
        <ele>0</ele>
        <time>2017-06-17T10:59:39Z</time>
      </trkpt>
      <trkpt lat="60.111428599631" lon="21.516371246695">
        <ele>0</ele>
        <time>2017-06-17T10:59:40Z</time>
      </trkpt>
      <trkpt lat="60.111418876627" lon="21.516393291092">
        <ele>0</ele>
        <time>2017-06-17T10:59:41Z</time>
      </trkpt>
      <trkpt lat="60.111412087288" lon="21.516408210874">
        <ele>0</ele>
        <time>2017-06-17T10:59:42Z</time>
      </trkpt>
      <trkpt lat="60.111401190818" lon="21.516425058493">
        <ele>0</ele>
        <time>2017-06-17T10:59:43Z</time>
      </trkpt>
      <trkpt lat="60.111391886909" lon="21.516442157569">
        <ele>0</ele>
        <time>2017-06-17T10:59:44Z</time>
      </trkpt>
      <trkpt lat="60.111385768122" lon="21.516463950509">
        <ele>0</ele>
        <time>2017-06-17T10:59:45Z</time>
      </trkpt>
      <trkpt lat="60.111376045118" lon="21.516477529187">
        <ele>0</ele>
        <time>2017-06-17T10:59:46Z</time>
      </trkpt>
      <trkpt lat="60.111369004322" lon="21.516495885548">
        <ele>0</ele>
        <time>2017-06-17T10:59:47Z</time>
      </trkpt>
      <trkpt lat="60.111359868051" lon="21.516512230253">
        <ele>0</ele>
        <time>2017-06-17T10:59:48Z</time>
      </trkpt>
      <trkpt lat="60.111353497807" lon="21.516526060388">
        <ele>0</ele>
        <time>2017-06-17T10:59:49Z</time>
      </trkpt>
      <trkpt lat="60.111346457011" lon="21.516548440061">
        <ele>0</ele>
        <time>2017-06-17T10:59:50Z</time>
      </trkpt>
      <trkpt lat="60.11133983531" lon="21.516563359843">
        <ele>0</ele>
        <time>2017-06-17T10:59:51Z</time>
      </trkpt>
      <trkpt lat="60.111334889989" lon="21.516581129471">
        <ele>0</ele>
        <time>2017-06-17T10:59:52Z</time>
      </trkpt>
      <trkpt lat="60.111328603564" lon="21.51660216804">
        <ele>0</ele>
        <time>2017-06-17T10:59:53Z</time>
      </trkpt>
      <trkpt lat="60.111322987691" lon="21.516624715351">
        <ele>0</ele>
        <time>2017-06-17T10:59:54Z</time>
      </trkpt>
      <trkpt lat="60.111317790913" lon="21.516643406988">
        <ele>0</ele>
        <time>2017-06-17T10:59:55Z</time>
      </trkpt>
      <trkpt lat="60.11131217504" lon="21.516668133593">
        <ele>0</ele>
        <time>2017-06-17T10:59:56Z</time>
      </trkpt>
      <trkpt lat="60.111307062081" lon="21.516686238497">
        <ele>0</ele>
        <time>2017-06-17T10:59:57Z</time>
      </trkpt>
      <trkpt lat="60.111301194751" lon="21.516708701989">
        <ele>0</ele>
        <time>2017-06-17T10:59:58Z</time>
      </trkpt>
      <trkpt lat="60.111291974661" lon="21.516727561264">
        <ele>0</ele>
        <time>2017-06-17T10:59:59Z</time>
      </trkpt>
      <trkpt lat="60.111283257485" lon="21.516746085263">
        <ele>0</ele>
        <time>2017-06-17T11:00:00Z</time>
      </trkpt>
      <trkpt lat="60.111278395983" lon="21.516770979506">
        <ele>0</ele>
        <time>2017-06-17T11:00:01Z</time>
      </trkpt>
      <trkpt lat="60.111269175893" lon="21.51678740803">
        <ele>0</ele>
        <time>2017-06-17T11:00:02Z</time>
      </trkpt>
      <trkpt lat="60.111260877812" lon="21.516807776047">
        <ele>0</ele>
        <time>2017-06-17T11:00:03Z</time>
      </trkpt>
      <trkpt lat="60.111254591387" lon="21.516828898435">
        <ele>0</ele>
        <time>2017-06-17T11:00:04Z</time>
      </trkpt>
      <trkpt lat="60.111251238627" lon="21.516847673891">
        <ele>0</ele>
        <time>2017-06-17T11:00:05Z</time>
      </trkpt>
      <trkpt lat="60.11124511984" lon="21.516873573962">
        <ele>0</ele>
        <time>2017-06-17T11:00:06Z</time>
      </trkpt>
      <trkpt lat="60.111240342157" lon="21.516891175952">
        <ele>0</ele>
        <time>2017-06-17T11:00:07Z</time>
      </trkpt>
      <trkpt lat="60.111233468999" lon="21.516921183154">
        <ele>0</ele>
        <time>2017-06-17T11:00:08Z</time>
      </trkpt>
      <trkpt lat="60.111227853126" lon="21.51693995861">
        <ele>0</ele>
        <time>2017-06-17T11:00:09Z</time>
      </trkpt>
      <trkpt lat="60.111221985796" lon="21.516966361595">
        <ele>0</ele>
        <time>2017-06-17T11:00:10Z</time>
      </trkpt>
      <trkpt lat="60.111216369923" lon="21.516988908906">
        <ele>0</ele>
        <time>2017-06-17T11:00:11Z</time>
      </trkpt>
      <trkpt lat="60.111211173145" lon="21.517015228072">
        <ele>0</ele>
        <time>2017-06-17T11:00:12Z</time>
      </trkpt>
      <trkpt lat="60.111207066014" lon="21.517039284125">
        <ele>0</ele>
        <time>2017-06-17T11:00:13Z</time>
      </trkpt>
      <trkpt lat="60.111201450141" lon="21.517067950223">
        <ele>0</ele>
        <time>2017-06-17T11:00:14Z</time>
      </trkpt>
      <trkpt lat="60.1111981812" lon="21.517092090095">
        <ele>0</ele>
        <time>2017-06-17T11:00:15Z</time>
      </trkpt>
      <trkpt lat="60.111193571155" lon="21.517117738709">
        <ele>0</ele>
        <time>2017-06-17T11:00:16Z</time>
      </trkpt>
      <trkpt lat="60.111189966938" lon="21.517144560789">
        <ele>0</ele>
        <time>2017-06-17T11:00:17Z</time>
      </trkpt>
      <trkpt lat="60.111185859807" lon="21.517173143068">
        <ele>0</ele>
        <time>2017-06-17T11:00:18Z</time>
      </trkpt>
      <trkpt lat="60.111182842323" lon="21.517197618216">
        <ele>0</ele>
        <time>2017-06-17T11:00:19Z</time>
      </trkpt>
      <trkpt lat="60.111177729364" lon="21.517227373961">
        <ele>0</ele>
        <time>2017-06-17T11:00:20Z</time>
      </trkpt>
      <trkpt lat="60.1111730355" lon="21.517255034231">
        <ele>0</ele>
        <time>2017-06-17T11:00:21Z</time>
      </trkpt>
      <trkpt lat="60.111168593093" lon="21.517273139135">
        <ele>0</ele>
        <time>2017-06-17T11:00:22Z</time>
      </trkpt>
      <trkpt lat="60.111162055211" lon="21.517306499097">
        <ele>0</ele>
        <time>2017-06-17T11:00:23Z</time>
      </trkpt>
      <trkpt lat="60.111155349691" lon="21.51733055515">
        <ele>0</ele>
        <time>2017-06-17T11:00:24Z</time>
      </trkpt>
      <trkpt lat="60.111149147085" lon="21.517356706678">
        <ele>0</ele>
        <time>2017-06-17T11:00:25Z</time>
      </trkpt>
      <trkpt lat="60.111141771013" lon="21.517378499618">
        <ele>0</ele>
        <time>2017-06-17T11:00:26Z</time>
      </trkpt>
      <trkpt lat="60.111134897855" lon="21.517403393861">
        <ele>0</ele>
        <time>2017-06-17T11:00:27Z</time>
      </trkpt>
      <trkpt lat="60.111127689421" lon="21.517423342783">
        <ele>0</ele>
        <time>2017-06-17T11:00:28Z</time>
      </trkpt>
      <trkpt lat="60.111118469331" lon="21.517450164863">
        <ele>0</ele>
        <time>2017-06-17T11:00:29Z</time>
      </trkpt>
      <trkpt lat="60.111111512354" lon="21.517468521224">
        <ele>0</ele>
        <time>2017-06-17T11:00:30Z</time>
      </trkpt>
      <trkpt lat="60.111102208445" lon="21.517493415467">
        <ele>0</ele>
        <time>2017-06-17T11:00:31Z</time>
      </trkpt>
      <trkpt lat="60.111095251468" lon="21.517513112932">
        <ele>0</ele>
        <time>2017-06-17T11:00:32Z</time>
      </trkpt>
      <trkpt lat="60.111085947559" lon="21.517537252804">
        <ele>0</ele>
        <time>2017-06-17T11:00:33Z</time>
      </trkpt>
      <trkpt lat="60.11107915822" lon="21.517556447355">
        <ele>0</ele>
        <time>2017-06-17T11:00:34Z</time>
      </trkpt>
      <trkpt lat="60.111067675017" lon="21.517579832856">
        <ele>0</ele>
        <time>2017-06-17T11:00:35Z</time>
      </trkpt>
      <trkpt lat="60.111058957841" lon="21.517596093742">
        <ele>0</ele>
        <time>2017-06-17T11:00:36Z</time>
      </trkpt>
      <trkpt lat="60.111047307" lon="21.517615120655">
        <ele>0</ele>
        <time>2017-06-17T11:00:37Z</time>
      </trkpt>
      <trkpt lat="60.11103808691" lon="21.517633393197">
        <ele>0</ele>
        <time>2017-06-17T11:00:38Z</time>
      </trkpt>
      <trkpt lat="60.111026519888" lon="21.517652252472">
        <ele>0</ele>
        <time>2017-06-17T11:00:39Z</time>
      </trkpt>
      <trkpt lat="60.111018557083" lon="21.517667842806">
        <ele>0</ele>
        <time>2017-06-17T11:00:40Z</time>
      </trkpt>
      <trkpt lat="60.111007325337" lon="21.517691060669">
        <ele>0</ele>
        <time>2017-06-17T11:00:41Z</time>
      </trkpt>
      <trkpt lat="60.111000452179" lon="21.517709333211">
        <ele>0</ele>
        <time>2017-06-17T11:00:42Z</time>
      </trkpt>
      <trkpt lat="60.110994752487" lon="21.517732551074">
        <ele>0</ele>
        <time>2017-06-17T11:00:43Z</time>
      </trkpt>
      <trkpt lat="60.110987879329" lon="21.517751661806">
        <ele>0</ele>
        <time>2017-06-17T11:00:44Z</time>
      </trkpt>
      <trkpt lat="60.110982263456" lon="21.517779908809">
        <ele>0</ele>
        <time>2017-06-17T11:00:45Z</time>
      </trkpt>
      <trkpt lat="60.110977150497" lon="21.517799354817">
        <ele>0</ele>
        <time>2017-06-17T11:00:46Z</time>
      </trkpt>
      <trkpt lat="60.110971786081" lon="21.517828859105">
        <ele>0</ele>
        <time>2017-06-17T11:00:47Z</time>
      </trkpt>
      <trkpt lat="60.110967595131" lon="21.517852412244">
        <ele>0</ele>
        <time>2017-06-17T11:00:48Z</time>
      </trkpt>
      <trkpt lat="60.110963404181" lon="21.517881748894">
        <ele>0</ele>
        <time>2017-06-17T11:00:49Z</time>
      </trkpt>
      <trkpt lat="60.110959129412" lon="21.517905218214">
        <ele>0</ele>
        <time>2017-06-17T11:00:50Z</time>
      </trkpt>
      <trkpt lat="60.110954184091" lon="21.517936985615">
        <ele>0</ele>
        <time>2017-06-17T11:00:51Z</time>
      </trkpt>
      <trkpt lat="60.11095007696" lon="21.517958610917">
        <ele>0</ele>
        <time>2017-06-17T11:00:52Z</time>
      </trkpt>
      <trkpt lat="60.110943622897" lon="21.517993982535">
        <ele>0</ele>
        <time>2017-06-17T11:00:53Z</time>
      </trkpt>
      <trkpt lat="60.110938761395" lon="21.518017954769">
        <ele>0</ele>
        <time>2017-06-17T11:00:54Z</time>
      </trkpt>
      <trkpt lat="60.110933899893" lon="21.518050476541">
        <ele>0</ele>
        <time>2017-06-17T11:00:55Z</time>
      </trkpt>
      <trkpt lat="60.110929625124" lon="21.518073526766">
        <ele>0</ele>
        <time>2017-06-17T11:00:56Z</time>
      </trkpt>
      <trkpt lat="60.110924260708" lon="21.518104539796">
        <ele>0</ele>
        <time>2017-06-17T11:00:57Z</time>
      </trkpt>
      <trkpt lat="60.110919985939" lon="21.518128176754">
        <ele>0</ele>
        <time>2017-06-17T11:00:58Z</time>
      </trkpt>
      <trkpt lat="60.110912945143" lon="21.518158938327">
        <ele>0</ele>
        <time>2017-06-17T11:00:59Z</time>
      </trkpt>
      <trkpt lat="60.110908335098" lon="21.518181988552">
        <ele>0</ele>
        <time>2017-06-17T11:01:00Z</time>
      </trkpt>
      <trkpt lat="60.110900875207" lon="21.518210067917">
        <ele>0</ele>
        <time>2017-06-17T11:01:01Z</time>
      </trkpt>
      <trkpt lat="60.110896013705" lon="21.518231190305">
        <ele>0</ele>
        <time>2017-06-17T11:01:02Z</time>
      </trkpt>
      <trkpt lat="60.11088888909" lon="21.518258934394">
        <ele>0</ele>
        <time>2017-06-17T11:01:03Z</time>
      </trkpt>
      <trkpt lat="60.110882937941" lon="21.518278212764">
        <ele>0</ele>
        <time>2017-06-17T11:01:04Z</time>
      </trkpt>
      <trkpt lat="60.110873382575" lon="21.518303358464">
        <ele>0</ele>
        <time>2017-06-17T11:01:05Z</time>
      </trkpt>
      <trkpt lat="60.110863994847" lon="21.518327582155">
        <ele>0</ele>
        <time>2017-06-17T11:01:06Z</time>
      </trkpt>
      <trkpt lat="60.110855696766" lon="21.51834392686">
        <ele>0</ele>
        <time>2017-06-17T11:01:07Z</time>
      </trkpt>
      <trkpt lat="60.11084362683" lon="21.51836655799">
        <ele>0</ele>
        <time>2017-06-17T11:01:08Z</time>
      </trkpt>
      <trkpt lat="60.110835580206" lon="21.518380891039">
        <ele>0</ele>
        <time>2017-06-17T11:01:09Z</time>
      </trkpt>
      <trkpt lat="60.110823761727" lon="21.518398493029">
        <ele>0</ele>
        <time>2017-06-17T11:01:10Z</time>
      </trkpt>
      <trkpt lat="60.110813787266" lon="21.518412490802">
        <ele>0</ele>
        <time>2017-06-17T11:01:11Z</time>
      </trkpt>
      <trkpt lat="60.110802387882" lon="21.51842690767">
        <ele>0</ele>
        <time>2017-06-17T11:01:12Z</time>
      </trkpt>
      <trkpt lat="60.110791994326" lon="21.518440737805">
        <ele>0</ele>
        <time>2017-06-17T11:01:13Z</time>
      </trkpt>
      <trkpt lat="60.110779002381" lon="21.518452807741">
        <ele>0</ele>
        <time>2017-06-17T11:01:14Z</time>
      </trkpt>
      <trkpt lat="60.110767435359" lon="21.51846211165">
        <ele>0</ele>
        <time>2017-06-17T11:01:15Z</time>
      </trkpt>
      <trkpt lat="60.110754946328" lon="21.518476528518">
        <ele>0</ele>
        <time>2017-06-17T11:01:16Z</time>
      </trkpt>
      <trkpt lat="60.110746061514" lon="21.518489604282">
        <ele>0</ele>
        <time>2017-06-17T11:01:17Z</time>
      </trkpt>
      <trkpt lat="60.110734075397" lon="21.518506787177">
        <ele>0</ele>
        <time>2017-06-17T11:01:18Z</time>
      </trkpt>
      <trkpt lat="60.110726699325" lon="21.518520868769">
        <ele>0</ele>
        <time>2017-06-17T11:01:19Z</time>
      </trkpt>
      <trkpt lat="60.110715635217" lon="21.518540985329">
        <ele>0</ele>
        <time>2017-06-17T11:01:20Z</time>
      </trkpt>
      <trkpt lat="60.110709935525" lon="21.518559844604">
        <ele>0</ele>
        <time>2017-06-17T11:01:21Z</time>
      </trkpt>
      <trkpt lat="60.110706750403" lon="21.51857862006">
        <ele>0</ele>
        <time>2017-06-17T11:01:22Z</time>
      </trkpt>
      <trkpt lat="60.110701469806" lon="21.518599742448">
        <ele>0</ele>
        <time>2017-06-17T11:01:23Z</time>
      </trkpt>
      <trkpt lat="60.110697530313" lon="21.518627989451">
        <ele>0</ele>
        <time>2017-06-17T11:01:24Z</time>
      </trkpt>
      <trkpt lat="60.110694177553" lon="21.518647854554">
        <ele>0</ele>
        <time>2017-06-17T11:01:25Z</time>
      </trkpt>
      <trkpt lat="60.110690321879" lon="21.518677610299">
        <ele>0</ele>
        <time>2017-06-17T11:01:26Z</time>
      </trkpt>
      <trkpt lat="60.11068772349" lon="21.51869848123">
        <ele>0</ele>
        <time>2017-06-17T11:01:27Z</time>
      </trkpt>
      <trkpt lat="60.110684622187" lon="21.51872697969">
        <ele>0</ele>
        <time>2017-06-17T11:01:28Z</time>
      </trkpt>
      <trkpt lat="60.11068185616" lon="21.518752293028">
        <ele>0</ele>
        <time>2017-06-17T11:01:29Z</time>
      </trkpt>
      <trkpt lat="60.110679257771" lon="21.518782635506">
        <ele>0</ele>
        <time>2017-06-17T11:01:30Z</time>
      </trkpt>
      <trkpt lat="60.110676994658" lon="21.518805434274">
        <ele>0</ele>
        <time>2017-06-17T11:01:31Z</time>
      </trkpt>
      <trkpt lat="60.110675234459" lon="21.518834351829">
        <ele>0</ele>
        <time>2017-06-17T11:01:32Z</time>
      </trkpt>
      <trkpt lat="60.110673390441" lon="21.518860922452">
        <ele>0</ele>
        <time>2017-06-17T11:01:33Z</time>
      </trkpt>
      <trkpt lat="60.110671965518" lon="21.51888372122">
        <ele>0</ele>
        <time>2017-06-17T11:01:34Z</time>
      </trkpt>
      <trkpt lat="60.110672300794" lon="21.518917165001">
        <ele>0</ele>
        <time>2017-06-17T11:01:35Z</time>
      </trkpt>
      <trkpt lat="60.110669534767" lon="21.518940466683">
        <ele>0</ele>
        <time>2017-06-17T11:01:36Z</time>
      </trkpt>
      <trkpt lat="60.110667858387" lon="21.518967707858">
        <ele>0</ele>
        <time>2017-06-17T11:01:37Z</time>
      </trkpt>
      <trkpt lat="60.110667523111" lon="21.518989416979">
        <ele>0</ele>
        <time>2017-06-17T11:01:38Z</time>
      </trkpt>
      <trkpt lat="60.110668026025" lon="21.519020262371">
        <ele>0</ele>
        <time>2017-06-17T11:01:39Z</time>
      </trkpt>
      <trkpt lat="60.110667774568" lon="21.519041133302">
        <ele>0</ele>
        <time>2017-06-17T11:01:40Z</time>
      </trkpt>
      <trkpt lat="60.110667355473" lon="21.519072984522">
        <ele>0</ele>
        <time>2017-06-17T11:01:41Z</time>
      </trkpt>
      <trkpt lat="60.110667104016" lon="21.519095028919">
        <ele>0</ele>
        <time>2017-06-17T11:01:42Z</time>
      </trkpt>
      <trkpt lat="60.110666601102" lon="21.519124784664">
        <ele>0</ele>
        <time>2017-06-17T11:01:43Z</time>
      </trkpt>
      <trkpt lat="60.110666182007" lon="21.519147583432">
        <ele>0</ele>
        <time>2017-06-17T11:01:44Z</time>
      </trkpt>
      <trkpt lat="60.110664589446" lon="21.51917624953">
        <ele>0</ele>
        <time>2017-06-17T11:01:45Z</time>
      </trkpt>
      <trkpt lat="60.110663751256" lon="21.519199383574">
        <ele>0</ele>
        <time>2017-06-17T11:01:46Z</time>
      </trkpt>
      <trkpt lat="60.110661236686" lon="21.519225618921">
        <ele>0</ele>
        <time>2017-06-17T11:01:47Z</time>
      </trkpt>
      <trkpt lat="60.110658805935" lon="21.519252105725">
        <ele>0</ele>
        <time>2017-06-17T11:01:48Z</time>
      </trkpt>
      <trkpt lat="60.110655369356" lon="21.519276077959">
        <ele>0</ele>
        <time>2017-06-17T11:01:49Z</time>
      </trkpt>
      <trkpt lat="60.110651262225" lon="21.519302983858">
        <ele>0</ele>
        <time>2017-06-17T11:01:50Z</time>
      </trkpt>
      <trkpt lat="60.110646819818" lon="21.519322765142">
        <ele>0</ele>
        <time>2017-06-17T11:01:51Z</time>
      </trkpt>
      <trkpt lat="60.110642125954" lon="21.519341540598">
        <ele>0</ele>
        <time>2017-06-17T11:01:52Z</time>
      </trkpt>
      <trkpt lat="60.110636342443" lon="21.519366351022">
        <ele>0</ele>
        <time>2017-06-17T11:01:53Z</time>
      </trkpt>
      <trkpt lat="60.11063156476" lon="21.519386216125">
        <ele>0</ele>
        <time>2017-06-17T11:01:54Z</time>
      </trkpt>
      <trkpt lat="60.110626954715" lon="21.519408344341">
        <ele>0</ele>
        <time>2017-06-17T11:01:55Z</time>
      </trkpt>
      <trkpt lat="60.110621674118" lon="21.519422928847">
        <ele>0</ele>
        <time>2017-06-17T11:01:56Z</time>
      </trkpt>
      <trkpt lat="60.110616225883" lon="21.51944027938">
        <ele>0</ele>
        <time>2017-06-17T11:01:57Z</time>
      </trkpt>
      <trkpt lat="60.110609939458" lon="21.51945704318">
        <ele>0</ele>
        <time>2017-06-17T11:01:58Z</time>
      </trkpt>
      <trkpt lat="60.110603569214" lon="21.519473387885">
        <ele>0</ele>
        <time>2017-06-17T11:01:59Z</time>
      </trkpt>
      <trkpt lat="60.110597366608" lon="21.519489397314">
        <ele>0</ele>
        <time>2017-06-17T11:02:00Z</time>
      </trkpt>
      <trkpt lat="60.11059552259" lon="21.519506664028">
        <ele>0</ele>
        <time>2017-06-17T11:02:01Z</time>
      </trkpt>
      <trkpt lat="60.110589822898" lon="21.51952158381">
        <ele>0</ele>
        <time>2017-06-17T11:02:02Z</time>
      </trkpt>
      <trkpt lat="60.110579932256" lon="21.519539018162">
        <ele>0</ele>
        <time>2017-06-17T11:02:03Z</time>
      </trkpt>
      <trkpt lat="60.11057456784" lon="21.51955259684">
        <ele>0</ele>
        <time>2017-06-17T11:02:04Z</time>
      </trkpt>
      <trkpt lat="60.11056702413" lon="21.519574976513">
        <ele>0</ele>
        <time>2017-06-17T11:02:05Z</time>
      </trkpt>
      <trkpt lat="60.11056283318" lon="21.519590483028">
        <ele>0</ele>
        <time>2017-06-17T11:02:06Z</time>
      </trkpt>
      <trkpt lat="60.110559312782" lon="21.519607749742">
        <ele>0</ele>
        <time>2017-06-17T11:02:07Z</time>
      </trkpt>
      <trkpt lat="60.110557384945" lon="21.519630129415">
        <ele>0.4</ele>
        <time>2017-06-17T11:02:08Z</time>
      </trkpt>
      <trkpt lat="60.110555205651" lon="21.519644294826">
        <ele>0.4</ele>
        <time>2017-06-17T11:02:09Z</time>
      </trkpt>
      <trkpt lat="60.110554702737" lon="21.519667177413">
        <ele>0.4</ele>
        <time>2017-06-17T11:02:10Z</time>
      </trkpt>
      <trkpt lat="60.110553277814" lon="21.519685785231">
        <ele>0.4</ele>
        <time>2017-06-17T11:02:11Z</time>
      </trkpt>
      <trkpt lat="60.110553026357" lon="21.519709422189">
        <ele>0.4</ele>
        <time>2017-06-17T11:02:12Z</time>
      </trkpt>
      <trkpt lat="60.110552188167" lon="21.519729538749">
        <ele>0.4</ele>
        <time>2017-06-17T11:02:13Z</time>
      </trkpt>
      <trkpt lat="60.110552271986" lon="21.519757534295">
        <ele>0.4</ele>
        <time>2017-06-17T11:02:14Z</time>
      </trkpt>
      <trkpt lat="60.110552188167" lon="21.519777147941">
        <ele>0.4</ele>
        <time>2017-06-17T11:02:15Z</time>
      </trkpt>
      <trkpt lat="60.110551433796" lon="21.519803048012">
        <ele>0.4</ele>
        <time>2017-06-17T11:02:16Z</time>
      </trkpt>
      <trkpt lat="60.110550176511" lon="21.519823248391">
        <ele>0.4</ele>
        <time>2017-06-17T11:02:17Z</time>
      </trkpt>
      <trkpt lat="60.110548667769" lon="21.51985266886">
        <ele>0.4</ele>
        <time>2017-06-17T11:02:18Z</time>
      </trkpt>
      <trkpt lat="60.110545817923" lon="21.519873455972">
        <ele>0.4</ele>
        <time>2017-06-17T11:02:19Z</time>
      </trkpt>
      <trkpt lat="60.110540788783" lon="21.519897009111">
        <ele>0.4</ele>
        <time>2017-06-17T11:02:20Z</time>
      </trkpt>
      <trkpt lat="60.110536346376" lon="21.519919388784">
        <ele>0.4</ele>
        <time>2017-06-17T11:02:21Z</time>
      </trkpt>
      <trkpt lat="60.11053265834" lon="21.519943109561">
        <ele>0.4</ele>
        <time>2017-06-17T11:02:22Z</time>
      </trkpt>
      <trkpt lat="60.1105276292" lon="21.519966327424">
        <ele>0.4</ele>
        <time>2017-06-17T11:02:23Z</time>
      </trkpt>
      <trkpt lat="60.110523773526" lon="21.519988623278">
        <ele>0.4</ele>
        <time>2017-06-17T11:02:24Z</time>
      </trkpt>
      <trkpt lat="60.110519498757" lon="21.520011757322">
        <ele>0.4</ele>
        <time>2017-06-17T11:02:25Z</time>
      </trkpt>
      <trkpt lat="60.110516900368" lon="21.520037573574">
        <ele>0.4</ele>
        <time>2017-06-17T11:02:26Z</time>
      </trkpt>
      <trkpt lat="60.110513128513" lon="21.520055929935">
        <ele>0.4</ele>
        <time>2017-06-17T11:02:27Z</time>
      </trkpt>
      <trkpt lat="60.110510111029" lon="21.52008149473">
        <ele>0.4</ele>
        <time>2017-06-17T11:02:28Z</time>
      </trkpt>
      <trkpt lat="60.110506925907" lon="21.520103455308">
        <ele>0.4</ele>
        <time>2017-06-17T11:02:29Z</time>
      </trkpt>
      <trkpt lat="60.110504411337" lon="21.520132121406">
        <ele>0.4</ele>
        <time>2017-06-17T11:02:30Z</time>
      </trkpt>
      <trkpt lat="60.110501310034" lon="21.520155003993">
        <ele>0.4</ele>
        <time>2017-06-17T11:02:31Z</time>
      </trkpt>
      <trkpt lat="60.110496532351" lon="21.52017956296">
        <ele>0.4</ele>
        <time>2017-06-17T11:02:32Z</time>
      </trkpt>
      <trkpt lat="60.110493347229" lon="21.520202780823">
        <ele>0.4</ele>
        <time>2017-06-17T11:02:33Z</time>
      </trkpt>
      <trkpt lat="60.110488737184" lon="21.520227507428">
        <ele>0.4</ele>
        <time>2017-06-17T11:02:34Z</time>
      </trkpt>
      <trkpt lat="60.110486306433" lon="21.520252569309">
        <ele>0.4</ele>
        <time>2017-06-17T11:02:35Z</time>
      </trkpt>
      <trkpt lat="60.110484210958" lon="21.520278385561">
        <ele>0.4</ele>
        <time>2017-06-17T11:02:36Z</time>
      </trkpt>
      <trkpt lat="60.110482031664" lon="21.520296155189">
        <ele>0.4</ele>
        <time>2017-06-17T11:02:37Z</time>
      </trkpt>
      <trkpt lat="60.110479684732" lon="21.520326162391">
        <ele>0.4</ele>
        <time>2017-06-17T11:02:38Z</time>
      </trkpt>
      <trkpt lat="60.110477170162" lon="21.520345776037">
        <ele>0.4</ele>
        <time>2017-06-17T11:02:39Z</time>
      </trkpt>
      <trkpt lat="60.110474655592" lon="21.520369329176">
        <ele>0.4</ele>
        <time>2017-06-17T11:02:40Z</time>
      </trkpt>
      <trkpt lat="60.110472392479" lon="21.520400509844">
        <ele>0.4</ele>
        <time>2017-06-17T11:02:41Z</time>
      </trkpt>
      <trkpt lat="60.110469542633" lon="21.520420039671">
        <ele>0.4</ele>
        <time>2017-06-17T11:02:42Z</time>
      </trkpt>
      <trkpt lat="60.110465435502" lon="21.52044610738">
        <ele>0.4</ele>
        <time>2017-06-17T11:02:43Z</time>
      </trkpt>
      <trkpt lat="60.110462837113" lon="21.520466391578">
        <ele>0.4</ele>
        <time>2017-06-17T11:02:44Z</time>
      </trkpt>
      <trkpt lat="60.110457975611" lon="21.520492794563">
        <ele>0.4</ele>
        <time>2017-06-17T11:02:45Z</time>
      </trkpt>
      <trkpt lat="60.110456299231" lon="21.52051316258">
        <ele>0.4</ele>
        <time>2017-06-17T11:02:46Z</time>
      </trkpt>
      <trkpt lat="60.110454958127" lon="21.520537721547">
        <ele>0.6</ele>
        <time>2017-06-17T11:02:47Z</time>
      </trkpt>
      <trkpt lat="60.110452946471" lon="21.52055842484">
        <ele>1</ele>
        <time>2017-06-17T11:02:48Z</time>
      </trkpt>
      <trkpt lat="60.110450599539" lon="21.520584827825">
        <ele>1.4</ele>
        <time>2017-06-17T11:02:49Z</time>
      </trkpt>
      <trkpt lat="60.110446995322" lon="21.520607961869">
        <ele>1.8</ele>
        <time>2017-06-17T11:02:50Z</time>
      </trkpt>
      <trkpt lat="60.110440625078" lon="21.520632269379">
        <ele>2.2</ele>
        <time>2017-06-17T11:02:51Z</time>
      </trkpt>
      <trkpt lat="60.11043710468" lon="21.520653224129">
        <ele>2.4</ele>
        <time>2017-06-17T11:02:52Z</time>
      </trkpt>
      <trkpt lat="60.110430734436" lon="21.520680213847">
        <ele>2.4</ele>
        <time>2017-06-17T11:02:53Z</time>
      </trkpt>
      <trkpt lat="60.110428219866" lon="21.520701000959">
        <ele>2.4</ele>
        <time>2017-06-17T11:02:54Z</time>
      </trkpt>
      <trkpt lat="60.110419837966" lon="21.520724302641">
        <ele>2.4</ele>
        <time>2017-06-17T11:02:55Z</time>
      </trkpt>
      <trkpt lat="60.110415898473" lon="21.520747604323">
        <ele>2.4</ele>
        <time>2017-06-17T11:02:56Z</time>
      </trkpt>
      <trkpt lat="60.110412126618" lon="21.520772833842">
        <ele>2.4</ele>
        <time>2017-06-17T11:02:57Z</time>
      </trkpt>
      <trkpt lat="60.110407935668" lon="21.520791525479">
        <ele>2.4</ele>
        <time>2017-06-17T11:02:58Z</time>
      </trkpt>
      <trkpt lat="60.110403996175" lon="21.520821784138">
        <ele>2.4</ele>
        <time>2017-06-17T11:02:59Z</time>
      </trkpt>
      <trkpt lat="60.110399553768" lon="21.520842990345">
        <ele>2.4</ele>
        <time>2017-06-17T11:03:00Z</time>
      </trkpt>
      <trkpt lat="60.110395698094" lon="21.520874673927">
        <ele>2.4</ele>
        <time>2017-06-17T11:03:01Z</time>
      </trkpt>
      <trkpt lat="60.110392596791" lon="21.520896047772">
        <ele>2.4</ele>
        <time>2017-06-17T11:03:02Z</time>
      </trkpt>
      <trkpt lat="60.110388657298" lon="21.520929323915">
        <ele>2.4</ele>
        <time>2017-06-17T11:03:03Z</time>
      </trkpt>
      <trkpt lat="60.110384131072" lon="21.520951284493">
        <ele>2.4</ele>
        <time>2017-06-17T11:03:04Z</time>
      </trkpt>
      <trkpt lat="60.110376168267" lon="21.520976765469">
        <ele>2.4</ele>
        <time>2017-06-17T11:03:05Z</time>
      </trkpt>
      <trkpt lat="60.110368121643" lon="21.521003336092">
        <ele>2.4</ele>
        <time>2017-06-17T11:03:06Z</time>
      </trkpt>
      <trkpt lat="60.110364852702" lon="21.521029068525">
        <ele>2.4</ele>
        <time>2017-06-17T11:03:07Z</time>
      </trkpt>
      <trkpt lat="60.11035580025" lon="21.521054465682">
        <ele>2.4</ele>
        <time>2017-06-17T11:03:08Z</time>
      </trkpt>
      <trkpt lat="60.110350938748" lon="21.521079192287">
        <ele>2.4</ele>
        <time>2017-06-17T11:03:09Z</time>
      </trkpt>
      <trkpt lat="60.110341802477" lon="21.521104505625">
        <ele>2.4</ele>
        <time>2017-06-17T11:03:10Z</time>
      </trkpt>
      <trkpt lat="60.110336186604" lon="21.521130824791">
        <ele>2.4</ele>
        <time>2017-06-17T11:03:11Z</time>
      </trkpt>
      <trkpt lat="60.110332666206" lon="21.521156473405">
        <ele>2.4</ele>
        <time>2017-06-17T11:03:12Z</time>
      </trkpt>
      <trkpt lat="60.110330403093" lon="21.521185307141">
        <ele>2.4</ele>
        <time>2017-06-17T11:03:13Z</time>
      </trkpt>
      <trkpt lat="60.110327637066" lon="21.521205172244">
        <ele>2.4</ele>
        <time>2017-06-17T11:03:14Z</time>
      </trkpt>
      <trkpt lat="60.110326212143" lon="21.521234425075">
        <ele>2.4</ele>
        <time>2017-06-17T11:03:15Z</time>
      </trkpt>
      <trkpt lat="60.110324535763" lon="21.521258397309">
        <ele>2.4</ele>
        <time>2017-06-17T11:03:16Z</time>
      </trkpt>
      <trkpt lat="60.110323529935" lon="21.521286309036">
        <ele>2.4</ele>
        <time>2017-06-17T11:03:17Z</time>
      </trkpt>
      <trkpt lat="60.11032227265" lon="21.521313885487">
        <ele>2.4</ele>
        <time>2017-06-17T11:03:18Z</time>
      </trkpt>
      <trkpt lat="60.110321266822" lon="21.521342719223">
        <ele>2.4</ele>
        <time>2017-06-17T11:03:19Z</time>
      </trkpt>
      <trkpt lat="60.110319338985" lon="21.52136811638">
        <ele>2.4</ele>
        <time>2017-06-17T11:03:20Z</time>
      </trkpt>
      <trkpt lat="60.110317494967" lon="21.521397704487">
        <ele>2.4</ele>
        <time>2017-06-17T11:03:21Z</time>
      </trkpt>
      <trkpt lat="60.110314812759" lon="21.521420419436">
        <ele>2.4</ele>
        <time>2017-06-17T11:03:22Z</time>
      </trkpt>
      <trkpt lat="60.11031053799" lon="21.521443385842">
        <ele>2.4</ele>
        <time>2017-06-17T11:03:23Z</time>
      </trkpt>
      <trkpt lat="60.110304754479" lon="21.521469872646">
        <ele>2.4</ele>
        <time>2017-06-17T11:03:24Z</time>
      </trkpt>
      <trkpt lat="60.110303581013" lon="21.52149468307">
        <ele>2.4</ele>
        <time>2017-06-17T11:03:25Z</time>
      </trkpt>
      <trkpt lat="60.110296540217" lon="21.521520080227">
        <ele>2.4</ele>
        <time>2017-06-17T11:03:26Z</time>
      </trkpt>
      <trkpt lat="60.110294025647" lon="21.521541454072">
        <ele>2.4</ele>
        <time>2017-06-17T11:03:27Z</time>
      </trkpt>
      <trkpt lat="60.11028874505" lon="21.521568611428">
        <ele>2.4</ele>
        <time>2017-06-17T11:03:28Z</time>
      </trkpt>
      <trkpt lat="60.110288074498" lon="21.521593421852">
        <ele>2.4</ele>
        <time>2017-06-17T11:03:29Z</time>
      </trkpt>
      <trkpt lat="60.110285308471" lon="21.52162292614">
        <ele>2.4</ele>
        <time>2017-06-17T11:03:30Z</time>
      </trkpt>
      <trkpt lat="60.1102845541" lon="21.521646060184">
        <ele>2.4</ele>
        <time>2017-06-17T11:03:31Z</time>
      </trkpt>
      <trkpt lat="60.110285308471" lon="21.521673720454">
        <ele>2.4</ele>
        <time>2017-06-17T11:03:32Z</time>
      </trkpt>
      <trkpt lat="60.110286565756" lon="21.521698614697">
        <ele>2.4</ele>
        <time>2017-06-17T11:03:33Z</time>
      </trkpt>
      <trkpt lat="60.110289080326" lon="21.521724933863">
        <ele>2.4</ele>
        <time>2017-06-17T11:03:34Z</time>
      </trkpt>
      <trkpt lat="60.110292600724" lon="21.521748989916">
        <ele>2.4</ele>
        <time>2017-06-17T11:03:35Z</time>
      </trkpt>
      <trkpt lat="60.110298384235" lon="21.521771956322">
        <ele>2.4</ele>
        <time>2017-06-17T11:03:36Z</time>
      </trkpt>
      <trkpt lat="60.110305592669" lon="21.521792324339">
        <ele>2.4</ele>
        <time>2017-06-17T11:03:37Z</time>
      </trkpt>
      <trkpt lat="60.110313471655" lon="21.521810093967">
        <ele>2.4</ele>
        <time>2017-06-17T11:03:38Z</time>
      </trkpt>
      <trkpt lat="60.110321769736" lon="21.521829791432">
        <ele>2.4</ele>
        <time>2017-06-17T11:03:39Z</time>
      </trkpt>
      <trkpt lat="60.110329648722" lon="21.521846471413">
        <ele>2.4</ele>
        <time>2017-06-17T11:03:40Z</time>
      </trkpt>
      <trkpt lat="60.110339287907" lon="21.521866587973">
        <ele>2.4</ele>
        <time>2017-06-17T11:03:41Z</time>
      </trkpt>
      <trkpt lat="60.110349430006" lon="21.521885531067">
        <ele>2.4</ele>
        <time>2017-06-17T11:03:42Z</time>
      </trkpt>
      <trkpt lat="60.1103599912" lon="21.521906485817">
        <ele>2.4</ele>
        <time>2017-06-17T11:03:43Z</time>
      </trkpt>
      <trkpt lat="60.110368456919" lon="21.521930793327">
        <ele>2.4</ele>
        <time>2017-06-17T11:03:44Z</time>
      </trkpt>
      <trkpt lat="60.110377509371" lon="21.521948395317">
        <ele>2.4</ele>
        <time>2017-06-17T11:03:45Z</time>
      </trkpt>
      <trkpt lat="60.110385472176" lon="21.521961051986">
        <ele>2.4</ele>
        <time>2017-06-17T11:03:46Z</time>
      </trkpt>
      <trkpt lat="60.110392261515" lon="21.52197915689">
        <ele>2.4</ele>
        <time>2017-06-17T11:03:47Z</time>
      </trkpt>
      <trkpt lat="60.110401816881" lon="21.522000027821">
        <ele>2.4</ele>
        <time>2017-06-17T11:03:48Z</time>
      </trkpt>
      <trkpt lat="60.110407516573" lon="21.522011343386">
        <ele>2.4</ele>
        <time>2017-06-17T11:03:49Z</time>
      </trkpt>
      <trkpt lat="60.110412042799" lon="21.522023916236">
        <ele>2.4</ele>
        <time>2017-06-17T11:03:50Z</time>
      </trkpt>
      <trkpt lat="60.110416485206" lon="21.522037914009">
        <ele>2.4</ele>
        <time>2017-06-17T11:03:51Z</time>
      </trkpt>
      <trkpt lat="60.110422268717" lon="21.522051073592">
        <ele>2.4</ele>
        <time>2017-06-17T11:03:52Z</time>
      </trkpt>
      <trkpt lat="60.110431404988" lon="21.5220789015">
        <ele>2.4</ele>
        <time>2017-06-17T11:03:53Z</time>
      </trkpt>
      <trkpt lat="60.110441714725" lon="21.522095162386">
        <ele>2.4</ele>
        <time>2017-06-17T11:03:54Z</time>
      </trkpt>
      <trkpt lat="60.110447498236" lon="21.522106058856">
        <ele>2.4</ele>
        <time>2017-06-17T11:03:55Z</time>
      </trkpt>
      <trkpt lat="60.110452527376" lon="21.522120475724">
        <ele>2.4</ele>
        <time>2017-06-17T11:03:56Z</time>
      </trkpt>
      <trkpt lat="60.110457305059" lon="21.522141011379">
        <ele>2.4</ele>
        <time>2017-06-17T11:03:57Z</time>
      </trkpt>
      <trkpt lat="60.110465351683" lon="21.522154925333">
        <ele>2.4</ele>
        <time>2017-06-17T11:03:58Z</time>
      </trkpt>
      <trkpt lat="60.110471805746" lon="21.522178981386">
        <ele>2.4</ele>
        <time>2017-06-17T11:03:59Z</time>
      </trkpt>
      <trkpt lat="60.110479433275" lon="21.52219708629">
        <ele>2.4</ele>
        <time>2017-06-17T11:04:00Z</time>
      </trkpt>
      <trkpt lat="60.110488318089" lon="21.522216197022">
        <ele>2.4</ele>
        <time>2017-06-17T11:04:01Z</time>
      </trkpt>
      <trkpt lat="60.110495358885" lon="21.522230194795">
        <ele>2.4</ele>
        <time>2017-06-17T11:04:02Z</time>
      </trkpt>
      <trkpt lat="60.110506422993" lon="21.522250143717">
        <ele>2.4</ele>
        <time>2017-06-17T11:04:03Z</time>
      </trkpt>
      <trkpt lat="60.11051421816" lon="21.522264895861">
        <ele>2.4</ele>
        <time>2017-06-17T11:04:04Z</time>
      </trkpt>
      <trkpt lat="60.110527126286" lon="21.522286185887">
        <ele>2.4</ele>
        <time>2017-06-17T11:04:05Z</time>
      </trkpt>
      <trkpt lat="60.1105360111" lon="21.52230186004">
        <ele>2.4</ele>
        <time>2017-06-17T11:04:06Z</time>
      </trkpt>
      <trkpt lat="60.110547159027" lon="21.522322647152">
        <ele>2.4</ele>
        <time>2017-06-17T11:04:07Z</time>
      </trkpt>
      <trkpt lat="60.110556714393" lon="21.522342260798">
        <ele>2.4</ele>
        <time>2017-06-17T11:04:08Z</time>
      </trkpt>
      <trkpt lat="60.110566437397" lon="21.522364472833">
        <ele>2.4</ele>
        <time>2017-06-17T11:04:09Z</time>
      </trkpt>
      <trkpt lat="60.110574316383" lon="21.522384170298">
        <ele>2.4</ele>
        <time>2017-06-17T11:04:10Z</time>
      </trkpt>
      <trkpt lat="60.110582614464" lon="21.52240663379">
        <ele>2.4</ele>
        <time>2017-06-17T11:04:11Z</time>
      </trkpt>
      <trkpt lat="60.110591247821" lon="21.522430438386">
        <ele>2.4</ele>
        <time>2017-06-17T11:04:12Z</time>
      </trkpt>
      <trkpt lat="60.110598959169" lon="21.52245776338">
        <ele>2.4</ele>
        <time>2017-06-17T11:04:13Z</time>
      </trkpt>
      <trkpt lat="60.110605245594" lon="21.522483244356">
        <ele>2.4</ele>
        <time>2017-06-17T11:04:14Z</time>
      </trkpt>
      <trkpt lat="60.11061480096" lon="21.522507970961">
        <ele>2.4</ele>
        <time>2017-06-17T11:04:15Z</time>
      </trkpt>
      <trkpt lat="60.110619327186" lon="21.522532865204">
        <ele>2.4</ele>
        <time>2017-06-17T11:04:16Z</time>
      </trkpt>
      <trkpt lat="60.110627625267" lon="21.522552646488">
        <ele>2.4</ele>
        <time>2017-06-17T11:04:17Z</time>
      </trkpt>
      <trkpt lat="60.1106365939" lon="21.522577121636">
        <ele>2.4</ele>
        <time>2017-06-17T11:04:18Z</time>
      </trkpt>
      <trkpt lat="60.110642796506" lon="21.522602602612">
        <ele>2.4</ele>
        <time>2017-06-17T11:04:19Z</time>
      </trkpt>
      <trkpt lat="60.110648580017" lon="21.522633364185">
        <ele>2.4</ele>
        <time>2017-06-17T11:04:20Z</time>
      </trkpt>
      <trkpt lat="60.110656542822" lon="21.522653229288">
        <ele>2.4</ele>
        <time>2017-06-17T11:04:21Z</time>
      </trkpt>
      <trkpt lat="60.110664589446" lon="21.522668651984">
        <ele>2.4</ele>
        <time>2017-06-17T11:04:22Z</time>
      </trkpt>
      <trkpt lat="60.110675653554" lon="21.522686170155">
        <ele>2.4</ele>
        <time>2017-06-17T11:04:23Z</time>
      </trkpt>
      <trkpt lat="60.110683783997" lon="21.52270335305">
        <ele>2.4</ele>
        <time>2017-06-17T11:04:24Z</time>
      </trkpt>
      <trkpt lat="60.11069023806" lon="21.522720200669">
        <ele>2.4</ele>
        <time>2017-06-17T11:04:25Z</time>
      </trkpt>
      <trkpt lat="60.110699961064" lon="21.522739143763">
        <ele>2.4</ele>
        <time>2017-06-17T11:04:26Z</time>
      </trkpt>
      <trkpt lat="60.110709935525" lon="21.522747106568">
        <ele>2.4</ele>
        <time>2017-06-17T11:04:27Z</time>
      </trkpt>
      <trkpt lat="60.110720161443" lon="21.522759176504">
        <ele>2.4</ele>
        <time>2017-06-17T11:04:28Z</time>
      </trkpt>
      <trkpt lat="60.11073047118" lon="21.522773844829">
        <ele>2.4</ele>
        <time>2017-06-17T11:04:29Z</time>
      </trkpt>
      <trkpt lat="60.110739607451" lon="21.522787255869">
        <ele>2.4</ele>
        <time>2017-06-17T11:04:30Z</time>
      </trkpt>
      <trkpt lat="60.110748576084" lon="21.52279806852">
        <ele>2.4</ele>
        <time>2017-06-17T11:04:31Z</time>
      </trkpt>
      <trkpt lat="60.110756287432" lon="21.522804941678">
        <ele>2.4</ele>
        <time>2017-06-17T11:04:32Z</time>
      </trkpt>
      <trkpt lat="60.110767100083" lon="21.522813407397">
        <ele>2.4</ele>
        <time>2017-06-17T11:04:33Z</time>
      </trkpt>
      <trkpt lat="60.110776739268" lon="21.522819358546">
        <ele>2.4</ele>
        <time>2017-06-17T11:04:34Z</time>
      </trkpt>
      <trkpt lat="60.110786043177" lon="21.522826650799">
        <ele>2.4</ele>
        <time>2017-06-17T11:04:35Z</time>
      </trkpt>
      <trkpt lat="60.110800711502" lon="21.522836792898">
        <ele>2.4</ele>
        <time>2017-06-17T11:04:36Z</time>
      </trkpt>
      <trkpt lat="60.110811356515" lon="21.522846767359">
        <ele>2.4</ele>
        <time>2017-06-17T11:04:37Z</time>
      </trkpt>
      <trkpt lat="60.110826192478" lon="21.522859424028">
        <ele>2.4</ele>
        <time>2017-06-17T11:04:38Z</time>
      </trkpt>
      <trkpt lat="60.110837005129" lon="21.52287182924">
        <ele>2.4</ele>
        <time>2017-06-17T11:04:39Z</time>
      </trkpt>
      <trkpt lat="60.110849410341" lon="21.522887000479">
        <ele>2.4</ele>
        <time>2017-06-17T11:04:40Z</time>
      </trkpt>
      <trkpt lat="60.110860139173" lon="21.522902255537">
        <ele>2.4</ele>
        <time>2017-06-17T11:04:41Z</time>
      </trkpt>
      <trkpt lat="60.110869107806" lon="21.522920528079">
        <ele>2.4</ele>
        <time>2017-06-17T11:04:42Z</time>
      </trkpt>
      <trkpt lat="60.110878914629" lon="21.522945841417">
        <ele>2.4</ele>
        <time>2017-06-17T11:04:43Z</time>
      </trkpt>
      <trkpt lat="60.110889475823" lon="21.522961180294">
        <ele>2.4</ele>
        <time>2017-06-17T11:04:44Z</time>
      </trkpt>
      <trkpt lat="60.110898612094" lon="21.522985990718">
        <ele>2.4</ele>
        <time>2017-06-17T11:04:45Z</time>
      </trkpt>
      <trkpt lat="60.110906910175" lon="21.523002083966">
        <ele>2.4</ele>
        <time>2017-06-17T11:04:46Z</time>
      </trkpt>
      <trkpt lat="60.110917639007" lon="21.52302437982">
        <ele>2.4</ele>
        <time>2017-06-17T11:04:47Z</time>
      </trkpt>
      <trkpt lat="60.110929541305" lon="21.523041227439">
        <ele>2.4</ele>
        <time>2017-06-17T11:04:48Z</time>
      </trkpt>
      <trkpt lat="60.110942952345" lon="21.52305455466">
        <ele>2.4</ele>
        <time>2017-06-17T11:04:49Z</time>
      </trkpt>
      <trkpt lat="60.110952926806" lon="21.523066456958">
        <ele>2</ele>
        <time>2017-06-17T11:04:50Z</time>
      </trkpt>
      <trkpt lat="60.110966673122" lon="21.52307970036">
        <ele>1.6</ele>
        <time>2017-06-17T11:04:51Z</time>
      </trkpt>
      <trkpt lat="60.110976228488" lon="21.523089255726">
        <ele>1.2</ele>
        <time>2017-06-17T11:04:52Z</time>
      </trkpt>
      <trkpt lat="60.110991818822" lon="21.523102666766">
        <ele>0.8</ele>
        <time>2017-06-17T11:04:53Z</time>
      </trkpt>
      <trkpt lat="60.111003385844" lon="21.523113311779">
        <ele>0.4</ele>
        <time>2017-06-17T11:04:54Z</time>
      </trkpt>
      <trkpt lat="60.111017886531" lon="21.523125633172">
        <ele>0.2</ele>
        <time>2017-06-17T11:04:55Z</time>
      </trkpt>
      <trkpt lat="60.111029202096" lon="21.523136781099">
        <ele>0.2</ele>
        <time>2017-06-17T11:04:56Z</time>
      </trkpt>
      <trkpt lat="60.111042529317" lon="21.52315262289">
        <ele>0.2</ele>
        <time>2017-06-17T11:04:57Z</time>
      </trkpt>
      <trkpt lat="60.111053090511" lon="21.523167375034">
        <ele>0.2</ele>
        <time>2017-06-17T11:04:58Z</time>
      </trkpt>
      <trkpt lat="60.111064573714" lon="21.523186569585">
        <ele>0.2</ele>
        <time>2017-06-17T11:04:59Z</time>
      </trkpt>
      <trkpt lat="60.111075470184" lon="21.523204758308">
        <ele>0.2</ele>
        <time>2017-06-17T11:05:00Z</time>
      </trkpt>
      <trkpt lat="60.111084690274" lon="21.523221941203">
        <ele>0.2</ele>
        <time>2017-06-17T11:05:01Z</time>
      </trkpt>
      <trkpt lat="60.111095167649" lon="21.52324230922">
        <ele>0.2</ele>
        <time>2017-06-17T11:05:02Z</time>
      </trkpt>
      <trkpt lat="60.11110430392" lon="21.523259995029">
        <ele>0.2</ele>
        <time>2017-06-17T11:05:03Z</time>
      </trkpt>
      <trkpt lat="60.111114278381" lon="21.523282123245">
        <ele>0.2</ele>
        <time>2017-06-17T11:05:04Z</time>
      </trkpt>
      <trkpt lat="60.111123163195" lon="21.523302072167">
        <ele>0.2</ele>
        <time>2017-06-17T11:05:05Z</time>
      </trkpt>
      <trkpt lat="60.111129701077" lon="21.52332361365">
        <ele>0.2</ele>
        <time>2017-06-17T11:05:06Z</time>
      </trkpt>
      <trkpt lat="60.111135484588" lon="21.523346999151">
        <ele>0.2</ele>
        <time>2017-06-17T11:05:07Z</time>
      </trkpt>
      <trkpt lat="60.111144788497" lon="21.523363427675">
        <ele>0.2</ele>
        <time>2017-06-17T11:05:08Z</time>
      </trkpt>
      <trkpt lat="60.111152332207" lon="21.523390585031">
        <ele>0.2</ele>
        <time>2017-06-17T11:05:09Z</time>
      </trkpt>
      <trkpt lat="60.11115962446" lon="21.523409611944">
        <ele>0.2</ele>
        <time>2017-06-17T11:05:10Z</time>
      </trkpt>
      <trkpt lat="60.111167838722" lon="21.523436853119">
        <ele>0.2</ele>
        <time>2017-06-17T11:05:11Z</time>
      </trkpt>
      <trkpt lat="60.111174795699" lon="21.523456215308">
        <ele>0.2</ele>
        <time>2017-06-17T11:05:12Z</time>
      </trkpt>
      <trkpt lat="60.111185356893" lon="21.523481025732">
        <ele>0.2</ele>
        <time>2017-06-17T11:05:13Z</time>
      </trkpt>
      <trkpt lat="60.111193319698" lon="21.523495694057">
        <ele>0.2</ele>
        <time>2017-06-17T11:05:14Z</time>
      </trkpt>
      <trkpt lat="60.111203713254" lon="21.5235122064">
        <ele>0.2</ele>
        <time>2017-06-17T11:05:15Z</time>
      </trkpt>
      <trkpt lat="60.111215280276" lon="21.523525952716">
        <ele>0.2</ele>
        <time>2017-06-17T11:05:16Z</time>
      </trkpt>
      <trkpt lat="60.111224668004" lon="21.523538860842">
        <ele>0.2</ele>
        <time>2017-06-17T11:05:17Z</time>
      </trkpt>
      <trkpt lat="60.111237659949" lon="21.523552355701">
        <ele>0.2</ele>
        <time>2017-06-17T11:05:18Z</time>
      </trkpt>
      <trkpt lat="60.111247885867" lon="21.523563168352">
        <ele>0.2</ele>
        <time>2017-06-17T11:05:19Z</time>
      </trkpt>
      <trkpt lat="60.11126020726" lon="21.523576830849">
        <ele>0.2</ele>
        <time>2017-06-17T11:05:20Z</time>
      </trkpt>
      <trkpt lat="60.111270936092" lon="21.523590241889">
        <ele>0.2</ele>
        <time>2017-06-17T11:05:21Z</time>
      </trkpt>
      <trkpt lat="60.11128283839" lon="21.523602228006">
        <ele>0.2</ele>
        <time>2017-06-17T11:05:22Z</time>
      </trkpt>
      <trkpt lat="60.111296081792" lon="21.523615974322">
        <ele>0.2</ele>
        <time>2017-06-17T11:05:23Z</time>
      </trkpt>
      <trkpt lat="60.111309073737" lon="21.523627625163">
        <ele>0.2</ele>
        <time>2017-06-17T11:05:24Z</time>
      </trkpt>
      <trkpt lat="60.111322652415" lon="21.523636174701">
        <ele>0.2</ele>
        <time>2017-06-17T11:05:25Z</time>
      </trkpt>
      <trkpt lat="60.111333800342" lon="21.523643299316">
        <ele>0.2</ele>
        <time>2017-06-17T11:05:26Z</time>
      </trkpt>
      <trkpt lat="60.111350061228" lon="21.52365134594">
        <ele>0.2</ele>
        <time>2017-06-17T11:05:27Z</time>
      </trkpt>
      <trkpt lat="60.111362550259" lon="21.523657632365">
        <ele>0.2</ele>
        <time>2017-06-17T11:05:28Z</time>
      </trkpt>
      <trkpt lat="60.111378978783" lon="21.52366559517">
        <ele>0.2</ele>
        <time>2017-06-17T11:05:29Z</time>
      </trkpt>
      <trkpt lat="60.111391216357" lon="21.523671546319">
        <ele>0.2</ele>
        <time>2017-06-17T11:05:30Z</time>
      </trkpt>
      <trkpt lat="60.111405884682" lon="21.523680766409">
        <ele>0.2</ele>
        <time>2017-06-17T11:05:31Z</time>
      </trkpt>
      <trkpt lat="60.111419044265" lon="21.523688561576">
        <ele>0.2</ele>
        <time>2017-06-17T11:05:32Z</time>
      </trkpt>
      <trkpt lat="60.111434047866" lon="21.523699290408">
        <ele>0.2</ele>
        <time>2017-06-17T11:05:33Z</time>
      </trkpt>
      <trkpt lat="60.111445028155" lon="21.523706750299">
        <ele>0.2</ele>
        <time>2017-06-17T11:05:34Z</time>
      </trkpt>
      <trkpt lat="60.11146137286" lon="21.523718233502">
        <ele>0.2</ele>
        <time>2017-06-17T11:05:35Z</time>
      </trkpt>
      <trkpt lat="60.11147226933" lon="21.523727537411">
        <ele>0.2</ele>
        <time>2017-06-17T11:05:36Z</time>
      </trkpt>
      <trkpt lat="60.11148484218" lon="21.523738182424">
        <ele>0.2</ele>
        <time>2017-06-17T11:05:37Z</time>
      </trkpt>
      <trkpt lat="60.111496660659" lon="21.523747486333">
        <ele>0.2</ele>
        <time>2017-06-17T11:05:38Z</time>
      </trkpt>
      <trkpt lat="60.111509652604" lon="21.523757544613">
        <ele>0.2</ele>
        <time>2017-06-17T11:05:39Z</time>
      </trkpt>
      <trkpt lat="60.111522896006" lon="21.523766848522">
        <ele>0.2</ele>
        <time>2017-06-17T11:05:40Z</time>
      </trkpt>
      <trkpt lat="60.111534379209" lon="21.523775733336">
        <ele>0.2</ele>
        <time>2017-06-17T11:05:41Z</time>
      </trkpt>
      <trkpt lat="60.111547874068" lon="21.523786965082">
        <ele>0.2</ele>
        <time>2017-06-17T11:05:42Z</time>
      </trkpt>
      <trkpt lat="60.111560446918" lon="21.523797442457">
        <ele>0.2</ele>
        <time>2017-06-17T11:05:43Z</time>
      </trkpt>
      <trkpt lat="60.11157285213" lon="21.523809260936">
        <ele>0.2</ele>
        <time>2017-06-17T11:05:44Z</time>
      </trkpt>
      <trkpt lat="60.111587268998" lon="21.523821833786">
        <ele>0.2</ele>
        <time>2017-06-17T11:05:45Z</time>
      </trkpt>
      <trkpt lat="60.111597327278" lon="21.523831053876">
        <ele>0.2</ele>
        <time>2017-06-17T11:05:46Z</time>
      </trkpt>
      <trkpt lat="60.111610067766" lon="21.523843375269">
        <ele>0.2</ele>
        <time>2017-06-17T11:05:47Z</time>
      </trkpt>
      <trkpt lat="60.111623562625" lon="21.523856534852">
        <ele>0.2</ele>
        <time>2017-06-17T11:05:48Z</time>
      </trkpt>
      <trkpt lat="60.111633537086" lon="21.523865168209">
        <ele>0.2</ele>
        <time>2017-06-17T11:05:49Z</time>
      </trkpt>
      <trkpt lat="60.111648373049" lon="21.523882351104">
        <ele>0.2</ele>
        <time>2017-06-17T11:05:50Z</time>
      </trkpt>
      <trkpt lat="60.111658515148" lon="21.523893918126">
        <ele>0.2</ele>
        <time>2017-06-17T11:05:51Z</time>
      </trkpt>
      <trkpt lat="60.111668154333" lon="21.523907077709">
        <ele>0.2</ele>
        <time>2017-06-17T11:05:52Z</time>
      </trkpt>
      <trkpt lat="60.11167930226" lon="21.523925685527">
        <ele>0.2</ele>
        <time>2017-06-17T11:05:53Z</time>
      </trkpt>
      <trkpt lat="60.111691791291" lon="21.52394135968">
        <ele>0.2</ele>
        <time>2017-06-17T11:05:54Z</time>
      </trkpt>
      <trkpt lat="60.111701346657" lon="21.52395812348">
        <ele>0.2</ele>
        <time>2017-06-17T11:05:55Z</time>
      </trkpt>
      <trkpt lat="60.111712746041" lon="21.523971702158">
        <ele>0.2</ele>
        <time>2017-06-17T11:05:56Z</time>
      </trkpt>
      <trkpt lat="60.111722636683" lon="21.523988130682">
        <ele>0.2</ele>
        <time>2017-06-17T11:05:57Z</time>
      </trkpt>
      <trkpt lat="60.111734371343" lon="21.524001625541">
        <ele>0.2</ele>
        <time>2017-06-17T11:05:58Z</time>
      </trkpt>
      <trkpt lat="60.111746441279" lon="21.524011683821">
        <ele>0.2</ele>
        <time>2017-06-17T11:05:59Z</time>
      </trkpt>
      <trkpt lat="60.111759852319" lon="21.524022245015">
        <ele>0.2</ele>
        <time>2017-06-17T11:06:00Z</time>
      </trkpt>
      <trkpt lat="60.111771167884" lon="21.524026938879">
        <ele>0.2</ele>
        <time>2017-06-17T11:06:01Z</time>
      </trkpt>
      <trkpt lat="60.111784662743" lon="21.524033895856">
        <ele>0.2</ele>
        <time>2017-06-17T11:06:02Z</time>
      </trkpt>
      <trkpt lat="60.111797319412" lon="21.524038170625">
        <ele>0.2</ele>
        <time>2017-06-17T11:06:03Z</time>
      </trkpt>
      <trkpt lat="60.111810646633" lon="21.524045043783">
        <ele>0.2</ele>
        <time>2017-06-17T11:06:04Z</time>
      </trkpt>
      <trkpt lat="60.111823554759" lon="21.524044037955">
        <ele>0.2</ele>
        <time>2017-06-17T11:06:05Z</time>
      </trkpt>
      <trkpt lat="60.111837384894" lon="21.52405200076">
        <ele>0.2</ele>
        <time>2017-06-17T11:06:06Z</time>
      </trkpt>
      <trkpt lat="60.111850041563" lon="21.524049570009">
        <ele>0.2</ele>
        <time>2017-06-17T11:06:07Z</time>
      </trkpt>
      <trkpt lat="60.111863955517" lon="21.524057616633">
        <ele>0.2</ele>
        <time>2017-06-17T11:06:08Z</time>
      </trkpt>
      <trkpt lat="60.111878707661" lon="21.524057616633">
        <ele>0.2</ele>
        <time>2017-06-17T11:06:09Z</time>
      </trkpt>
      <trkpt lat="60.111892873072" lon="21.524055018244">
        <ele>0.2</ele>
        <time>2017-06-17T11:06:10Z</time>
      </trkpt>
      <trkpt lat="60.111905110646" lon="21.524055185882">
        <ele>0.2</ele>
        <time>2017-06-17T11:06:11Z</time>
      </trkpt>
      <trkpt lat="60.111921455351" lon="21.524056443167">
        <ele>0.2</ele>
        <time>2017-06-17T11:06:12Z</time>
      </trkpt>
      <trkpt lat="60.11193495021" lon="21.524058287185">
        <ele>0.2</ele>
        <time>2017-06-17T11:06:13Z</time>
      </trkpt>
      <trkpt lat="60.111951462553" lon="21.524061556126">
        <ele>0.2</ele>
        <time>2017-06-17T11:06:14Z</time>
      </trkpt>
      <trkpt lat="60.111963783946" lon="21.524064405972">
        <ele>0.2</ele>
        <time>2017-06-17T11:06:15Z</time>
      </trkpt>
      <trkpt lat="60.111977614081" lon="21.524070608578">
        <ele>0.2</ele>
        <time>2017-06-17T11:06:16Z</time>
      </trkpt>
      <trkpt lat="60.111990857483" lon="21.524076978822">
        <ele>0.2</ele>
        <time>2017-06-17T11:06:17Z</time>
      </trkpt>
      <trkpt lat="60.112005693446" lon="21.524087707654">
        <ele>0.2</ele>
        <time>2017-06-17T11:06:18Z</time>
      </trkpt>
      <trkpt lat="60.112019439762" lon="21.524098687943">
        <ele>0</ele>
        <time>2017-06-17T11:06:19Z</time>
      </trkpt>
      <trkpt lat="60.112031844974" lon="21.524110506422">
        <ele>0</ele>
        <time>2017-06-17T11:06:20Z</time>
      </trkpt>
      <trkpt lat="60.112046680937" lon="21.524124588014">
        <ele>0</ele>
        <time>2017-06-17T11:06:21Z</time>
      </trkpt>
      <trkpt lat="60.11205648776" lon="21.524135735941">
        <ele>0</ele>
        <time>2017-06-17T11:06:22Z</time>
      </trkpt>
      <trkpt lat="60.112071742818" lon="21.52415258356">
        <ele>0</ele>
        <time>2017-06-17T11:06:23Z</time>
      </trkpt>
      <trkpt lat="60.112081968736" lon="21.524165240229">
        <ele>0</ele>
        <time>2017-06-17T11:06:24Z</time>
      </trkpt>
      <trkpt lat="60.112095379776" lon="21.524181584934">
        <ele>0</ele>
        <time>2017-06-17T11:06:25Z</time>
      </trkpt>
      <trkpt lat="60.112105270418" lon="21.52419533125">
        <ele>0</ele>
        <time>2017-06-17T11:06:26Z</time>
      </trkpt>
      <trkpt lat="60.112116669802" lon="21.524212430326">
        <ele>0</ele>
        <time>2017-06-17T11:06:27Z</time>
      </trkpt>
      <trkpt lat="60.112128236824" lon="21.524230367592">
        <ele>0</ele>
        <time>2017-06-17T11:06:28Z</time>
      </trkpt>
      <trkpt lat="60.112138378923" lon="21.524248807772">
        <ele>0</ele>
        <time>2017-06-17T11:06:29Z</time>
      </trkpt>
      <trkpt lat="60.112148185746" lon="21.524270349255">
        <ele>0</ele>
        <time>2017-06-17T11:06:30Z</time>
      </trkpt>
      <trkpt lat="60.112158076388" lon="21.524293567118">
        <ele>0</ele>
        <time>2017-06-17T11:06:31Z</time>
      </trkpt>
      <trkpt lat="60.112167715573" lon="21.524305469416">
        <ele>0</ele>
        <time>2017-06-17T11:06:32Z</time>
      </trkpt>
      <trkpt lat="60.112177438577" lon="21.524328100546">
        <ele>0</ele>
        <time>2017-06-17T11:06:33Z</time>
      </trkpt>
      <trkpt lat="60.112186658667" lon="21.524343104147">
        <ele>0</ele>
        <time>2017-06-17T11:06:34Z</time>
      </trkpt>
      <trkpt lat="60.112198728603" lon="21.52436632201">
        <ele>0</ele>
        <time>2017-06-17T11:06:35Z</time>
      </trkpt>
      <trkpt lat="60.112209625073" lon="21.524380822697">
        <ele>0</ele>
        <time>2017-06-17T11:06:36Z</time>
      </trkpt>
      <trkpt lat="60.112221695009" lon="21.524395239565">
        <ele>0</ele>
        <time>2017-06-17T11:06:37Z</time>
      </trkpt>
      <trkpt lat="60.112234519316" lon="21.524408147691">
        <ele>0</ele>
        <time>2017-06-17T11:06:38Z</time>
      </trkpt>
      <trkpt lat="60.112248684727" lon="21.524416026677">
        <ele>0</ele>
        <time>2017-06-17T11:06:39Z</time>
      </trkpt>
      <trkpt lat="60.112258575369" lon="21.524423989482">
        <ele>0</ele>
        <time>2017-06-17T11:06:40Z</time>
      </trkpt>
      <trkpt lat="60.112274081884" lon="21.524432287563">
        <ele>0</ele>
        <time>2017-06-17T11:06:41Z</time>
      </trkpt>
      <trkpt lat="60.112287325286" lon="21.524439160721">
        <ele>0</ele>
        <time>2017-06-17T11:06:42Z</time>
      </trkpt>
      <trkpt lat="60.112301658335" lon="21.524449805734">
        <ele>0</ele>
        <time>2017-06-17T11:06:43Z</time>
      </trkpt>
      <trkpt lat="60.112313392995" lon="21.524460031652">
        <ele>0</ele>
        <time>2017-06-17T11:06:44Z</time>
      </trkpt>
      <trkpt lat="60.112328228958" lon="21.524471347217">
        <ele>0</ele>
        <time>2017-06-17T11:06:45Z</time>
      </trkpt>
      <trkpt lat="60.112339628342" lon="21.524478052737">
        <ele>0</ele>
        <time>2017-06-17T11:06:46Z</time>
      </trkpt>
      <trkpt lat="60.112353374658" lon="21.524486518456">
        <ele>0</ele>
        <time>2017-06-17T11:06:47Z</time>
      </trkpt>
      <trkpt lat="60.112366953336" lon="21.524491296139">
        <ele>0</ele>
        <time>2017-06-17T11:06:48Z</time>
      </trkpt>
      <trkpt lat="60.11238170548" lon="21.524494481261">
        <ele>0</ele>
        <time>2017-06-17T11:06:49Z</time>
      </trkpt>
      <trkpt lat="60.112392769588" lon="21.52449959422">
        <ele>0</ele>
        <time>2017-06-17T11:06:50Z</time>
      </trkpt>
      <trkpt lat="60.112409533388" lon="21.524502276428">
        <ele>0</ele>
        <time>2017-06-17T11:06:51Z</time>
      </trkpt>
      <trkpt lat="60.112420346039" lon="21.524504790998">
        <ele>0</ele>
        <time>2017-06-17T11:06:52Z</time>
      </trkpt>
      <trkpt lat="60.112435601097" lon="21.524511664156">
        <ele>0</ele>
        <time>2017-06-17T11:06:53Z</time>
      </trkpt>
      <trkpt lat="60.112449682689" lon="21.524519794599">
        <ele>0</ele>
        <time>2017-06-17T11:06:54Z</time>
      </trkpt>
      <trkpt lat="60.112463345186" lon="21.524518453495">
        <ele>0</ele>
        <time>2017-06-17T11:06:55Z</time>
      </trkpt>
      <trkpt lat="60.112477007683" lon="21.524528427956">
        <ele>0</ele>
        <time>2017-06-17T11:06:56Z</time>
      </trkpt>
      <trkpt lat="60.112491173094" lon="21.524532451268">
        <ele>0</ele>
        <time>2017-06-17T11:06:57Z</time>
      </trkpt>
      <trkpt lat="60.112505422324" lon="21.5245347982">
        <ele>0</ele>
        <time>2017-06-17T11:06:58Z</time>
      </trkpt>
      <trkpt lat="60.112519252459" lon="21.524536223123">
        <ele>0</ele>
        <time>2017-06-17T11:06:59Z</time>
      </trkpt>
      <trkpt lat="60.112532244404" lon="21.524538402417">
        <ele>0</ele>
        <time>2017-06-17T11:07:00Z</time>
      </trkpt>
      <trkpt lat="60.112544901073" lon="21.524539324426">
        <ele>0</ele>
        <time>2017-06-17T11:07:01Z</time>
      </trkpt>
      <trkpt lat="60.112559485579" lon="21.524540162616">
        <ele>0</ele>
        <time>2017-06-17T11:07:02Z</time>
      </trkpt>
      <trkpt lat="60.112575243551" lon="21.524540246435">
        <ele>0</ele>
        <time>2017-06-17T11:07:03Z</time>
      </trkpt>
      <trkpt lat="60.1125895766" lon="21.524542258091">
        <ele>0</ele>
        <time>2017-06-17T11:07:04Z</time>
      </trkpt>
      <trkpt lat="60.112606256581" lon="21.524543766833">
        <ele>0</ele>
        <time>2017-06-17T11:07:05Z</time>
      </trkpt>
      <trkpt lat="60.112620841087" lon="21.52454904743">
        <ele>0</ele>
        <time>2017-06-17T11:07:06Z</time>
      </trkpt>
      <trkpt lat="60.112632240471" lon="21.524555333855">
        <ele>0</ele>
        <time>2017-06-17T11:07:07Z</time>
      </trkpt>
      <trkpt lat="60.112646741158" lon="21.524569750723">
        <ele>0</ele>
        <time>2017-06-17T11:07:08Z</time>
      </trkpt>
      <trkpt lat="60.112661158026" lon="21.524573271121">
        <ele>0</ele>
        <time>2017-06-17T11:07:09Z</time>
      </trkpt>
      <trkpt lat="60.112674149971" lon="21.524586849799">
        <ele>0</ele>
        <time>2017-06-17T11:07:10Z</time>
      </trkpt>
      <trkpt lat="60.11268764483" lon="21.524593303862">
        <ele>0</ele>
        <time>2017-06-17T11:07:11Z</time>
      </trkpt>
      <trkpt lat="60.112700636775" lon="21.524606798721">
        <ele>0</ele>
        <time>2017-06-17T11:07:12Z</time>
      </trkpt>
      <trkpt lat="60.112715975652" lon="21.524614174793">
        <ele>0</ele>
        <time>2017-06-17T11:07:13Z</time>
      </trkpt>
      <trkpt lat="60.112730727796" lon="21.524617108458">
        <ele>0</ele>
        <time>2017-06-17T11:07:14Z</time>
      </trkpt>
      <trkpt lat="60.112742210999" lon="21.524620042123">
        <ele>0</ele>
        <time>2017-06-17T11:07:15Z</time>
      </trkpt>
      <trkpt lat="60.112756879324" lon="21.524621383227">
        <ele>0</ele>
        <time>2017-06-17T11:07:16Z</time>
      </trkpt>
      <trkpt lat="60.112769368355" lon="21.524623059607">
        <ele>0</ele>
        <time>2017-06-17T11:07:17Z</time>
      </trkpt>
      <trkpt lat="60.112786132155" lon="21.52462448453">
        <ele>0</ele>
        <time>2017-06-17T11:07:18Z</time>
      </trkpt>
      <trkpt lat="60.112798537367" lon="21.524627334376">
        <ele>0</ele>
        <time>2017-06-17T11:07:19Z</time>
      </trkpt>
      <trkpt lat="60.112813457149" lon="21.524633285525">
        <ele>0</ele>
        <time>2017-06-17T11:07:20Z</time>
      </trkpt>
      <trkpt lat="60.112824102162" lon="21.524637225018">
        <ele>0</ele>
        <time>2017-06-17T11:07:21Z</time>
      </trkpt>
      <trkpt lat="60.112837094107" lon="21.52464543928">
        <ele>0</ele>
        <time>2017-06-17T11:07:22Z</time>
      </trkpt>
      <trkpt lat="60.112851762432" lon="21.524651474248">
        <ele>0</ele>
        <time>2017-06-17T11:07:23Z</time>
      </trkpt>
      <trkpt lat="60.112866933671" lon="21.524659185596">
        <ele>0</ele>
        <time>2017-06-17T11:07:24Z</time>
      </trkpt>
      <trkpt lat="60.112881015263" lon="21.524663628003">
        <ele>0</ele>
        <time>2017-06-17T11:07:25Z</time>
      </trkpt>
      <trkpt lat="60.112894845398" lon="21.524666226392">
        <ele>0</ele>
        <time>2017-06-17T11:07:26Z</time>
      </trkpt>
      <trkpt lat="60.112907166791" lon="21.524671506989">
        <ele>0</ele>
        <time>2017-06-17T11:07:27Z</time>
      </trkpt>
      <trkpt lat="60.11292149984" lon="21.524675111206">
        <ele>0</ele>
        <time>2017-06-17T11:07:28Z</time>
      </trkpt>
      <trkpt lat="60.112934994699" lon="21.524680056527">
        <ele>0</ele>
        <time>2017-06-17T11:07:29Z</time>
      </trkpt>
      <trkpt lat="60.112949830662" lon="21.524686929685">
        <ele>0</ele>
        <time>2017-06-17T11:07:30Z</time>
      </trkpt>
      <trkpt lat="60.112962235874" lon="21.524690617721">
        <ele>0</ele>
        <time>2017-06-17T11:07:31Z</time>
      </trkpt>
      <trkpt lat="60.112974054353" lon="21.524697826155">
        <ele>0</ele>
        <time>2017-06-17T11:07:32Z</time>
      </trkpt>
      <trkpt lat="60.112989560868" lon="21.524702268562">
        <ele>0</ele>
        <time>2017-06-17T11:07:33Z</time>
      </trkpt>
      <trkpt lat="60.113001044071" lon="21.524704364037">
        <ele>0</ele>
        <time>2017-06-17T11:07:34Z</time>
      </trkpt>
      <trkpt lat="60.11301118617" lon="21.524706124236">
        <ele>0</ele>
        <time>2017-06-17T11:07:35Z</time>
      </trkpt>
      <trkpt lat="60.113026608866" lon="21.524709644634">
        <ele>0</ele>
        <time>2017-06-17T11:07:36Z</time>
      </trkpt>
      <trkpt lat="60.113039097897" lon="21.524712159204">
        <ele>0</ele>
        <time>2017-06-17T11:07:37Z</time>
      </trkpt>
      <trkpt lat="60.113052760394" lon="21.524718194172">
        <ele>0</ele>
        <time>2017-06-17T11:07:38Z</time>
      </trkpt>
      <trkpt lat="60.113066841986" lon="21.524722636579">
        <ele>0</ele>
        <time>2017-06-17T11:07:39Z</time>
      </trkpt>
      <trkpt lat="60.113079750112" lon="21.524727498081">
        <ele>0</ele>
        <time>2017-06-17T11:07:40Z</time>
      </trkpt>
      <trkpt lat="60.113094334618" lon="21.524730515565">
        <ele>0</ele>
        <time>2017-06-17T11:07:41Z</time>
      </trkpt>
      <trkpt lat="60.113107913296" lon="21.524735544705">
        <ele>0</ele>
        <time>2017-06-17T11:07:42Z</time>
      </trkpt>
      <trkpt lat="60.113125682924" lon="21.524740406207">
        <ele>0</ele>
        <time>2017-06-17T11:07:43Z</time>
      </trkpt>
      <trkpt lat="60.113138423412" lon="21.524744680976">
        <ele>0</ele>
        <time>2017-06-17T11:07:44Z</time>
      </trkpt>
      <trkpt lat="60.113156109221" lon="21.524748369012">
        <ele>0</ele>
        <time>2017-06-17T11:07:45Z</time>
      </trkpt>
      <trkpt lat="60.113168095338" lon="21.524752224686">
        <ele>0</ele>
        <time>2017-06-17T11:07:46Z</time>
      </trkpt>
      <trkpt lat="60.113184607681" lon="21.524757672921">
        <ele>0</ele>
        <time>2017-06-17T11:07:47Z</time>
      </trkpt>
      <trkpt lat="60.113200030377" lon="21.524762702061">
        <ele>0</ele>
        <time>2017-06-17T11:07:48Z</time>
      </trkpt>
      <trkpt lat="60.11321486634" lon="21.524768234115">
        <ele>0</ele>
        <time>2017-06-17T11:07:49Z</time>
      </trkpt>
      <trkpt lat="60.113230372855" lon="21.52477116778">
        <ele>0</ele>
        <time>2017-06-17T11:07:50Z</time>
      </trkpt>
      <trkpt lat="60.113243783895" lon="21.524776448377">
        <ele>0</ele>
        <time>2017-06-17T11:07:51Z</time>
      </trkpt>
      <trkpt lat="60.113258284582" lon="21.524779465861">
        <ele>0</ele>
        <time>2017-06-17T11:07:52Z</time>
      </trkpt>
      <trkpt lat="60.113272785269" lon="21.524783489173">
        <ele>0</ele>
        <time>2017-06-17T11:07:53Z</time>
      </trkpt>
      <trkpt lat="60.113289884345" lon="21.524786758114">
        <ele>0</ele>
        <time>2017-06-17T11:07:54Z</time>
      </trkpt>
      <trkpt lat="60.113303127747" lon="21.524789943236">
        <ele>0</ele>
        <time>2017-06-17T11:07:55Z</time>
      </trkpt>
      <trkpt lat="60.113319891547" lon="21.524792457806">
        <ele>0</ele>
        <time>2017-06-17T11:07:56Z</time>
      </trkpt>
      <trkpt lat="60.113333973139" lon="21.524793966548">
        <ele>0</ele>
        <time>2017-06-17T11:07:57Z</time>
      </trkpt>
      <trkpt lat="60.113349898749" lon="21.524796900213">
        <ele>0</ele>
        <time>2017-06-17T11:07:58Z</time>
      </trkpt>
      <trkpt lat="60.113366159635" lon="21.524798744231">
        <ele>0</ele>
        <time>2017-06-17T11:07:59Z</time>
      </trkpt>
      <trkpt lat="60.113382671978" lon="21.524801258801">
        <ele>0</ele>
        <time>2017-06-17T11:08:00Z</time>
      </trkpt>
      <trkpt lat="60.113398346131" lon="21.524802935181">
        <ele>0</ele>
        <time>2017-06-17T11:08:01Z</time>
      </trkpt>
      <trkpt lat="60.113412343904" lon="21.524805868846">
        <ele>0</ele>
        <time>2017-06-17T11:08:02Z</time>
      </trkpt>
      <trkpt lat="60.113429275342" lon="21.524807293769">
        <ele>0</ele>
        <time>2017-06-17T11:08:03Z</time>
      </trkpt>
      <trkpt lat="60.113443105477" lon="21.524811065624">
        <ele>0</ele>
        <time>2017-06-17T11:08:04Z</time>
      </trkpt>
      <trkpt lat="60.113459534001" lon="21.524814334565">
        <ele>0</ele>
        <time>2017-06-17T11:08:05Z</time>
      </trkpt>
      <trkpt lat="60.113473615593" lon="21.524819196067">
        <ele>0</ele>
        <time>2017-06-17T11:08:06Z</time>
      </trkpt>
      <trkpt lat="60.113489708841" lon="21.524821040085">
        <ele>0</ele>
        <time>2017-06-17T11:08:07Z</time>
      </trkpt>
      <trkpt lat="60.113504377166" lon="21.524825063397">
        <ele>0</ele>
        <time>2017-06-17T11:08:08Z</time>
      </trkpt>
      <trkpt lat="60.113522146794" lon="21.524827158872">
        <ele>0</ele>
        <time>2017-06-17T11:08:09Z</time>
      </trkpt>
      <trkpt lat="60.113534887282" lon="21.524830846908">
        <ele>0</ele>
        <time>2017-06-17T11:08:10Z</time>
      </trkpt>
      <trkpt lat="60.113552405453" lon="21.52483403203">
        <ele>0</ele>
        <time>2017-06-17T11:08:11Z</time>
      </trkpt>
      <trkpt lat="60.113566822321" lon="21.524837720066">
        <ele>0</ele>
        <time>2017-06-17T11:08:12Z</time>
      </trkpt>
      <trkpt lat="60.113584927225" lon="21.524841156645">
        <ele>0</ele>
        <time>2017-06-17T11:08:13Z</time>
      </trkpt>
      <trkpt lat="60.113598086808" lon="21.524844760862">
        <ele>0</ele>
        <time>2017-06-17T11:08:14Z</time>
      </trkpt>
      <trkpt lat="60.113615688798" lon="21.524848197441">
        <ele>0</ele>
        <time>2017-06-17T11:08:15Z</time>
      </trkpt>
      <trkpt lat="60.113628764562" lon="21.524851214925">
        <ele>0</ele>
        <time>2017-06-17T11:08:16Z</time>
      </trkpt>
      <trkpt lat="60.113646031276" lon="21.524853478038">
        <ele>0</ele>
        <time>2017-06-17T11:08:17Z</time>
      </trkpt>
      <trkpt lat="60.113661286334" lon="21.524856076427">
        <ele>0</ele>
        <time>2017-06-17T11:08:18Z</time>
      </trkpt>
      <trkpt lat="60.113677295763" lon="21.524859429187">
        <ele>0</ele>
        <time>2017-06-17T11:08:19Z</time>
      </trkpt>
      <trkpt lat="60.113690203889" lon="21.524861273205">
        <ele>0</ele>
        <time>2017-06-17T11:08:20Z</time>
      </trkpt>
      <trkpt lat="60.113705626585" lon="21.524864123051">
        <ele>0</ele>
        <time>2017-06-17T11:08:21Z</time>
      </trkpt>
      <trkpt lat="60.113719121444" lon="21.524864290689">
        <ele>0</ele>
        <time>2017-06-17T11:08:22Z</time>
      </trkpt>
      <trkpt lat="60.113735969063" lon="21.524866553802">
        <ele>0</ele>
        <time>2017-06-17T11:08:23Z</time>
      </trkpt>
      <trkpt lat="60.113751475578" lon="21.524866889078">
        <ele>0</ele>
        <time>2017-06-17T11:08:24Z</time>
      </trkpt>
      <trkpt lat="60.113765724808" lon="21.524869655105">
        <ele>0</ele>
        <time>2017-06-17T11:08:25Z</time>
      </trkpt>
      <trkpt lat="60.113780476952" lon="21.524869152191">
        <ele>0</ele>
        <time>2017-06-17T11:08:26Z</time>
      </trkpt>
      <trkpt lat="60.113794139449" lon="21.524871331485">
        <ele>0</ele>
        <time>2017-06-17T11:08:27Z</time>
      </trkpt>
      <trkpt lat="60.113810987068" lon="21.524871331485">
        <ele>0</ele>
        <time>2017-06-17T11:08:28Z</time>
      </trkpt>
      <trkpt lat="60.113825823031" lon="21.524873929874">
        <ele>0</ele>
        <time>2017-06-17T11:08:29Z</time>
      </trkpt>
      <trkpt lat="60.113843592659" lon="21.524874768064">
        <ele>0</ele>
        <time>2017-06-17T11:08:30Z</time>
      </trkpt>
      <trkpt lat="60.113858009527" lon="21.524877701729">
        <ele>0</ele>
        <time>2017-06-17T11:08:31Z</time>
      </trkpt>
      <trkpt lat="60.113874270413" lon="21.524879126652">
        <ele>0</ele>
        <time>2017-06-17T11:08:32Z</time>
      </trkpt>
      <trkpt lat="60.113889106376" lon="21.524882311774">
        <ele>0</ele>
        <time>2017-06-17T11:08:33Z</time>
      </trkpt>
      <trkpt lat="60.113905367262" lon="21.524884491068">
        <ele>0</ele>
        <time>2017-06-17T11:08:34Z</time>
      </trkpt>
      <trkpt lat="60.113920203225" lon="21.524888598199">
        <ele>0</ele>
        <time>2017-06-17T11:08:35Z</time>
      </trkpt>
      <trkpt lat="60.113937469939" lon="21.524891783321">
        <ele>0</ele>
        <time>2017-06-17T11:08:36Z</time>
      </trkpt>
      <trkpt lat="60.113950461884" lon="21.524894800805">
        <ele>0</ele>
        <time>2017-06-17T11:08:37Z</time>
      </trkpt>
      <trkpt lat="60.113966638951" lon="21.52490024904">
        <ele>0</ele>
        <time>2017-06-17T11:08:38Z</time>
      </trkpt>
      <trkpt lat="60.113980804362" lon="21.524904523809">
        <ele>0</ele>
        <time>2017-06-17T11:08:39Z</time>
      </trkpt>
      <trkpt lat="60.113994466859" lon="21.52491030732">
        <ele>0</ele>
        <time>2017-06-17T11:08:40Z</time>
      </trkpt>
      <trkpt lat="60.114008129356" lon="21.52491533646">
        <ele>0</ele>
        <time>2017-06-17T11:08:41Z</time>
      </trkpt>
      <trkpt lat="60.114023300595" lon="21.524923550722">
        <ele>0</ele>
        <time>2017-06-17T11:08:42Z</time>
      </trkpt>
      <trkpt lat="60.114040567309" lon="21.52493210026">
        <ele>0</ele>
        <time>2017-06-17T11:08:43Z</time>
      </trkpt>
      <trkpt lat="60.114051463779" lon="21.524938721961">
        <ele>0</ele>
        <time>2017-06-17T11:08:44Z</time>
      </trkpt>
      <trkpt lat="60.114065964466" lon="21.52494886406">
        <ele>0</ele>
        <time>2017-06-17T11:08:45Z</time>
      </trkpt>
      <trkpt lat="60.114077699126" lon="21.524963532385">
        <ele>0</ele>
        <time>2017-06-17T11:08:46Z</time>
      </trkpt>
      <trkpt lat="60.11409245127" lon="21.524973003932">
        <ele>0</ele>
        <time>2017-06-17T11:08:47Z</time>
      </trkpt>
      <trkpt lat="60.11410502412" lon="21.524990354465">
        <ele>0</ele>
        <time>2017-06-17T11:08:48Z</time>
      </trkpt>
      <trkpt lat="60.114116255866" lon="21.525001753849">
        <ele>0</ele>
        <time>2017-06-17T11:08:49Z</time>
      </trkpt>
      <trkpt lat="60.114129080173" lon="21.525011812129">
        <ele>0</ele>
        <time>2017-06-17T11:08:50Z</time>
      </trkpt>
      <trkpt lat="60.114142155937" lon="21.525020864581">
        <ele>0</ele>
        <time>2017-06-17T11:08:51Z</time>
      </trkpt>
      <trkpt lat="60.114150956932" lon="21.525028659748">
        <ele>0</ele>
        <time>2017-06-17T11:08:52Z</time>
      </trkpt>
      <trkpt lat="60.114165960533" lon="21.525037796019">
        <ele>0</ele>
        <time>2017-06-17T11:08:53Z</time>
      </trkpt>
      <trkpt lat="60.114176689365" lon="21.525044669177">
        <ele>0</ele>
        <time>2017-06-17T11:08:54Z</time>
      </trkpt>
      <trkpt lat="60.114190854776" lon="21.525051793792">
        <ele>0</ele>
        <time>2017-06-17T11:08:55Z</time>
      </trkpt>
      <trkpt lat="60.114202002703" lon="21.525057493484">
        <ele>0</ele>
        <time>2017-06-17T11:08:56Z</time>
      </trkpt>
      <trkpt lat="60.114216251933" lon="21.525064618099">
        <ele>0</ele>
        <time>2017-06-17T11:08:57Z</time>
      </trkpt>
      <trkpt lat="60.114230417344" lon="21.525071491257">
        <ele>0</ele>
        <time>2017-06-17T11:08:58Z</time>
      </trkpt>
      <trkpt lat="60.114244666574" lon="21.525082220089">
        <ele>0</ele>
        <time>2017-06-17T11:08:59Z</time>
      </trkpt>
      <trkpt lat="60.114258831985" lon="21.525092362188">
        <ele>0</ele>
        <time>2017-06-17T11:09:00Z</time>
      </trkpt>
      <trkpt lat="60.114271153378" lon="21.525103845391">
        <ele>0</ele>
        <time>2017-06-17T11:09:01Z</time>
      </trkpt>
      <trkpt lat="60.114284815875" lon="21.525116082965">
        <ele>0</ele>
        <time>2017-06-17T11:09:02Z</time>
      </trkpt>
      <trkpt lat="60.114297304906" lon="21.525129996919">
        <ele>0</ele>
        <time>2017-06-17T11:09:03Z</time>
      </trkpt>
      <trkpt lat="60.1143078661" lon="21.525146090167">
        <ele>0</ele>
        <time>2017-06-17T11:09:04Z</time>
      </trkpt>
      <trkpt lat="60.114320187493" lon="21.525164362709">
        <ele>0</ele>
        <time>2017-06-17T11:09:05Z</time>
      </trkpt>
      <trkpt lat="60.114334185266" lon="21.525178025206">
        <ele>0</ele>
        <time>2017-06-17T11:09:06Z</time>
      </trkpt>
      <trkpt lat="60.114344327365" lon="21.525193866997">
        <ele>0</ele>
        <time>2017-06-17T11:09:07Z</time>
      </trkpt>
      <trkpt lat="60.114357989862" lon="21.52520618839">
        <ele>0</ele>
        <time>2017-06-17T11:09:08Z</time>
      </trkpt>
      <trkpt lat="60.114370562712" lon="21.525225969674">
        <ele>0</ele>
        <time>2017-06-17T11:09:09Z</time>
      </trkpt>
      <trkpt lat="60.114381459182" lon="21.525235441221">
        <ele>0</ele>
        <time>2017-06-17T11:09:10Z</time>
      </trkpt>
      <trkpt lat="60.114396546602" lon="21.525241643827">
        <ele>0</ele>
        <time>2017-06-17T11:09:11Z</time>
      </trkpt>
      <trkpt lat="60.114409035633" lon="21.525248684623">
        <ele>0</ele>
        <time>2017-06-17T11:09:12Z</time>
      </trkpt>
      <trkpt lat="60.114425715614" lon="21.525256395971">
        <ele>0</ele>
        <time>2017-06-17T11:09:13Z</time>
      </trkpt>
      <trkpt lat="60.114438707559" lon="21.525263269129">
        <ele>0</ele>
        <time>2017-06-17T11:09:14Z</time>
      </trkpt>
      <trkpt lat="60.114454633169" lon="21.525268549726">
        <ele>0</ele>
        <time>2017-06-17T11:09:15Z</time>
      </trkpt>
      <trkpt lat="60.114466870743" lon="21.52527324359">
        <ele>0</ele>
        <time>2017-06-17T11:09:16Z</time>
      </trkpt>
      <trkpt lat="60.114482880172" lon="21.525278440368">
        <ele>0</ele>
        <time>2017-06-17T11:09:17Z</time>
      </trkpt>
      <trkpt lat="60.11449729704" lon="21.525284559155">
        <ele>0</ele>
        <time>2017-06-17T11:09:18Z</time>
      </trkpt>
      <trkpt lat="60.114512635917" lon="21.525289755933">
        <ele>0</ele>
        <time>2017-06-17T11:09:19Z</time>
      </trkpt>
      <trkpt lat="60.114525963138" lon="21.525295623263">
        <ele>0</ele>
        <time>2017-06-17T11:09:20Z</time>
      </trkpt>
      <trkpt lat="60.114540296187" lon="21.525302999335">
        <ele>0</ele>
        <time>2017-06-17T11:09:21Z</time>
      </trkpt>
      <trkpt lat="60.114551863209" lon="21.525310291588">
        <ele>0</ele>
        <time>2017-06-17T11:09:22Z</time>
      </trkpt>
      <trkpt lat="60.114563933145" lon="21.52531850585">
        <ele>0</ele>
        <time>2017-06-17T11:09:23Z</time>
      </trkpt>
      <trkpt lat="60.114579691117" lon="21.525326803931">
        <ele>0</ele>
        <time>2017-06-17T11:09:24Z</time>
      </trkpt>
      <trkpt lat="60.114592347786" lon="21.525337532763">
        <ele>0</ele>
        <time>2017-06-17T11:09:25Z</time>
      </trkpt>
      <trkpt lat="60.114606010283" lon="21.525342561903">
        <ele>0</ele>
        <time>2017-06-17T11:09:26Z</time>
      </trkpt>
      <trkpt lat="60.11461967278" lon="21.525351698174">
        <ele>0</ele>
        <time>2017-06-17T11:09:27Z</time>
      </trkpt>
      <trkpt lat="60.114632748544" lon="21.5253562244">
        <ele>0</ele>
        <time>2017-06-17T11:09:28Z</time>
      </trkpt>
      <trkpt lat="60.114647752145" lon="21.525354715658">
        <ele>0</ele>
        <time>2017-06-17T11:09:29Z</time>
      </trkpt>
      <trkpt lat="60.114659402986" lon="21.525355218572">
        <ele>0</ele>
        <time>2017-06-17T11:09:30Z</time>
      </trkpt>
      <trkpt lat="60.114671808198" lon="21.525348848328">
        <ele>0</ele>
        <time>2017-06-17T11:09:31Z</time>
      </trkpt>
      <trkpt lat="60.114684129591" lon="21.525338119496">
        <ele>0</ele>
        <time>2017-06-17T11:09:32Z</time>
      </trkpt>
      <trkpt lat="60.114695361337" lon="21.525332335985">
        <ele>0</ele>
        <time>2017-06-17T11:09:33Z</time>
      </trkpt>
      <trkpt lat="60.114707934187" lon="21.525328899406">
        <ele>0</ele>
        <time>2017-06-17T11:09:34Z</time>
      </trkpt>
      <trkpt lat="60.114719585028" lon="21.525326971569">
        <ele>0</ele>
        <time>2017-06-17T11:09:35Z</time>
      </trkpt>
      <trkpt lat="60.11473450481" lon="21.525322361524">
        <ele>0</ele>
        <time>2017-06-17T11:09:36Z</time>
      </trkpt>
      <trkpt lat="60.11474456309" lon="21.525319008764">
        <ele>0</ele>
        <time>2017-06-17T11:09:37Z</time>
      </trkpt>
      <trkpt lat="60.114759315234" lon="21.525313309072">
        <ele>0</ele>
        <time>2017-06-17T11:09:38Z</time>
      </trkpt>
      <trkpt lat="60.114771133713" lon="21.525310291588">
        <ele>0</ele>
        <time>2017-06-17T11:09:39Z</time>
      </trkpt>
      <trkpt lat="60.114786640228" lon="21.525306603552">
        <ele>0</ele>
        <time>2017-06-17T11:09:40Z</time>
      </trkpt>
      <trkpt lat="60.114799129259" lon="21.525303669887">
        <ele>0</ele>
        <time>2017-06-17T11:09:41Z</time>
      </trkpt>
      <trkpt lat="60.114816144516" lon="21.525301993507">
        <ele>0</ele>
        <time>2017-06-17T11:09:42Z</time>
      </trkpt>
      <trkpt lat="60.114829890832" lon="21.525301993507">
        <ele>0</ele>
        <time>2017-06-17T11:09:43Z</time>
      </trkpt>
      <trkpt lat="60.114846570813" lon="21.525305430086">
        <ele>0</ele>
        <time>2017-06-17T11:09:44Z</time>
      </trkpt>
      <trkpt lat="60.114859562758" lon="21.525308531389">
        <ele>0</ele>
        <time>2017-06-17T11:09:45Z</time>
      </trkpt>
      <trkpt lat="60.114874063445" lon="21.525316578013">
        <ele>0</ele>
        <time>2017-06-17T11:09:46Z</time>
      </trkpt>
      <trkpt lat="60.114886384838" lon="21.525323870266">
        <ele>0</ele>
        <time>2017-06-17T11:09:47Z</time>
      </trkpt>
      <trkpt lat="60.11489962824" lon="21.525338370953">
        <ele>0</ele>
        <time>2017-06-17T11:09:48Z</time>
      </trkpt>
      <trkpt lat="60.114910608529" lon="21.525350273251">
        <ele>0</ele>
        <time>2017-06-17T11:09:49Z</time>
      </trkpt>
      <trkpt lat="60.11492393575" lon="21.52536544449">
        <ele>0</ele>
        <time>2017-06-17T11:09:50Z</time>
      </trkpt>
      <trkpt lat="60.11493734679" lon="21.525377682064">
        <ele>0</ele>
        <time>2017-06-17T11:09:51Z</time>
      </trkpt>
      <trkpt lat="60.114947656527" lon="21.525387488887">
        <ele>0</ele>
        <time>2017-06-17T11:09:52Z</time>
      </trkpt>
      <trkpt lat="60.114962995404" lon="21.525406180524">
        <ele>0</ele>
        <time>2017-06-17T11:09:53Z</time>
      </trkpt>
      <trkpt lat="60.114973724236" lon="21.525419759202">
        <ele>0</ele>
        <time>2017-06-17T11:09:54Z</time>
      </trkpt>
      <trkpt lat="60.11498763819" lon="21.525438283201">
        <ele>0</ele>
        <time>2017-06-17T11:09:55Z</time>
      </trkpt>
      <trkpt lat="60.114997277375" lon="21.52545261625">
        <ele>0</ele>
        <time>2017-06-17T11:09:56Z</time>
      </trkpt>
      <trkpt lat="60.115007419474" lon="21.525473906276">
        <ele>0</ele>
        <time>2017-06-17T11:09:57Z</time>
      </trkpt>
      <trkpt lat="60.11501781303" lon="21.525491508266">
        <ele>0</ele>
        <time>2017-06-17T11:09:58Z</time>
      </trkpt>
      <trkpt lat="60.115030553518" lon="21.525513385025">
        <ele>0</ele>
        <time>2017-06-17T11:09:59Z</time>
      </trkpt>
      <trkpt lat="60.115038851599" lon="21.5255322443">
        <ele>0</ele>
        <time>2017-06-17T11:10:00Z</time>
      </trkpt>
      <trkpt lat="60.115049328974" lon="21.525551774127">
        <ele>0</ele>
        <time>2017-06-17T11:10:01Z</time>
      </trkpt>
      <trkpt lat="60.115059387254" lon="21.525567615918">
        <ele>0</ele>
        <time>2017-06-17T11:10:02Z</time>
      </trkpt>
      <trkpt lat="60.115072546837" lon="21.525582451881">
        <ele>0</ele>
        <time>2017-06-17T11:10:03Z</time>
      </trkpt>
      <trkpt lat="60.115081180194" lon="21.525594857093">
        <ele>0</ele>
        <time>2017-06-17T11:10:04Z</time>
      </trkpt>
      <trkpt lat="60.115095094148" lon="21.52561103416">
        <ele>0</ele>
        <time>2017-06-17T11:10:05Z</time>
      </trkpt>
      <trkpt lat="60.115104649514" lon="21.525623690829">
        <ele>0</ele>
        <time>2017-06-17T11:10:06Z</time>
      </trkpt>
      <trkpt lat="60.115117390002" lon="21.525638945887">
        <ele>0</ele>
        <time>2017-06-17T11:10:07Z</time>
      </trkpt>
      <trkpt lat="60.115128789386" lon="21.525652356927">
        <ele>0</ele>
        <time>2017-06-17T11:10:08Z</time>
      </trkpt>
      <trkpt lat="60.115141697512" lon="21.525669120727">
        <ele>0</ele>
        <time>2017-06-17T11:10:09Z</time>
      </trkpt>
      <trkpt lat="60.115150917602" lon="21.525681358301">
        <ele>0</ele>
        <time>2017-06-17T11:10:10Z</time>
      </trkpt>
      <trkpt lat="60.115160724425" lon="21.525700552852">
        <ele>0</ele>
        <time>2017-06-17T11:10:11Z</time>
      </trkpt>
      <trkpt lat="60.115172291447" lon="21.525718993032">
        <ele>0</ele>
        <time>2017-06-17T11:10:12Z</time>
      </trkpt>
      <trkpt lat="60.115183104098" lon="21.525732990805">
        <ele>0</ele>
        <time>2017-06-17T11:10:13Z</time>
      </trkpt>
      <trkpt lat="60.115190228713" lon="21.525752269175">
        <ele>0</ele>
        <time>2017-06-17T11:10:14Z</time>
      </trkpt>
      <trkpt lat="60.115199364984" lon="21.525767859509">
        <ele>0</ele>
        <time>2017-06-17T11:10:15Z</time>
      </trkpt>
      <trkpt lat="60.115208501255" lon="21.525786132051">
        <ele>0</ele>
        <time>2017-06-17T11:10:16Z</time>
      </trkpt>
      <trkpt lat="60.115215542051" lon="21.525804320774">
        <ele>0</ele>
        <time>2017-06-17T11:10:17Z</time>
      </trkpt>
      <trkpt lat="60.115224343046" lon="21.525825275524">
        <ele>0</ele>
        <time>2017-06-17T11:10:18Z</time>
      </trkpt>
      <trkpt lat="60.115233898412" lon="21.525843631885">
        <ele>0</ele>
        <time>2017-06-17T11:10:19Z</time>
      </trkpt>
      <trkpt lat="60.115243369959" lon="21.52585997659">
        <ele>0</ele>
        <time>2017-06-17T11:10:20Z</time>
      </trkpt>
      <trkpt lat="60.115252087135" lon="21.525875734562">
        <ele>0</ele>
        <time>2017-06-17T11:10:21Z</time>
      </trkpt>
      <trkpt lat="60.115261223406" lon="21.52589098962">
        <ele>0</ele>
        <time>2017-06-17T11:10:22Z</time>
      </trkpt>
      <trkpt lat="60.115272119876" lon="21.525910016533">
        <ele>0</ele>
        <time>2017-06-17T11:10:23Z</time>
      </trkpt>
      <trkpt lat="60.115284441269" lon="21.525928037618">
        <ele>0</ele>
        <time>2017-06-17T11:10:24Z</time>
      </trkpt>
      <trkpt lat="60.115294080454" lon="21.525944549961">
        <ele>0</ele>
        <time>2017-06-17T11:10:25Z</time>
      </trkpt>
      <trkpt lat="60.115304222553" lon="21.525960224114">
        <ele>0</ele>
        <time>2017-06-17T11:10:26Z</time>
      </trkpt>
      <trkpt lat="60.115314197014" lon="21.525979502484">
        <ele>0</ele>
        <time>2017-06-17T11:10:27Z</time>
      </trkpt>
      <trkpt lat="60.115323500923" lon="21.52599743975">
        <ele>0</ele>
        <time>2017-06-17T11:10:28Z</time>
      </trkpt>
      <trkpt lat="60.115335403221" lon="21.526023004545">
        <ele>0</ele>
        <time>2017-06-17T11:10:29Z</time>
      </trkpt>
      <trkpt lat="60.115343282207" lon="21.526041696182">
        <ele>0</ele>
        <time>2017-06-17T11:10:30Z</time>
      </trkpt>
      <trkpt lat="60.115352753754" lon="21.52606198038">
        <ele>0</ele>
        <time>2017-06-17T11:10:31Z</time>
      </trkpt>
      <trkpt lat="60.115363063491" lon="21.526079247094">
        <ele>0</ele>
        <time>2017-06-17T11:10:32Z</time>
      </trkpt>
      <trkpt lat="60.115373373228" lon="21.526095843256">
        <ele>0</ele>
        <time>2017-06-17T11:10:33Z</time>
      </trkpt>
      <trkpt lat="60.115385359345" lon="21.526114031979">
        <ele>0</ele>
        <time>2017-06-17T11:10:34Z</time>
      </trkpt>
      <trkpt lat="60.115395249987" lon="21.526131801607">
        <ele>0</ele>
        <time>2017-06-17T11:10:35Z</time>
      </trkpt>
      <trkpt lat="60.115404972991" lon="21.526146134656">
        <ele>0</ele>
        <time>2017-06-17T11:10:36Z</time>
      </trkpt>
      <trkpt lat="60.115416288556" lon="21.526164574836">
        <ele>0</ele>
        <time>2017-06-17T11:10:37Z</time>
      </trkpt>
      <trkpt lat="60.115429783415" lon="21.526183853206">
        <ele>0</ele>
        <time>2017-06-17T11:10:38Z</time>
      </trkpt>
      <trkpt lat="60.115439506419" lon="21.526200784644">
        <ele>0</ele>
        <time>2017-06-17T11:10:39Z</time>
      </trkpt>
      <trkpt lat="60.115452330726" lon="21.526219308643">
        <ele>0</ele>
        <time>2017-06-17T11:10:40Z</time>
      </trkpt>
      <trkpt lat="60.115462137549" lon="21.526236240081">
        <ele>0</ele>
        <time>2017-06-17T11:10:41Z</time>
      </trkpt>
      <trkpt lat="60.115474207485" lon="21.52625560227">
        <ele>0</ele>
        <time>2017-06-17T11:10:42Z</time>
      </trkpt>
      <trkpt lat="60.115485355412" lon="21.52627488064">
        <ele>0</ele>
        <time>2017-06-17T11:10:43Z</time>
      </trkpt>
      <trkpt lat="60.115497425348" lon="21.526294494286">
        <ele>0</ele>
        <time>2017-06-17T11:10:44Z</time>
      </trkpt>
      <trkpt lat="60.115507818904" lon="21.526314107932">
        <ele>0</ele>
        <time>2017-06-17T11:10:45Z</time>
      </trkpt>
      <trkpt lat="60.115518883012" lon="21.526332799569">
        <ele>0</ele>
        <time>2017-06-17T11:10:46Z</time>
      </trkpt>
      <trkpt lat="60.115530030939" lon="21.526353167586">
        <ele>0</ele>
        <time>2017-06-17T11:10:47Z</time>
      </trkpt>
      <trkpt lat="60.115540089219" lon="21.526374122336">
        <ele>0</ele>
        <time>2017-06-17T11:10:48Z</time>
      </trkpt>
      <trkpt lat="60.115552326793" lon="21.526397926932">
        <ele>0</ele>
        <time>2017-06-17T11:10:49Z</time>
      </trkpt>
      <trkpt lat="60.115562133616" lon="21.526418378768">
        <ele>0</ele>
        <time>2017-06-17T11:10:50Z</time>
      </trkpt>
      <trkpt lat="60.115573952095" lon="21.52643497493">
        <ele>0</ele>
        <time>2017-06-17T11:10:51Z</time>
      </trkpt>
      <trkpt lat="60.115583004547" lon="21.526454588576">
        <ele>0</ele>
        <time>2017-06-17T11:10:52Z</time>
      </trkpt>
      <trkpt lat="60.115595409759" lon="21.526473196394">
        <ele>0</ele>
        <time>2017-06-17T11:10:53Z</time>
      </trkpt>
      <trkpt lat="60.115608317885" lon="21.526487277986">
        <ele>0</ele>
        <time>2017-06-17T11:10:54Z</time>
      </trkpt>
      <trkpt lat="60.11561879526" lon="21.526499850836">
        <ele>0</ele>
        <time>2017-06-17T11:10:55Z</time>
      </trkpt>
      <trkpt lat="60.115630194644" lon="21.526511417858">
        <ele>0</ele>
        <time>2017-06-17T11:10:56Z</time>
      </trkpt>
      <trkpt lat="60.115641258752" lon="21.526523068699">
        <ele>0</ele>
        <time>2017-06-17T11:10:57Z</time>
      </trkpt>
      <trkpt lat="60.115654334516" lon="21.526533462255">
        <ele>0</ele>
        <time>2017-06-17T11:10:58Z</time>
      </trkpt>
      <trkpt lat="60.115665901538" lon="21.526544442544">
        <ele>0</ele>
        <time>2017-06-17T11:10:59Z</time>
      </trkpt>
      <trkpt lat="60.115678055293" lon="21.526556680118">
        <ele>0</ele>
        <time>2017-06-17T11:11:00Z</time>
      </trkpt>
      <trkpt lat="60.115690460505" lon="21.52656740895">
        <ele>0</ele>
        <time>2017-06-17T11:11:01Z</time>
      </trkpt>
      <trkpt lat="60.115701524613" lon="21.526576964316">
        <ele>0</ele>
        <time>2017-06-17T11:11:02Z</time>
      </trkpt>
      <trkpt lat="60.115714013644" lon="21.526587441691">
        <ele>0</ele>
        <time>2017-06-17T11:11:03Z</time>
      </trkpt>
      <trkpt lat="60.115723736648" lon="21.526594650125">
        <ele>0</ele>
        <time>2017-06-17T11:11:04Z</time>
      </trkpt>
      <trkpt lat="60.11573530367" lon="21.526604037853">
        <ele>0</ele>
        <time>2017-06-17T11:11:05Z</time>
      </trkpt>
      <trkpt lat="60.115745781045" lon="21.526613174124">
        <ele>0</ele>
        <time>2017-06-17T11:11:06Z</time>
      </trkpt>
      <trkpt lat="60.11575542023" lon="21.52662272949">
        <ele>0</ele>
        <time>2017-06-17T11:11:07Z</time>
      </trkpt>
      <trkpt lat="60.115766400519" lon="21.52663278777">
        <ele>0</ele>
        <time>2017-06-17T11:11:08Z</time>
      </trkpt>
    </trkseg>
  </trk>
</gpx>